GEFSMA_prec_meanprecacc_006.txt.gz
Total_Precipitation_Accumulation
0.00 0.00 0.00 0.00 0.00 0.00 0.00 0.00 0.00 0.00 0.00 0.00 0.00 0.00 0.01 0.04 0.04 0.02 0.02 0.03 0.02 0.04 0.06 0.05 0.07 0.04 0.02 0.01 0.01 0.00 0.01 0.01 0.01 0.01 0.01 0.01 0.02 0.04 0.06 0.05 0.03 0.04 0.05
0.00 0.00 0.00 0.00 0.00 0.00 0.00 0.00 0.00 0.00 0.00 0.01 0.01 0.02 0.03 0.05 0.04 0.04 0.05 0.04 0.02 0.02 0.01 0.02 0.03 0.04 0.04 0.04 0.02 0.01 0.01 0.02 0.02 0.01 0.01 0.00 0.01 0.01 0.02 0.02 0.01 0.01 0.01
0.02 0.03 0.03 0.02 0.01 0.01 0.01 0.01 0.01 0.01 0.03 0.06 0.08 0.13 0.12 0.08 0.05 0.04 0.05 0.05 0.03 0.03 0.03 0.03 0.04 0.04 0.07 0.09 0.07 0.04 0.03 0.03 0.02 0.01 0.01 0.01 0.01 0.01 0.01 0.01 0.00 0.00 0.00
0.10 0.13 0.14 0.10 0.10 0.10 0.07 0.05 0.05 0.06 0.12 0.19 0.22 0.20 0.14 0.08 0.04 0.02 0.02 0.02 0.01 0.01 0.03 0.08 0.08 0.05 0.10 0.12 0.11 0.11 0.09 0.07 0.03 0.01 0.01 0.01 0.00 0.00 0.01 0.01 0.00 0.00 0.00
0.20 0.21 0.14 0.10 0.14 0.13 0.10 0.10 0.13 0.17 0.19 0.20 0.20 0.14 0.09 0.04 0.02 0.03 0.03 0.01 0.01 0.02 0.04 0.11 0.10 0.08 0.09 0.14 0.17 0.19 0.18 0.14 0.09 0.02 0.00 0.00 0.00 0.00 0.01 0.00 0.00 0.00 0.01
0.16 0.19 0.10 0.11 0.22 0.22 0.23 0.28 0.23 0.16 0.11 0.11 0.10 0.05 0.03 0.02 0.02 0.04 0.03 0.01 0.01 0.02 0.02 0.03 0.04 0.06 0.09 0.14 0.19 0.22 0.21 0.17 0.10 0.04 0.01 0.01 0.01 0.00 0.00 0.00 0.01 0.01 0.01
0.16 0.26 0.18 0.22 0.28 0.28 0.26 0.23 0.16 0.09 0.05 0.08 0.06 0.02 0.01 0.01 0.03 0.03 0.02 0.01 0.01 0.02 0.02 0.02 0.02 0.02 0.01 0.05 0.12 0.16 0.20 0.20 0.13 0.08 0.06 0.05 0.02 0.01 0.00 0.01 0.02 0.02 0.01
0.12 0.22 0.18 0.14 0.17 0.18 0.13 0.11 0.13 0.12 0.09 0.12 0.11 0.08 0.04 0.03 0.01 0.01 0.02 0.02 0.02 0.03 0.02 0.02 0.03 0.06 0.08 0.10 0.11 0.10 0.13 0.15 0.16 0.16 0.16 0.12 0.05 0.02 0.04 0.06 0.06 0.03 0.02
0.04 0.07 0.09 0.10 0.15 0.22 0.21 0.20 0.21 0.20 0.16 0.15 0.16 0.13 0.09 0.04 0.03 0.03 0.06 0.06 0.07 0.09 0.08 0.05 0.04 0.04 0.07 0.10 0.11 0.07 0.10 0.10 0.23 0.31 0.23 0.14 0.06 0.04 0.07 0.10 0.09 0.06 0.09
0.03 0.04 0.05 0.05 0.10 0.16 0.17 0.14 0.15 0.15 0.14 0.10 0.11 0.11 0.13 0.10 0.09 0.06 0.07 0.11 0.11 0.13 0.12 0.07 0.05 0.05 0.03 0.04 0.10 0.15 0.14 0.13 0.19 0.16 0.17 0.20 0.15 0.10 0.06 0.06 0.08 0.12 0.13
0.03 0.04 0.04 0.04 0.06 0.08 0.09 0.07 0.07 0.07 0.06 0.04 0.05 0.07 0.14 0.17 0.19 0.15 0.11 0.11 0.08 0.07 0.08 0.05 0.05 0.06 0.03 0.05 0.09 0.17 0.22 0.21 0.12 0.06 0.16 0.27 0.26 0.18 0.10 0.06 0.07 0.11 0.17
0.04 0.06 0.07 0.07 0.09 0.09 0.08 0.08 0.07 0.06 0.04 0.03 0.03 0.05 0.09 0.15 0.20 0.22 0.18 0.13 0.08 0.07 0.05 0.05 0.10 0.12 0.08 0.07 0.06 0.07 0.08 0.07 0.08 0.10 0.16 0.18 0.16 0.14 0.16 0.20 0.20 0.21 0.24
0.03 0.06 0.11 0.12 0.12 0.11 0.10 0.10 0.10 0.08 0.06 0.04 0.05 0.05 0.07 0.13 0.18 0.18 0.16 0.11 0.08 0.07 0.10 0.09 0.13 0.13 0.08 0.06 0.05 0.02 0.01 0.01 0.02 0.06 0.16 0.28 0.32 0.31 0.26 0.22 0.22 0.23 0.24
0.05 0.08 0.09 0.09 0.09 0.09 0.08 0.08 0.05 0.05 0.07 0.10 0.11 0.09 0.09 0.13 0.18 0.14 0.10 0.07 0.06 0.09 0.15 0.11 0.09 0.05 0.02 0.02 0.01 0.00 0.00 0.00 0.00 0.01 0.02 0.03 0.06 0.09 0.13 0.14 0.14 0.15 0.16
0.07 0.08 0.07 0.07 0.08 0.07 0.06 0.05 0.05 0.07 0.10 0.10 0.12 0.15 0.15 0.15 0.15 0.12 0.07 0.04 0.05 0.05 0.07 0.04 0.01 0.01 0.01 0.01 0.00 0.00 0.00 0.00 0.00 0.00 0.00 0.00 0.00 0.01 0.01 0.02 0.03 0.04 0.05
0.06 0.09 0.12 0.12 0.11 0.09 0.12 0.16 0.14 0.10 0.15 0.19 0.22 0.24 0.21 0.21 0.18 0.11 0.05 0.04 0.02 0.01 0.03 0.01 0.00 0.00 0.00 0.00 0.00 0.00 0.00 0.00 0.00 0.00 0.00 0.00 0.01 0.02 0.03 0.02 0.01 0.01 0.01
0.06 0.10 0.15 0.17 0.17 0.21 0.34 0.45 0.42 0.30 0.31 0.32 0.30 0.29 0.27 0.24 0.15 0.06 0.02 0.02 0.01 0.00 0.00 0.00 0.00 0.00 0.00 0.00 0.00 0.00 0.00 0.00 0.00 0.00 0.00 0.00 0.01 0.02 0.02 0.02 0.01 0.01 0.02
0.04 0.04 0.07 0.10 0.13 0.17 0.26 0.48 0.59 0.55 0.47 0.33 0.27 0.27 0.21 0.11 0.04 0.02 0.01 0.00 0.00 0.00 0.00 0.00 0.00 0.00 0.00 0.00 0.00 0.00 0.00 0.01 0.01 0.02 0.02 0.01 0.01 0.01 0.00 0.01 0.01 0.01 0.01
0.03 0.03 0.05 0.09 0.14 0.15 0.17 0.29 0.40 0.40 0.31 0.21 0.18 0.15 0.09 0.04 0.01 0.01 0.00 0.00 0.00 0.00 0.00 0.00 0.00 0.00 0.00 0.00 0.00 0.00 0.00 0.00 0.01 0.01 0.04 0.04 0.04 0.01 0.00 0.00 0.00 0.01 0.01
0.02 0.04 0.08 0.12 0.13 0.10 0.09 0.15 0.20 0.18 0.13 0.07 0.05 0.04 0.02 0.01 0.00 0.00 0.00 0.00 0.00 0.00 0.00 0.00 0.00 0.00 0.00 0.00 0.00 0.00 0.00 0.00 0.00 0.00 0.03 0.08 0.07 0.03 0.01 0.00 0.00 0.00 0.01
0.00 0.03 0.08 0.10 0.08 0.05 0.09 0.14 0.13 0.08 0.04 0.02 0.01 0.00 0.00 0.00 0.00 0.00 0.00 0.00 0.00 0.00 0.00 0.00 0.00 0.00 0.00 0.00 0.00 0.00 0.00 0.00 0.00 0.00 0.01 0.02 0.02 0.01 0.00 0.00 0.00 0.00 0.00
0.00 0.01 0.02 0.04 0.04 0.03 0.06 0.08 0.05 0.03 0.01 0.00 0.00 0.00 0.00 0.00 0.00 0.00 0.00 0.00 0.00 0.00 0.00 0.00 0.00 0.00 0.00 0.00 0.00 0.00 0.00 0.00 0.00 0.00 0.00 0.00 0.00 0.00 0.00 0.00 0.00 0.00 0.00
0.00 0.00 0.00 0.00 0.00 0.00 0.01 0.01 0.01 0.00 0.00 0.00 0.00 0.00 0.00 0.00 0.00 0.00 0.00 0.00 0.00 0.00 0.00 0.00 0.00 0.00 0.00 0.00 0.00 0.00 0.00 0.00 0.00 0.00 0.00 0.00 0.00 0.00 0.00 0.00 0.00 0.00 0.00
0.00 0.00 0.00 0.00 0.00 0.00 0.00 0.00 0.00 0.00 0.00 0.00 0.00 0.00 0.00 0.00 0.00 0.00 0.00 0.00 0.00 0.00 0.00 0.00 0.00 0.00 0.00 0.00 0.00 0.00 0.00 0.00 0.00 0.00 0.00 0.00 0.00 0.00 0.01 0.01 0.00 0.00 0.00
0.00 0.00 0.00 0.00 0.00 0.00 0.00 0.00 0.00 0.00 0.00 0.00 0.00 0.00 0.00 0.00 0.00 0.00 0.00 0.00 0.00 0.00 0.00 0.00 0.00 0.00 0.00 0.00 0.00 0.00 0.00 0.00 0.00 0.00 0.00 0.00 0.00 0.00 0.00 0.01 0.02 0.01 0.00
0.00 0.00 0.00 0.00 0.00 0.00 0.00 0.00 0.00 0.00 0.00 0.00 0.00 0.00 0.00 0.00 0.00 0.00 0.00 0.00 0.00 0.00 0.00 0.00 0.00 0.00 0.00 0.00 0.00 0.00 0.00 0.00 0.00 0.01 0.00 0.00 0.00 0.00 0.00 0.00 0.01 0.02 0.01

GEFSMA_prec_meanprecacc_012.txt.gz
Total_Precipitation_Accumulation
0.03 0.04 0.02 0.02 0.02 0.05 0.10 0.12 0.08 0.04 0.04 0.03 0.03 0.02 0.02 0.04 0.04 0.02 0.03 0.03 0.04 0.08 0.11 0.11 0.13 0.09 0.06 0.05 0.06 0.07 0.06 0.05 0.05 0.03 0.03 0.04 0.05 0.07 0.11 0.12 0.12 0.14 0.11
0.12 0.12 0.08 0.07 0.05 0.09 0.15 0.19 0.17 0.13 0.07 0.07 0.06 0.06 0.05 0.07 0.05 0.05 0.07 0.05 0.03 0.03 0.03 0.06 0.09 0.10 0.10 0.09 0.06 0.05 0.04 0.05 0.05 0.03 0.02 0.01 0.02 0.03 0.05 0.07 0.07 0.09 0.07
0.30 0.30 0.26 0.18 0.16 0.24 0.26 0.21 0.19 0.22 0.17 0.19 0.16 0.22 0.20 0.15 0.09 0.06 0.08 0.07 0.05 0.04 0.05 0.06 0.11 0.13 0.16 0.18 0.14 0.11 0.09 0.07 0.04 0.02 0.02 0.01 0.01 0.01 0.01 0.02 0.03 0.04 0.05
0.46 0.51 0.38 0.24 0.31 0.45 0.41 0.30 0.31 0.33 0.30 0.32 0.31 0.31 0.22 0.14 0.08 0.04 0.04 0.03 0.03 0.02 0.03 0.11 0.15 0.17 0.25 0.25 0.24 0.25 0.22 0.17 0.09 0.03 0.02 0.01 0.01 0.01 0.01 0.01 0.02 0.05 0.05
0.43 0.45 0.24 0.16 0.33 0.42 0.31 0.31 0.35 0.39 0.39 0.37 0.35 0.24 0.15 0.08 0.05 0.05 0.04 0.02 0.02 0.03 0.04 0.11 0.13 0.19 0.29 0.33 0.32 0.33 0.33 0.29 0.22 0.10 0.05 0.02 0.02 0.01 0.01 0.01 0.03 0.06 0.06
0.24 0.32 0.19 0.17 0.41 0.46 0.39 0.47 0.48 0.43 0.34 0.31 0.30 0.11 0.06 0.05 0.04 0.05 0.04 0.03 0.03 0.02 0.03 0.05 0.07 0.12 0.23 0.32 0.35 0.35 0.33 0.29 0.21 0.14 0.10 0.06 0.04 0.02 0.01 0.01 0.03 0.04 0.05
0.18 0.30 0.21 0.25 0.39 0.42 0.35 0.37 0.39 0.31 0.19 0.30 0.30 0.11 0.03 0.02 0.03 0.03 0.02 0.02 0.02 0.02 0.03 0.04 0.07 0.08 0.07 0.13 0.24 0.28 0.34 0.33 0.23 0.16 0.14 0.12 0.08 0.04 0.03 0.03 0.03 0.02 0.02
0.13 0.24 0.20 0.15 0.20 0.22 0.17 0.18 0.27 0.28 0.23 0.34 0.37 0.25 0.08 0.04 0.02 0.02 0.03 0.02 0.02 0.03 0.04 0.04 0.08 0.13 0.15 0.17 0.17 0.16 0.24 0.29 0.28 0.27 0.26 0.21 0.13 0.08 0.08 0.10 0.08 0.04 0.03
0.04 0.07 0.09 0.11 0.16 0.23 0.22 0.22 0.26 0.28 0.21 0.21 0.28 0.29 0.18 0.06 0.04 0.05 0.07 0.06 0.07 0.11 0.13 0.13 0.16 0.17 0.20 0.24 0.22 0.15 0.17 0.17 0.32 0.42 0.34 0.23 0.11 0.08 0.11 0.17 0.15 0.08 0.09
0.03 0.04 0.05 0.05 0.10 0.17 0.17 0.15 0.16 0.18 0.16 0.12 0.15 0.17 0.20 0.16 0.12 0.07 0.08 0.11 0.13 0.16 0.20 0.21 0.22 0.24 0.24 0.23 0.26 0.28 0.23 0.17 0.22 0.23 0.25 0.27 0.21 0.14 0.11 0.16 0.23 0.20 0.16
0.03 0.04 0.04 0.04 0.06 0.08 0.09 0.08 0.08 0.09 0.08 0.06 0.07 0.10 0.19 0.23 0.24 0.18 0.12 0.11 0.09 0.11 0.16 0.18 0.22 0.25 0.23 0.23 0.27 0.31 0.33 0.28 0.15 0.09 0.19 0.31 0.31 0.25 0.18 0.18 0.24 0.28 0.30
0.04 0.06 0.07 0.07 0.09 0.09 0.09 0.08 0.09 0.07 0.06 0.05 0.05 0.08 0.13 0.20 0.24 0.26 0.21 0.15 0.11 0.11 0.15 0.19 0.28 0.31 0.27 0.25 0.21 0.15 0.13 0.11 0.10 0.11 0.17 0.20 0.19 0.19 0.22 0.29 0.37 0.45 0.51
0.03 0.06 0.11 0.12 0.12 0.11 0.10 0.11 0.11 0.09 0.08 0.07 0.07 0.08 0.11 0.17 0.22 0.22 0.20 0.15 0.12 0.13 0.20 0.23 0.29 0.29 0.24 0.19 0.15 0.07 0.03 0.02 0.03 0.06 0.16 0.28 0.33 0.35 0.34 0.33 0.36 0.43 0.49
0.05 0.08 0.09 0.09 0.09 0.09 0.09 0.10 0.08 0.08 0.11 0.14 0.16 0.15 0.15 0.20 0.27 0.24 0.20 0.17 0.14 0.19 0.30 0.29 0.24 0.19 0.16 0.14 0.12 0.06 0.02 0.00 0.00 0.01 0.02 0.03 0.06 0.10 0.16 0.20 0.25 0.32 0.38
0.07 0.08 0.07 0.07 0.08 0.08 0.08 0.09 0.10 0.12 0.15 0.16 0.20 0.26 0.26 0.27 0.28 0.26 0.21 0.18 0.18 0.20 0.24 0.22 0.17 0.12 0.12 0.10 0.08 0.04 0.01 0.00 0.00 0.00 0.00 0.00 0.00 0.01 0.01 0.02 0.05 0.08 0.11
0.06 0.09 0.12 0.12 0.11 0.10 0.14 0.19 0.18 0.14 0.20 0.26 0.33 0.38 0.36 0.37 0.34 0.27 0.22 0.18 0.12 0.13 0.17 0.13 0.09 0.07 0.06 0.04 0.03 0.01 0.00 0.00 0.00 0.00 0.00 0.00 0.01 0.03 0.03 0.02 0.01 0.02 0.02
0.07 0.11 0.15 0.17 0.18 0.22 0.36 0.48 0.46 0.36 0.39 0.43 0.46 0.51 0.50 0.46 0.39 0.27 0.18 0.13 0.08 0.06 0.09 0.06 0.02 0.02 0.02 0.01 0.01 0.00 0.00 0.00 0.00 0.01 0.01 0.00 0.01 0.02 0.02 0.02 0.01 0.01 0.02
0.04 0.05 0.07 0.11 0.15 0.19 0.29 0.55 0.69 0.68 0.63 0.52 0.49 0.57 0.57 0.47 0.34 0.23 0.17 0.12 0.07 0.04 0.03 0.02 0.01 0.00 0.00 0.00 0.00 0.00 0.00 0.01 0.01 0.02 0.02 0.01 0.01 0.01 0.00 0.01 0.01 0.01 0.01
0.03 0.03 0.05 0.10 0.16 0.17 0.21 0.38 0.57 0.64 0.62 0.54 0.52 0.49 0.43 0.36 0.29 0.20 0.13 0.08 0.05 0.02 0.01 0.00 0.00 0.00 0.00 0.00 0.00 0.00 0.00 0.01 0.01 0.01 0.04 0.04 0.04 0.01 0.00 0.00 0.00 0.01 0.01
0.02 0.04 0.08 0.13 0.15 0.13 0.15 0.27 0.39 0.47 0.47 0.44 0.41 0.34 0.26 0.20 0.19 0.15 0.09 0.05 0.02 0.01 0.00 0.00 0.00 0.00 0.00 0.00 0.00 0.00 0.00 0.00 0.00 0.00 0.03 0.08 0.08 0.03 0.01 0.00 0.00 0.00 0.01
0.00 0.03 0.08 0.11 0.09 0.08 0.16 0.27 0.28 0.25 0.26 0.26 0.24 0.18 0.13 0.09 0.08 0.06 0.04 0.02 0.01 0.01 0.00 0.00 0.00 0.00 0.00 0.00 0.00 0.00 0.00 0.00 0.00 0.00 0.01 0.02 0.02 0.01 0.00 0.00 0.00 0.00 0.01
0.00 0.01 0.02 0.05 0.04 0.05 0.13 0.18 0.15 0.12 0.10 0.09 0.09 0.07 0.05 0.03 0.02 0.01 0.00 0.00 0.00 0.00 0.00 0.00 0.00 0.00 0.00 0.00 0.00 0.00 0.00 0.00 0.00 0.00 0.00 0.00 0.00 0.00 0.00 0.00 0.00 0.00 0.00
0.00 0.00 0.00 0.00 0.01 0.02 0.03 0.05 0.04 0.03 0.02 0.02 0.02 0.02 0.01 0.01 0.00 0.00 0.00 0.00 0.00 0.00 0.00 0.00 0.00 0.00 0.00 0.00 0.00 0.00 0.00 0.00 0.00 0.00 0.00 0.00 0.00 0.00 0.00 0.00 0.00 0.00 0.00
0.00 0.00 0.00 0.00 0.00 0.00 0.00 0.00 0.01 0.01 0.00 0.00 0.00 0.00 0.00 0.00 0.00 0.00 0.00 0.00 0.00 0.00 0.00 0.00 0.00 0.00 0.00 0.00 0.00 0.00 0.00 0.00 0.00 0.00 0.00 0.00 0.00 0.00 0.01 0.01 0.00 0.00 0.00
0.01 0.00 0.00 0.00 0.00 0.00 0.00 0.00 0.00 0.00 0.00 0.00 0.00 0.00 0.00 0.00 0.00 0.00 0.00 0.00 0.00 0.00 0.00 0.00 0.00 0.00 0.00 0.00 0.00 0.00 0.00 0.00 0.00 0.00 0.00 0.00 0.00 0.00 0.00 0.01 0.02 0.01 0.00
0.03 0.01 0.00 0.00 0.00 0.00 0.00 0.00 0.00 0.00 0.00 0.00 0.00 0.00 0.00 0.00 0.00 0.00 0.00 0.00 0.00 0.00 0.00 0.00 0.00 0.00 0.00 0.00 0.00 0.00 0.00 0.00 0.00 0.01 0.00 0.00 0.00 0.00 0.00 0.00 0.01 0.02 0.01

GEFSMA_prec_meanprecacc_018.txt.gz
Total_Precipitation_Accumulation
0.11 0.13 0.08 0.06 0.05 0.09 0.16 0.22 0.19 0.15 0.16 0.14 0.10 0.08 0.08 0.11 0.10 0.07 0.04 0.04 0.05 0.12 0.17 0.19 0.18 0.15 0.14 0.13 0.14 0.14 0.13 0.14 0.14 0.12 0.11 0.10 0.08 0.08 0.13 0.17 0.19 0.20 0.15
0.28 0.26 0.21 0.18 0.14 0.21 0.31 0.36 0.32 0.28 0.20 0.21 0.15 0.12 0.11 0.13 0.12 0.12 0.09 0.06 0.04 0.04 0.07 0.12 0.16 0.18 0.18 0.18 0.16 0.12 0.09 0.10 0.10 0.09 0.09 0.08 0.08 0.07 0.10 0.16 0.19 0.16 0.10
0.65 0.62 0.52 0.34 0.30 0.43 0.47 0.40 0.35 0.42 0.31 0.30 0.24 0.30 0.28 0.24 0.15 0.11 0.12 0.09 0.05 0.04 0.05 0.07 0.15 0.21 0.26 0.28 0.25 0.20 0.15 0.11 0.07 0.05 0.06 0.07 0.06 0.06 0.06 0.08 0.12 0.11 0.08
0.83 0.89 0.68 0.43 0.54 0.70 0.65 0.53 0.50 0.54 0.44 0.46 0.43 0.41 0.33 0.25 0.13 0.08 0.06 0.04 0.04 0.02 0.03 0.11 0.16 0.19 0.30 0.36 0.35 0.35 0.29 0.22 0.12 0.05 0.04 0.05 0.04 0.03 0.03 0.03 0.05 0.07 0.06
0.53 0.57 0.34 0.26 0.48 0.57 0.48 0.46 0.52 0.57 0.54 0.57 0.57 0.36 0.22 0.13 0.08 0.07 0.05 0.02 0.03 0.03 0.04 0.12 0.13 0.19 0.30 0.37 0.41 0.42 0.41 0.35 0.26 0.13 0.07 0.04 0.03 0.03 0.02 0.01 0.03 0.06 0.07
0.25 0.33 0.20 0.18 0.44 0.50 0.43 0.53 0.55 0.50 0.41 0.46 0.43 0.16 0.10 0.08 0.07 0.06 0.05 0.03 0.03 0.02 0.03 0.05 0.07 0.12 0.23 0.32 0.37 0.38 0.39 0.35 0.26 0.17 0.12 0.08 0.06 0.04 0.02 0.02 0.04 0.05 0.05
0.18 0.30 0.21 0.25 0.40 0.42 0.36 0.39 0.41 0.34 0.22 0.36 0.39 0.16 0.06 0.04 0.05 0.04 0.03 0.02 0.02 0.02 0.03 0.04 0.07 0.08 0.07 0.13 0.24 0.29 0.36 0.37 0.27 0.19 0.15 0.13 0.10 0.07 0.06 0.06 0.05 0.03 0.03
0.13 0.24 0.20 0.15 0.21 0.23 0.18 0.18 0.28 0.29 0.24 0.37 0.42 0.30 0.11 0.05 0.03 0.02 0.03 0.02 0.02 0.03 0.04 0.04 0.09 0.13 0.15 0.17 0.18 0.17 0.26 0.31 0.32 0.31 0.29 0.23 0.15 0.10 0.11 0.14 0.11 0.06 0.04
0.04 0.07 0.09 0.11 0.16 0.23 0.22 0.22 0.27 0.29 0.22 0.22 0.31 0.33 0.20 0.07 0.05 0.05 0.08 0.07 0.08 0.11 0.13 0.13 0.16 0.17 0.20 0.24 0.23 0.17 0.19 0.19 0.36 0.48 0.39 0.26 0.13 0.09 0.13 0.20 0.20 0.12 0.12
0.03 0.04 0.05 0.05 0.10 0.17 0.17 0.15 0.17 0.19 0.18 0.14 0.17 0.20 0.22 0.18 0.14 0.08 0.09 0.12 0.14 0.17 0.21 0.21 0.22 0.24 0.25 0.25 0.29 0.32 0.27 0.23 0.27 0.29 0.31 0.32 0.24 0.16 0.12 0.19 0.31 0.30 0.21
0.03 0.04 0.04 0.04 0.06 0.08 0.09 0.09 0.09 0.11 0.10 0.08 0.09 0.12 0.22 0.27 0.28 0.21 0.13 0.12 0.12 0.12 0.17 0.19 0.22 0.26 0.25 0.28 0.34 0.38 0.41 0.36 0.23 0.15 0.25 0.36 0.35 0.29 0.21 0.23 0.36 0.44 0.46
0.04 0.06 0.07 0.08 0.09 0.10 0.09 0.10 0.10 0.10 0.09 0.08 0.09 0.12 0.18 0.24 0.28 0.29 0.23 0.17 0.16 0.18 0.20 0.22 0.30 0.35 0.33 0.34 0.30 0.23 0.20 0.18 0.18 0.18 0.24 0.27 0.26 0.25 0.28 0.35 0.46 0.59 0.71
0.03 0.06 0.11 0.12 0.12 0.12 0.11 0.12 0.13 0.12 0.12 0.11 0.12 0.13 0.16 0.23 0.29 0.31 0.28 0.23 0.22 0.25 0.32 0.30 0.33 0.36 0.33 0.31 0.28 0.19 0.09 0.06 0.07 0.10 0.20 0.32 0.39 0.42 0.41 0.40 0.44 0.52 0.61
0.05 0.08 0.09 0.09 0.09 0.09 0.10 0.11 0.10 0.10 0.14 0.18 0.20 0.20 0.21 0.26 0.35 0.35 0.33 0.31 0.28 0.33 0.45 0.40 0.32 0.27 0.25 0.24 0.22 0.16 0.08 0.04 0.03 0.02 0.03 0.05 0.07 0.12 0.18 0.23 0.30 0.38 0.46
0.07 0.08 0.07 0.07 0.08 0.08 0.09 0.10 0.11 0.14 0.19 0.20 0.24 0.31 0.32 0.34 0.37 0.37 0.35 0.35 0.37 0.38 0.40 0.34 0.28 0.25 0.22 0.21 0.19 0.12 0.07 0.03 0.01 0.01 0.01 0.01 0.01 0.01 0.02 0.03 0.06 0.09 0.14
0.06 0.09 0.12 0.12 0.11 0.10 0.14 0.20 0.19 0.17 0.24 0.31 0.38 0.43 0.43 0.45 0.44 0.38 0.36 0.36 0.35 0.37 0.34 0.24 0.21 0.24 0.21 0.15 0.12 0.08 0.04 0.02 0.01 0.01 0.00 0.00 0.01 0.03 0.03 0.02 0.01 0.02 0.03
0.07 0.11 0.15 0.17 0.18 0.22 0.36 0.49 0.47 0.37 0.42 0.47 0.51 0.56 0.58 0.56 0.51 0.40 0.34 0.31 0.28 0.28 0.24 0.16 0.12 0.14 0.13 0.09 0.07 0.04 0.02 0.01 0.01 0.01 0.01 0.00 0.01 0.02 0.02 0.02 0.01 0.01 0.02
0.05 0.05 0.07 0.11 0.15 0.19 0.30 0.56 0.70 0.69 0.65 0.55 0.55 0.64 0.66 0.57 0.46 0.37 0.32 0.28 0.23 0.20 0.17 0.14 0.10 0.09 0.09 0.08 0.06 0.04 0.03 0.01 0.02 0.04 0.03 0.01 0.02 0.01 0.00 0.01 0.01 0.01 0.01
0.06 0.04 0.05 0.10 0.16 0.17 0.21 0.39 0.58 0.65 0.63 0.56 0.56 0.57 0.55 0.52 0.43 0.35 0.27 0.21 0.16 0.14 0.12 0.10 0.09 0.07 0.06 0.05 0.04 0.04 0.02 0.02 0.01 0.01 0.04 0.04 0.04 0.01 0.00 0.00 0.00 0.01 0.01
0.06 0.06 0.09 0.13 0.15 0.13 0.15 0.27 0.40 0.48 0.49 0.48 0.47 0.44 0.42 0.39 0.37 0.33 0.25 0.19 0.14 0.12 0.10 0.08 0.07 0.06 0.04 0.03 0.02 0.02 0.01 0.00 0.00 0.00 0.03 0.08 0.08 0.03 0.01 0.00 0.00 0.00 0.01
0.05 0.07 0.11 0.12 0.09 0.08 0.17 0.27 0.29 0.26 0.29 0.31 0.30 0.26 0.26 0.30 0.32 0.30 0.23 0.16 0.13 0.12 0.10 0.07 0.05 0.04 0.02 0.02 0.01 0.00 0.00 0.00 0.00 0.00 0.01 0.03 0.02 0.01 0.01 0.00 0.00 0.00 0.01
0.06 0.06 0.06 0.07 0.05 0.06 0.13 0.18 0.15 0.13 0.12 0.13 0.13 0.12 0.11 0.13 0.17 0.19 0.17 0.11 0.07 0.06 0.06 0.05 0.04 0.03 0.03 0.02 0.01 0.00 0.00 0.00 0.00 0.00 0.00 0.00 0.00 0.00 0.00 0.00 0.00 0.00 0.00
0.07 0.07 0.06 0.05 0.03 0.03 0.04 0.05 0.04 0.03 0.03 0.04 0.04 0.04 0.03 0.04 0.05 0.05 0.04 0.03 0.03 0.02 0.02 0.03 0.02 0.02 0.01 0.01 0.00 0.00 0.00 0.00 0.01 0.00 0.00 0.00 0.00 0.00 0.00 0.00 0.00 0.00 0.00
0.07 0.09 0.09 0.08 0.06 0.04 0.00 0.00 0.01 0.01 0.01 0.01 0.01 0.01 0.01 0.02 0.02 0.02 0.02 0.01 0.01 0.00 0.01 0.01 0.01 0.01 0.00 0.00 0.00 0.00 0.00 0.00 0.00 0.00 0.00 0.00 0.00 0.01 0.01 0.02 0.00 0.00 0.00
0.09 0.11 0.12 0.12 0.10 0.07 0.01 0.00 0.00 0.00 0.00 0.00 0.00 0.00 0.00 0.00 0.01 0.01 0.01 0.01 0.00 0.00 0.00 0.00 0.00 0.00 0.00 0.00 0.00 0.00 0.00 0.00 0.00 0.00 0.00 0.00 0.00 0.01 0.02 0.02 0.02 0.01 0.00
0.14 0.15 0.16 0.15 0.14 0.12 0.04 0.01 0.00 0.00 0.01 0.01 0.00 0.00 0.00 0.00 0.00 0.00 0.00 0.00 0.00 0.00 0.00 0.00 0.00 0.00 0.00 0.00 0.00 0.00 0.00 0.00 0.00 0.01 0.00 0.00 0.00 0.01 0.02 0.02 0.02 0.02 0.01

GEFSMA_prec_meanprecacc_024.txt.gz
Total_Precipitation_Accumulation
0.25 0.25 0.19 0.15 0.10 0.15 0.26 0.35 0.26 0.21 0.23 0.19 0.14 0.11 0.11 0.13 0.13 0.12 0.10 0.15 0.14 0.19 0.23 0.24 0.22 0.19 0.19 0.18 0.18 0.17 0.16 0.16 0.15 0.12 0.11 0.11 0.09 0.08 0.13 0.17 0.19 0.20 0.16
0.45 0.40 0.34 0.31 0.22 0.31 0.43 0.49 0.42 0.39 0.28 0.30 0.20 0.16 0.14 0.16 0.15 0.16 0.13 0.12 0.12 0.09 0.11 0.16 0.20 0.21 0.21 0.22 0.19 0.14 0.11 0.11 0.11 0.09 0.09 0.09 0.09 0.07 0.10 0.16 0.19 0.16 0.10
0.89 0.85 0.73 0.54 0.51 0.64 0.66 0.56 0.48 0.59 0.42 0.39 0.31 0.37 0.35 0.32 0.21 0.16 0.15 0.11 0.07 0.07 0.07 0.10 0.18 0.25 0.29 0.31 0.27 0.22 0.16 0.12 0.07 0.05 0.07 0.07 0.06 0.06 0.06 0.08 0.12 0.11 0.08
1.03 1.12 0.89 0.66 0.78 0.93 0.89 0.78 0.74 0.79 0.67 0.66 0.61 0.55 0.45 0.33 0.17 0.11 0.08 0.05 0.04 0.02 0.04 0.14 0.19 0.23 0.34 0.38 0.38 0.38 0.31 0.23 0.12 0.05 0.04 0.05 0.05 0.04 0.03 0.03 0.05 0.07 0.06
0.60 0.66 0.43 0.37 0.58 0.68 0.60 0.59 0.73 0.77 0.71 0.78 0.75 0.51 0.33 0.19 0.12 0.08 0.06 0.03 0.04 0.04 0.04 0.14 0.15 0.21 0.33 0.40 0.44 0.46 0.44 0.36 0.27 0.13 0.07 0.04 0.04 0.03 0.02 0.01 0.03 0.06 0.07
0.26 0.34 0.20 0.20 0.45 0.52 0.46 0.56 0.60 0.57 0.48 0.53 0.49 0.24 0.17 0.12 0.10 0.08 0.05 0.04 0.05 0.05 0.04 0.05 0.08 0.14 0.26 0.36 0.41 0.43 0.43 0.38 0.27 0.18 0.12 0.08 0.07 0.04 0.02 0.02 0.04 0.05 0.05
0.18 0.30 0.21 0.25 0.40 0.42 0.36 0.39 0.42 0.35 0.23 0.39 0.42 0.18 0.07 0.04 0.06 0.05 0.04 0.03 0.03 0.03 0.04 0.05 0.08 0.10 0.09 0.16 0.30 0.36 0.41 0.42 0.31 0.20 0.16 0.14 0.11 0.07 0.06 0.06 0.05 0.03 0.03
0.13 0.24 0.20 0.15 0.21 0.23 0.18 0.19 0.29 0.30 0.25 0.38 0.43 0.31 0.12 0.06 0.04 0.03 0.03 0.03 0.02 0.03 0.04 0.05 0.10 0.15 0.17 0.20 0.26 0.22 0.31 0.36 0.37 0.35 0.31 0.24 0.16 0.11 0.11 0.14 0.11 0.06 0.04
0.04 0.07 0.09 0.11 0.16 0.23 0.22 0.23 0.27 0.29 0.23 0.23 0.31 0.35 0.21 0.08 0.05 0.06 0.08 0.07 0.08 0.11 0.14 0.14 0.16 0.18 0.22 0.26 0.28 0.23 0.22 0.22 0.41 0.52 0.43 0.28 0.14 0.10 0.14 0.22 0.22 0.14 0.12
0.03 0.04 0.05 0.05 0.10 0.17 0.18 0.15 0.17 0.20 0.20 0.15 0.18 0.23 0.25 0.21 0.17 0.09 0.09 0.13 0.15 0.18 0.22 0.22 0.22 0.25 0.26 0.29 0.36 0.39 0.31 0.25 0.30 0.33 0.34 0.35 0.27 0.19 0.16 0.24 0.38 0.37 0.26
0.03 0.04 0.04 0.04 0.06 0.09 0.10 0.09 0.10 0.12 0.13 0.11 0.11 0.16 0.27 0.33 0.34 0.25 0.15 0.14 0.16 0.16 0.21 0.22 0.24 0.29 0.29 0.36 0.45 0.46 0.48 0.39 0.25 0.17 0.27 0.39 0.39 0.34 0.28 0.32 0.49 0.60 0.60
0.04 0.06 0.07 0.08 0.09 0.10 0.10 0.10 0.12 0.12 0.12 0.13 0.14 0.17 0.23 0.30 0.35 0.38 0.31 0.24 0.23 0.23 0.26 0.29 0.38 0.43 0.42 0.47 0.41 0.36 0.30 0.22 0.20 0.20 0.25 0.30 0.30 0.31 0.37 0.47 0.62 0.77 0.89
0.03 0.06 0.11 0.13 0.12 0.12 0.11 0.13 0.15 0.13 0.15 0.17 0.18 0.19 0.23 0.29 0.37 0.42 0.39 0.33 0.36 0.38 0.47 0.47 0.47 0.49 0.45 0.44 0.39 0.27 0.13 0.09 0.08 0.11 0.21 0.34 0.42 0.48 0.50 0.51 0.57 0.65 0.74
0.06 0.08 0.09 0.09 0.10 0.09 0.10 0.12 0.11 0.12 0.17 0.23 0.24 0.27 0.28 0.32 0.45 0.48 0.46 0.47 0.45 0.52 0.66 0.59 0.47 0.42 0.40 0.37 0.29 0.19 0.10 0.05 0.03 0.03 0.04 0.05 0.09 0.15 0.22 0.30 0.39 0.49 0.58
0.09 0.09 0.08 0.09 0.09 0.09 0.09 0.11 0.12 0.16 0.22 0.24 0.29 0.38 0.41 0.43 0.50 0.54 0.55 0.58 0.58 0.57 0.61 0.56 0.40 0.35 0.33 0.30 0.23 0.18 0.09 0.03 0.02 0.01 0.01 0.01 0.02 0.02 0.03 0.04 0.08 0.13 0.19
0.13 0.14 0.16 0.16 0.14 0.12 0.15 0.21 0.21 0.19 0.27 0.36 0.43 0.50 0.52 0.55 0.57 0.55 0.56 0.59 0.59 0.60 0.59 0.46 0.33 0.33 0.29 0.21 0.16 0.13 0.07 0.04 0.02 0.01 0.01 0.01 0.02 0.03 0.04 0.03 0.02 0.03 0.04
0.18 0.20 0.23 0.24 0.22 0.25 0.38 0.50 0.49 0.39 0.43 0.50 0.54 0.61 0.65 0.67 0.66 0.58 0.55 0.53 0.53 0.56 0.50 0.33 0.22 0.22 0.19 0.14 0.11 0.09 0.06 0.04 0.03 0.03 0.02 0.01 0.01 0.02 0.03 0.03 0.02 0.02 0.03
0.17 0.16 0.17 0.19 0.20 0.23 0.33 0.58 0.71 0.70 0.66 0.57 0.58 0.69 0.72 0.66 0.58 0.53 0.51 0.49 0.49 0.50 0.44 0.29 0.21 0.18 0.15 0.15 0.14 0.11 0.08 0.05 0.04 0.06 0.04 0.02 0.02 0.02 0.01 0.01 0.01 0.01 0.01
0.16 0.16 0.17 0.20 0.24 0.24 0.27 0.43 0.60 0.67 0.65 0.58 0.59 0.60 0.58 0.58 0.52 0.46 0.41 0.38 0.38 0.43 0.38 0.26 0.20 0.16 0.14 0.13 0.13 0.13 0.10 0.07 0.05 0.04 0.06 0.05 0.04 0.02 0.00 0.00 0.00 0.01 0.01
0.14 0.17 0.20 0.25 0.26 0.22 0.22 0.32 0.43 0.50 0.51 0.50 0.49 0.46 0.43 0.41 0.44 0.43 0.37 0.32 0.30 0.30 0.27 0.21 0.18 0.15 0.14 0.14 0.12 0.11 0.09 0.07 0.04 0.02 0.04 0.09 0.08 0.03 0.01 0.00 0.00 0.00 0.01
0.09 0.14 0.21 0.23 0.21 0.18 0.23 0.33 0.34 0.29 0.31 0.34 0.33 0.28 0.28 0.32 0.35 0.37 0.33 0.28 0.27 0.25 0.23 0.21 0.17 0.15 0.14 0.15 0.13 0.09 0.07 0.06 0.03 0.02 0.03 0.04 0.04 0.02 0.01 0.00 0.00 0.00 0.01
0.10 0.12 0.14 0.18 0.17 0.16 0.22 0.24 0.20 0.16 0.16 0.18 0.19 0.15 0.12 0.14 0.19 0.24 0.24 0.21 0.21 0.19 0.20 0.20 0.19 0.17 0.16 0.15 0.12 0.08 0.06 0.04 0.04 0.05 0.06 0.06 0.04 0.02 0.00 0.00 0.00 0.00 0.00
0.10 0.12 0.14 0.15 0.17 0.18 0.16 0.12 0.09 0.07 0.07 0.10 0.11 0.09 0.06 0.06 0.08 0.08 0.08 0.08 0.11 0.12 0.14 0.16 0.18 0.16 0.15 0.13 0.09 0.08 0.07 0.06 0.04 0.03 0.04 0.04 0.02 0.01 0.00 0.00 0.00 0.00 0.00
0.10 0.13 0.15 0.18 0.21 0.23 0.18 0.12 0.08 0.06 0.06 0.07 0.07 0.05 0.04 0.04 0.04 0.04 0.05 0.05 0.05 0.06 0.08 0.12 0.13 0.12 0.10 0.08 0.07 0.07 0.06 0.05 0.03 0.02 0.02 0.03 0.02 0.01 0.01 0.02 0.00 0.00 0.00
0.14 0.14 0.16 0.19 0.23 0.27 0.22 0.16 0.11 0.07 0.08 0.08 0.06 0.04 0.04 0.03 0.02 0.02 0.03 0.04 0.04 0.03 0.04 0.05 0.06 0.06 0.05 0.04 0.03 0.02 0.01 0.01 0.01 0.01 0.01 0.02 0.02 0.03 0.03 0.03 0.02 0.01 0.00
0.19 0.18 0.18 0.19 0.24 0.32 0.29 0.21 0.14 0.09 0.12 0.10 0.08 0.04 0.02 0.02 0.01 0.01 0.03 0.02 0.02 0.01 0.01 0.01 0.01 0.01 0.01 0.01 0.01 0.01 0.01 0.01 0.00 0.01 0.00 0.01 0.01 0.02 0.05 0.03 0.02 0.02 0.01

GEFSMA_prec_meanprecacc_030.txt.gz
Total_Precipitation_Accumulation
0.32 0.36 0.30 0.26 0.20 0.30 0.46 0.57 0.48 0.46 0.50 0.42 0.34 0.31 0.32 0.33 0.30 0.29 0.28 0.32 0.28 0.35 0.42 0.39 0.32 0.26 0.23 0.21 0.20 0.17 0.16 0.17 0.15 0.12 0.11 0.11 0.09 0.09 0.13 0.18 0.19 0.20 0.16
0.54 0.51 0.45 0.43 0.34 0.46 0.61 0.66 0.60 0.58 0.49 0.49 0.37 0.33 0.30 0.31 0.30 0.33 0.34 0.31 0.30 0.26 0.27 0.31 0.32 0.30 0.28 0.27 0.22 0.16 0.13 0.12 0.11 0.09 0.09 0.09 0.09 0.07 0.10 0.16 0.19 0.16 0.10
0.97 0.94 0.80 0.61 0.61 0.75 0.77 0.67 0.60 0.71 0.54 0.49 0.40 0.46 0.43 0.40 0.31 0.26 0.27 0.26 0.23 0.23 0.21 0.22 0.30 0.35 0.39 0.39 0.33 0.26 0.19 0.13 0.08 0.05 0.07 0.07 0.06 0.06 0.06 0.08 0.12 0.11 0.08
1.09 1.17 0.92 0.70 0.83 0.97 0.92 0.82 0.79 0.85 0.72 0.70 0.63 0.57 0.47 0.37 0.22 0.17 0.15 0.13 0.15 0.13 0.15 0.24 0.29 0.33 0.47 0.51 0.49 0.47 0.38 0.26 0.14 0.06 0.04 0.05 0.05 0.04 0.03 0.03 0.05 0.07 0.06
0.62 0.67 0.44 0.38 0.59 0.69 0.61 0.60 0.74 0.78 0.72 0.79 0.76 0.51 0.34 0.21 0.14 0.10 0.08 0.06 0.08 0.10 0.11 0.21 0.24 0.32 0.50 0.60 0.62 0.63 0.57 0.44 0.31 0.16 0.09 0.05 0.04 0.03 0.02 0.01 0.03 0.06 0.07
0.26 0.34 0.20 0.20 0.46 0.52 0.46 0.56 0.60 0.57 0.48 0.54 0.49 0.24 0.17 0.13 0.10 0.08 0.06 0.05 0.07 0.08 0.10 0.12 0.15 0.21 0.41 0.55 0.59 0.62 0.61 0.52 0.37 0.25 0.18 0.13 0.09 0.05 0.03 0.03 0.04 0.05 0.05
0.18 0.30 0.22 0.25 0.40 0.42 0.36 0.39 0.42 0.35 0.23 0.40 0.42 0.19 0.07 0.04 0.06 0.05 0.04 0.03 0.04 0.06 0.09 0.13 0.16 0.20 0.20 0.28 0.48 0.55 0.64 0.64 0.49 0.35 0.27 0.22 0.17 0.11 0.07 0.06 0.05 0.04 0.03
0.13 0.24 0.20 0.15 0.21 0.23 0.18 0.19 0.29 0.30 0.25 0.39 0.44 0.31 0.12 0.06 0.04 0.03 0.03 0.03 0.04 0.08 0.11 0.13 0.21 0.28 0.30 0.35 0.40 0.38 0.52 0.60 0.61 0.57 0.49 0.37 0.25 0.16 0.15 0.16 0.12 0.06 0.04
0.04 0.07 0.09 0.11 0.16 0.23 0.22 0.23 0.27 0.29 0.23 0.23 0.32 0.36 0.22 0.08 0.05 0.06 0.08 0.08 0.10 0.16 0.21 0.24 0.28 0.30 0.37 0.48 0.53 0.49 0.44 0.43 0.63 0.77 0.64 0.44 0.24 0.17 0.19 0.26 0.25 0.15 0.13
0.03 0.04 0.05 0.05 0.10 0.17 0.18 0.15 0.17 0.20 0.20 0.15 0.18 0.24 0.25 0.22 0.18 0.09 0.09 0.13 0.17 0.24 0.32 0.39 0.45 0.41 0.41 0.50 0.64 0.72 0.58 0.46 0.51 0.55 0.53 0.51 0.39 0.28 0.22 0.31 0.45 0.43 0.30
0.05 0.05 0.05 0.04 0.06 0.09 0.10 0.09 0.10 0.12 0.13 0.11 0.11 0.16 0.27 0.33 0.35 0.26 0.15 0.14 0.17 0.19 0.29 0.39 0.50 0.53 0.47 0.54 0.70 0.82 0.83 0.66 0.46 0.33 0.39 0.48 0.48 0.42 0.35 0.40 0.59 0.72 0.70
0.07 0.08 0.09 0.08 0.10 0.10 0.10 0.10 0.12 0.12 0.13 0.13 0.14 0.17 0.23 0.31 0.36 0.39 0.32 0.24 0.23 0.24 0.29 0.40 0.63 0.75 0.67 0.65 0.59 0.58 0.57 0.49 0.41 0.36 0.35 0.35 0.34 0.35 0.41 0.53 0.70 0.86 0.99
0.10 0.12 0.15 0.15 0.14 0.13 0.12 0.13 0.15 0.13 0.15 0.17 0.18 0.19 0.23 0.29 0.37 0.43 0.40 0.34 0.36 0.39 0.49 0.52 0.58 0.68 0.65 0.64 0.55 0.40 0.24 0.19 0.18 0.20 0.27 0.38 0.45 0.51 0.53 0.54 0.62 0.72 0.82
0.18 0.20 0.19 0.17 0.15 0.13 0.12 0.13 0.12 0.12 0.18 0.23 0.24 0.27 0.29 0.32 0.46 0.49 0.47 0.49 0.46 0.53 0.68 0.64 0.56 0.56 0.57 0.57 0.45 0.30 0.16 0.10 0.07 0.06 0.07 0.08 0.10 0.16 0.24 0.32 0.41 0.52 0.62
0.23 0.24 0.24 0.22 0.20 0.16 0.15 0.14 0.14 0.17 0.23 0.25 0.29 0.38 0.41 0.44 0.50 0.54 0.56 0.60 0.60 0.58 0.63 0.60 0.48 0.44 0.45 0.42 0.33 0.25 0.13 0.06 0.04 0.02 0.03 0.03 0.03 0.03 0.04 0.05 0.09 0.14 0.21
0.21 0.24 0.29 0.29 0.26 0.24 0.26 0.28 0.24 0.20 0.27 0.36 0.43 0.50 0.52 0.55 0.58 0.55 0.57 0.61 0.62 0.63 0.62 0.52 0.41 0.42 0.39 0.29 0.23 0.17 0.09 0.05 0.03 0.02 0.01 0.01 0.02 0.04 0.04 0.03 0.03 0.03 0.05
0.20 0.23 0.28 0.30 0.29 0.33 0.48 0.60 0.55 0.42 0.44 0.50 0.55 0.61 0.65 0.67 0.66 0.58 0.56 0.55 0.56 0.62 0.54 0.38 0.30 0.30 0.27 0.21 0.17 0.12 0.07 0.04 0.03 0.03 0.02 0.01 0.01 0.02 0.03 0.03 0.02 0.02 0.03
0.17 0.16 0.19 0.22 0.24 0.28 0.41 0.68 0.80 0.77 0.70 0.58 0.59 0.69 0.72 0.66 0.58 0.53 0.51 0.51 0.53 0.58 0.50 0.34 0.28 0.26 0.24 0.22 0.19 0.15 0.10 0.06 0.05 0.06 0.04 0.02 0.02 0.02 0.01 0.01 0.01 0.01 0.01
0.16 0.16 0.17 0.21 0.26 0.26 0.31 0.50 0.68 0.74 0.70 0.61 0.60 0.60 0.58 0.58 0.52 0.46 0.42 0.39 0.42 0.52 0.47 0.32 0.27 0.23 0.23 0.23 0.20 0.17 0.13 0.10 0.06 0.06 0.07 0.06 0.05 0.02 0.01 0.01 0.01 0.01 0.01
0.14 0.17 0.21 0.25 0.26 0.23 0.24 0.36 0.49 0.57 0.58 0.55 0.51 0.47 0.44 0.41 0.44 0.43 0.37 0.33 0.34 0.35 0.33 0.28 0.24 0.24 0.24 0.23 0.19 0.17 0.14 0.10 0.06 0.04 0.05 0.09 0.08 0.03 0.01 0.00 0.00 0.00 0.01
0.09 0.14 0.21 0.23 0.21 0.19 0.25 0.37 0.39 0.35 0.37 0.40 0.37 0.30 0.28 0.32 0.35 0.37 0.33 0.29 0.28 0.27 0.26 0.25 0.22 0.23 0.25 0.25 0.20 0.14 0.12 0.10 0.06 0.04 0.03 0.04 0.04 0.02 0.01 0.00 0.00 0.00 0.01
0.10 0.12 0.14 0.18 0.17 0.16 0.23 0.26 0.23 0.21 0.21 0.23 0.23 0.18 0.14 0.15 0.19 0.24 0.24 0.22 0.22 0.21 0.22 0.23 0.24 0.23 0.24 0.22 0.18 0.14 0.11 0.07 0.07 0.07 0.07 0.06 0.04 0.02 0.00 0.00 0.00 0.00 0.00
0.10 0.13 0.14 0.16 0.17 0.18 0.16 0.13 0.11 0.10 0.12 0.16 0.17 0.14 0.08 0.07 0.09 0.08 0.08 0.09 0.11 0.13 0.16 0.20 0.23 0.22 0.21 0.18 0.14 0.15 0.13 0.10 0.07 0.05 0.06 0.05 0.02 0.01 0.00 0.00 0.00 0.00 0.00
0.11 0.13 0.16 0.18 0.21 0.23 0.18 0.12 0.09 0.08 0.09 0.13 0.13 0.11 0.08 0.05 0.05 0.04 0.05 0.05 0.06 0.07 0.10 0.15 0.17 0.17 0.15 0.13 0.12 0.13 0.13 0.10 0.07 0.04 0.04 0.04 0.02 0.01 0.01 0.02 0.00 0.00 0.00
0.14 0.14 0.16 0.20 0.24 0.27 0.23 0.17 0.13 0.10 0.13 0.14 0.14 0.12 0.09 0.06 0.03 0.03 0.04 0.04 0.04 0.05 0.07 0.09 0.11 0.12 0.11 0.09 0.07 0.06 0.06 0.05 0.04 0.04 0.03 0.03 0.02 0.03 0.03 0.03 0.02 0.01 0.00
0.19 0.18 0.18 0.20 0.25 0.33 0.30 0.22 0.17 0.14 0.18 0.18 0.18 0.15 0.11 0.06 0.03 0.02 0.03 0.03 0.03 0.02 0.03 0.04 0.05 0.05 0.05 0.05 0.04 0.04 0.03 0.02 0.02 0.03 0.02 0.01 0.01 0.02 0.05 0.03 0.02 0.02 0.01

GEFSMA_prec_meanprecacc_036.txt.gz
Total_Precipitation_Accumulation
0.41 0.48 0.41 0.37 0.33 0.46 0.66 0.80 0.70 0.69 0.75 0.65 0.53 0.47 0.46 0.44 0.40 0.36 0.34 0.40 0.41 0.46 0.54 0.53 0.47 0.41 0.38 0.35 0.32 0.28 0.26 0.25 0.21 0.16 0.14 0.13 0.12 0.11 0.14 0.18 0.19 0.20 0.17
0.71 0.71 0.62 0.57 0.45 0.55 0.72 0.80 0.74 0.78 0.72 0.70 0.56 0.51 0.45 0.42 0.38 0.39 0.39 0.36 0.37 0.34 0.37 0.43 0.46 0.45 0.44 0.42 0.36 0.28 0.23 0.22 0.18 0.14 0.12 0.11 0.11 0.10 0.13 0.19 0.21 0.18 0.12
1.17 1.14 0.97 0.74 0.69 0.83 0.85 0.78 0.72 0.85 0.68 0.62 0.52 0.59 0.55 0.49 0.38 0.32 0.31 0.29 0.26 0.27 0.27 0.30 0.39 0.47 0.55 0.57 0.49 0.41 0.32 0.24 0.16 0.11 0.10 0.10 0.08 0.08 0.10 0.13 0.20 0.18 0.12
1.28 1.36 1.06 0.80 0.90 1.04 0.98 0.88 0.85 0.92 0.79 0.76 0.68 0.63 0.51 0.40 0.26 0.19 0.17 0.14 0.17 0.14 0.18 0.29 0.35 0.41 0.61 0.70 0.70 0.68 0.55 0.38 0.22 0.12 0.10 0.10 0.08 0.06 0.06 0.07 0.11 0.15 0.12
0.82 0.83 0.53 0.45 0.64 0.73 0.64 0.62 0.76 0.80 0.74 0.80 0.78 0.53 0.36 0.23 0.15 0.11 0.09 0.07 0.09 0.11 0.12 0.22 0.27 0.37 0.62 0.78 0.84 0.85 0.76 0.59 0.42 0.26 0.20 0.16 0.14 0.09 0.06 0.06 0.08 0.13 0.12
0.43 0.45 0.26 0.24 0.48 0.54 0.47 0.57 0.61 0.58 0.48 0.54 0.50 0.25 0.18 0.13 0.10 0.09 0.07 0.06 0.08 0.09 0.11 0.14 0.17 0.23 0.46 0.65 0.73 0.77 0.78 0.69 0.54 0.43 0.37 0.31 0.25 0.17 0.10 0.08 0.09 0.10 0.10
0.34 0.40 0.27 0.28 0.42 0.43 0.37 0.40 0.43 0.35 0.24 0.40 0.42 0.19 0.07 0.04 0.06 0.05 0.04 0.03 0.04 0.06 0.09 0.14 0.17 0.22 0.21 0.31 0.54 0.64 0.79 0.82 0.68 0.54 0.48 0.43 0.36 0.26 0.18 0.15 0.12 0.09 0.07
0.27 0.32 0.25 0.18 0.23 0.24 0.18 0.19 0.29 0.30 0.25 0.39 0.44 0.31 0.12 0.06 0.04 0.03 0.03 0.03 0.04 0.08 0.11 0.14 0.21 0.29 0.31 0.36 0.42 0.42 0.61 0.75 0.81 0.78 0.70 0.57 0.46 0.34 0.30 0.29 0.22 0.14 0.10
0.15 0.15 0.14 0.13 0.18 0.25 0.23 0.23 0.27 0.29 0.23 0.23 0.32 0.36 0.22 0.08 0.05 0.06 0.08 0.08 0.10 0.16 0.21 0.24 0.28 0.30 0.37 0.48 0.53 0.51 0.49 0.52 0.79 0.98 0.85 0.65 0.44 0.37 0.38 0.43 0.38 0.25 0.20
0.13 0.13 0.11 0.09 0.12 0.18 0.18 0.15 0.17 0.20 0.20 0.15 0.18 0.24 0.25 0.22 0.18 0.09 0.09 0.13 0.17 0.24 0.32 0.39 0.45 0.42 0.42 0.50 0.64 0.73 0.60 0.50 0.61 0.72 0.73 0.71 0.59 0.45 0.40 0.48 0.62 0.57 0.39
0.18 0.17 0.15 0.12 0.10 0.11 0.10 0.10 0.10 0.12 0.13 0.11 0.11 0.16 0.27 0.33 0.35 0.26 0.15 0.14 0.17 0.19 0.29 0.39 0.50 0.53 0.48 0.55 0.71 0.84 0.86 0.70 0.52 0.40 0.47 0.59 0.63 0.57 0.48 0.54 0.77 0.90 0.85
0.22 0.23 0.22 0.20 0.19 0.16 0.13 0.12 0.12 0.12 0.13 0.13 0.14 0.17 0.23 0.31 0.36 0.39 0.32 0.24 0.23 0.24 0.29 0.40 0.63 0.75 0.67 0.66 0.61 0.61 0.61 0.52 0.44 0.40 0.39 0.42 0.43 0.45 0.51 0.64 0.83 1.00 1.14
0.21 0.24 0.27 0.28 0.29 0.25 0.21 0.19 0.17 0.14 0.15 0.17 0.18 0.19 0.23 0.29 0.37 0.43 0.40 0.34 0.36 0.39 0.49 0.52 0.58 0.68 0.65 0.65 0.56 0.43 0.28 0.22 0.21 0.24 0.31 0.44 0.52 0.59 0.61 0.61 0.69 0.80 0.90
0.24 0.27 0.27 0.27 0.29 0.29 0.28 0.25 0.19 0.16 0.20 0.24 0.25 0.27 0.29 0.32 0.46 0.49 0.47 0.49 0.46 0.53 0.68 0.64 0.56 0.56 0.57 0.58 0.47 0.32 0.19 0.13 0.10 0.09 0.10 0.11 0.14 0.21 0.29 0.36 0.45 0.55 0.65
0.26 0.28 0.28 0.29 0.29 0.29 0.30 0.29 0.26 0.26 0.29 0.28 0.31 0.39 0.42 0.44 0.50 0.54 0.56 0.60 0.61 0.58 0.63 0.61 0.48 0.45 0.47 0.44 0.35 0.27 0.16 0.10 0.08 0.06 0.06 0.05 0.05 0.05 0.05 0.07 0.11 0.16 0.22
0.21 0.26 0.32 0.33 0.32 0.32 0.37 0.41 0.38 0.33 0.36 0.41 0.48 0.52 0.53 0.56 0.58 0.56 0.57 0.61 0.62 0.64 0.62 0.52 0.41 0.43 0.40 0.30 0.25 0.19 0.12 0.09 0.06 0.05 0.04 0.03 0.04 0.05 0.05 0.04 0.04 0.05 0.06
0.20 0.23 0.29 0.33 0.34 0.40 0.57 0.71 0.68 0.56 0.55 0.58 0.60 0.64 0.67 0.69 0.67 0.58 0.56 0.55 0.57 0.62 0.54 0.39 0.30 0.31 0.28 0.22 0.18 0.13 0.09 0.06 0.04 0.05 0.04 0.02 0.02 0.03 0.04 0.03 0.03 0.03 0.04
0.17 0.16 0.19 0.23 0.26 0.32 0.47 0.77 0.92 0.92 0.84 0.70 0.67 0.75 0.75 0.68 0.59 0.53 0.51 0.51 0.53 0.58 0.51 0.35 0.29 0.28 0.26 0.24 0.20 0.17 0.11 0.07 0.05 0.07 0.05 0.03 0.03 0.02 0.01 0.01 0.01 0.02 0.02
0.16 0.16 0.17 0.21 0.26 0.27 0.34 0.54 0.75 0.86 0.86 0.77 0.73 0.69 0.65 0.62 0.54 0.47 0.42 0.40 0.42 0.52 0.48 0.33 0.29 0.26 0.26 0.26 0.23 0.19 0.15 0.11 0.07 0.06 0.07 0.06 0.05 0.02 0.01 0.01 0.01 0.01 0.01
0.14 0.17 0.21 0.25 0.26 0.23 0.25 0.37 0.52 0.61 0.66 0.68 0.68 0.63 0.56 0.49 0.49 0.46 0.39 0.34 0.34 0.35 0.33 0.29 0.27 0.28 0.29 0.28 0.23 0.20 0.17 0.12 0.08 0.04 0.06 0.10 0.08 0.03 0.01 0.01 0.00 0.01 0.01
0.09 0.14 0.21 0.23 0.21 0.19 0.25 0.37 0.40 0.36 0.39 0.45 0.46 0.43 0.44 0.48 0.45 0.44 0.37 0.31 0.29 0.27 0.27 0.26 0.25 0.27 0.31 0.32 0.26 0.17 0.14 0.12 0.08 0.05 0.04 0.05 0.04 0.02 0.01 0.00 0.00 0.00 0.01
0.10 0.12 0.14 0.18 0.17 0.16 0.23 0.26 0.23 0.21 0.22 0.25 0.28 0.25 0.23 0.29 0.35 0.36 0.30 0.26 0.24 0.22 0.23 0.24 0.26 0.26 0.27 0.25 0.20 0.16 0.12 0.09 0.09 0.08 0.08 0.06 0.04 0.02 0.00 0.00 0.00 0.01 0.00
0.11 0.13 0.14 0.16 0.17 0.18 0.16 0.13 0.11 0.10 0.12 0.16 0.18 0.18 0.15 0.15 0.21 0.22 0.18 0.14 0.14 0.15 0.17 0.21 0.25 0.23 0.22 0.20 0.16 0.17 0.16 0.12 0.08 0.06 0.06 0.05 0.03 0.01 0.00 0.00 0.00 0.00 0.00
0.12 0.14 0.16 0.18 0.21 0.23 0.18 0.12 0.09 0.08 0.09 0.13 0.14 0.13 0.12 0.13 0.14 0.15 0.15 0.12 0.09 0.08 0.11 0.16 0.19 0.19 0.17 0.15 0.14 0.16 0.16 0.14 0.09 0.05 0.04 0.05 0.03 0.02 0.01 0.02 0.00 0.00 0.00
0.18 0.17 0.17 0.20 0.24 0.27 0.23 0.17 0.13 0.10 0.13 0.14 0.15 0.14 0.12 0.09 0.10 0.11 0.12 0.11 0.08 0.07 0.08 0.11 0.14 0.17 0.18 0.16 0.12 0.11 0.10 0.08 0.06 0.05 0.03 0.03 0.03 0.03 0.04 0.03 0.02 0.01 0.00
0.25 0.22 0.19 0.20 0.25 0.33 0.30 0.22 0.17 0.14 0.18 0.18 0.18 0.17 0.15 0.11 0.09 0.08 0.10 0.09 0.07 0.04 0.04 0.06 0.09 0.13 0.14 0.14 0.12 0.08 0.06 0.04 0.03 0.03 0.02 0.01 0.01 0.02 0.05 0.04 0.02 0.02 0.01

GEFSMA_prec_meanprecacc_042.txt.gz
Total_Precipitation_Accumulation
0.46 0.53 0.46 0.43 0.38 0.53 0.73 0.91 0.86 0.90 0.99 0.88 0.71 0.61 0.56 0.52 0.47 0.42 0.39 0.45 0.48 0.53 0.62 0.63 0.58 0.54 0.52 0.52 0.52 0.50 0.48 0.47 0.40 0.29 0.21 0.20 0.20 0.19 0.19 0.21 0.20 0.21 0.17
0.82 0.82 0.74 0.68 0.54 0.65 0.85 0.97 0.94 1.00 0.95 0.95 0.73 0.64 0.56 0.55 0.49 0.45 0.44 0.41 0.42 0.41 0.43 0.51 0.55 0.59 0.58 0.56 0.50 0.43 0.40 0.40 0.35 0.28 0.22 0.19 0.19 0.20 0.24 0.29 0.27 0.22 0.15
1.34 1.32 1.13 0.87 0.80 0.99 1.07 1.00 0.93 1.09 0.89 0.81 0.69 0.74 0.68 0.61 0.49 0.41 0.38 0.34 0.30 0.31 0.31 0.35 0.46 0.55 0.65 0.70 0.62 0.54 0.44 0.35 0.26 0.20 0.18 0.15 0.13 0.15 0.20 0.25 0.31 0.27 0.18
1.51 1.59 1.26 0.95 1.08 1.24 1.17 1.06 1.05 1.13 1.00 0.99 0.90 0.82 0.67 0.55 0.36 0.28 0.24 0.20 0.22 0.18 0.21 0.33 0.40 0.47 0.69 0.81 0.83 0.81 0.65 0.45 0.29 0.18 0.16 0.15 0.13 0.10 0.10 0.14 0.21 0.27 0.22
1.10 1.11 0.77 0.65 0.85 0.92 0.79 0.76 0.92 0.96 0.92 1.00 0.95 0.71 0.52 0.36 0.25 0.18 0.15 0.10 0.13 0.14 0.15 0.26 0.30 0.40 0.66 0.87 0.97 0.98 0.88 0.68 0.49 0.32 0.27 0.23 0.20 0.13 0.09 0.09 0.13 0.21 0.21
0.75 0.75 0.52 0.46 0.68 0.70 0.59 0.68 0.73 0.70 0.60 0.65 0.58 0.34 0.28 0.21 0.18 0.14 0.10 0.08 0.10 0.10 0.12 0.17 0.21 0.25 0.48 0.69 0.80 0.85 0.88 0.78 0.62 0.50 0.44 0.37 0.31 0.21 0.13 0.10 0.10 0.13 0.15
0.68 0.73 0.54 0.50 0.59 0.57 0.48 0.48 0.51 0.43 0.30 0.46 0.49 0.25 0.12 0.08 0.09 0.08 0.06 0.05 0.05 0.06 0.10 0.15 0.21 0.25 0.24 0.32 0.56 0.68 0.85 0.91 0.76 0.61 0.54 0.49 0.43 0.31 0.21 0.18 0.14 0.11 0.10
0.59 0.64 0.52 0.39 0.40 0.38 0.29 0.27 0.35 0.35 0.29 0.42 0.46 0.34 0.14 0.08 0.05 0.04 0.04 0.04 0.04 0.08 0.11 0.14 0.22 0.31 0.33 0.39 0.43 0.43 0.64 0.80 0.88 0.85 0.76 0.63 0.51 0.40 0.34 0.32 0.24 0.16 0.12
0.37 0.41 0.38 0.33 0.34 0.38 0.33 0.31 0.34 0.36 0.28 0.26 0.34 0.37 0.23 0.09 0.06 0.06 0.09 0.08 0.10 0.16 0.21 0.24 0.28 0.30 0.38 0.50 0.55 0.52 0.50 0.54 0.84 1.05 0.92 0.69 0.47 0.39 0.39 0.44 0.40 0.27 0.22
0.26 0.28 0.27 0.24 0.25 0.29 0.30 0.24 0.24 0.26 0.25 0.18 0.20 0.25 0.26 0.22 0.18 0.10 0.10 0.13 0.17 0.24 0.32 0.39 0.45 0.42 0.42 0.51 0.66 0.74 0.61 0.50 0.63 0.76 0.79 0.76 0.62 0.47 0.41 0.50 0.65 0.60 0.42
0.26 0.26 0.25 0.23 0.22 0.22 0.22 0.19 0.18 0.18 0.17 0.14 0.13 0.18 0.28 0.34 0.35 0.27 0.15 0.15 0.17 0.19 0.29 0.39 0.50 0.53 0.48 0.55 0.72 0.85 0.86 0.70 0.52 0.41 0.50 0.62 0.66 0.59 0.51 0.57 0.81 0.96 0.92
0.26 0.28 0.30 0.29 0.30 0.27 0.25 0.23 0.21 0.18 0.17 0.16 0.17 0.19 0.25 0.32 0.36 0.39 0.32 0.24 0.23 0.24 0.29 0.41 0.64 0.75 0.68 0.67 0.61 0.62 0.62 0.53 0.45 0.41 0.41 0.44 0.47 0.49 0.55 0.68 0.89 1.09 1.24
0.23 0.27 0.31 0.33 0.36 0.34 0.33 0.31 0.28 0.23 0.22 0.23 0.22 0.22 0.25 0.30 0.38 0.43 0.40 0.34 0.36 0.39 0.50 0.53 0.59 0.69 0.65 0.66 0.57 0.43 0.28 0.24 0.23 0.26 0.33 0.46 0.56 0.65 0.66 0.67 0.76 0.89 1.01
0.24 0.28 0.29 0.30 0.33 0.35 0.36 0.37 0.32 0.28 0.31 0.33 0.31 0.32 0.32 0.33 0.47 0.49 0.48 0.49 0.47 0.53 0.69 0.65 0.57 0.57 0.58 0.59 0.48 0.33 0.20 0.15 0.12 0.11 0.12 0.14 0.18 0.26 0.34 0.41 0.52 0.64 0.74
0.26 0.28 0.29 0.30 0.31 0.33 0.36 0.37 0.38 0.40 0.44 0.43 0.44 0.49 0.48 0.47 0.52 0.55 0.57 0.61 0.61 0.59 0.64 0.61 0.50 0.46 0.47 0.44 0.35 0.28 0.17 0.12 0.10 0.09 0.09 0.08 0.07 0.09 0.10 0.12 0.17 0.22 0.29
0.21 0.26 0.32 0.33 0.33 0.34 0.41 0.47 0.46 0.46 0.52 0.59 0.67 0.70 0.66 0.64 0.63 0.58 0.58 0.62 0.62 0.64 0.63 0.53 0.43 0.44 0.41 0.30 0.26 0.20 0.12 0.10 0.09 0.08 0.08 0.07 0.07 0.08 0.08 0.07 0.08 0.09 0.11
0.20 0.23 0.29 0.33 0.34 0.41 0.58 0.74 0.73 0.65 0.70 0.77 0.83 0.89 0.87 0.84 0.78 0.65 0.60 0.56 0.58 0.63 0.56 0.40 0.32 0.32 0.29 0.23 0.19 0.14 0.09 0.07 0.06 0.07 0.07 0.06 0.05 0.05 0.05 0.05 0.05 0.05 0.07
0.17 0.16 0.19 0.23 0.26 0.32 0.47 0.78 0.95 0.97 0.94 0.86 0.89 1.00 1.03 0.93 0.77 0.65 0.59 0.55 0.55 0.60 0.53 0.36 0.31 0.29 0.27 0.26 0.22 0.17 0.11 0.07 0.06 0.09 0.07 0.05 0.05 0.04 0.02 0.02 0.02 0.02 0.03
0.16 0.16 0.17 0.21 0.26 0.27 0.34 0.54 0.76 0.88 0.90 0.86 0.91 0.93 0.92 0.93 0.82 0.69 0.55 0.48 0.47 0.56 0.51 0.36 0.31 0.29 0.28 0.28 0.24 0.20 0.15 0.12 0.07 0.07 0.08 0.07 0.06 0.03 0.02 0.01 0.01 0.01 0.01
0.15 0.17 0.21 0.25 0.26 0.23 0.25 0.37 0.52 0.61 0.67 0.72 0.77 0.81 0.82 0.82 0.82 0.77 0.64 0.51 0.45 0.43 0.39 0.33 0.30 0.32 0.31 0.30 0.25 0.21 0.18 0.13 0.08 0.04 0.06 0.10 0.09 0.03 0.01 0.01 0.00 0.01 0.01
0.10 0.15 0.22 0.24 0.21 0.19 0.25 0.37 0.40 0.36 0.40 0.46 0.49 0.51 0.61 0.75 0.81 0.81 0.70 0.57 0.49 0.40 0.35 0.32 0.29 0.31 0.33 0.34 0.27 0.18 0.15 0.12 0.09 0.05 0.04 0.05 0.04 0.02 0.01 0.00 0.00 0.01 0.01
0.12 0.15 0.17 0.20 0.19 0.17 0.23 0.26 0.24 0.21 0.22 0.26 0.29 0.28 0.30 0.43 0.59 0.69 0.68 0.60 0.51 0.43 0.37 0.33 0.31 0.30 0.29 0.26 0.21 0.17 0.13 0.09 0.10 0.09 0.08 0.07 0.04 0.02 0.00 0.00 0.00 0.01 0.00
0.16 0.18 0.19 0.20 0.21 0.21 0.18 0.14 0.11 0.11 0.13 0.17 0.20 0.19 0.17 0.20 0.31 0.41 0.49 0.52 0.47 0.39 0.34 0.35 0.35 0.30 0.27 0.22 0.17 0.18 0.16 0.12 0.09 0.07 0.06 0.06 0.03 0.01 0.00 0.00 0.00 0.00 0.00
0.20 0.23 0.24 0.26 0.28 0.28 0.21 0.14 0.10 0.09 0.11 0.15 0.16 0.14 0.14 0.15 0.19 0.23 0.31 0.39 0.42 0.37 0.29 0.27 0.28 0.29 0.27 0.22 0.17 0.18 0.18 0.15 0.11 0.07 0.05 0.05 0.03 0.02 0.02 0.02 0.00 0.00 0.00
0.27 0.26 0.27 0.29 0.33 0.36 0.27 0.19 0.14 0.12 0.15 0.16 0.17 0.15 0.13 0.11 0.12 0.15 0.20 0.25 0.30 0.34 0.33 0.28 0.25 0.26 0.27 0.23 0.17 0.13 0.13 0.11 0.09 0.07 0.04 0.03 0.03 0.03 0.04 0.04 0.02 0.01 0.00
0.35 0.32 0.30 0.30 0.34 0.41 0.36 0.25 0.19 0.17 0.21 0.22 0.22 0.19 0.16 0.12 0.10 0.10 0.14 0.18 0.20 0.21 0.24 0.25 0.23 0.21 0.20 0.19 0.16 0.11 0.09 0.07 0.06 0.06 0.04 0.02 0.01 0.02 0.05 0.04 0.03 0.03 0.01

GEFSMA_prec_meanprecacc_048.txt.gz
Total_Precipitation_Accumulation
0.68 0.74 0.62 0.57 0.48 0.61 0.86 1.04 0.94 1.02 1.13 1.00 0.82 0.73 0.66 0.58 0.51 0.46 0.48 0.58 0.56 0.59 0.68 0.67 0.62 0.57 0.57 0.58 0.61 0.61 0.61 0.61 0.53 0.40 0.28 0.24 0.23 0.22 0.21 0.22 0.21 0.21 0.18
1.08 1.12 1.02 0.92 0.71 0.76 0.97 1.16 1.13 1.22 1.15 1.12 0.83 0.75 0.68 0.67 0.60 0.55 0.54 0.60 0.57 0.48 0.48 0.55 0.60 0.64 0.64 0.61 0.57 0.51 0.50 0.51 0.47 0.39 0.32 0.26 0.23 0.24 0.28 0.31 0.29 0.22 0.15
1.54 1.57 1.39 1.14 1.03 1.19 1.27 1.25 1.22 1.42 1.13 1.01 0.86 0.90 0.86 0.79 0.68 0.62 0.58 0.53 0.46 0.40 0.36 0.39 0.50 0.60 0.71 0.76 0.70 0.61 0.51 0.45 0.36 0.29 0.27 0.23 0.19 0.18 0.23 0.28 0.32 0.28 0.19
1.65 1.79 1.48 1.20 1.38 1.56 1.50 1.41 1.42 1.55 1.36 1.28 1.16 1.04 0.92 0.80 0.57 0.52 0.44 0.36 0.36 0.29 0.32 0.39 0.44 0.52 0.74 0.86 0.90 0.89 0.71 0.51 0.34 0.23 0.20 0.20 0.18 0.14 0.13 0.16 0.24 0.29 0.23
1.22 1.26 0.96 0.90 1.18 1.26 1.13 1.09 1.30 1.37 1.29 1.32 1.22 0.94 0.72 0.56 0.44 0.38 0.36 0.24 0.25 0.25 0.25 0.34 0.35 0.44 0.69 0.91 1.04 1.06 0.95 0.73 0.52 0.35 0.31 0.27 0.24 0.18 0.13 0.13 0.16 0.23 0.22
0.83 0.86 0.69 0.70 0.96 1.01 0.92 1.03 1.11 1.11 0.97 0.97 0.83 0.55 0.51 0.39 0.35 0.31 0.24 0.20 0.20 0.18 0.17 0.24 0.32 0.30 0.52 0.74 0.86 0.91 0.94 0.85 0.67 0.53 0.48 0.42 0.37 0.27 0.17 0.13 0.13 0.16 0.17
0.73 0.82 0.72 0.79 0.94 0.93 0.89 0.93 0.95 0.83 0.64 0.77 0.77 0.47 0.30 0.25 0.25 0.21 0.18 0.16 0.13 0.13 0.15 0.22 0.30 0.34 0.32 0.35 0.59 0.71 0.90 0.98 0.81 0.65 0.58 0.53 0.50 0.38 0.26 0.21 0.16 0.13 0.12
0.62 0.71 0.66 0.58 0.63 0.65 0.59 0.62 0.74 0.74 0.63 0.71 0.73 0.56 0.31 0.24 0.20 0.14 0.15 0.13 0.11 0.14 0.17 0.20 0.29 0.40 0.41 0.48 0.47 0.45 0.67 0.86 0.95 0.91 0.81 0.66 0.55 0.43 0.37 0.35 0.27 0.18 0.14
0.39 0.46 0.49 0.50 0.54 0.62 0.59 0.58 0.61 0.63 0.56 0.52 0.55 0.55 0.37 0.20 0.17 0.15 0.15 0.12 0.14 0.20 0.26 0.29 0.32 0.34 0.41 0.56 0.62 0.56 0.52 0.57 0.90 1.14 0.99 0.74 0.49 0.40 0.41 0.46 0.42 0.28 0.24
0.27 0.30 0.33 0.33 0.40 0.51 0.57 0.51 0.50 0.51 0.49 0.39 0.40 0.40 0.37 0.32 0.27 0.19 0.16 0.16 0.20 0.26 0.35 0.42 0.47 0.46 0.45 0.52 0.70 0.78 0.63 0.51 0.66 0.82 0.86 0.83 0.66 0.49 0.43 0.52 0.68 0.62 0.43
0.26 0.27 0.27 0.27 0.30 0.35 0.38 0.40 0.45 0.46 0.44 0.35 0.32 0.36 0.42 0.43 0.42 0.34 0.25 0.21 0.20 0.20 0.30 0.41 0.52 0.55 0.49 0.57 0.75 0.86 0.87 0.70 0.52 0.43 0.54 0.68 0.71 0.63 0.54 0.61 0.88 1.04 0.97
0.26 0.29 0.30 0.30 0.32 0.32 0.33 0.35 0.38 0.41 0.43 0.42 0.37 0.39 0.45 0.47 0.43 0.44 0.37 0.30 0.27 0.25 0.29 0.41 0.65 0.77 0.69 0.68 0.62 0.63 0.62 0.53 0.46 0.41 0.42 0.47 0.51 0.54 0.59 0.74 0.97 1.20 1.35
0.23 0.27 0.32 0.34 0.36 0.37 0.36 0.37 0.37 0.38 0.44 0.48 0.48 0.44 0.43 0.45 0.48 0.49 0.44 0.37 0.39 0.41 0.51 0.54 0.60 0.70 0.67 0.68 0.59 0.43 0.28 0.24 0.24 0.26 0.34 0.47 0.58 0.68 0.70 0.71 0.82 0.98 1.11
0.24 0.28 0.29 0.30 0.33 0.35 0.37 0.39 0.35 0.35 0.44 0.51 0.54 0.60 0.57 0.49 0.59 0.61 0.54 0.53 0.51 0.58 0.72 0.67 0.59 0.58 0.59 0.61 0.49 0.33 0.20 0.15 0.12 0.11 0.13 0.14 0.19 0.28 0.37 0.44 0.56 0.68 0.80
0.26 0.28 0.29 0.30 0.32 0.33 0.36 0.38 0.40 0.44 0.50 0.54 0.61 0.72 0.74 0.70 0.69 0.69 0.67 0.67 0.68 0.66 0.70 0.67 0.53 0.49 0.50 0.46 0.36 0.29 0.17 0.12 0.10 0.09 0.09 0.09 0.08 0.10 0.12 0.15 0.20 0.27 0.34
0.22 0.26 0.32 0.33 0.33 0.34 0.41 0.47 0.47 0.48 0.56 0.66 0.77 0.86 0.88 0.89 0.87 0.77 0.74 0.73 0.69 0.71 0.71 0.60 0.49 0.48 0.44 0.31 0.26 0.21 0.13 0.10 0.09 0.08 0.08 0.07 0.07 0.09 0.09 0.09 0.10 0.12 0.14
0.20 0.24 0.29 0.33 0.34 0.41 0.59 0.75 0.74 0.66 0.72 0.81 0.90 1.00 1.04 1.06 1.05 0.93 0.82 0.73 0.70 0.73 0.67 0.52 0.43 0.40 0.34 0.25 0.20 0.14 0.10 0.07 0.06 0.08 0.07 0.06 0.05 0.06 0.06 0.06 0.06 0.07 0.08
0.18 0.17 0.19 0.23 0.26 0.33 0.48 0.79 0.96 0.98 0.95 0.88 0.93 1.08 1.16 1.12 1.01 0.94 0.90 0.81 0.76 0.77 0.68 0.53 0.45 0.39 0.34 0.30 0.25 0.19 0.12 0.08 0.06 0.09 0.07 0.05 0.05 0.04 0.03 0.03 0.03 0.04 0.05
0.18 0.17 0.18 0.23 0.28 0.29 0.35 0.55 0.77 0.89 0.92 0.88 0.93 0.98 1.00 1.06 1.03 0.94 0.85 0.80 0.76 0.81 0.72 0.55 0.49 0.43 0.38 0.34 0.28 0.22 0.16 0.12 0.07 0.07 0.08 0.07 0.06 0.03 0.02 0.02 0.02 0.02 0.02
0.16 0.19 0.23 0.28 0.29 0.25 0.26 0.39 0.53 0.63 0.68 0.73 0.79 0.84 0.87 0.90 0.95 0.98 0.91 0.83 0.81 0.79 0.71 0.59 0.51 0.52 0.44 0.38 0.30 0.24 0.19 0.13 0.08 0.04 0.06 0.10 0.09 0.04 0.02 0.01 0.01 0.01 0.01
0.12 0.18 0.25 0.27 0.25 0.23 0.27 0.39 0.43 0.39 0.43 0.48 0.51 0.52 0.64 0.80 0.90 0.95 0.91 0.86 0.84 0.78 0.73 0.67 0.58 0.53 0.48 0.41 0.32 0.22 0.16 0.13 0.09 0.05 0.04 0.05 0.04 0.02 0.01 0.01 0.01 0.01 0.01
0.16 0.19 0.21 0.24 0.24 0.20 0.25 0.29 0.27 0.25 0.27 0.31 0.33 0.31 0.32 0.46 0.65 0.78 0.81 0.80 0.81 0.79 0.76 0.70 0.67 0.62 0.49 0.38 0.29 0.21 0.14 0.10 0.10 0.09 0.08 0.07 0.04 0.02 0.00 0.00 0.00 0.01 0.01
0.22 0.24 0.25 0.27 0.27 0.27 0.22 0.18 0.15 0.16 0.19 0.25 0.27 0.26 0.21 0.21 0.33 0.46 0.57 0.63 0.66 0.63 0.65 0.71 0.72 0.66 0.59 0.45 0.31 0.24 0.20 0.14 0.10 0.07 0.06 0.06 0.03 0.01 0.00 0.00 0.00 0.00 0.00
0.28 0.30 0.31 0.34 0.38 0.37 0.26 0.18 0.14 0.13 0.17 0.23 0.25 0.23 0.20 0.20 0.22 0.27 0.36 0.45 0.51 0.51 0.48 0.50 0.57 0.64 0.67 0.57 0.40 0.32 0.26 0.20 0.13 0.07 0.05 0.06 0.03 0.02 0.02 0.02 0.00 0.00 0.00
0.35 0.35 0.37 0.40 0.45 0.49 0.37 0.24 0.18 0.17 0.21 0.24 0.25 0.24 0.22 0.18 0.17 0.18 0.25 0.30 0.36 0.44 0.46 0.46 0.47 0.51 0.56 0.57 0.49 0.34 0.24 0.16 0.11 0.08 0.04 0.03 0.03 0.04 0.04 0.04 0.02 0.01 0.00
0.43 0.41 0.39 0.41 0.47 0.56 0.47 0.29 0.22 0.23 0.30 0.31 0.33 0.30 0.24 0.20 0.16 0.12 0.17 0.23 0.26 0.29 0.35 0.39 0.41 0.40 0.38 0.40 0.41 0.32 0.21 0.14 0.09 0.07 0.04 0.02 0.01 0.02 0.05 0.04 0.03 0.03 0.01

GEFSMA_prec_meanprecacc_054.txt.gz
Total_Precipitation_Accumulation
0.76 0.81 0.70 0.67 0.61 0.78 1.06 1.26 1.19 1.28 1.38 1.23 0.98 0.84 0.75 0.66 0.57 0.51 0.53 0.68 0.67 0.70 0.81 0.80 0.72 0.65 0.63 0.61 0.63 0.64 0.64 0.65 0.57 0.41 0.29 0.24 0.23 0.22 0.21 0.22 0.21 0.22 0.18
1.16 1.19 1.08 0.99 0.78 0.87 1.12 1.37 1.40 1.53 1.50 1.45 1.11 0.98 0.85 0.82 0.73 0.66 0.65 0.75 0.78 0.67 0.66 0.73 0.75 0.76 0.73 0.68 0.60 0.54 0.53 0.56 0.51 0.42 0.34 0.27 0.24 0.25 0.29 0.31 0.29 0.23 0.15
1.60 1.61 1.43 1.19 1.09 1.28 1.38 1.39 1.44 1.76 1.57 1.44 1.23 1.24 1.15 1.03 0.88 0.81 0.78 0.76 0.66 0.62 0.58 0.56 0.63 0.72 0.81 0.83 0.74 0.63 0.54 0.48 0.40 0.32 0.29 0.25 0.20 0.20 0.24 0.29 0.33 0.28 0.19
1.70 1.84 1.52 1.25 1.44 1.63 1.57 1.50 1.56 1.75 1.72 1.75 1.62 1.47 1.31 1.14 0.85 0.79 0.74 0.65 0.63 0.47 0.48 0.57 0.59 0.64 0.84 0.94 0.95 0.93 0.73 0.52 0.36 0.25 0.22 0.22 0.20 0.16 0.15 0.17 0.24 0.29 0.23
1.24 1.29 0.99 0.93 1.22 1.31 1.19 1.15 1.38 1.52 1.52 1.63 1.61 1.33 1.08 0.90 0.75 0.67 0.66 0.51 0.50 0.48 0.41 0.50 0.54 0.59 0.81 1.00 1.13 1.16 1.01 0.77 0.54 0.37 0.32 0.29 0.26 0.20 0.15 0.15 0.18 0.24 0.23
0.84 0.87 0.71 0.71 0.98 1.04 0.96 1.08 1.18 1.21 1.15 1.22 1.12 0.84 0.76 0.63 0.61 0.56 0.45 0.40 0.39 0.36 0.38 0.41 0.48 0.43 0.65 0.87 1.00 1.03 1.04 0.93 0.72 0.56 0.50 0.44 0.39 0.29 0.18 0.14 0.15 0.17 0.18
0.73 0.82 0.72 0.79 0.94 0.94 0.91 0.97 1.03 0.95 0.80 0.96 1.01 0.72 0.53 0.46 0.46 0.39 0.32 0.30 0.25 0.26 0.33 0.40 0.46 0.47 0.39 0.43 0.68 0.82 1.02 1.08 0.90 0.71 0.62 0.57 0.54 0.41 0.28 0.23 0.17 0.14 0.12
0.63 0.72 0.66 0.58 0.63 0.65 0.60 0.64 0.81 0.83 0.73 0.85 0.93 0.79 0.54 0.47 0.39 0.26 0.26 0.23 0.20 0.25 0.33 0.36 0.46 0.56 0.54 0.57 0.51 0.51 0.76 0.94 1.04 0.98 0.87 0.71 0.58 0.45 0.38 0.36 0.28 0.19 0.15
0.39 0.46 0.49 0.50 0.55 0.62 0.60 0.60 0.64 0.68 0.62 0.63 0.76 0.83 0.62 0.40 0.34 0.30 0.28 0.23 0.23 0.31 0.38 0.45 0.48 0.50 0.55 0.66 0.68 0.61 0.59 0.63 0.98 1.22 1.06 0.78 0.52 0.42 0.43 0.47 0.43 0.29 0.25
0.27 0.30 0.33 0.34 0.41 0.52 0.58 0.54 0.54 0.57 0.56 0.48 0.52 0.59 0.58 0.52 0.44 0.33 0.31 0.31 0.31 0.38 0.50 0.59 0.65 0.60 0.56 0.60 0.76 0.83 0.67 0.55 0.71 0.90 0.95 0.90 0.70 0.52 0.45 0.54 0.70 0.64 0.44
0.26 0.27 0.28 0.28 0.31 0.35 0.39 0.42 0.48 0.52 0.53 0.48 0.47 0.52 0.59 0.60 0.56 0.47 0.37 0.36 0.33 0.29 0.40 0.55 0.68 0.70 0.60 0.65 0.81 0.91 0.91 0.73 0.56 0.47 0.61 0.75 0.76 0.66 0.57 0.64 0.94 1.11 1.02
0.26 0.29 0.30 0.30 0.32 0.32 0.33 0.36 0.39 0.43 0.48 0.52 0.50 0.54 0.63 0.65 0.59 0.56 0.49 0.42 0.39 0.34 0.37 0.52 0.74 0.85 0.78 0.75 0.67 0.66 0.65 0.56 0.48 0.44 0.46 0.51 0.56 0.58 0.64 0.80 1.05 1.31 1.45
0.23 0.27 0.32 0.34 0.37 0.37 0.37 0.37 0.38 0.40 0.46 0.54 0.54 0.53 0.55 0.60 0.65 0.64 0.57 0.48 0.51 0.52 0.61 0.63 0.67 0.75 0.72 0.73 0.62 0.46 0.31 0.26 0.26 0.28 0.36 0.50 0.61 0.71 0.74 0.75 0.89 1.05 1.20
0.24 0.28 0.29 0.30 0.34 0.35 0.37 0.39 0.36 0.36 0.45 0.54 0.59 0.67 0.65 0.58 0.72 0.78 0.71 0.69 0.66 0.71 0.85 0.78 0.67 0.63 0.63 0.63 0.51 0.35 0.21 0.16 0.14 0.13 0.14 0.16 0.21 0.30 0.38 0.46 0.58 0.71 0.84
0.26 0.28 0.29 0.30 0.32 0.34 0.36 0.38 0.40 0.44 0.50 0.54 0.62 0.76 0.81 0.77 0.77 0.82 0.85 0.86 0.88 0.84 0.84 0.79 0.65 0.57 0.54 0.49 0.38 0.30 0.18 0.13 0.11 0.10 0.10 0.09 0.10 0.12 0.14 0.16 0.22 0.28 0.36
0.22 0.26 0.32 0.33 0.33 0.35 0.41 0.48 0.47 0.48 0.56 0.66 0.78 0.87 0.91 0.95 0.93 0.86 0.89 0.90 0.90 0.93 0.89 0.74 0.63 0.61 0.52 0.36 0.28 0.22 0.14 0.11 0.09 0.09 0.09 0.08 0.08 0.10 0.11 0.10 0.11 0.13 0.16
0.20 0.24 0.29 0.34 0.34 0.41 0.59 0.75 0.75 0.66 0.72 0.81 0.90 1.00 1.05 1.09 1.09 1.00 0.94 0.90 0.87 0.93 0.87 0.72 0.64 0.61 0.48 0.32 0.24 0.16 0.11 0.08 0.07 0.08 0.07 0.06 0.06 0.06 0.07 0.07 0.07 0.08 0.10
0.18 0.17 0.19 0.23 0.27 0.33 0.48 0.79 0.96 0.99 0.96 0.88 0.93 1.09 1.17 1.13 1.04 0.99 0.98 0.94 0.91 0.96 0.90 0.79 0.74 0.64 0.53 0.42 0.31 0.23 0.13 0.08 0.06 0.09 0.07 0.06 0.06 0.05 0.03 0.04 0.04 0.05 0.06
0.18 0.17 0.18 0.23 0.28 0.29 0.35 0.55 0.77 0.90 0.92 0.89 0.94 0.98 1.01 1.07 1.05 0.97 0.91 0.89 0.88 0.97 0.94 0.83 0.85 0.77 0.65 0.52 0.38 0.27 0.19 0.13 0.08 0.07 0.09 0.08 0.06 0.04 0.03 0.03 0.03 0.03 0.04
0.17 0.20 0.23 0.28 0.29 0.26 0.27 0.39 0.54 0.64 0.69 0.74 0.79 0.84 0.87 0.91 0.96 1.00 0.94 0.89 0.91 0.92 0.91 0.88 0.89 0.94 0.80 0.62 0.44 0.33 0.23 0.15 0.09 0.05 0.07 0.11 0.10 0.04 0.02 0.02 0.02 0.02 0.03
0.12 0.18 0.25 0.27 0.25 0.23 0.27 0.39 0.43 0.39 0.43 0.49 0.52 0.53 0.64 0.81 0.91 0.96 0.93 0.89 0.91 0.90 0.89 0.92 0.93 0.98 0.93 0.70 0.47 0.31 0.22 0.16 0.10 0.06 0.04 0.05 0.05 0.02 0.01 0.01 0.01 0.01 0.02
0.16 0.19 0.21 0.24 0.24 0.20 0.25 0.30 0.28 0.26 0.28 0.32 0.34 0.32 0.33 0.47 0.66 0.80 0.83 0.83 0.86 0.88 0.90 0.89 0.93 0.97 0.93 0.74 0.49 0.34 0.23 0.14 0.12 0.10 0.08 0.08 0.05 0.03 0.01 0.00 0.01 0.01 0.01
0.22 0.24 0.25 0.27 0.27 0.27 0.22 0.19 0.16 0.18 0.21 0.27 0.30 0.28 0.22 0.22 0.35 0.48 0.59 0.66 0.69 0.68 0.76 0.88 0.95 0.94 0.96 0.86 0.63 0.41 0.29 0.20 0.12 0.08 0.07 0.07 0.04 0.01 0.01 0.01 0.01 0.01 0.01
0.28 0.30 0.31 0.34 0.39 0.37 0.27 0.18 0.14 0.14 0.18 0.25 0.28 0.25 0.22 0.21 0.24 0.29 0.39 0.48 0.54 0.54 0.53 0.61 0.76 0.89 0.99 1.01 0.82 0.61 0.42 0.28 0.18 0.09 0.06 0.06 0.04 0.03 0.02 0.02 0.01 0.01 0.00
0.35 0.35 0.37 0.40 0.46 0.49 0.38 0.24 0.18 0.18 0.23 0.26 0.28 0.26 0.24 0.19 0.19 0.21 0.28 0.33 0.38 0.47 0.51 0.53 0.62 0.79 0.90 0.96 0.98 0.78 0.52 0.29 0.17 0.12 0.06 0.04 0.03 0.04 0.05 0.04 0.02 0.01 0.00
0.44 0.42 0.39 0.42 0.48 0.57 0.48 0.29 0.22 0.25 0.32 0.33 0.36 0.34 0.27 0.23 0.19 0.16 0.21 0.26 0.29 0.32 0.39 0.44 0.51 0.61 0.71 0.76 0.82 0.74 0.54 0.33 0.18 0.12 0.06 0.02 0.02 0.03 0.05 0.04 0.03 0.03 0.01

GEFSMA_prec_meanprecacc_060.txt.gz
Total_Precipitation_Accumulation
0.95 0.98 0.86 0.84 0.74 0.90 1.18 1.38 1.33 1.47 1.60 1.43 1.18 1.01 0.89 0.75 0.62 0.54 0.55 0.70 0.71 0.75 0.89 0.93 0.90 0.81 0.78 0.74 0.73 0.71 0.69 0.69 0.58 0.42 0.29 0.24 0.23 0.22 0.21 0.22 0.21 0.22 0.18
1.30 1.34 1.22 1.11 0.88 0.97 1.21 1.46 1.51 1.66 1.65 1.62 1.26 1.13 0.98 0.92 0.81 0.72 0.69 0.78 0.82 0.74 0.74 0.85 0.92 0.94 0.92 0.85 0.74 0.64 0.60 0.62 0.56 0.45 0.35 0.27 0.24 0.25 0.29 0.31 0.29 0.23 0.15
1.71 1.73 1.54 1.29 1.17 1.35 1.45 1.46 1.52 1.87 1.70 1.54 1.31 1.36 1.29 1.17 1.00 0.89 0.86 0.83 0.71 0.69 0.68 0.68 0.79 0.90 1.03 1.04 0.92 0.78 0.64 0.56 0.48 0.38 0.33 0.27 0.21 0.20 0.24 0.29 0.33 0.29 0.19
1.78 1.92 1.62 1.32 1.49 1.68 1.62 1.55 1.60 1.80 1.78 1.82 1.68 1.56 1.43 1.28 0.98 0.89 0.84 0.74 0.69 0.52 0.56 0.69 0.75 0.82 1.07 1.20 1.17 1.13 0.89 0.63 0.44 0.32 0.28 0.25 0.23 0.19 0.17 0.18 0.24 0.30 0.23
1.27 1.32 1.02 0.95 1.24 1.33 1.20 1.17 1.41 1.56 1.56 1.68 1.68 1.41 1.19 1.01 0.84 0.78 0.76 0.60 0.59 0.57 0.50 0.62 0.70 0.76 1.04 1.30 1.44 1.42 1.23 0.93 0.65 0.45 0.40 0.35 0.31 0.24 0.17 0.16 0.18 0.24 0.23
0.85 0.88 0.71 0.72 0.98 1.04 0.96 1.08 1.18 1.22 1.16 1.23 1.15 0.90 0.85 0.73 0.71 0.66 0.54 0.50 0.48 0.45 0.48 0.54 0.63 0.58 0.85 1.14 1.32 1.36 1.34 1.16 0.88 0.68 0.61 0.54 0.49 0.37 0.24 0.18 0.18 0.20 0.19
0.74 0.83 0.72 0.79 0.94 0.94 0.91 0.97 1.03 0.96 0.80 0.97 1.03 0.75 0.59 0.55 0.55 0.48 0.43 0.41 0.34 0.33 0.41 0.49 0.58 0.61 0.53 0.62 0.91 1.08 1.32 1.38 1.12 0.87 0.75 0.70 0.67 0.53 0.36 0.27 0.22 0.19 0.16
0.63 0.72 0.66 0.58 0.63 0.65 0.60 0.64 0.81 0.83 0.73 0.86 0.95 0.82 0.57 0.51 0.46 0.33 0.34 0.32 0.28 0.34 0.42 0.44 0.55 0.66 0.67 0.70 0.62 0.66 0.98 1.21 1.28 1.18 1.02 0.84 0.69 0.55 0.46 0.41 0.33 0.24 0.19
0.39 0.46 0.49 0.50 0.55 0.62 0.60 0.60 0.64 0.68 0.62 0.63 0.78 0.88 0.67 0.44 0.38 0.34 0.32 0.28 0.30 0.40 0.47 0.55 0.57 0.57 0.64 0.76 0.77 0.73 0.78 0.83 1.19 1.45 1.25 0.92 0.62 0.49 0.48 0.53 0.49 0.34 0.29
0.27 0.30 0.33 0.34 0.41 0.52 0.58 0.54 0.54 0.57 0.56 0.49 0.55 0.64 0.64 0.57 0.50 0.38 0.35 0.35 0.38 0.47 0.60 0.67 0.73 0.68 0.65 0.69 0.82 0.90 0.77 0.70 0.88 1.12 1.19 1.09 0.82 0.58 0.49 0.59 0.78 0.72 0.49
0.26 0.27 0.28 0.28 0.31 0.35 0.39 0.42 0.48 0.52 0.53 0.49 0.48 0.54 0.62 0.64 0.62 0.53 0.43 0.40 0.38 0.34 0.48 0.65 0.76 0.76 0.67 0.73 0.87 0.96 0.97 0.82 0.66 0.61 0.80 0.95 0.91 0.75 0.63 0.71 1.05 1.24 1.12
0.26 0.29 0.30 0.30 0.32 0.32 0.33 0.36 0.39 0.43 0.49 0.52 0.51 0.55 0.64 0.68 0.64 0.62 0.54 0.46 0.43 0.38 0.42 0.58 0.81 0.90 0.82 0.80 0.71 0.69 0.70 0.61 0.54 0.51 0.55 0.62 0.68 0.69 0.72 0.87 1.15 1.44 1.58
0.23 0.27 0.32 0.34 0.37 0.37 0.37 0.37 0.38 0.40 0.47 0.54 0.54 0.53 0.56 0.62 0.68 0.70 0.63 0.53 0.55 0.56 0.66 0.68 0.72 0.80 0.77 0.77 0.66 0.51 0.36 0.32 0.30 0.32 0.42 0.56 0.68 0.79 0.81 0.82 0.96 1.15 1.31
0.24 0.28 0.29 0.30 0.34 0.35 0.37 0.39 0.36 0.36 0.45 0.54 0.59 0.67 0.65 0.58 0.74 0.81 0.76 0.74 0.71 0.76 0.91 0.84 0.73 0.69 0.68 0.69 0.57 0.43 0.27 0.22 0.20 0.18 0.19 0.20 0.25 0.34 0.42 0.50 0.62 0.75 0.89
0.26 0.28 0.29 0.30 0.32 0.34 0.36 0.38 0.40 0.44 0.50 0.54 0.62 0.76 0.81 0.78 0.78 0.83 0.88 0.92 0.95 0.91 0.90 0.86 0.73 0.65 0.61 0.56 0.47 0.39 0.24 0.17 0.17 0.16 0.15 0.14 0.13 0.15 0.16 0.19 0.24 0.30 0.37
0.22 0.26 0.32 0.33 0.33 0.35 0.41 0.48 0.47 0.48 0.56 0.66 0.78 0.87 0.91 0.95 0.93 0.86 0.90 0.95 0.96 1.00 0.96 0.79 0.71 0.71 0.61 0.44 0.37 0.31 0.22 0.20 0.18 0.16 0.14 0.13 0.12 0.14 0.14 0.13 0.13 0.15 0.18
0.20 0.24 0.29 0.34 0.34 0.41 0.59 0.75 0.75 0.66 0.72 0.81 0.90 1.00 1.05 1.09 1.09 1.00 0.95 0.92 0.92 1.00 0.94 0.78 0.71 0.71 0.59 0.42 0.32 0.25 0.19 0.16 0.14 0.15 0.13 0.10 0.09 0.10 0.10 0.10 0.10 0.11 0.12
0.18 0.17 0.19 0.23 0.27 0.33 0.48 0.79 0.96 0.99 0.96 0.88 0.93 1.09 1.17 1.13 1.04 0.99 0.99 0.95 0.94 1.02 0.96 0.87 0.83 0.76 0.67 0.56 0.43 0.33 0.23 0.16 0.12 0.15 0.12 0.09 0.09 0.07 0.06 0.05 0.06 0.06 0.08
0.18 0.17 0.18 0.23 0.28 0.29 0.35 0.55 0.77 0.90 0.92 0.89 0.94 0.98 1.01 1.07 1.05 0.97 0.91 0.90 0.91 1.02 1.01 0.92 0.98 0.93 0.81 0.68 0.53 0.39 0.29 0.21 0.14 0.13 0.13 0.11 0.09 0.06 0.04 0.04 0.03 0.04 0.05
0.17 0.20 0.23 0.28 0.29 0.26 0.27 0.39 0.54 0.64 0.69 0.74 0.79 0.84 0.87 0.91 0.96 1.00 0.94 0.90 0.93 0.96 0.97 0.97 1.02 1.13 1.00 0.81 0.61 0.45 0.34 0.23 0.14 0.08 0.10 0.14 0.12 0.07 0.04 0.03 0.03 0.03 0.03
0.12 0.18 0.25 0.27 0.25 0.23 0.27 0.39 0.43 0.39 0.43 0.49 0.52 0.53 0.64 0.81 0.91 0.96 0.93 0.90 0.93 0.93 0.94 0.99 1.04 1.17 1.17 0.95 0.67 0.45 0.33 0.25 0.16 0.09 0.07 0.07 0.06 0.03 0.02 0.02 0.03 0.02 0.02
0.16 0.19 0.21 0.24 0.24 0.20 0.25 0.30 0.28 0.26 0.28 0.32 0.34 0.32 0.33 0.47 0.67 0.80 0.83 0.83 0.87 0.90 0.94 0.95 1.03 1.11 1.15 1.01 0.76 0.56 0.38 0.25 0.18 0.14 0.11 0.10 0.07 0.04 0.02 0.01 0.02 0.03 0.02
0.22 0.24 0.25 0.27 0.27 0.27 0.22 0.19 0.16 0.18 0.21 0.27 0.30 0.28 0.22 0.22 0.35 0.48 0.59 0.67 0.70 0.71 0.79 0.92 1.02 1.04 1.13 1.12 0.96 0.72 0.52 0.35 0.20 0.12 0.09 0.10 0.07 0.03 0.02 0.02 0.04 0.02 0.02
0.28 0.30 0.31 0.34 0.39 0.37 0.27 0.18 0.14 0.14 0.18 0.25 0.28 0.25 0.22 0.22 0.25 0.30 0.39 0.48 0.54 0.56 0.56 0.66 0.82 1.00 1.14 1.23 1.13 0.98 0.78 0.55 0.35 0.20 0.10 0.08 0.06 0.05 0.04 0.04 0.04 0.03 0.02
0.35 0.35 0.37 0.41 0.46 0.50 0.38 0.24 0.18 0.18 0.23 0.26 0.28 0.26 0.24 0.20 0.19 0.22 0.29 0.33 0.39 0.48 0.53 0.57 0.69 0.90 1.08 1.20 1.30 1.17 0.93 0.65 0.43 0.28 0.15 0.07 0.05 0.06 0.07 0.05 0.04 0.04 0.02
0.44 0.42 0.40 0.42 0.48 0.57 0.48 0.30 0.23 0.25 0.32 0.33 0.36 0.34 0.28 0.24 0.20 0.16 0.22 0.27 0.30 0.33 0.41 0.47 0.56 0.71 0.87 0.99 1.11 1.07 0.87 0.64 0.42 0.28 0.16 0.07 0.04 0.04 0.06 0.06 0.04 0.03 0.02

GEFSMA_prec_meanprecacc_066.txt.gz
Total_Precipitation_Accumulation
1.14 1.16 1.05 1.02 0.92 1.07 1.33 1.53 1.47 1.61 1.72 1.56 1.31 1.15 1.04 0.88 0.73 0.63 0.62 0.74 0.74 0.79 0.95 1.01 1.03 1.00 0.98 0.92 0.86 0.81 0.75 0.72 0.61 0.44 0.31 0.26 0.24 0.23 0.21 0.22 0.21 0.22 0.18
1.44 1.49 1.38 1.26 1.02 1.10 1.31 1.56 1.60 1.75 1.74 1.73 1.37 1.24 1.10 1.05 0.92 0.83 0.78 0.86 0.87 0.79 0.80 0.91 1.01 1.08 1.11 1.07 0.93 0.77 0.72 0.70 0.62 0.49 0.38 0.30 0.26 0.26 0.29 0.32 0.30 0.23 0.15
1.79 1.82 1.64 1.38 1.26 1.43 1.52 1.53 1.58 1.93 1.77 1.61 1.38 1.43 1.37 1.26 1.08 0.97 0.95 0.91 0.77 0.73 0.71 0.73 0.85 0.99 1.16 1.21 1.13 0.97 0.79 0.68 0.58 0.45 0.37 0.30 0.24 0.23 0.26 0.30 0.34 0.29 0.19
1.84 1.98 1.67 1.37 1.53 1.72 1.67 1.59 1.63 1.84 1.83 1.88 1.74 1.61 1.49 1.34 1.04 0.94 0.91 0.81 0.75 0.57 0.60 0.72 0.80 0.88 1.16 1.32 1.34 1.32 1.07 0.78 0.55 0.42 0.36 0.31 0.27 0.22 0.19 0.19 0.25 0.30 0.23
1.29 1.34 1.03 0.97 1.25 1.33 1.21 1.18 1.43 1.57 1.57 1.70 1.70 1.44 1.23 1.05 0.88 0.82 0.80 0.63 0.65 0.61 0.55 0.66 0.75 0.82 1.11 1.38 1.57 1.61 1.43 1.12 0.81 0.58 0.52 0.44 0.37 0.28 0.20 0.18 0.19 0.25 0.23
0.85 0.89 0.72 0.72 0.99 1.04 0.96 1.08 1.18 1.23 1.17 1.24 1.16 0.91 0.87 0.75 0.74 0.70 0.58 0.55 0.53 0.49 0.52 0.59 0.70 0.64 0.91 1.22 1.43 1.52 1.53 1.36 1.07 0.84 0.75 0.66 0.58 0.44 0.28 0.20 0.19 0.20 0.19
0.74 0.83 0.72 0.80 0.95 0.94 0.92 0.97 1.03 0.96 0.80 0.98 1.03 0.75 0.60 0.56 0.57 0.52 0.48 0.46 0.39 0.38 0.46 0.56 0.65 0.69 0.59 0.68 0.99 1.18 1.47 1.56 1.32 1.04 0.91 0.85 0.79 0.63 0.43 0.32 0.25 0.20 0.17
0.63 0.72 0.66 0.58 0.63 0.65 0.60 0.65 0.81 0.83 0.73 0.87 0.95 0.82 0.58 0.53 0.48 0.36 0.38 0.37 0.34 0.41 0.50 0.53 0.64 0.77 0.77 0.80 0.69 0.73 1.09 1.39 1.49 1.38 1.21 0.99 0.83 0.67 0.56 0.50 0.38 0.26 0.21
0.39 0.46 0.49 0.50 0.55 0.62 0.60 0.60 0.65 0.68 0.62 0.64 0.78 0.89 0.68 0.46 0.39 0.36 0.35 0.32 0.36 0.47 0.56 0.65 0.69 0.70 0.76 0.89 0.88 0.81 0.89 0.96 1.39 1.66 1.45 1.10 0.75 0.58 0.55 0.60 0.55 0.38 0.31
0.27 0.30 0.33 0.34 0.41 0.52 0.58 0.54 0.54 0.57 0.56 0.49 0.55 0.64 0.65 0.60 0.52 0.40 0.38 0.39 0.42 0.51 0.66 0.75 0.82 0.78 0.76 0.81 0.94 0.98 0.84 0.77 1.00 1.31 1.40 1.31 1.01 0.71 0.57 0.65 0.85 0.79 0.52
0.26 0.27 0.28 0.28 0.31 0.35 0.39 0.42 0.49 0.52 0.54 0.49 0.48 0.55 0.62 0.65 0.64 0.56 0.45 0.43 0.41 0.38 0.52 0.70 0.82 0.84 0.77 0.84 1.00 1.06 1.03 0.88 0.73 0.73 0.96 1.15 1.13 0.92 0.74 0.80 1.14 1.35 1.21
0.26 0.29 0.30 0.30 0.32 0.33 0.34 0.36 0.39 0.43 0.49 0.53 0.52 0.56 0.65 0.69 0.65 0.64 0.56 0.49 0.45 0.41 0.46 0.63 0.86 0.97 0.92 0.91 0.83 0.80 0.78 0.67 0.59 0.58 0.64 0.75 0.85 0.86 0.85 0.99 1.27 1.56 1.71
0.23 0.27 0.32 0.34 0.37 0.37 0.37 0.38 0.38 0.40 0.47 0.54 0.55 0.53 0.56 0.62 0.69 0.71 0.65 0.56 0.58 0.58 0.68 0.72 0.78 0.88 0.86 0.88 0.80 0.64 0.46 0.39 0.36 0.38 0.48 0.63 0.77 0.91 0.94 0.93 1.09 1.29 1.46
0.24 0.28 0.29 0.30 0.34 0.36 0.37 0.39 0.36 0.36 0.46 0.54 0.60 0.68 0.65 0.58 0.74 0.81 0.77 0.76 0.73 0.78 0.93 0.87 0.78 0.76 0.78 0.80 0.70 0.57 0.38 0.30 0.26 0.23 0.24 0.26 0.31 0.42 0.52 0.59 0.70 0.84 0.97
0.26 0.28 0.29 0.30 0.32 0.34 0.37 0.39 0.40 0.44 0.51 0.55 0.63 0.76 0.82 0.78 0.78 0.83 0.89 0.93 0.97 0.93 0.92 0.89 0.78 0.71 0.69 0.65 0.57 0.49 0.34 0.27 0.25 0.23 0.21 0.19 0.19 0.21 0.23 0.26 0.30 0.35 0.41
0.22 0.26 0.32 0.33 0.33 0.35 0.42 0.48 0.48 0.49 0.57 0.66 0.78 0.87 0.91 0.95 0.93 0.87 0.91 0.95 0.97 1.03 1.00 0.84 0.76 0.77 0.68 0.51 0.47 0.40 0.31 0.31 0.28 0.25 0.23 0.21 0.19 0.21 0.21 0.20 0.18 0.19 0.21
0.20 0.24 0.29 0.34 0.34 0.41 0.59 0.76 0.75 0.66 0.72 0.82 0.91 1.01 1.05 1.10 1.10 1.00 0.95 0.93 0.93 1.01 0.96 0.82 0.76 0.77 0.65 0.49 0.41 0.35 0.30 0.28 0.25 0.26 0.23 0.20 0.19 0.19 0.20 0.19 0.16 0.14 0.14
0.18 0.17 0.19 0.24 0.27 0.33 0.48 0.80 0.97 0.99 0.96 0.89 0.94 1.10 1.18 1.14 1.05 0.99 0.99 0.96 0.95 1.03 0.98 0.90 0.87 0.81 0.73 0.62 0.51 0.43 0.33 0.28 0.24 0.28 0.25 0.21 0.19 0.17 0.16 0.15 0.14 0.12 0.12
0.18 0.17 0.18 0.23 0.28 0.29 0.35 0.56 0.78 0.90 0.93 0.89 0.95 0.99 1.02 1.08 1.06 0.98 0.92 0.91 0.91 1.02 1.01 0.93 1.00 0.98 0.87 0.75 0.61 0.49 0.40 0.34 0.27 0.25 0.26 0.24 0.21 0.16 0.14 0.13 0.12 0.11 0.10
0.17 0.20 0.23 0.28 0.29 0.26 0.27 0.40 0.55 0.65 0.70 0.75 0.81 0.85 0.89 0.92 0.97 1.01 0.96 0.91 0.94 0.96 0.98 0.97 1.03 1.17 1.07 0.90 0.70 0.57 0.46 0.39 0.34 0.24 0.23 0.26 0.24 0.18 0.15 0.13 0.11 0.10 0.09
0.13 0.18 0.25 0.28 0.26 0.23 0.27 0.39 0.44 0.40 0.45 0.50 0.53 0.54 0.66 0.82 0.92 0.97 0.94 0.91 0.94 0.94 0.94 1.00 1.05 1.19 1.22 1.04 0.79 0.59 0.48 0.43 0.38 0.32 0.24 0.19 0.17 0.14 0.12 0.12 0.12 0.10 0.07
0.17 0.20 0.22 0.25 0.24 0.20 0.25 0.30 0.28 0.26 0.29 0.34 0.36 0.34 0.35 0.48 0.67 0.80 0.83 0.83 0.88 0.92 0.95 0.96 1.04 1.13 1.19 1.09 0.89 0.73 0.57 0.44 0.41 0.37 0.34 0.27 0.17 0.15 0.11 0.08 0.09 0.09 0.07
0.22 0.25 0.26 0.28 0.28 0.28 0.22 0.19 0.16 0.18 0.22 0.29 0.32 0.30 0.24 0.23 0.36 0.49 0.60 0.67 0.70 0.71 0.79 0.93 1.04 1.06 1.16 1.18 1.07 0.88 0.73 0.58 0.43 0.36 0.34 0.34 0.25 0.15 0.11 0.11 0.11 0.08 0.07
0.28 0.31 0.32 0.35 0.39 0.37 0.27 0.18 0.14 0.14 0.19 0.27 0.30 0.28 0.25 0.25 0.27 0.32 0.42 0.51 0.57 0.57 0.57 0.67 0.84 1.03 1.18 1.30 1.24 1.13 1.00 0.84 0.66 0.50 0.38 0.34 0.29 0.20 0.14 0.12 0.11 0.08 0.06
0.36 0.36 0.38 0.41 0.47 0.50 0.39 0.24 0.18 0.18 0.24 0.27 0.30 0.28 0.27 0.23 0.21 0.22 0.30 0.37 0.42 0.51 0.54 0.58 0.70 0.93 1.11 1.26 1.39 1.31 1.15 0.93 0.75 0.59 0.42 0.30 0.24 0.21 0.18 0.13 0.11 0.10 0.07
0.44 0.42 0.40 0.43 0.49 0.58 0.49 0.30 0.23 0.25 0.33 0.35 0.39 0.37 0.29 0.25 0.20 0.17 0.23 0.31 0.34 0.37 0.44 0.50 0.58 0.74 0.92 1.04 1.18 1.17 1.01 0.87 0.69 0.56 0.41 0.27 0.21 0.17 0.17 0.15 0.10 0.08 0.06

GEFSMA_prec_meanprecacc_072.txt.gz
Total_Precipitation_Accumulation
1.23 1.27 1.21 1.18 1.08 1.23 1.49 1.69 1.64 1.78 1.89 1.72 1.46 1.32 1.16 0.99 0.84 0.73 0.80 0.99 0.91 0.89 1.02 1.06 1.08 1.05 1.04 0.98 0.91 0.85 0.79 0.76 0.63 0.46 0.33 0.28 0.26 0.24 0.22 0.22 0.22 0.23 0.19
1.50 1.55 1.46 1.36 1.14 1.23 1.47 1.71 1.75 1.89 1.85 1.84 1.47 1.36 1.21 1.16 1.03 0.95 0.96 1.06 1.00 0.86 0.85 0.97 1.06 1.12 1.17 1.13 1.00 0.82 0.76 0.74 0.65 0.52 0.40 0.33 0.28 0.28 0.30 0.32 0.30 0.23 0.16
1.83 1.85 1.67 1.43 1.32 1.50 1.61 1.62 1.67 2.03 1.85 1.70 1.48 1.54 1.48 1.38 1.19 1.09 1.09 1.08 0.93 0.85 0.78 0.78 0.91 1.03 1.21 1.26 1.19 1.03 0.84 0.73 0.62 0.48 0.39 0.32 0.26 0.25 0.27 0.31 0.35 0.30 0.20
1.86 1.99 1.69 1.39 1.55 1.74 1.70 1.64 1.67 1.88 1.88 1.93 1.80 1.68 1.57 1.42 1.10 1.03 1.01 0.92 0.90 0.71 0.73 0.81 0.86 0.93 1.20 1.36 1.39 1.38 1.13 0.85 0.62 0.47 0.39 0.32 0.29 0.24 0.21 0.21 0.26 0.31 0.24
1.29 1.34 1.04 0.98 1.25 1.34 1.22 1.19 1.44 1.59 1.59 1.73 1.73 1.49 1.29 1.12 0.94 0.88 0.86 0.70 0.74 0.72 0.68 0.80 0.84 0.88 1.15 1.42 1.62 1.66 1.49 1.19 0.88 0.64 0.56 0.47 0.39 0.29 0.21 0.19 0.20 0.26 0.23
0.85 0.89 0.72 0.73 0.99 1.05 0.97 1.09 1.19 1.23 1.17 1.25 1.16 0.92 0.89 0.77 0.77 0.73 0.62 0.61 0.59 0.56 0.60 0.72 0.85 0.73 0.97 1.27 1.47 1.57 1.59 1.42 1.14 0.91 0.80 0.70 0.61 0.46 0.29 0.21 0.20 0.21 0.20
0.74 0.83 0.72 0.80 0.95 0.95 0.92 0.98 1.04 0.96 0.81 0.98 1.04 0.75 0.60 0.56 0.58 0.54 0.50 0.49 0.43 0.44 0.55 0.68 0.79 0.81 0.69 0.75 1.04 1.23 1.54 1.63 1.38 1.09 0.97 0.90 0.84 0.66 0.45 0.34 0.26 0.21 0.18
0.63 0.72 0.66 0.58 0.63 0.65 0.60 0.65 0.82 0.84 0.74 0.87 0.96 0.83 0.58 0.53 0.49 0.37 0.41 0.41 0.39 0.47 0.56 0.61 0.75 0.89 0.86 0.91 0.74 0.77 1.14 1.45 1.56 1.44 1.26 1.04 0.89 0.72 0.59 0.51 0.39 0.27 0.22
0.39 0.47 0.50 0.50 0.55 0.62 0.61 0.61 0.65 0.69 0.63 0.64 0.79 0.89 0.69 0.47 0.40 0.37 0.39 0.37 0.42 0.54 0.62 0.73 0.78 0.83 0.89 1.02 0.99 0.87 0.95 1.02 1.47 1.74 1.52 1.15 0.81 0.63 0.59 0.62 0.56 0.39 0.31
0.27 0.30 0.33 0.34 0.41 0.52 0.59 0.54 0.55 0.58 0.57 0.50 0.56 0.65 0.66 0.60 0.53 0.41 0.39 0.43 0.47 0.57 0.72 0.81 0.89 0.88 0.88 0.96 1.08 1.07 0.90 0.84 1.07 1.39 1.49 1.39 1.08 0.77 0.61 0.69 0.89 0.82 0.54
0.26 0.27 0.28 0.28 0.31 0.35 0.39 0.42 0.49 0.52 0.54 0.50 0.49 0.55 0.63 0.66 0.65 0.56 0.45 0.44 0.44 0.41 0.56 0.74 0.87 0.91 0.85 0.94 1.11 1.17 1.13 0.97 0.82 0.82 1.05 1.25 1.22 0.99 0.80 0.86 1.20 1.41 1.26
0.26 0.29 0.30 0.30 0.32 0.33 0.34 0.36 0.40 0.44 0.50 0.54 0.52 0.56 0.65 0.69 0.65 0.65 0.57 0.49 0.47 0.42 0.47 0.64 0.89 1.02 0.97 0.97 0.89 0.89 0.90 0.78 0.70 0.68 0.74 0.84 0.95 0.95 0.93 1.05 1.35 1.64 1.78
0.23 0.27 0.32 0.34 0.37 0.37 0.37 0.38 0.38 0.41 0.47 0.55 0.56 0.54 0.57 0.62 0.69 0.71 0.65 0.56 0.59 0.59 0.69 0.73 0.81 0.93 0.91 0.95 0.88 0.72 0.56 0.49 0.46 0.48 0.58 0.72 0.87 1.00 1.02 1.01 1.17 1.38 1.56
0.24 0.28 0.29 0.30 0.34 0.36 0.38 0.40 0.36 0.36 0.46 0.55 0.60 0.68 0.66 0.59 0.74 0.82 0.77 0.77 0.74 0.78 0.94 0.87 0.80 0.80 0.83 0.86 0.76 0.64 0.46 0.40 0.35 0.31 0.32 0.34 0.40 0.50 0.60 0.67 0.77 0.91 1.06
0.26 0.28 0.29 0.30 0.32 0.35 0.38 0.40 0.41 0.45 0.52 0.56 0.63 0.77 0.82 0.78 0.78 0.83 0.89 0.93 0.98 0.94 0.93 0.90 0.80 0.73 0.72 0.70 0.62 0.53 0.41 0.36 0.34 0.31 0.27 0.25 0.25 0.28 0.31 0.34 0.37 0.41 0.46
0.22 0.27 0.32 0.34 0.34 0.35 0.43 0.49 0.49 0.50 0.58 0.68 0.79 0.88 0.93 0.95 0.94 0.87 0.91 0.96 0.98 1.03 1.00 0.85 0.78 0.78 0.71 0.55 0.52 0.46 0.39 0.41 0.37 0.33 0.30 0.27 0.25 0.27 0.27 0.27 0.24 0.25 0.27
0.21 0.24 0.30 0.34 0.35 0.42 0.60 0.78 0.76 0.68 0.74 0.83 0.92 1.03 1.07 1.12 1.11 1.01 0.96 0.93 0.93 1.02 0.97 0.83 0.77 0.79 0.68 0.52 0.45 0.43 0.40 0.38 0.34 0.35 0.31 0.27 0.25 0.25 0.25 0.24 0.21 0.20 0.20
0.18 0.18 0.20 0.24 0.27 0.34 0.50 0.81 0.98 1.01 0.98 0.91 0.96 1.12 1.20 1.17 1.08 1.02 1.01 0.97 0.96 1.04 0.99 0.90 0.88 0.83 0.75 0.65 0.56 0.50 0.41 0.37 0.35 0.36 0.32 0.28 0.25 0.23 0.22 0.20 0.19 0.17 0.17
0.18 0.18 0.19 0.24 0.29 0.30 0.37 0.57 0.80 0.92 0.95 0.92 0.97 1.02 1.05 1.12 1.10 1.02 0.96 0.94 0.93 1.03 1.03 0.94 1.01 1.00 0.89 0.77 0.64 0.54 0.46 0.43 0.36 0.34 0.35 0.32 0.29 0.24 0.21 0.19 0.18 0.16 0.15
0.17 0.21 0.24 0.29 0.31 0.27 0.28 0.41 0.56 0.67 0.73 0.78 0.84 0.89 0.92 0.95 1.02 1.07 1.00 0.96 0.97 0.99 1.00 0.99 1.04 1.18 1.08 0.92 0.73 0.60 0.52 0.47 0.42 0.32 0.32 0.35 0.33 0.28 0.24 0.20 0.18 0.16 0.15
0.13 0.19 0.26 0.29 0.27 0.24 0.28 0.41 0.46 0.42 0.47 0.53 0.56 0.58 0.69 0.85 0.95 1.00 0.96 0.94 0.98 0.98 0.98 1.03 1.07 1.21 1.23 1.06 0.82 0.63 0.54 0.52 0.49 0.42 0.35 0.29 0.26 0.23 0.21 0.21 0.20 0.17 0.14
0.17 0.20 0.23 0.26 0.25 0.20 0.26 0.30 0.28 0.27 0.30 0.35 0.38 0.37 0.38 0.50 0.69 0.81 0.84 0.84 0.89 0.93 0.97 1.00 1.07 1.16 1.21 1.11 0.93 0.78 0.64 0.53 0.51 0.49 0.47 0.42 0.31 0.26 0.21 0.17 0.18 0.18 0.16
0.22 0.26 0.27 0.29 0.29 0.30 0.23 0.19 0.16 0.18 0.22 0.29 0.33 0.33 0.26 0.25 0.39 0.54 0.65 0.69 0.71 0.71 0.79 0.94 1.06 1.08 1.18 1.21 1.12 0.93 0.80 0.68 0.55 0.51 0.52 0.54 0.46 0.35 0.27 0.24 0.26 0.21 0.19
0.29 0.32 0.33 0.36 0.42 0.39 0.27 0.18 0.14 0.15 0.20 0.27 0.32 0.32 0.31 0.31 0.33 0.39 0.51 0.59 0.64 0.62 0.60 0.68 0.85 1.04 1.19 1.33 1.28 1.18 1.07 0.95 0.78 0.68 0.62 0.61 0.56 0.46 0.37 0.30 0.29 0.25 0.21
0.37 0.37 0.39 0.43 0.49 0.53 0.40 0.25 0.19 0.19 0.25 0.28 0.32 0.33 0.33 0.32 0.29 0.25 0.34 0.41 0.48 0.57 0.57 0.59 0.71 0.93 1.11 1.26 1.40 1.33 1.20 1.00 0.84 0.73 0.62 0.53 0.51 0.50 0.46 0.37 0.31 0.29 0.24
0.45 0.43 0.41 0.45 0.51 0.62 0.52 0.31 0.23 0.26 0.34 0.38 0.44 0.44 0.35 0.28 0.23 0.18 0.26 0.35 0.39 0.42 0.50 0.55 0.62 0.75 0.92 1.04 1.18 1.17 1.03 0.93 0.79 0.67 0.56 0.46 0.42 0.42 0.47 0.44 0.35 0.28 0.25

GEFSMA_prec_meanprecacc_078.txt.gz
Total_Precipitation_Accumulation
1.25 1.29 1.23 1.20 1.10 1.26 1.52 1.73 1.68 1.83 1.94 1.77 1.51 1.37 1.22 1.06 0.97 0.93 1.10 1.28 1.18 1.14 1.24 1.24 1.21 1.15 1.13 1.04 0.95 0.88 0.81 0.76 0.64 0.46 0.33 0.29 0.26 0.25 0.23 0.23 0.22 0.23 0.19
1.51 1.57 1.48 1.38 1.16 1.25 1.49 1.72 1.76 1.91 1.88 1.87 1.50 1.40 1.26 1.22 1.10 1.06 1.14 1.25 1.22 1.07 1.04 1.13 1.21 1.25 1.27 1.21 1.06 0.87 0.78 0.76 0.66 0.52 0.40 0.33 0.29 0.28 0.31 0.33 0.30 0.24 0.16
1.83 1.85 1.68 1.44 1.32 1.51 1.62 1.62 1.67 2.03 1.86 1.72 1.51 1.57 1.52 1.43 1.25 1.16 1.20 1.22 1.06 0.99 0.93 0.92 1.05 1.20 1.35 1.37 1.28 1.10 0.89 0.76 0.65 0.50 0.40 0.32 0.27 0.25 0.27 0.31 0.35 0.30 0.20
1.86 1.99 1.69 1.39 1.55 1.74 1.71 1.64 1.68 1.89 1.89 1.94 1.81 1.69 1.59 1.45 1.14 1.07 1.06 1.00 0.98 0.78 0.83 0.97 1.02 1.08 1.35 1.50 1.50 1.46 1.19 0.89 0.65 0.49 0.40 0.33 0.29 0.24 0.21 0.21 0.26 0.31 0.24
1.29 1.34 1.04 0.98 1.25 1.34 1.22 1.19 1.44 1.59 1.60 1.73 1.73 1.49 1.30 1.13 0.95 0.90 0.90 0.74 0.79 0.76 0.73 0.90 1.02 1.04 1.30 1.56 1.76 1.79 1.58 1.26 0.93 0.67 0.57 0.48 0.40 0.30 0.22 0.19 0.20 0.26 0.24
0.85 0.89 0.72 0.73 0.99 1.05 0.97 1.09 1.19 1.23 1.17 1.25 1.16 0.92 0.89 0.77 0.77 0.73 0.63 0.63 0.62 0.59 0.65 0.78 0.93 0.83 1.12 1.43 1.65 1.76 1.76 1.56 1.23 0.98 0.85 0.73 0.64 0.47 0.29 0.21 0.20 0.21 0.20
0.74 0.83 0.72 0.80 0.95 0.95 0.92 0.98 1.04 0.96 0.81 0.98 1.04 0.75 0.60 0.56 0.58 0.54 0.50 0.50 0.45 0.48 0.62 0.76 0.88 0.90 0.78 0.88 1.17 1.38 1.72 1.82 1.54 1.21 1.06 0.96 0.88 0.68 0.46 0.34 0.26 0.22 0.18
0.63 0.72 0.66 0.58 0.63 0.65 0.60 0.65 0.82 0.84 0.74 0.87 0.96 0.83 0.58 0.53 0.49 0.37 0.42 0.42 0.41 0.51 0.60 0.65 0.81 0.95 0.92 0.98 0.80 0.89 1.30 1.63 1.75 1.61 1.38 1.14 0.96 0.77 0.61 0.52 0.39 0.27 0.22
0.39 0.47 0.50 0.50 0.55 0.62 0.61 0.61 0.65 0.69 0.63 0.64 0.79 0.90 0.69 0.47 0.40 0.37 0.39 0.39 0.45 0.57 0.65 0.76 0.81 0.86 0.93 1.07 1.04 0.96 1.10 1.19 1.65 1.93 1.70 1.29 0.91 0.71 0.65 0.66 0.58 0.40 0.32
0.27 0.30 0.33 0.34 0.41 0.52 0.59 0.54 0.55 0.58 0.57 0.50 0.56 0.65 0.66 0.60 0.53 0.41 0.39 0.44 0.48 0.59 0.74 0.82 0.91 0.91 0.92 1.00 1.13 1.13 0.99 0.96 1.23 1.57 1.68 1.57 1.23 0.87 0.69 0.76 0.94 0.85 0.56
0.26 0.27 0.28 0.28 0.31 0.35 0.39 0.42 0.49 0.52 0.54 0.50 0.49 0.56 0.63 0.66 0.65 0.57 0.45 0.45 0.44 0.41 0.56 0.75 0.89 0.93 0.88 0.97 1.16 1.21 1.18 1.04 0.92 0.93 1.20 1.41 1.37 1.13 0.90 0.95 1.30 1.49 1.30
0.26 0.29 0.30 0.30 0.32 0.33 0.34 0.36 0.40 0.44 0.50 0.54 0.53 0.56 0.65 0.70 0.65 0.65 0.57 0.49 0.47 0.42 0.47 0.65 0.90 1.03 0.99 1.00 0.92 0.93 0.95 0.84 0.76 0.74 0.83 0.96 1.09 1.10 1.08 1.17 1.46 1.75 1.87
0.23 0.27 0.32 0.34 0.37 0.37 0.37 0.38 0.38 0.41 0.47 0.55 0.56 0.54 0.57 0.63 0.69 0.71 0.65 0.56 0.59 0.59 0.69 0.73 0.81 0.94 0.91 0.96 0.90 0.76 0.60 0.54 0.51 0.53 0.65 0.80 0.96 1.11 1.16 1.16 1.31 1.52 1.69
0.24 0.28 0.29 0.30 0.34 0.36 0.38 0.40 0.37 0.36 0.46 0.55 0.60 0.68 0.66 0.59 0.74 0.82 0.78 0.77 0.74 0.78 0.94 0.88 0.80 0.80 0.83 0.87 0.77 0.65 0.48 0.43 0.39 0.37 0.40 0.41 0.47 0.58 0.69 0.77 0.87 1.02 1.16
0.26 0.28 0.29 0.30 0.32 0.35 0.38 0.40 0.41 0.45 0.52 0.56 0.63 0.77 0.83 0.78 0.78 0.83 0.89 0.93 0.98 0.94 0.93 0.90 0.80 0.74 0.72 0.70 0.63 0.54 0.41 0.38 0.37 0.34 0.33 0.32 0.32 0.36 0.38 0.41 0.44 0.49 0.54
0.22 0.27 0.32 0.34 0.34 0.35 0.43 0.50 0.49 0.50 0.58 0.68 0.80 0.89 0.93 0.95 0.94 0.87 0.91 0.96 0.98 1.04 1.00 0.85 0.78 0.79 0.71 0.55 0.52 0.47 0.40 0.42 0.39 0.35 0.33 0.30 0.29 0.32 0.34 0.34 0.30 0.31 0.33
0.21 0.24 0.30 0.34 0.35 0.42 0.60 0.78 0.76 0.68 0.74 0.83 0.93 1.03 1.07 1.12 1.12 1.01 0.96 0.94 0.94 1.02 0.97 0.83 0.77 0.79 0.68 0.52 0.46 0.43 0.41 0.40 0.36 0.37 0.33 0.29 0.28 0.27 0.31 0.31 0.29 0.27 0.26
0.18 0.18 0.20 0.25 0.28 0.34 0.50 0.81 0.99 1.01 0.98 0.91 0.96 1.12 1.20 1.17 1.08 1.02 1.02 0.98 0.96 1.04 0.99 0.91 0.88 0.83 0.75 0.65 0.56 0.50 0.43 0.39 0.37 0.39 0.35 0.30 0.28 0.26 0.25 0.25 0.25 0.23 0.23
0.18 0.18 0.19 0.24 0.29 0.30 0.37 0.58 0.80 0.92 0.95 0.92 0.97 1.02 1.05 1.12 1.10 1.02 0.97 0.94 0.93 1.04 1.03 0.94 1.01 1.00 0.89 0.78 0.64 0.54 0.46 0.44 0.39 0.37 0.37 0.34 0.32 0.27 0.25 0.23 0.23 0.22 0.20
0.17 0.21 0.24 0.29 0.31 0.27 0.28 0.41 0.57 0.68 0.74 0.78 0.84 0.89 0.92 0.96 1.02 1.07 1.01 0.96 0.98 1.00 1.01 1.00 1.05 1.18 1.08 0.92 0.74 0.61 0.52 0.48 0.44 0.34 0.35 0.38 0.36 0.31 0.27 0.24 0.22 0.20 0.20
0.13 0.19 0.26 0.29 0.27 0.24 0.29 0.41 0.46 0.42 0.47 0.53 0.56 0.58 0.69 0.85 0.95 1.01 0.96 0.94 0.98 0.99 0.98 1.03 1.07 1.21 1.23 1.06 0.83 0.63 0.55 0.53 0.51 0.45 0.38 0.32 0.30 0.26 0.24 0.25 0.24 0.21 0.17
0.17 0.20 0.23 0.26 0.25 0.21 0.26 0.30 0.28 0.27 0.30 0.35 0.38 0.37 0.38 0.51 0.69 0.81 0.84 0.84 0.89 0.94 0.98 1.00 1.07 1.16 1.22 1.11 0.93 0.79 0.65 0.54 0.52 0.52 0.51 0.47 0.36 0.31 0.25 0.21 0.22 0.23 0.21
0.22 0.26 0.27 0.29 0.29 0.30 0.23 0.19 0.16 0.18 0.23 0.29 0.33 0.33 0.26 0.25 0.39 0.54 0.65 0.70 0.72 0.72 0.80 0.95 1.06 1.08 1.18 1.21 1.12 0.93 0.81 0.69 0.56 0.54 0.56 0.59 0.52 0.41 0.31 0.28 0.30 0.25 0.24
0.29 0.32 0.33 0.36 0.42 0.39 0.27 0.18 0.15 0.15 0.20 0.27 0.32 0.32 0.31 0.31 0.34 0.40 0.51 0.60 0.64 0.62 0.60 0.68 0.85 1.04 1.19 1.33 1.28 1.18 1.08 0.95 0.79 0.69 0.64 0.63 0.60 0.51 0.42 0.34 0.34 0.29 0.26
0.37 0.37 0.39 0.43 0.49 0.54 0.40 0.25 0.19 0.19 0.25 0.28 0.32 0.33 0.34 0.32 0.30 0.26 0.35 0.42 0.48 0.57 0.57 0.59 0.71 0.93 1.12 1.26 1.40 1.33 1.20 1.01 0.84 0.73 0.64 0.56 0.55 0.56 0.52 0.42 0.35 0.34 0.29
0.46 0.43 0.41 0.45 0.52 0.62 0.53 0.31 0.24 0.26 0.34 0.38 0.44 0.44 0.35 0.29 0.23 0.18 0.26 0.35 0.39 0.42 0.51 0.56 0.63 0.76 0.93 1.05 1.18 1.18 1.03 0.93 0.79 0.68 0.57 0.48 0.45 0.48 0.54 0.50 0.41 0.34 0.30

GEFSMA_prec_meanprecacc_084.txt.gz
Total_Precipitation_Accumulation
1.29 1.32 1.25 1.23 1.13 1.28 1.54 1.74 1.71 1.87 1.99 1.81 1.55 1.42 1.27 1.11 1.01 0.98 1.13 1.33 1.26 1.25 1.38 1.41 1.37 1.28 1.25 1.12 1.01 0.93 0.84 0.78 0.65 0.47 0.35 0.30 0.27 0.25 0.23 0.23 0.22 0.23 0.19
1.53 1.58 1.49 1.40 1.17 1.26 1.50 1.74 1.78 1.92 1.90 1.89 1.54 1.44 1.31 1.27 1.14 1.09 1.18 1.30 1.29 1.17 1.17 1.31 1.41 1.42 1.42 1.34 1.16 0.95 0.85 0.80 0.69 0.53 0.41 0.34 0.30 0.29 0.31 0.33 0.31 0.24 0.16
1.83 1.85 1.68 1.44 1.33 1.51 1.62 1.63 1.67 2.04 1.87 1.73 1.52 1.58 1.53 1.46 1.28 1.18 1.22 1.26 1.10 1.06 1.02 1.06 1.22 1.37 1.55 1.57 1.43 1.22 0.99 0.83 0.70 0.53 0.42 0.34 0.28 0.26 0.28 0.31 0.35 0.30 0.20
1.87 1.99 1.69 1.39 1.55 1.74 1.71 1.64 1.68 1.89 1.89 1.95 1.82 1.70 1.60 1.46 1.15 1.09 1.07 1.02 1.01 0.82 0.89 1.08 1.17 1.23 1.54 1.71 1.71 1.64 1.33 1.01 0.74 0.55 0.44 0.35 0.31 0.26 0.22 0.21 0.27 0.31 0.24
1.29 1.34 1.04 0.98 1.25 1.34 1.22 1.19 1.44 1.59 1.60 1.73 1.73 1.49 1.30 1.13 0.96 0.91 0.91 0.75 0.81 0.78 0.75 0.95 1.13 1.20 1.47 1.77 2.02 2.05 1.81 1.44 1.09 0.78 0.65 0.54 0.42 0.32 0.24 0.20 0.21 0.26 0.24
0.85 0.89 0.72 0.73 0.99 1.05 0.97 1.09 1.19 1.23 1.17 1.25 1.16 0.92 0.89 0.77 0.77 0.73 0.64 0.63 0.63 0.60 0.67 0.80 0.98 0.91 1.24 1.60 1.89 2.03 2.03 1.80 1.43 1.16 0.99 0.83 0.70 0.51 0.32 0.23 0.22 0.23 0.21
0.74 0.83 0.72 0.80 0.95 0.95 0.92 0.98 1.04 0.96 0.81 0.98 1.04 0.75 0.60 0.56 0.58 0.54 0.50 0.50 0.45 0.50 0.64 0.79 0.92 0.94 0.83 0.97 1.30 1.58 1.97 2.11 1.79 1.42 1.24 1.10 0.98 0.76 0.52 0.39 0.29 0.24 0.19
0.63 0.72 0.66 0.58 0.63 0.65 0.60 0.65 0.82 0.84 0.74 0.87 0.96 0.83 0.58 0.53 0.49 0.37 0.42 0.42 0.42 0.51 0.62 0.68 0.84 0.99 0.96 1.03 0.86 1.01 1.50 1.89 2.04 1.87 1.61 1.31 1.11 0.88 0.70 0.59 0.44 0.31 0.25
0.39 0.47 0.50 0.50 0.55 0.62 0.61 0.61 0.65 0.69 0.63 0.64 0.79 0.90 0.69 0.47 0.40 0.37 0.39 0.39 0.45 0.58 0.65 0.77 0.82 0.88 0.95 1.10 1.07 1.02 1.23 1.34 1.86 2.19 1.97 1.52 1.09 0.85 0.75 0.75 0.66 0.45 0.35
0.27 0.30 0.33 0.34 0.41 0.52 0.59 0.54 0.55 0.58 0.57 0.50 0.56 0.65 0.66 0.60 0.53 0.41 0.39 0.44 0.48 0.59 0.74 0.83 0.91 0.92 0.93 1.02 1.15 1.16 1.04 1.05 1.36 1.78 1.93 1.81 1.44 1.05 0.83 0.88 1.06 0.95 0.62
0.26 0.27 0.28 0.28 0.31 0.35 0.39 0.42 0.49 0.52 0.54 0.50 0.49 0.56 0.63 0.66 0.65 0.57 0.45 0.45 0.44 0.41 0.56 0.75 0.89 0.93 0.88 0.98 1.16 1.23 1.21 1.09 0.98 1.04 1.36 1.60 1.57 1.31 1.07 1.11 1.46 1.64 1.42
0.26 0.29 0.30 0.30 0.32 0.33 0.34 0.36 0.40 0.44 0.50 0.54 0.53 0.56 0.65 0.70 0.65 0.65 0.57 0.49 0.47 0.42 0.47 0.65 0.90 1.03 0.99 1.00 0.92 0.95 0.97 0.87 0.80 0.80 0.90 1.07 1.25 1.29 1.25 1.34 1.62 1.92 2.03
0.23 0.27 0.32 0.34 0.37 0.37 0.37 0.38 0.38 0.41 0.47 0.55 0.56 0.54 0.57 0.63 0.69 0.71 0.65 0.56 0.59 0.59 0.69 0.73 0.81 0.94 0.91 0.96 0.90 0.77 0.61 0.56 0.53 0.56 0.69 0.86 1.05 1.24 1.32 1.32 1.46 1.68 1.85
0.24 0.28 0.29 0.30 0.34 0.36 0.38 0.40 0.37 0.36 0.46 0.55 0.60 0.68 0.66 0.59 0.74 0.82 0.78 0.77 0.74 0.78 0.94 0.88 0.80 0.80 0.83 0.87 0.77 0.65 0.49 0.43 0.40 0.39 0.43 0.45 0.53 0.66 0.79 0.90 1.00 1.14 1.29
0.26 0.28 0.29 0.30 0.32 0.35 0.38 0.40 0.41 0.45 0.52 0.56 0.63 0.77 0.83 0.78 0.78 0.83 0.89 0.93 0.98 0.94 0.93 0.90 0.80 0.74 0.72 0.70 0.63 0.54 0.41 0.38 0.37 0.35 0.34 0.33 0.35 0.40 0.44 0.48 0.53 0.59 0.63
0.22 0.27 0.32 0.34 0.34 0.35 0.43 0.50 0.49 0.50 0.58 0.68 0.80 0.89 0.93 0.95 0.94 0.87 0.91 0.96 0.98 1.04 1.00 0.85 0.78 0.79 0.71 0.55 0.52 0.47 0.40 0.42 0.39 0.36 0.33 0.30 0.30 0.34 0.37 0.38 0.35 0.37 0.41
0.21 0.24 0.30 0.34 0.35 0.42 0.60 0.78 0.76 0.68 0.74 0.83 0.93 1.03 1.07 1.12 1.12 1.01 0.96 0.94 0.94 1.02 0.97 0.83 0.77 0.79 0.68 0.52 0.46 0.43 0.41 0.40 0.36 0.37 0.33 0.29 0.28 0.29 0.32 0.33 0.32 0.31 0.32
0.18 0.18 0.20 0.25 0.28 0.34 0.50 0.81 0.99 1.01 0.98 0.91 0.96 1.12 1.20 1.17 1.08 1.02 1.02 0.98 0.96 1.04 0.99 0.91 0.88 0.83 0.75 0.65 0.56 0.50 0.43 0.39 0.37 0.39 0.35 0.30 0.28 0.27 0.27 0.26 0.27 0.26 0.27
0.18 0.18 0.19 0.24 0.29 0.30 0.37 0.58 0.80 0.92 0.95 0.92 0.97 1.02 1.05 1.12 1.10 1.02 0.97 0.94 0.93 1.04 1.03 0.94 1.01 1.00 0.89 0.78 0.64 0.54 0.46 0.44 0.39 0.37 0.38 0.35 0.32 0.27 0.25 0.25 0.25 0.24 0.24
0.17 0.21 0.24 0.29 0.31 0.27 0.28 0.41 0.57 0.68 0.74 0.78 0.84 0.89 0.92 0.96 1.02 1.07 1.01 0.96 0.98 1.00 1.01 1.00 1.05 1.18 1.08 0.92 0.74 0.61 0.52 0.48 0.44 0.34 0.35 0.38 0.37 0.32 0.28 0.25 0.24 0.23 0.25
0.13 0.19 0.26 0.29 0.27 0.24 0.29 0.41 0.46 0.42 0.47 0.53 0.56 0.58 0.69 0.85 0.95 1.01 0.96 0.94 0.98 0.99 0.98 1.03 1.07 1.21 1.23 1.06 0.83 0.63 0.55 0.53 0.51 0.45 0.38 0.32 0.30 0.27 0.25 0.26 0.26 0.24 0.22
0.18 0.21 0.23 0.26 0.25 0.21 0.26 0.30 0.28 0.27 0.30 0.35 0.38 0.37 0.38 0.51 0.69 0.81 0.84 0.84 0.89 0.94 0.98 1.00 1.07 1.16 1.22 1.11 0.93 0.79 0.65 0.54 0.52 0.52 0.51 0.47 0.36 0.31 0.25 0.22 0.23 0.25 0.25
0.23 0.26 0.27 0.29 0.29 0.30 0.23 0.19 0.16 0.18 0.23 0.30 0.33 0.33 0.26 0.25 0.39 0.54 0.65 0.70 0.72 0.72 0.80 0.95 1.06 1.08 1.18 1.21 1.12 0.93 0.81 0.69 0.56 0.54 0.56 0.59 0.52 0.41 0.31 0.28 0.32 0.27 0.26
0.29 0.32 0.33 0.36 0.42 0.39 0.27 0.18 0.15 0.15 0.20 0.27 0.32 0.32 0.31 0.31 0.34 0.40 0.51 0.60 0.64 0.62 0.60 0.68 0.85 1.04 1.19 1.33 1.28 1.18 1.08 0.95 0.79 0.69 0.64 0.63 0.60 0.52 0.43 0.35 0.35 0.31 0.28
0.37 0.37 0.39 0.43 0.49 0.54 0.41 0.25 0.19 0.19 0.25 0.28 0.32 0.33 0.34 0.32 0.30 0.26 0.35 0.42 0.48 0.57 0.57 0.59 0.71 0.93 1.12 1.26 1.40 1.33 1.20 1.01 0.84 0.73 0.64 0.56 0.55 0.56 0.52 0.43 0.37 0.36 0.31
0.46 0.43 0.42 0.45 0.52 0.62 0.53 0.31 0.24 0.26 0.34 0.38 0.44 0.44 0.35 0.29 0.23 0.18 0.26 0.35 0.39 0.42 0.51 0.56 0.63 0.76 0.93 1.05 1.18 1.18 1.03 0.94 0.79 0.68 0.57 0.48 0.45 0.48 0.54 0.50 0.41 0.35 0.32

GEFSMA_prec_meanprecacc_090.txt.gz
Total_Precipitation_Accumulation
1.35 1.37 1.29 1.27 1.16 1.31 1.58 1.79 1.76 1.92 2.04 1.86 1.61 1.47 1.31 1.15 1.06 1.02 1.16 1.36 1.30 1.33 1.51 1.60 1.57 1.48 1.42 1.26 1.11 1.01 0.93 0.85 0.70 0.50 0.37 0.34 0.31 0.26 0.23 0.23 0.23 0.23 0.19
1.58 1.61 1.52 1.42 1.19 1.28 1.51 1.76 1.81 1.96 1.93 1.93 1.57 1.47 1.34 1.30 1.18 1.13 1.22 1.35 1.34 1.22 1.25 1.45 1.59 1.64 1.61 1.52 1.33 1.10 0.98 0.91 0.77 0.58 0.43 0.38 0.34 0.31 0.33 0.34 0.31 0.24 0.16
1.87 1.88 1.70 1.46 1.34 1.52 1.63 1.64 1.69 2.05 1.89 1.74 1.53 1.60 1.56 1.49 1.31 1.21 1.25 1.30 1.15 1.09 1.08 1.15 1.36 1.55 1.75 1.76 1.61 1.41 1.17 0.98 0.81 0.61 0.47 0.37 0.31 0.29 0.30 0.33 0.36 0.30 0.20
1.89 2.01 1.70 1.40 1.56 1.75 1.71 1.64 1.68 1.89 1.89 1.95 1.83 1.70 1.60 1.47 1.16 1.11 1.10 1.05 1.07 0.86 0.94 1.14 1.27 1.35 1.68 1.90 1.90 1.83 1.52 1.19 0.88 0.65 0.52 0.41 0.35 0.29 0.25 0.23 0.27 0.32 0.24
1.31 1.35 1.05 0.98 1.26 1.34 1.22 1.19 1.44 1.59 1.60 1.73 1.74 1.50 1.30 1.14 0.96 0.91 0.92 0.78 0.85 0.83 0.82 1.02 1.19 1.28 1.59 1.93 2.25 2.32 2.03 1.64 1.26 0.92 0.76 0.61 0.48 0.37 0.28 0.24 0.23 0.27 0.24
0.85 0.89 0.72 0.73 0.99 1.05 0.97 1.09 1.19 1.24 1.18 1.25 1.16 0.92 0.89 0.77 0.77 0.73 0.64 0.64 0.64 0.63 0.72 0.87 1.07 1.00 1.34 1.74 2.08 2.28 2.28 2.03 1.63 1.34 1.16 0.96 0.79 0.57 0.37 0.27 0.25 0.25 0.22
0.74 0.83 0.72 0.80 0.95 0.95 0.92 0.98 1.04 0.97 0.81 0.98 1.04 0.75 0.60 0.56 0.58 0.54 0.50 0.50 0.46 0.51 0.66 0.83 0.99 1.03 0.95 1.06 1.39 1.70 2.14 2.34 2.01 1.62 1.43 1.28 1.12 0.85 0.58 0.43 0.32 0.27 0.22
0.63 0.72 0.67 0.58 0.63 0.65 0.61 0.65 0.82 0.84 0.74 0.87 0.96 0.83 0.59 0.53 0.49 0.37 0.42 0.42 0.42 0.51 0.62 0.70 0.88 1.05 1.05 1.15 0.95 1.08 1.62 2.06 2.27 2.11 1.81 1.49 1.25 1.00 0.80 0.66 0.49 0.34 0.28
0.39 0.47 0.50 0.50 0.55 0.62 0.61 0.61 0.65 0.69 0.63 0.64 0.79 0.90 0.69 0.47 0.40 0.37 0.39 0.39 0.45 0.58 0.66 0.78 0.84 0.90 0.99 1.16 1.15 1.07 1.28 1.42 1.99 2.38 2.18 1.73 1.25 0.98 0.87 0.86 0.75 0.50 0.39
0.27 0.30 0.34 0.34 0.41 0.52 0.59 0.54 0.55 0.58 0.57 0.50 0.56 0.65 0.66 0.60 0.53 0.41 0.40 0.44 0.48 0.59 0.74 0.83 0.92 0.93 0.95 1.03 1.17 1.18 1.06 1.07 1.41 1.88 2.08 1.97 1.58 1.18 0.95 1.00 1.20 1.07 0.72
0.26 0.27 0.28 0.28 0.31 0.35 0.39 0.42 0.49 0.52 0.54 0.50 0.49 0.56 0.63 0.66 0.65 0.57 0.45 0.45 0.44 0.41 0.56 0.75 0.89 0.94 0.89 0.99 1.18 1.25 1.22 1.10 1.00 1.08 1.44 1.71 1.69 1.44 1.19 1.23 1.61 1.80 1.56
0.26 0.29 0.30 0.30 0.32 0.33 0.34 0.36 0.40 0.44 0.50 0.54 0.53 0.56 0.65 0.70 0.65 0.65 0.57 0.50 0.47 0.42 0.47 0.65 0.90 1.03 0.99 1.00 0.93 0.95 0.97 0.88 0.82 0.82 0.93 1.12 1.32 1.40 1.38 1.47 1.76 2.07 2.19
0.23 0.27 0.32 0.34 0.37 0.37 0.37 0.38 0.38 0.41 0.47 0.55 0.56 0.54 0.57 0.63 0.69 0.71 0.65 0.57 0.59 0.59 0.69 0.73 0.81 0.94 0.91 0.96 0.91 0.77 0.61 0.56 0.54 0.57 0.71 0.88 1.08 1.29 1.40 1.43 1.59 1.82 2.00
0.24 0.28 0.29 0.30 0.34 0.36 0.38 0.40 0.37 0.37 0.47 0.56 0.60 0.69 0.66 0.59 0.74 0.82 0.78 0.77 0.74 0.78 0.94 0.88 0.80 0.80 0.83 0.87 0.77 0.65 0.49 0.43 0.40 0.39 0.44 0.47 0.55 0.68 0.82 0.94 1.09 1.26 1.41
0.26 0.28 0.29 0.30 0.32 0.35 0.38 0.40 0.41 0.45 0.52 0.56 0.64 0.77 0.83 0.78 0.78 0.83 0.89 0.94 0.98 0.94 0.93 0.90 0.80 0.74 0.72 0.70 0.63 0.54 0.42 0.38 0.37 0.35 0.34 0.34 0.36 0.41 0.46 0.50 0.56 0.64 0.71
0.22 0.27 0.32 0.34 0.34 0.35 0.43 0.50 0.49 0.50 0.59 0.68 0.80 0.89 0.93 0.96 0.94 0.87 0.91 0.96 0.98 1.04 1.00 0.85 0.78 0.79 0.71 0.55 0.52 0.47 0.40 0.42 0.39 0.36 0.33 0.31 0.30 0.35 0.39 0.40 0.37 0.40 0.45
0.21 0.25 0.30 0.34 0.35 0.42 0.60 0.78 0.76 0.68 0.74 0.83 0.93 1.03 1.08 1.13 1.12 1.01 0.96 0.94 0.94 1.03 0.97 0.83 0.77 0.79 0.68 0.52 0.46 0.43 0.41 0.40 0.36 0.37 0.33 0.29 0.28 0.29 0.32 0.35 0.34 0.33 0.34
0.19 0.18 0.20 0.25 0.28 0.34 0.50 0.81 0.99 1.01 0.99 0.91 0.96 1.12 1.20 1.18 1.09 1.03 1.02 0.98 0.97 1.05 0.99 0.91 0.89 0.83 0.75 0.65 0.56 0.50 0.43 0.39 0.37 0.39 0.35 0.30 0.28 0.27 0.27 0.27 0.27 0.27 0.28
0.19 0.18 0.20 0.24 0.29 0.30 0.37 0.58 0.80 0.92 0.95 0.92 0.97 1.02 1.05 1.13 1.11 1.03 0.97 0.94 0.94 1.04 1.03 0.95 1.01 1.00 0.90 0.78 0.65 0.54 0.47 0.44 0.39 0.37 0.38 0.35 0.32 0.27 0.25 0.25 0.25 0.25 0.24
0.18 0.21 0.25 0.29 0.31 0.27 0.28 0.41 0.57 0.68 0.74 0.78 0.84 0.89 0.92 0.96 1.02 1.08 1.02 0.97 0.98 1.00 1.01 1.00 1.05 1.18 1.08 0.92 0.74 0.61 0.52 0.48 0.44 0.34 0.35 0.38 0.37 0.32 0.28 0.25 0.24 0.23 0.25
0.14 0.20 0.27 0.29 0.27 0.24 0.29 0.41 0.46 0.42 0.47 0.53 0.56 0.58 0.69 0.85 0.95 1.01 0.96 0.94 0.99 0.99 0.99 1.04 1.07 1.21 1.24 1.06 0.83 0.64 0.55 0.54 0.51 0.45 0.38 0.32 0.30 0.27 0.25 0.26 0.26 0.24 0.22
0.18 0.22 0.23 0.26 0.26 0.21 0.26 0.30 0.28 0.27 0.30 0.35 0.38 0.37 0.38 0.51 0.69 0.81 0.84 0.84 0.89 0.95 0.99 1.01 1.08 1.16 1.22 1.12 0.94 0.80 0.65 0.55 0.53 0.52 0.52 0.47 0.37 0.31 0.26 0.22 0.24 0.25 0.25
0.24 0.27 0.28 0.29 0.30 0.30 0.23 0.19 0.17 0.19 0.23 0.30 0.33 0.33 0.26 0.25 0.39 0.54 0.65 0.70 0.72 0.72 0.80 0.95 1.07 1.09 1.19 1.23 1.13 0.95 0.83 0.71 0.57 0.55 0.58 0.59 0.52 0.41 0.32 0.28 0.32 0.27 0.26
0.30 0.33 0.34 0.37 0.42 0.40 0.28 0.19 0.15 0.16 0.20 0.28 0.32 0.32 0.31 0.31 0.34 0.40 0.52 0.60 0.65 0.62 0.60 0.69 0.86 1.05 1.20 1.34 1.31 1.20 1.10 0.97 0.80 0.70 0.65 0.64 0.60 0.52 0.43 0.35 0.35 0.31 0.28
0.37 0.37 0.40 0.43 0.50 0.54 0.41 0.25 0.20 0.19 0.25 0.28 0.32 0.33 0.34 0.32 0.30 0.27 0.35 0.42 0.48 0.58 0.57 0.59 0.71 0.93 1.12 1.26 1.41 1.34 1.21 1.02 0.85 0.73 0.65 0.57 0.55 0.56 0.52 0.43 0.37 0.36 0.31
0.46 0.43 0.42 0.45 0.52 0.63 0.54 0.32 0.25 0.27 0.35 0.38 0.44 0.44 0.35 0.29 0.23 0.19 0.27 0.36 0.39 0.42 0.51 0.57 0.63 0.76 0.93 1.05 1.18 1.18 1.04 0.95 0.80 0.69 0.58 0.50 0.46 0.49 0.55 0.50 0.42 0.36 0.32

GEFSMA_prec_meanprecacc_096.txt.gz
Total_Precipitation_Accumulation
1.43 1.45 1.36 1.33 1.21 1.36 1.63 1.83 1.79 1.94 2.07 1.89 1.63 1.51 1.34 1.18 1.09 1.06 1.24 1.43 1.32 1.35 1.56 1.66 1.64 1.54 1.50 1.33 1.17 1.08 1.01 0.93 0.77 0.56 0.44 0.42 0.37 0.29 0.25 0.25 0.24 0.24 0.20
1.64 1.66 1.55 1.46 1.23 1.30 1.53 1.78 1.82 1.98 1.96 1.97 1.60 1.49 1.36 1.34 1.21 1.16 1.27 1.44 1.38 1.24 1.29 1.51 1.68 1.74 1.72 1.61 1.41 1.17 1.06 1.00 0.86 0.65 0.49 0.44 0.40 0.35 0.35 0.36 0.33 0.25 0.17
1.90 1.91 1.73 1.49 1.37 1.55 1.65 1.65 1.70 2.07 1.91 1.77 1.55 1.61 1.57 1.50 1.32 1.24 1.29 1.37 1.23 1.16 1.12 1.19 1.42 1.62 1.84 1.86 1.70 1.49 1.25 1.06 0.90 0.69 0.53 0.42 0.36 0.34 0.34 0.36 0.39 0.32 0.21
1.90 2.03 1.72 1.42 1.58 1.77 1.72 1.65 1.69 1.91 1.90 1.96 1.84 1.71 1.61 1.47 1.17 1.12 1.12 1.09 1.14 0.95 1.03 1.20 1.31 1.40 1.74 1.98 2.01 1.96 1.64 1.29 0.99 0.74 0.59 0.47 0.40 0.34 0.30 0.27 0.30 0.33 0.25
1.32 1.37 1.06 0.99 1.26 1.35 1.23 1.20 1.45 1.60 1.60 1.74 1.74 1.50 1.31 1.15 0.97 0.92 0.93 0.79 0.88 0.88 0.89 1.09 1.26 1.33 1.64 2.01 2.38 2.48 2.18 1.77 1.36 1.00 0.83 0.69 0.55 0.42 0.33 0.28 0.25 0.28 0.25
0.87 0.90 0.73 0.73 0.99 1.05 0.97 1.09 1.20 1.24 1.18 1.25 1.16 0.92 0.89 0.77 0.78 0.74 0.65 0.65 0.66 0.67 0.78 0.94 1.15 1.06 1.41 1.83 2.22 2.42 2.40 2.18 1.76 1.45 1.25 1.06 0.88 0.65 0.42 0.31 0.29 0.27 0.23
0.75 0.83 0.72 0.80 0.95 0.95 0.92 0.98 1.04 0.97 0.81 0.98 1.04 0.76 0.60 0.56 0.58 0.54 0.51 0.50 0.46 0.51 0.70 0.90 1.07 1.12 1.04 1.14 1.50 1.83 2.26 2.48 2.16 1.77 1.57 1.41 1.24 0.95 0.66 0.50 0.38 0.31 0.24
0.63 0.72 0.67 0.58 0.63 0.66 0.61 0.65 0.82 0.84 0.74 0.87 0.96 0.84 0.60 0.55 0.50 0.37 0.42 0.42 0.42 0.52 0.64 0.74 0.95 1.12 1.12 1.26 1.04 1.16 1.71 2.17 2.41 2.27 1.96 1.61 1.36 1.10 0.88 0.74 0.56 0.40 0.33
0.39 0.47 0.50 0.50 0.55 0.62 0.61 0.61 0.65 0.69 0.63 0.64 0.79 0.90 0.70 0.49 0.42 0.38 0.39 0.39 0.45 0.58 0.67 0.80 0.86 0.94 1.04 1.24 1.24 1.14 1.36 1.50 2.10 2.53 2.34 1.85 1.35 1.04 0.93 0.93 0.81 0.57 0.45
0.27 0.30 0.34 0.34 0.41 0.52 0.59 0.55 0.55 0.58 0.57 0.50 0.56 0.65 0.66 0.61 0.54 0.42 0.40 0.44 0.48 0.59 0.74 0.83 0.93 0.95 0.98 1.08 1.23 1.22 1.10 1.12 1.47 1.97 2.21 2.08 1.67 1.25 1.03 1.09 1.28 1.16 0.80
0.26 0.27 0.28 0.29 0.32 0.36 0.39 0.43 0.49 0.52 0.54 0.50 0.49 0.56 0.63 0.66 0.65 0.57 0.47 0.46 0.44 0.41 0.56 0.75 0.90 0.95 0.91 1.01 1.22 1.26 1.22 1.11 1.01 1.11 1.49 1.78 1.76 1.51 1.27 1.33 1.72 1.94 1.71
0.26 0.29 0.30 0.31 0.33 0.33 0.34 0.37 0.40 0.44 0.50 0.54 0.53 0.56 0.65 0.70 0.66 0.65 0.57 0.50 0.47 0.42 0.47 0.65 0.90 1.03 1.00 1.01 0.93 0.95 0.97 0.88 0.82 0.83 0.94 1.14 1.36 1.46 1.46 1.57 1.88 2.19 2.33
0.23 0.27 0.32 0.34 0.37 0.37 0.37 0.38 0.39 0.41 0.48 0.56 0.56 0.55 0.57 0.63 0.69 0.71 0.65 0.57 0.59 0.59 0.69 0.73 0.81 0.94 0.91 0.96 0.91 0.77 0.61 0.56 0.54 0.57 0.72 0.89 1.10 1.32 1.45 1.50 1.69 1.93 2.12
0.24 0.28 0.29 0.30 0.34 0.36 0.38 0.40 0.37 0.37 0.47 0.56 0.61 0.69 0.66 0.59 0.74 0.82 0.78 0.77 0.74 0.78 0.94 0.88 0.80 0.80 0.83 0.87 0.77 0.65 0.49 0.43 0.40 0.39 0.44 0.47 0.55 0.69 0.83 0.97 1.13 1.31 1.48
0.26 0.28 0.29 0.31 0.32 0.35 0.38 0.40 0.41 0.45 0.52 0.56 0.64 0.78 0.83 0.79 0.78 0.84 0.89 0.94 0.98 0.95 0.93 0.90 0.80 0.74 0.72 0.70 0.63 0.54 0.42 0.38 0.37 0.35 0.34 0.34 0.36 0.42 0.46 0.51 0.57 0.66 0.73
0.22 0.27 0.32 0.34 0.34 0.36 0.43 0.50 0.49 0.50 0.59 0.68 0.80 0.89 0.94 0.96 0.95 0.87 0.91 0.96 0.98 1.04 1.01 0.85 0.78 0.79 0.71 0.55 0.52 0.47 0.40 0.42 0.39 0.36 0.33 0.31 0.30 0.35 0.39 0.40 0.38 0.41 0.46
0.21 0.25 0.31 0.35 0.36 0.43 0.61 0.78 0.77 0.68 0.74 0.84 0.93 1.03 1.08 1.13 1.13 1.02 0.97 0.94 0.94 1.03 0.98 0.83 0.77 0.79 0.68 0.52 0.46 0.43 0.41 0.40 0.36 0.37 0.33 0.29 0.28 0.29 0.32 0.35 0.34 0.33 0.34
0.19 0.19 0.22 0.26 0.29 0.35 0.51 0.83 1.00 1.02 0.99 0.91 0.96 1.12 1.21 1.18 1.10 1.03 1.03 0.98 0.97 1.06 1.00 0.91 0.89 0.83 0.75 0.66 0.56 0.50 0.43 0.39 0.38 0.39 0.35 0.30 0.28 0.27 0.27 0.27 0.27 0.27 0.28
0.20 0.20 0.22 0.26 0.31 0.33 0.39 0.59 0.82 0.94 0.97 0.92 0.98 1.03 1.06 1.13 1.11 1.04 0.98 0.95 0.94 1.04 1.04 0.95 1.02 1.00 0.90 0.78 0.65 0.54 0.47 0.44 0.39 0.37 0.38 0.35 0.32 0.27 0.25 0.25 0.25 0.25 0.24
0.20 0.23 0.26 0.31 0.32 0.29 0.30 0.43 0.58 0.70 0.76 0.80 0.85 0.90 0.93 0.96 1.03 1.08 1.02 0.97 0.99 1.01 1.02 1.01 1.05 1.18 1.09 0.92 0.74 0.61 0.52 0.48 0.44 0.34 0.35 0.38 0.37 0.32 0.28 0.25 0.24 0.23 0.25
0.16 0.22 0.28 0.30 0.28 0.25 0.30 0.42 0.47 0.44 0.49 0.55 0.58 0.60 0.71 0.86 0.96 1.02 0.97 0.94 1.00 1.00 1.00 1.05 1.08 1.21 1.24 1.07 0.83 0.64 0.56 0.54 0.51 0.45 0.38 0.32 0.30 0.27 0.25 0.26 0.26 0.24 0.22
0.21 0.24 0.25 0.28 0.27 0.22 0.27 0.32 0.30 0.28 0.32 0.37 0.40 0.39 0.39 0.51 0.69 0.82 0.84 0.84 0.90 0.95 0.99 1.01 1.08 1.17 1.23 1.13 0.95 0.80 0.65 0.55 0.53 0.52 0.52 0.47 0.37 0.31 0.26 0.22 0.24 0.25 0.25
0.28 0.30 0.30 0.31 0.32 0.32 0.25 0.21 0.18 0.19 0.23 0.30 0.34 0.35 0.27 0.26 0.40 0.56 0.66 0.70 0.72 0.72 0.80 0.96 1.07 1.09 1.19 1.23 1.15 0.96 0.84 0.72 0.58 0.55 0.59 0.60 0.52 0.41 0.32 0.28 0.32 0.27 0.26
0.34 0.35 0.35 0.38 0.44 0.41 0.29 0.20 0.16 0.16 0.20 0.28 0.32 0.33 0.32 0.33 0.36 0.42 0.53 0.62 0.66 0.64 0.61 0.69 0.86 1.05 1.20 1.35 1.32 1.21 1.11 0.98 0.80 0.70 0.66 0.64 0.60 0.52 0.43 0.35 0.35 0.31 0.28
0.42 0.40 0.42 0.45 0.51 0.55 0.42 0.26 0.20 0.19 0.25 0.28 0.33 0.34 0.35 0.33 0.31 0.28 0.37 0.43 0.50 0.59 0.58 0.60 0.71 0.94 1.12 1.27 1.41 1.35 1.22 1.03 0.85 0.73 0.65 0.57 0.56 0.57 0.53 0.43 0.37 0.36 0.31
0.54 0.49 0.47 0.50 0.55 0.65 0.56 0.33 0.26 0.27 0.35 0.38 0.45 0.45 0.36 0.30 0.24 0.20 0.28 0.38 0.41 0.43 0.53 0.58 0.65 0.77 0.93 1.05 1.18 1.18 1.04 0.96 0.80 0.69 0.58 0.51 0.47 0.51 0.56 0.50 0.42 0.36 0.33

GEFSMA_prec_meanprecacc_102.txt.gz
Total_Precipitation_Accumulation
1.44 1.46 1.36 1.33 1.21 1.36 1.64 1.84 1.80 1.96 2.09 1.91 1.66 1.53 1.39 1.25 1.18 1.19 1.33 1.52 1.40 1.43 1.65 1.74 1.70 1.58 1.52 1.35 1.18 1.08 1.01 0.94 0.78 0.57 0.46 0.44 0.40 0.31 0.26 0.27 0.26 0.25 0.20
1.65 1.67 1.55 1.46 1.23 1.31 1.54 1.79 1.83 1.98 1.97 1.98 1.61 1.50 1.38 1.37 1.26 1.23 1.33 1.50 1.45 1.31 1.36 1.59 1.75 1.81 1.78 1.65 1.43 1.19 1.08 1.02 0.87 0.66 0.50 0.46 0.42 0.38 0.37 0.37 0.34 0.26 0.18
1.92 1.92 1.74 1.49 1.37 1.55 1.65 1.66 1.71 2.07 1.91 1.77 1.56 1.62 1.57 1.51 1.35 1.28 1.34 1.43 1.27 1.21 1.18 1.26 1.49 1.70 1.93 1.94 1.77 1.54 1.29 1.10 0.93 0.71 0.55 0.44 0.38 0.36 0.36 0.38 0.40 0.34 0.22
1.91 2.03 1.72 1.42 1.58 1.77 1.73 1.65 1.70 1.92 1.91 1.97 1.85 1.72 1.61 1.48 1.18 1.14 1.15 1.12 1.16 0.97 1.06 1.25 1.37 1.45 1.81 2.06 2.11 2.05 1.70 1.34 1.03 0.77 0.61 0.49 0.42 0.36 0.31 0.29 0.31 0.35 0.26
1.33 1.37 1.06 0.99 1.27 1.35 1.23 1.20 1.46 1.61 1.61 1.74 1.74 1.51 1.31 1.15 0.98 0.93 0.94 0.80 0.89 0.89 0.90 1.12 1.31 1.37 1.70 2.10 2.50 2.61 2.29 1.86 1.42 1.04 0.87 0.72 0.58 0.44 0.34 0.30 0.26 0.29 0.26
0.87 0.90 0.73 0.73 0.99 1.05 0.97 1.09 1.20 1.24 1.18 1.25 1.16 0.93 0.89 0.77 0.78 0.74 0.65 0.66 0.67 0.68 0.79 0.95 1.17 1.09 1.46 1.91 2.33 2.55 2.53 2.29 1.84 1.50 1.31 1.10 0.92 0.68 0.45 0.33 0.30 0.29 0.24
0.75 0.83 0.72 0.80 0.95 0.95 0.92 0.98 1.04 0.97 0.81 0.98 1.04 0.76 0.60 0.56 0.58 0.54 0.51 0.51 0.47 0.53 0.71 0.91 1.08 1.13 1.06 1.19 1.58 1.92 2.36 2.58 2.25 1.84 1.64 1.47 1.29 1.00 0.70 0.53 0.40 0.32 0.26
0.63 0.72 0.67 0.58 0.63 0.66 0.61 0.65 0.82 0.84 0.74 0.87 0.96 0.84 0.61 0.56 0.50 0.38 0.42 0.42 0.42 0.52 0.65 0.74 0.95 1.13 1.12 1.28 1.06 1.22 1.79 2.26 2.50 2.37 2.06 1.70 1.43 1.16 0.93 0.78 0.58 0.43 0.35
0.39 0.47 0.50 0.50 0.55 0.62 0.61 0.61 0.65 0.69 0.63 0.64 0.79 0.90 0.71 0.50 0.42 0.38 0.39 0.39 0.45 0.58 0.67 0.80 0.87 0.94 1.04 1.24 1.24 1.15 1.39 1.55 2.17 2.61 2.43 1.94 1.42 1.10 0.98 0.98 0.87 0.61 0.49
0.27 0.30 0.34 0.34 0.41 0.52 0.59 0.55 0.55 0.58 0.57 0.50 0.56 0.65 0.66 0.61 0.54 0.42 0.40 0.44 0.48 0.59 0.74 0.84 0.93 0.96 0.98 1.08 1.23 1.22 1.10 1.13 1.50 2.02 2.27 2.16 1.73 1.30 1.08 1.14 1.35 1.23 0.86
0.26 0.27 0.28 0.29 0.32 0.36 0.40 0.43 0.49 0.52 0.54 0.50 0.49 0.56 0.63 0.66 0.65 0.57 0.47 0.46 0.44 0.41 0.56 0.75 0.90 0.95 0.91 1.01 1.22 1.26 1.22 1.12 1.03 1.13 1.52 1.82 1.82 1.57 1.32 1.38 1.78 2.01 1.78
0.26 0.29 0.30 0.31 0.33 0.33 0.34 0.37 0.40 0.44 0.50 0.54 0.53 0.56 0.65 0.70 0.66 0.65 0.57 0.50 0.47 0.42 0.47 0.65 0.90 1.03 1.00 1.01 0.93 0.95 0.97 0.88 0.83 0.83 0.95 1.15 1.39 1.50 1.51 1.62 1.94 2.27 2.42
0.23 0.27 0.32 0.34 0.37 0.37 0.37 0.38 0.39 0.41 0.48 0.56 0.56 0.55 0.57 0.63 0.69 0.71 0.65 0.57 0.59 0.59 0.69 0.73 0.81 0.94 0.91 0.96 0.91 0.77 0.61 0.56 0.54 0.57 0.72 0.89 1.10 1.33 1.47 1.53 1.74 2.00 2.19
0.24 0.28 0.29 0.30 0.34 0.36 0.38 0.40 0.37 0.37 0.47 0.56 0.61 0.69 0.66 0.59 0.74 0.82 0.78 0.77 0.74 0.78 0.94 0.88 0.80 0.80 0.83 0.87 0.77 0.65 0.49 0.43 0.40 0.39 0.44 0.47 0.55 0.69 0.83 0.97 1.14 1.34 1.52
0.26 0.28 0.29 0.31 0.32 0.35 0.38 0.40 0.41 0.45 0.52 0.56 0.64 0.78 0.84 0.79 0.78 0.84 0.89 0.94 0.98 0.95 0.94 0.90 0.80 0.74 0.72 0.70 0.63 0.54 0.42 0.38 0.37 0.35 0.34 0.34 0.36 0.42 0.46 0.51 0.57 0.67 0.74
0.23 0.28 0.34 0.36 0.35 0.37 0.44 0.51 0.50 0.51 0.59 0.68 0.81 0.90 0.94 0.96 0.95 0.88 0.91 0.96 0.98 1.04 1.01 0.85 0.78 0.79 0.71 0.55 0.52 0.47 0.40 0.42 0.39 0.36 0.33 0.31 0.30 0.35 0.39 0.40 0.38 0.41 0.46
0.23 0.26 0.32 0.36 0.38 0.45 0.63 0.80 0.79 0.71 0.76 0.85 0.95 1.05 1.10 1.15 1.14 1.02 0.97 0.94 0.95 1.03 0.98 0.83 0.77 0.79 0.68 0.52 0.46 0.43 0.41 0.40 0.36 0.37 0.33 0.29 0.28 0.29 0.32 0.35 0.34 0.33 0.34
0.21 0.20 0.23 0.28 0.31 0.37 0.53 0.85 1.02 1.04 1.01 0.94 1.00 1.18 1.27 1.23 1.12 1.04 1.03 0.98 0.97 1.06 1.00 0.91 0.89 0.83 0.75 0.66 0.56 0.50 0.43 0.39 0.38 0.39 0.35 0.30 0.28 0.27 0.27 0.27 0.27 0.27 0.28
0.23 0.22 0.24 0.29 0.33 0.34 0.40 0.60 0.83 0.96 0.98 0.95 1.01 1.06 1.09 1.15 1.12 1.04 0.98 0.95 0.94 1.04 1.04 0.95 1.02 1.00 0.90 0.78 0.65 0.54 0.47 0.44 0.39 0.37 0.38 0.35 0.32 0.27 0.25 0.25 0.25 0.25 0.24
0.24 0.26 0.29 0.32 0.34 0.31 0.32 0.44 0.60 0.71 0.77 0.82 0.87 0.91 0.93 0.97 1.03 1.09 1.03 0.97 0.99 1.01 1.02 1.01 1.05 1.18 1.09 0.92 0.74 0.61 0.52 0.48 0.44 0.34 0.35 0.38 0.37 0.32 0.28 0.25 0.24 0.23 0.25
0.26 0.30 0.34 0.35 0.33 0.30 0.33 0.44 0.49 0.46 0.51 0.57 0.60 0.61 0.72 0.87 0.96 1.02 0.97 0.95 1.00 1.00 1.00 1.05 1.08 1.21 1.24 1.07 0.83 0.64 0.56 0.54 0.52 0.46 0.39 0.32 0.30 0.27 0.25 0.26 0.26 0.24 0.22
0.32 0.35 0.36 0.41 0.39 0.30 0.32 0.36 0.33 0.30 0.34 0.39 0.42 0.41 0.42 0.53 0.70 0.83 0.85 0.85 0.91 0.96 1.00 1.02 1.09 1.17 1.23 1.13 0.95 0.81 0.67 0.56 0.53 0.52 0.53 0.47 0.37 0.31 0.26 0.22 0.24 0.25 0.25
0.41 0.45 0.43 0.43 0.41 0.38 0.31 0.25 0.21 0.22 0.25 0.32 0.36 0.36 0.29 0.28 0.42 0.57 0.68 0.72 0.73 0.73 0.82 0.97 1.08 1.09 1.20 1.24 1.16 0.97 0.85 0.73 0.59 0.56 0.60 0.60 0.52 0.41 0.32 0.28 0.32 0.27 0.26
0.52 0.51 0.50 0.51 0.55 0.50 0.37 0.26 0.20 0.18 0.22 0.29 0.33 0.33 0.33 0.33 0.36 0.43 0.54 0.63 0.67 0.64 0.62 0.71 0.87 1.06 1.21 1.36 1.33 1.22 1.11 0.98 0.81 0.71 0.66 0.65 0.60 0.52 0.43 0.35 0.36 0.31 0.28
0.71 0.67 0.65 0.65 0.68 0.69 0.56 0.38 0.29 0.25 0.29 0.31 0.35 0.36 0.36 0.34 0.32 0.29 0.37 0.44 0.50 0.59 0.59 0.61 0.72 0.94 1.13 1.27 1.42 1.36 1.23 1.03 0.86 0.74 0.65 0.58 0.56 0.57 0.53 0.43 0.37 0.36 0.31
0.88 0.87 0.86 0.85 0.84 0.88 0.75 0.49 0.40 0.38 0.43 0.44 0.49 0.48 0.38 0.31 0.26 0.21 0.29 0.38 0.41 0.44 0.54 0.59 0.65 0.77 0.93 1.05 1.19 1.19 1.05 0.97 0.81 0.69 0.59 0.52 0.47 0.51 0.56 0.50 0.42 0.36 0.33

GEFSMA_prec_meanprecacc_108.txt.gz
Total_Precipitation_Accumulation
1.45 1.47 1.37 1.34 1.22 1.36 1.65 1.85 1.82 1.97 2.09 1.91 1.67 1.54 1.40 1.26 1.19 1.20 1.36 1.56 1.45 1.48 1.70 1.82 1.79 1.66 1.61 1.42 1.24 1.13 1.06 0.99 0.82 0.61 0.48 0.47 0.43 0.33 0.27 0.28 0.27 0.26 0.21
1.66 1.68 1.57 1.47 1.24 1.31 1.55 1.80 1.84 1.99 1.97 1.98 1.62 1.50 1.38 1.38 1.27 1.24 1.34 1.52 1.50 1.36 1.43 1.69 1.87 1.92 1.89 1.76 1.53 1.27 1.15 1.08 0.92 0.69 0.53 0.50 0.47 0.42 0.39 0.38 0.35 0.27 0.18
1.93 1.93 1.75 1.50 1.38 1.56 1.66 1.66 1.71 2.08 1.92 1.78 1.57 1.63 1.58 1.52 1.36 1.29 1.34 1.44 1.30 1.26 1.24 1.35 1.60 1.83 2.06 2.08 1.89 1.65 1.39 1.17 0.98 0.74 0.58 0.49 0.44 0.42 0.42 0.41 0.42 0.35 0.23
1.93 2.05 1.74 1.42 1.58 1.77 1.73 1.66 1.71 1.92 1.91 1.97 1.85 1.72 1.62 1.49 1.19 1.15 1.16 1.13 1.18 0.99 1.10 1.33 1.47 1.56 1.94 2.20 2.27 2.21 1.84 1.44 1.10 0.82 0.66 0.54 0.48 0.42 0.37 0.33 0.34 0.37 0.27
1.35 1.38 1.08 1.00 1.27 1.36 1.23 1.20 1.46 1.61 1.61 1.74 1.74 1.51 1.32 1.16 0.99 0.94 0.95 0.81 0.90 0.90 0.92 1.16 1.37 1.44 1.79 2.24 2.67 2.80 2.47 2.00 1.52 1.13 0.94 0.79 0.65 0.51 0.40 0.35 0.31 0.33 0.27
0.89 0.92 0.74 0.74 1.00 1.05 0.98 1.10 1.20 1.24 1.18 1.25 1.16 0.93 0.89 0.78 0.78 0.75 0.66 0.66 0.68 0.69 0.80 0.96 1.18 1.13 1.54 2.03 2.48 2.73 2.70 2.43 1.96 1.61 1.42 1.21 1.02 0.76 0.51 0.38 0.35 0.33 0.27
0.77 0.84 0.73 0.81 0.95 0.95 0.93 0.98 1.04 0.97 0.81 0.98 1.04 0.76 0.60 0.57 0.59 0.55 0.52 0.52 0.48 0.55 0.73 0.92 1.09 1.14 1.09 1.24 1.65 2.01 2.47 2.71 2.39 1.97 1.77 1.60 1.42 1.10 0.77 0.58 0.45 0.36 0.30
0.64 0.72 0.67 0.58 0.64 0.66 0.61 0.65 0.83 0.84 0.74 0.87 0.96 0.84 0.61 0.56 0.50 0.38 0.43 0.43 0.43 0.53 0.66 0.76 0.97 1.14 1.14 1.30 1.08 1.26 1.86 2.36 2.64 2.51 2.20 1.83 1.54 1.25 1.00 0.84 0.64 0.47 0.39
0.40 0.47 0.50 0.50 0.55 0.62 0.61 0.61 0.66 0.69 0.63 0.64 0.79 0.90 0.71 0.50 0.42 0.38 0.40 0.39 0.46 0.58 0.68 0.82 0.89 0.97 1.06 1.25 1.25 1.18 1.44 1.61 2.26 2.72 2.57 2.06 1.52 1.18 1.07 1.07 0.95 0.69 0.54
0.28 0.31 0.34 0.34 0.41 0.52 0.59 0.55 0.55 0.58 0.57 0.50 0.56 0.65 0.66 0.61 0.54 0.42 0.40 0.44 0.48 0.59 0.74 0.84 0.94 0.96 0.99 1.09 1.25 1.24 1.13 1.17 1.56 2.10 2.38 2.26 1.82 1.38 1.15 1.23 1.45 1.32 0.94
0.27 0.27 0.28 0.29 0.32 0.36 0.40 0.43 0.49 0.52 0.54 0.50 0.49 0.56 0.63 0.66 0.65 0.57 0.47 0.46 0.44 0.41 0.56 0.75 0.90 0.95 0.91 1.02 1.23 1.28 1.24 1.13 1.05 1.17 1.57 1.89 1.89 1.63 1.38 1.45 1.87 2.12 1.89
0.26 0.29 0.30 0.31 0.33 0.33 0.34 0.37 0.40 0.44 0.50 0.54 0.53 0.56 0.65 0.70 0.66 0.65 0.57 0.50 0.47 0.42 0.47 0.65 0.90 1.03 1.00 1.01 0.93 0.95 0.98 0.89 0.83 0.84 0.96 1.17 1.42 1.54 1.56 1.69 2.02 2.37 2.54
0.23 0.27 0.32 0.34 0.37 0.37 0.37 0.38 0.39 0.41 0.48 0.56 0.56 0.55 0.57 0.63 0.69 0.71 0.65 0.57 0.59 0.59 0.69 0.73 0.81 0.94 0.91 0.96 0.91 0.77 0.62 0.56 0.54 0.58 0.72 0.90 1.12 1.35 1.49 1.55 1.79 2.07 2.28
0.24 0.28 0.29 0.30 0.34 0.36 0.38 0.40 0.37 0.37 0.47 0.56 0.61 0.69 0.66 0.59 0.74 0.82 0.78 0.77 0.74 0.78 0.94 0.88 0.80 0.80 0.83 0.87 0.77 0.65 0.49 0.43 0.40 0.39 0.44 0.47 0.56 0.69 0.84 0.98 1.15 1.36 1.55
0.27 0.28 0.29 0.31 0.33 0.35 0.38 0.41 0.42 0.46 0.52 0.56 0.64 0.78 0.84 0.79 0.79 0.84 0.89 0.94 0.98 0.95 0.94 0.90 0.80 0.74 0.72 0.70 0.63 0.54 0.42 0.38 0.37 0.35 0.34 0.34 0.36 0.42 0.46 0.51 0.57 0.67 0.74
0.24 0.28 0.34 0.36 0.35 0.37 0.44 0.51 0.51 0.51 0.59 0.68 0.81 0.90 0.94 0.97 0.95 0.88 0.91 0.96 0.98 1.04 1.01 0.85 0.78 0.79 0.71 0.55 0.52 0.47 0.40 0.42 0.39 0.36 0.33 0.31 0.30 0.35 0.39 0.40 0.38 0.41 0.46
0.23 0.27 0.33 0.37 0.38 0.45 0.64 0.81 0.79 0.71 0.77 0.86 0.96 1.06 1.11 1.15 1.14 1.02 0.97 0.94 0.95 1.03 0.98 0.83 0.77 0.79 0.68 0.52 0.46 0.43 0.41 0.40 0.36 0.37 0.33 0.29 0.28 0.29 0.32 0.35 0.34 0.33 0.34
0.22 0.21 0.24 0.28 0.31 0.38 0.54 0.86 1.02 1.04 1.01 0.94 1.00 1.18 1.28 1.23 1.13 1.04 1.03 0.98 0.97 1.06 1.00 0.91 0.89 0.83 0.75 0.66 0.56 0.50 0.43 0.39 0.38 0.39 0.35 0.30 0.28 0.27 0.27 0.27 0.27 0.27 0.28
0.24 0.23 0.25 0.29 0.34 0.35 0.41 0.61 0.84 0.96 0.99 0.96 1.02 1.06 1.09 1.15 1.12 1.04 0.99 0.95 0.94 1.04 1.04 0.96 1.02 1.00 0.90 0.78 0.65 0.54 0.47 0.44 0.39 0.37 0.38 0.35 0.32 0.27 0.25 0.25 0.25 0.25 0.24
0.26 0.28 0.30 0.34 0.35 0.32 0.32 0.45 0.60 0.71 0.77 0.82 0.87 0.91 0.93 0.97 1.03 1.09 1.03 0.97 0.99 1.01 1.02 1.01 1.05 1.18 1.09 0.92 0.74 0.61 0.52 0.48 0.44 0.34 0.35 0.38 0.37 0.32 0.28 0.25 0.24 0.23 0.25
0.29 0.33 0.38 0.37 0.34 0.31 0.33 0.45 0.50 0.46 0.51 0.57 0.60 0.62 0.72 0.87 0.96 1.02 0.97 0.95 1.00 1.01 1.00 1.05 1.08 1.21 1.24 1.07 0.83 0.64 0.56 0.54 0.52 0.46 0.39 0.32 0.30 0.27 0.25 0.26 0.26 0.24 0.22
0.37 0.39 0.40 0.44 0.42 0.33 0.34 0.37 0.35 0.31 0.34 0.40 0.43 0.42 0.42 0.54 0.72 0.84 0.86 0.86 0.91 0.97 1.01 1.02 1.09 1.17 1.23 1.13 0.96 0.81 0.67 0.56 0.53 0.53 0.53 0.47 0.37 0.31 0.26 0.22 0.24 0.25 0.25
0.50 0.50 0.49 0.48 0.46 0.43 0.35 0.28 0.24 0.24 0.27 0.33 0.37 0.37 0.30 0.29 0.44 0.59 0.70 0.74 0.75 0.74 0.83 0.98 1.08 1.10 1.20 1.24 1.16 0.97 0.85 0.74 0.59 0.56 0.60 0.60 0.52 0.41 0.32 0.29 0.32 0.27 0.26
0.63 0.61 0.59 0.59 0.63 0.58 0.46 0.34 0.27 0.24 0.26 0.32 0.35 0.35 0.34 0.34 0.37 0.44 0.56 0.64 0.68 0.66 0.64 0.72 0.88 1.06 1.22 1.36 1.34 1.22 1.11 0.99 0.81 0.71 0.67 0.65 0.60 0.52 0.43 0.35 0.36 0.31 0.29
0.81 0.79 0.76 0.76 0.80 0.84 0.72 0.54 0.44 0.38 0.38 0.38 0.40 0.39 0.38 0.36 0.34 0.31 0.39 0.45 0.51 0.60 0.60 0.62 0.73 0.95 1.13 1.28 1.43 1.37 1.23 1.04 0.86 0.74 0.65 0.58 0.56 0.57 0.53 0.43 0.37 0.36 0.31
0.97 0.95 0.94 0.96 0.98 1.03 0.91 0.65 0.55 0.51 0.56 0.57 0.60 0.56 0.43 0.35 0.29 0.25 0.32 0.40 0.42 0.44 0.55 0.60 0.66 0.78 0.94 1.06 1.19 1.20 1.06 0.97 0.81 0.69 0.59 0.52 0.47 0.51 0.56 0.51 0.42 0.36 0.33

GEFSMA_prec_meanprecacc_114.txt.gz
Total_Precipitation_Accumulation
1.50 1.51 1.40 1.37 1.24 1.38 1.67 1.87 1.83 1.99 2.12 1.94 1.69 1.57 1.42 1.28 1.21 1.23 1.41 1.62 1.50 1.55 1.80 1.92 1.88 1.75 1.68 1.49 1.29 1.18 1.14 1.09 0.91 0.67 0.52 0.50 0.47 0.35 0.29 0.29 0.28 0.27 0.22
1.73 1.74 1.61 1.51 1.27 1.33 1.57 1.81 1.85 2.01 1.99 2.00 1.64 1.53 1.41 1.41 1.29 1.26 1.38 1.59 1.55 1.42 1.50 1.78 1.96 2.02 1.97 1.84 1.60 1.34 1.21 1.14 0.99 0.76 0.59 0.54 0.51 0.45 0.42 0.41 0.37 0.28 0.19
1.99 1.99 1.81 1.55 1.40 1.58 1.68 1.68 1.73 2.10 1.94 1.80 1.60 1.66 1.62 1.56 1.38 1.31 1.37 1.49 1.36 1.31 1.30 1.41 1.67 1.90 2.14 2.17 1.98 1.75 1.48 1.23 1.02 0.79 0.63 0.53 0.48 0.45 0.45 0.45 0.46 0.36 0.23
1.97 2.09 1.79 1.47 1.60 1.79 1.76 1.69 1.73 1.93 1.93 2.00 1.88 1.75 1.65 1.52 1.22 1.18 1.19 1.17 1.26 1.06 1.18 1.40 1.53 1.60 2.00 2.29 2.36 2.32 1.95 1.52 1.15 0.86 0.69 0.58 0.52 0.47 0.42 0.37 0.36 0.38 0.28
1.40 1.44 1.13 1.05 1.29 1.38 1.26 1.22 1.48 1.63 1.64 1.77 1.76 1.53 1.34 1.18 1.02 0.97 0.99 0.86 0.96 0.97 1.00 1.22 1.41 1.48 1.85 2.33 2.77 2.92 2.60 2.08 1.60 1.19 0.99 0.84 0.69 0.55 0.44 0.39 0.36 0.36 0.29
0.95 0.97 0.78 0.77 1.01 1.08 1.01 1.13 1.23 1.25 1.20 1.27 1.17 0.94 0.90 0.79 0.80 0.77 0.68 0.69 0.71 0.72 0.84 1.01 1.25 1.17 1.59 2.11 2.56 2.81 2.80 2.51 2.04 1.68 1.48 1.26 1.07 0.81 0.54 0.42 0.39 0.37 0.30
0.82 0.90 0.77 0.84 0.98 0.98 0.96 1.01 1.06 0.98 0.82 0.99 1.06 0.78 0.62 0.58 0.59 0.56 0.54 0.54 0.50 0.57 0.77 0.96 1.13 1.20 1.15 1.29 1.68 2.05 2.52 2.77 2.45 2.04 1.84 1.66 1.47 1.15 0.80 0.61 0.47 0.38 0.32
0.68 0.77 0.71 0.62 0.67 0.69 0.64 0.68 0.84 0.86 0.75 0.88 0.98 0.87 0.64 0.59 0.52 0.38 0.43 0.45 0.45 0.56 0.71 0.81 1.02 1.20 1.21 1.38 1.13 1.29 1.89 2.40 2.69 2.58 2.27 1.88 1.58 1.29 1.03 0.88 0.67 0.50 0.41
0.42 0.50 0.52 0.52 0.57 0.64 0.63 0.63 0.67 0.70 0.64 0.64 0.79 0.91 0.72 0.52 0.44 0.39 0.40 0.40 0.47 0.61 0.70 0.85 0.92 1.00 1.11 1.32 1.32 1.22 1.47 1.64 2.30 2.79 2.65 2.12 1.56 1.21 1.10 1.10 0.98 0.72 0.57
0.30 0.33 0.35 0.36 0.43 0.54 0.60 0.55 0.55 0.58 0.58 0.50 0.56 0.65 0.67 0.62 0.55 0.43 0.41 0.44 0.49 0.60 0.75 0.85 0.95 0.98 1.01 1.13 1.30 1.27 1.15 1.19 1.58 2.14 2.44 2.32 1.87 1.41 1.18 1.26 1.50 1.37 0.98
0.28 0.28 0.29 0.30 0.33 0.37 0.40 0.43 0.49 0.53 0.54 0.50 0.49 0.56 0.64 0.66 0.66 0.57 0.48 0.46 0.44 0.42 0.57 0.75 0.90 0.95 0.92 1.04 1.27 1.31 1.25 1.14 1.06 1.19 1.60 1.93 1.94 1.68 1.42 1.48 1.92 2.18 1.96
0.28 0.30 0.31 0.32 0.34 0.34 0.35 0.37 0.40 0.44 0.50 0.54 0.53 0.56 0.65 0.70 0.66 0.65 0.57 0.51 0.47 0.43 0.47 0.65 0.90 1.04 1.00 1.02 0.94 0.96 0.98 0.89 0.84 0.85 0.97 1.18 1.44 1.56 1.59 1.71 2.05 2.43 2.63
0.25 0.29 0.33 0.36 0.38 0.38 0.38 0.39 0.39 0.41 0.48 0.56 0.57 0.55 0.57 0.63 0.69 0.71 0.66 0.57 0.59 0.59 0.69 0.73 0.81 0.94 0.91 0.96 0.91 0.77 0.62 0.56 0.54 0.58 0.73 0.90 1.12 1.35 1.50 1.57 1.81 2.10 2.32
0.26 0.30 0.30 0.31 0.34 0.36 0.38 0.41 0.37 0.37 0.47 0.56 0.61 0.69 0.67 0.59 0.74 0.82 0.78 0.77 0.74 0.79 0.94 0.88 0.80 0.80 0.83 0.87 0.77 0.65 0.49 0.43 0.40 0.39 0.44 0.47 0.56 0.69 0.84 0.98 1.15 1.36 1.56
0.28 0.30 0.30 0.32 0.34 0.36 0.39 0.41 0.42 0.46 0.52 0.57 0.64 0.78 0.84 0.79 0.79 0.84 0.89 0.94 0.98 0.95 0.94 0.90 0.80 0.74 0.72 0.70 0.63 0.54 0.42 0.38 0.37 0.35 0.34 0.34 0.36 0.42 0.46 0.51 0.57 0.67 0.74
0.26 0.30 0.36 0.37 0.37 0.39 0.45 0.52 0.51 0.52 0.60 0.69 0.82 0.90 0.95 0.97 0.96 0.88 0.92 0.96 0.99 1.04 1.01 0.85 0.78 0.79 0.71 0.55 0.52 0.47 0.40 0.42 0.39 0.36 0.33 0.31 0.30 0.35 0.39 0.40 0.38 0.41 0.46
0.27 0.29 0.35 0.39 0.40 0.47 0.65 0.82 0.80 0.72 0.77 0.86 0.96 1.06 1.11 1.15 1.15 1.03 0.97 0.94 0.95 1.03 0.98 0.83 0.77 0.79 0.68 0.53 0.46 0.43 0.41 0.40 0.36 0.37 0.33 0.29 0.28 0.29 0.32 0.35 0.34 0.33 0.34
0.25 0.23 0.26 0.30 0.33 0.40 0.56 0.87 1.03 1.05 1.02 0.95 1.01 1.19 1.28 1.23 1.13 1.05 1.04 0.99 0.97 1.06 1.00 0.91 0.89 0.83 0.75 0.66 0.56 0.50 0.43 0.39 0.38 0.39 0.35 0.30 0.28 0.27 0.27 0.27 0.27 0.27 0.28
0.27 0.25 0.27 0.31 0.36 0.37 0.43 0.63 0.85 0.97 1.00 0.96 1.02 1.08 1.10 1.16 1.13 1.05 1.00 0.96 0.95 1.05 1.05 0.96 1.02 1.01 0.90 0.78 0.65 0.55 0.47 0.45 0.39 0.37 0.38 0.35 0.32 0.27 0.25 0.25 0.25 0.25 0.24
0.31 0.31 0.32 0.36 0.37 0.34 0.35 0.47 0.62 0.73 0.79 0.83 0.88 0.92 0.94 0.98 1.04 1.10 1.04 0.98 0.99 1.02 1.03 1.02 1.06 1.19 1.09 0.93 0.75 0.62 0.53 0.49 0.45 0.34 0.35 0.38 0.37 0.32 0.28 0.25 0.24 0.23 0.25
0.32 0.36 0.40 0.39 0.36 0.33 0.35 0.47 0.52 0.47 0.52 0.59 0.62 0.63 0.74 0.89 0.97 1.03 0.98 0.96 1.01 1.02 1.02 1.07 1.10 1.23 1.25 1.08 0.85 0.65 0.57 0.55 0.52 0.46 0.39 0.33 0.31 0.27 0.25 0.26 0.26 0.24 0.22
0.39 0.41 0.42 0.46 0.44 0.34 0.36 0.40 0.37 0.33 0.37 0.43 0.47 0.45 0.46 0.56 0.73 0.85 0.87 0.86 0.92 0.98 1.02 1.04 1.11 1.19 1.25 1.16 0.98 0.83 0.68 0.57 0.54 0.53 0.54 0.48 0.37 0.32 0.26 0.22 0.24 0.25 0.25
0.52 0.52 0.51 0.50 0.49 0.45 0.38 0.31 0.26 0.26 0.31 0.38 0.41 0.41 0.34 0.32 0.46 0.60 0.71 0.74 0.75 0.75 0.84 0.99 1.10 1.11 1.23 1.27 1.20 0.99 0.87 0.75 0.60 0.57 0.61 0.61 0.53 0.42 0.32 0.29 0.32 0.27 0.27
0.66 0.64 0.62 0.62 0.66 0.62 0.50 0.37 0.30 0.26 0.28 0.35 0.38 0.37 0.37 0.37 0.40 0.46 0.58 0.67 0.71 0.68 0.66 0.74 0.89 1.08 1.24 1.39 1.37 1.24 1.14 1.00 0.82 0.72 0.68 0.66 0.61 0.53 0.43 0.36 0.36 0.31 0.29
0.85 0.83 0.80 0.79 0.83 0.87 0.77 0.59 0.49 0.41 0.41 0.41 0.43 0.43 0.43 0.41 0.40 0.37 0.44 0.50 0.55 0.64 0.63 0.65 0.75 0.97 1.15 1.29 1.45 1.39 1.25 1.06 0.87 0.74 0.67 0.59 0.56 0.57 0.53 0.44 0.37 0.36 0.31
1.01 0.99 0.98 0.99 1.01 1.06 0.96 0.71 0.62 0.57 0.61 0.61 0.65 0.62 0.50 0.41 0.36 0.31 0.37 0.45 0.47 0.49 0.59 0.64 0.69 0.80 0.96 1.08 1.21 1.22 1.08 1.00 0.83 0.71 0.60 0.54 0.48 0.52 0.57 0.51 0.42 0.36 0.33

GEFSMA_prec_meanprecacc_120.txt.gz
Total_Precipitation_Accumulation
1.59 1.60 1.48 1.44 1.30 1.44 1.72 1.91 1.86 2.01 2.14 1.97 1.70 1.58 1.43 1.29 1.23 1.27 1.46 1.63 1.51 1.56 1.82 1.95 1.90 1.78 1.72 1.54 1.33 1.22 1.17 1.12 0.94 0.70 0.55 0.52 0.48 0.36 0.29 0.29 0.28 0.27 0.23
1.80 1.82 1.68 1.58 1.33 1.37 1.59 1.84 1.87 2.03 2.01 2.02 1.66 1.54 1.42 1.42 1.32 1.30 1.43 1.61 1.56 1.43 1.52 1.80 1.99 2.06 2.01 1.88 1.65 1.38 1.24 1.17 1.03 0.79 0.61 0.56 0.52 0.46 0.43 0.42 0.37 0.28 0.20
2.05 2.04 1.87 1.59 1.44 1.61 1.70 1.70 1.75 2.13 1.97 1.82 1.62 1.68 1.64 1.58 1.42 1.38 1.43 1.55 1.39 1.32 1.31 1.44 1.70 1.94 2.20 2.24 2.03 1.79 1.52 1.27 1.06 0.82 0.66 0.55 0.50 0.46 0.46 0.46 0.46 0.37 0.24
2.00 2.14 1.83 1.50 1.63 1.81 1.77 1.70 1.74 1.96 1.96 2.03 1.91 1.77 1.67 1.55 1.23 1.20 1.24 1.25 1.33 1.11 1.21 1.42 1.55 1.64 2.05 2.36 2.42 2.37 1.99 1.56 1.18 0.89 0.72 0.61 0.55 0.49 0.43 0.37 0.37 0.39 0.29
1.42 1.46 1.16 1.08 1.31 1.39 1.27 1.23 1.49 1.66 1.68 1.80 1.77 1.56 1.37 1.20 1.04 0.99 1.01 0.88 0.98 1.01 1.04 1.24 1.43 1.51 1.88 2.37 2.82 2.98 2.66 2.13 1.62 1.21 1.01 0.86 0.72 0.59 0.47 0.41 0.38 0.37 0.30
0.98 1.00 0.80 0.79 1.03 1.09 1.05 1.16 1.25 1.28 1.23 1.29 1.19 0.98 0.94 0.80 0.81 0.78 0.69 0.71 0.73 0.74 0.86 1.04 1.28 1.19 1.61 2.14 2.59 2.84 2.85 2.56 2.06 1.70 1.50 1.29 1.09 0.83 0.55 0.43 0.40 0.38 0.30
0.85 0.93 0.79 0.87 1.00 1.01 1.01 1.05 1.09 1.01 0.85 1.01 1.08 0.83 0.66 0.60 0.61 0.56 0.55 0.55 0.51 0.59 0.79 0.99 1.17 1.24 1.18 1.31 1.70 2.07 2.55 2.81 2.49 2.07 1.86 1.68 1.49 1.17 0.82 0.63 0.49 0.40 0.33
0.70 0.79 0.75 0.65 0.69 0.72 0.67 0.71 0.88 0.89 0.77 0.89 1.00 0.89 0.67 0.64 0.57 0.40 0.44 0.45 0.45 0.57 0.73 0.83 1.05 1.24 1.24 1.41 1.14 1.30 1.91 2.43 2.72 2.61 2.30 1.91 1.60 1.31 1.05 0.89 0.68 0.51 0.43
0.46 0.52 0.54 0.55 0.61 0.67 0.66 0.66 0.69 0.73 0.66 0.66 0.80 0.93 0.75 0.56 0.48 0.42 0.41 0.40 0.47 0.62 0.71 0.87 0.94 1.02 1.14 1.37 1.35 1.24 1.48 1.66 2.32 2.81 2.68 2.14 1.58 1.23 1.11 1.11 1.00 0.73 0.58
0.35 0.36 0.38 0.39 0.47 0.56 0.63 0.56 0.56 0.60 0.59 0.51 0.57 0.66 0.67 0.63 0.58 0.46 0.43 0.45 0.49 0.61 0.76 0.86 0.97 1.00 1.04 1.16 1.33 1.29 1.15 1.19 1.59 2.16 2.47 2.34 1.89 1.43 1.19 1.28 1.52 1.39 0.99
0.33 0.31 0.31 0.33 0.36 0.39 0.42 0.44 0.51 0.54 0.55 0.50 0.50 0.56 0.64 0.66 0.66 0.59 0.50 0.48 0.45 0.42 0.58 0.76 0.91 0.97 0.94 1.07 1.30 1.33 1.26 1.15 1.07 1.20 1.61 1.94 1.96 1.70 1.43 1.50 1.94 2.20 1.99
0.32 0.33 0.34 0.36 0.36 0.36 0.38 0.39 0.42 0.45 0.50 0.55 0.53 0.57 0.66 0.70 0.67 0.66 0.59 0.52 0.49 0.43 0.48 0.65 0.91 1.04 1.01 1.04 0.96 0.96 0.99 0.90 0.84 0.85 0.98 1.19 1.45 1.58 1.60 1.73 2.07 2.45 2.66
0.28 0.32 0.36 0.39 0.41 0.42 0.41 0.40 0.41 0.43 0.49 0.56 0.57 0.55 0.57 0.63 0.70 0.72 0.67 0.59 0.60 0.60 0.69 0.73 0.81 0.94 0.92 0.97 0.91 0.77 0.62 0.56 0.54 0.58 0.73 0.91 1.12 1.36 1.50 1.57 1.81 2.11 2.34
0.30 0.33 0.32 0.33 0.36 0.38 0.40 0.43 0.39 0.39 0.49 0.57 0.61 0.70 0.67 0.59 0.74 0.82 0.78 0.78 0.75 0.80 0.95 0.88 0.80 0.80 0.83 0.87 0.77 0.65 0.49 0.43 0.40 0.39 0.44 0.47 0.56 0.69 0.84 0.98 1.15 1.37 1.56
0.33 0.34 0.32 0.33 0.36 0.38 0.41 0.44 0.44 0.48 0.55 0.58 0.65 0.79 0.84 0.79 0.79 0.84 0.89 0.94 0.99 0.96 0.95 0.90 0.80 0.74 0.72 0.71 0.63 0.54 0.42 0.38 0.37 0.35 0.34 0.34 0.36 0.42 0.46 0.51 0.57 0.67 0.74
0.32 0.36 0.39 0.40 0.39 0.40 0.48 0.55 0.54 0.55 0.63 0.71 0.84 0.92 0.96 0.98 0.96 0.88 0.92 0.97 1.00 1.06 1.02 0.85 0.78 0.79 0.71 0.55 0.53 0.47 0.40 0.42 0.39 0.36 0.33 0.31 0.30 0.35 0.39 0.40 0.38 0.41 0.46
0.34 0.36 0.40 0.43 0.43 0.50 0.68 0.86 0.83 0.74 0.79 0.89 0.98 1.09 1.13 1.17 1.16 1.04 0.98 0.95 0.96 1.05 0.99 0.83 0.78 0.80 0.69 0.53 0.46 0.44 0.41 0.40 0.36 0.37 0.33 0.29 0.28 0.29 0.32 0.35 0.34 0.33 0.34
0.30 0.28 0.31 0.34 0.37 0.44 0.61 0.91 1.06 1.08 1.05 0.98 1.04 1.23 1.31 1.26 1.15 1.06 1.05 0.99 0.98 1.07 1.02 0.92 0.90 0.85 0.77 0.67 0.57 0.51 0.43 0.40 0.38 0.39 0.35 0.31 0.28 0.27 0.27 0.27 0.27 0.27 0.28
0.33 0.31 0.32 0.35 0.39 0.42 0.48 0.67 0.88 1.00 1.03 0.99 1.05 1.10 1.13 1.19 1.15 1.07 1.01 0.97 0.96 1.07 1.07 0.97 1.03 1.02 0.92 0.80 0.67 0.56 0.48 0.46 0.39 0.37 0.38 0.35 0.33 0.27 0.25 0.25 0.25 0.25 0.24
0.39 0.38 0.40 0.42 0.42 0.39 0.39 0.51 0.67 0.77 0.82 0.87 0.91 0.95 0.98 1.01 1.07 1.12 1.06 1.00 1.01 1.04 1.06 1.05 1.08 1.21 1.12 0.95 0.78 0.64 0.55 0.51 0.46 0.35 0.35 0.39 0.37 0.32 0.28 0.25 0.24 0.23 0.25
0.43 0.46 0.49 0.48 0.43 0.38 0.38 0.51 0.58 0.53 0.58 0.63 0.66 0.67 0.77 0.94 1.03 1.08 1.01 0.99 1.05 1.05 1.05 1.10 1.13 1.26 1.28 1.13 0.90 0.69 0.60 0.57 0.54 0.47 0.40 0.33 0.31 0.28 0.26 0.27 0.27 0.25 0.22
0.47 0.52 0.52 0.54 0.51 0.38 0.39 0.43 0.41 0.38 0.42 0.49 0.52 0.51 0.52 0.63 0.79 0.90 0.90 0.89 0.94 1.00 1.05 1.08 1.15 1.23 1.30 1.21 1.04 0.88 0.73 0.62 0.58 0.55 0.56 0.49 0.38 0.32 0.27 0.22 0.25 0.26 0.25
0.59 0.61 0.59 0.58 0.55 0.50 0.42 0.35 0.30 0.30 0.36 0.44 0.48 0.48 0.39 0.38 0.54 0.66 0.75 0.78 0.77 0.77 0.86 1.02 1.14 1.15 1.27 1.33 1.26 1.05 0.94 0.82 0.64 0.60 0.65 0.63 0.54 0.43 0.32 0.29 0.33 0.28 0.27
0.76 0.74 0.71 0.71 0.75 0.69 0.57 0.45 0.37 0.30 0.33 0.39 0.44 0.45 0.45 0.45 0.46 0.52 0.64 0.72 0.75 0.72 0.70 0.77 0.92 1.10 1.27 1.43 1.42 1.29 1.19 1.04 0.85 0.74 0.72 0.69 0.62 0.53 0.43 0.36 0.36 0.32 0.29
0.98 0.95 0.92 0.92 0.95 0.98 0.87 0.67 0.56 0.46 0.45 0.46 0.50 0.51 0.51 0.48 0.45 0.40 0.48 0.55 0.60 0.69 0.67 0.68 0.78 0.98 1.16 1.31 1.47 1.41 1.28 1.10 0.90 0.76 0.70 0.63 0.58 0.59 0.54 0.44 0.38 0.37 0.32
1.15 1.13 1.12 1.12 1.12 1.15 1.04 0.77 0.67 0.61 0.66 0.67 0.71 0.68 0.54 0.45 0.39 0.34 0.40 0.48 0.50 0.53 0.62 0.68 0.72 0.82 0.97 1.09 1.24 1.24 1.10 1.03 0.87 0.73 0.62 0.58 0.52 0.56 0.60 0.52 0.43 0.37 0.34

GEFSMA_prec_meanprecacc_126.txt.gz
Total_Precipitation_Accumulation
1.62 1.63 1.50 1.45 1.31 1.45 1.73 1.92 1.88 2.04 2.19 2.08 1.80 1.65 1.51 1.39 1.32 1.32 1.50 1.67 1.56 1.61 1.86 1.96 1.92 1.80 1.74 1.55 1.34 1.23 1.18 1.13 0.95 0.71 0.56 0.53 0.48 0.36 0.29 0.29 0.29 0.28 0.23
1.83 1.84 1.70 1.59 1.34 1.38 1.61 1.85 1.89 2.06 2.04 2.07 1.72 1.59 1.48 1.49 1.38 1.35 1.47 1.64 1.60 1.47 1.56 1.84 2.03 2.09 2.03 1.89 1.66 1.40 1.26 1.19 1.03 0.80 0.62 0.57 0.53 0.47 0.44 0.42 0.38 0.28 0.20
2.07 2.06 1.88 1.60 1.45 1.62 1.72 1.72 1.77 2.15 1.99 1.85 1.66 1.73 1.68 1.62 1.46 1.40 1.45 1.57 1.41 1.36 1.35 1.47 1.74 1.97 2.24 2.27 2.05 1.81 1.53 1.29 1.07 0.84 0.67 0.56 0.50 0.47 0.47 0.46 0.47 0.37 0.24
2.01 2.15 1.83 1.51 1.64 1.82 1.78 1.71 1.76 1.99 1.98 2.06 1.94 1.80 1.71 1.57 1.26 1.22 1.25 1.26 1.34 1.13 1.23 1.46 1.58 1.67 2.08 2.39 2.44 2.39 2.01 1.57 1.19 0.91 0.74 0.62 0.56 0.50 0.44 0.38 0.37 0.39 0.29
1.44 1.49 1.19 1.09 1.32 1.41 1.28 1.24 1.50 1.67 1.69 1.80 1.78 1.57 1.38 1.23 1.07 1.02 1.05 0.92 1.00 1.03 1.05 1.27 1.47 1.54 1.93 2.42 2.86 3.01 2.68 2.15 1.64 1.22 1.03 0.89 0.75 0.60 0.48 0.42 0.38 0.38 0.31
1.00 1.01 0.81 0.80 1.04 1.11 1.07 1.18 1.26 1.29 1.23 1.30 1.20 0.99 0.95 0.83 0.84 0.82 0.73 0.75 0.76 0.76 0.87 1.05 1.30 1.21 1.65 2.20 2.65 2.89 2.89 2.59 2.10 1.73 1.53 1.33 1.14 0.86 0.57 0.45 0.41 0.39 0.32
0.87 0.94 0.80 0.88 1.01 1.02 1.02 1.08 1.11 1.02 0.86 1.01 1.09 0.86 0.70 0.63 0.63 0.58 0.57 0.58 0.53 0.61 0.82 1.00 1.18 1.24 1.20 1.34 1.74 2.12 2.60 2.86 2.53 2.11 1.89 1.71 1.53 1.20 0.84 0.65 0.50 0.41 0.35
0.73 0.81 0.77 0.66 0.70 0.73 0.67 0.72 0.89 0.90 0.77 0.89 1.00 0.92 0.70 0.66 0.58 0.41 0.45 0.47 0.47 0.59 0.74 0.84 1.06 1.24 1.24 1.41 1.15 1.33 1.95 2.47 2.76 2.65 2.33 1.94 1.63 1.33 1.07 0.91 0.70 0.53 0.45
0.50 0.55 0.56 0.57 0.62 0.68 0.66 0.66 0.69 0.73 0.67 0.66 0.80 0.94 0.76 0.57 0.49 0.43 0.42 0.41 0.48 0.62 0.72 0.88 0.94 1.03 1.15 1.37 1.36 1.24 1.50 1.68 2.36 2.86 2.72 2.17 1.60 1.25 1.13 1.13 1.02 0.75 0.61
0.38 0.39 0.41 0.41 0.48 0.57 0.64 0.57 0.57 0.60 0.60 0.52 0.57 0.66 0.67 0.64 0.58 0.47 0.44 0.45 0.50 0.62 0.77 0.86 0.97 1.01 1.05 1.17 1.34 1.29 1.17 1.20 1.61 2.19 2.51 2.37 1.91 1.44 1.21 1.30 1.54 1.41 1.01
0.36 0.34 0.34 0.35 0.38 0.40 0.43 0.45 0.52 0.54 0.55 0.51 0.50 0.56 0.64 0.67 0.67 0.59 0.51 0.49 0.46 0.43 0.58 0.76 0.91 0.97 0.95 1.07 1.30 1.33 1.26 1.15 1.07 1.21 1.63 1.96 1.98 1.71 1.44 1.51 1.96 2.22 2.01
0.36 0.36 0.37 0.38 0.38 0.37 0.39 0.40 0.43 0.45 0.51 0.55 0.54 0.57 0.66 0.71 0.67 0.66 0.59 0.53 0.49 0.44 0.48 0.65 0.91 1.04 1.01 1.04 0.96 0.96 0.99 0.90 0.84 0.85 0.98 1.19 1.46 1.59 1.61 1.74 2.09 2.47 2.69
0.31 0.35 0.38 0.40 0.42 0.42 0.41 0.41 0.41 0.44 0.50 0.57 0.57 0.55 0.57 0.63 0.70 0.72 0.67 0.59 0.60 0.60 0.70 0.73 0.81 0.94 0.92 0.97 0.91 0.77 0.62 0.56 0.54 0.58 0.73 0.91 1.12 1.36 1.51 1.59 1.83 2.13 2.37
0.33 0.36 0.34 0.35 0.37 0.39 0.40 0.43 0.39 0.39 0.49 0.58 0.61 0.70 0.67 0.59 0.74 0.82 0.78 0.78 0.76 0.80 0.95 0.88 0.80 0.80 0.83 0.87 0.77 0.65 0.49 0.43 0.40 0.39 0.44 0.47 0.56 0.69 0.84 0.99 1.16 1.37 1.57
0.37 0.38 0.34 0.35 0.37 0.39 0.42 0.45 0.45 0.49 0.55 0.58 0.65 0.80 0.84 0.79 0.79 0.84 0.90 0.95 1.00 0.97 0.96 0.90 0.80 0.74 0.73 0.71 0.63 0.54 0.42 0.38 0.37 0.35 0.34 0.34 0.36 0.42 0.46 0.51 0.57 0.67 0.74
0.37 0.41 0.43 0.42 0.40 0.42 0.49 0.56 0.55 0.55 0.63 0.72 0.84 0.93 0.96 0.98 0.96 0.88 0.92 0.97 1.00 1.06 1.02 0.85 0.78 0.79 0.71 0.56 0.53 0.47 0.40 0.42 0.39 0.36 0.33 0.31 0.30 0.35 0.39 0.40 0.38 0.41 0.46
0.38 0.39 0.43 0.46 0.45 0.51 0.69 0.87 0.84 0.76 0.81 0.90 0.99 1.09 1.14 1.18 1.17 1.04 0.98 0.96 0.96 1.05 0.99 0.83 0.78 0.80 0.69 0.53 0.46 0.44 0.41 0.40 0.36 0.37 0.33 0.30 0.29 0.29 0.33 0.35 0.34 0.34 0.35
0.33 0.31 0.33 0.38 0.39 0.47 0.63 0.93 1.08 1.09 1.07 0.99 1.05 1.23 1.32 1.27 1.16 1.07 1.05 1.00 0.98 1.07 1.02 0.93 0.90 0.85 0.77 0.67 0.58 0.51 0.43 0.40 0.38 0.40 0.36 0.31 0.29 0.28 0.27 0.27 0.28 0.27 0.29
0.37 0.35 0.37 0.39 0.43 0.45 0.50 0.70 0.92 1.02 1.04 1.01 1.06 1.12 1.14 1.20 1.16 1.08 1.02 0.98 0.97 1.07 1.07 0.98 1.03 1.03 0.92 0.80 0.69 0.58 0.49 0.47 0.40 0.38 0.39 0.36 0.33 0.28 0.26 0.25 0.25 0.25 0.24
0.45 0.44 0.44 0.46 0.46 0.43 0.42 0.54 0.70 0.80 0.85 0.89 0.93 0.97 0.99 1.03 1.08 1.14 1.07 1.02 1.04 1.06 1.07 1.06 1.08 1.21 1.12 0.96 0.79 0.66 0.57 0.52 0.47 0.35 0.36 0.40 0.37 0.32 0.28 0.26 0.25 0.24 0.25
0.51 0.54 0.57 0.54 0.50 0.44 0.42 0.55 0.62 0.57 0.63 0.68 0.69 0.70 0.80 0.98 1.07 1.13 1.05 1.03 1.09 1.08 1.07 1.12 1.14 1.26 1.29 1.13 0.90 0.70 0.61 0.58 0.54 0.48 0.41 0.34 0.32 0.28 0.26 0.27 0.27 0.25 0.22
0.56 0.62 0.66 0.67 0.62 0.48 0.48 0.52 0.50 0.46 0.51 0.58 0.60 0.58 0.58 0.71 0.86 0.96 0.95 0.93 0.99 1.04 1.08 1.10 1.17 1.24 1.30 1.22 1.05 0.89 0.74 0.63 0.58 0.56 0.58 0.50 0.39 0.33 0.27 0.23 0.25 0.27 0.26
0.69 0.71 0.70 0.71 0.69 0.64 0.56 0.48 0.42 0.41 0.47 0.53 0.55 0.53 0.45 0.45 0.61 0.71 0.80 0.83 0.81 0.80 0.88 1.04 1.15 1.17 1.29 1.34 1.27 1.07 0.96 0.83 0.66 0.61 0.66 0.64 0.55 0.44 0.33 0.30 0.34 0.28 0.27
0.88 0.86 0.84 0.84 0.87 0.82 0.72 0.59 0.51 0.45 0.46 0.48 0.50 0.51 0.53 0.53 0.53 0.58 0.68 0.76 0.78 0.74 0.73 0.80 0.94 1.12 1.29 1.45 1.44 1.31 1.21 1.06 0.86 0.75 0.73 0.69 0.62 0.54 0.44 0.37 0.38 0.33 0.30
1.14 1.10 1.06 1.07 1.10 1.15 1.07 0.87 0.75 0.62 0.57 0.56 0.59 0.60 0.59 0.55 0.52 0.47 0.53 0.58 0.63 0.72 0.70 0.71 0.80 1.00 1.19 1.34 1.49 1.43 1.30 1.12 0.92 0.78 0.72 0.65 0.59 0.59 0.55 0.45 0.40 0.39 0.34
1.33 1.30 1.29 1.31 1.31 1.33 1.22 0.94 0.81 0.72 0.74 0.74 0.78 0.73 0.59 0.49 0.42 0.37 0.42 0.50 0.52 0.55 0.65 0.70 0.73 0.84 0.99 1.12 1.27 1.27 1.14 1.08 0.91 0.76 0.65 0.62 0.55 0.59 0.62 0.53 0.44 0.39 0.36

GEFSMA_prec_meanprecacc_132.txt.gz
Total_Precipitation_Accumulation
1.63 1.63 1.51 1.46 1.32 1.45 1.73 1.93 1.89 2.04 2.20 2.10 1.82 1.67 1.54 1.41 1.34 1.33 1.52 1.73 1.62 1.67 1.93 2.03 1.96 1.83 1.78 1.61 1.41 1.29 1.25 1.17 0.98 0.73 0.58 0.55 0.50 0.38 0.31 0.30 0.30 0.29 0.24
1.84 1.85 1.71 1.60 1.35 1.39 1.62 1.86 1.89 2.07 2.06 2.08 1.74 1.61 1.50 1.50 1.40 1.37 1.48 1.67 1.66 1.52 1.63 1.93 2.12 2.17 2.10 1.96 1.72 1.46 1.33 1.25 1.07 0.83 0.64 0.59 0.55 0.48 0.46 0.45 0.39 0.30 0.21
2.10 2.06 1.89 1.61 1.46 1.63 1.72 1.73 1.79 2.17 2.01 1.87 1.68 1.74 1.70 1.63 1.47 1.41 1.46 1.58 1.44 1.40 1.40 1.54 1.82 2.07 2.34 2.35 2.12 1.87 1.59 1.34 1.11 0.87 0.70 0.58 0.51 0.48 0.49 0.48 0.48 0.39 0.25
2.04 2.16 1.84 1.51 1.65 1.83 1.80 1.73 1.78 2.01 2.00 2.08 1.95 1.82 1.72 1.58 1.26 1.23 1.26 1.28 1.36 1.16 1.28 1.52 1.65 1.75 2.19 2.50 2.54 2.48 2.07 1.62 1.23 0.94 0.77 0.64 0.58 0.52 0.45 0.39 0.39 0.41 0.30
1.47 1.50 1.19 1.10 1.33 1.42 1.30 1.26 1.52 1.69 1.71 1.82 1.80 1.58 1.39 1.24 1.08 1.03 1.06 0.93 1.02 1.05 1.09 1.34 1.55 1.61 2.01 2.55 3.00 3.13 2.79 2.23 1.70 1.28 1.08 0.94 0.79 0.63 0.50 0.44 0.40 0.39 0.32
1.03 1.03 0.82 0.80 1.05 1.12 1.08 1.20 1.28 1.30 1.25 1.32 1.21 1.00 0.96 0.83 0.85 0.84 0.75 0.76 0.77 0.77 0.88 1.07 1.33 1.24 1.71 2.30 2.78 3.04 3.03 2.69 2.16 1.78 1.59 1.39 1.20 0.91 0.61 0.47 0.43 0.40 0.33
0.91 0.96 0.82 0.89 1.02 1.03 1.03 1.09 1.11 1.03 0.87 1.03 1.10 0.87 0.70 0.64 0.64 0.59 0.58 0.59 0.54 0.62 0.82 1.00 1.18 1.25 1.21 1.38 1.80 2.21 2.72 2.97 2.63 2.18 1.96 1.77 1.59 1.26 0.88 0.69 0.54 0.43 0.36
0.77 0.82 0.78 0.67 0.71 0.74 0.68 0.72 0.90 0.91 0.79 0.90 1.00 0.92 0.70 0.67 0.59 0.42 0.46 0.48 0.48 0.60 0.75 0.85 1.07 1.24 1.24 1.42 1.16 1.38 2.03 2.58 2.87 2.74 2.40 2.00 1.69 1.38 1.11 0.95 0.74 0.56 0.48
0.53 0.57 0.57 0.57 0.62 0.68 0.67 0.66 0.70 0.74 0.68 0.67 0.81 0.94 0.77 0.57 0.49 0.44 0.43 0.42 0.49 0.63 0.72 0.88 0.95 1.03 1.15 1.37 1.36 1.26 1.54 1.73 2.42 2.94 2.79 2.24 1.65 1.29 1.17 1.17 1.06 0.79 0.65
0.43 0.42 0.43 0.42 0.48 0.58 0.65 0.58 0.57 0.60 0.60 0.52 0.58 0.66 0.68 0.64 0.58 0.47 0.44 0.45 0.50 0.62 0.77 0.86 0.97 1.01 1.05 1.17 1.34 1.30 1.18 1.22 1.63 2.24 2.57 2.44 1.96 1.47 1.24 1.33 1.58 1.46 1.05
0.40 0.37 0.37 0.37 0.38 0.41 0.44 0.46 0.53 0.55 0.56 0.51 0.50 0.56 0.64 0.67 0.67 0.59 0.51 0.49 0.46 0.43 0.58 0.76 0.91 0.97 0.95 1.07 1.31 1.33 1.26 1.16 1.09 1.23 1.66 2.00 2.02 1.75 1.48 1.54 1.99 2.27 2.06
0.42 0.40 0.39 0.40 0.40 0.38 0.40 0.41 0.43 0.46 0.51 0.55 0.54 0.57 0.66 0.71 0.67 0.66 0.59 0.53 0.49 0.44 0.48 0.65 0.91 1.04 1.02 1.04 0.96 0.96 1.00 0.91 0.85 0.86 0.99 1.21 1.48 1.62 1.65 1.77 2.12 2.51 2.74
0.36 0.39 0.42 0.43 0.45 0.44 0.43 0.42 0.42 0.44 0.50 0.57 0.57 0.55 0.57 0.63 0.70 0.72 0.67 0.59 0.60 0.60 0.70 0.73 0.81 0.94 0.92 0.97 0.91 0.77 0.62 0.57 0.55 0.58 0.73 0.91 1.13 1.37 1.53 1.61 1.85 2.17 2.42
0.38 0.41 0.38 0.38 0.39 0.41 0.42 0.45 0.40 0.40 0.49 0.58 0.62 0.70 0.67 0.59 0.75 0.82 0.78 0.78 0.76 0.80 0.95 0.88 0.80 0.80 0.83 0.87 0.77 0.65 0.49 0.44 0.40 0.39 0.44 0.47 0.56 0.69 0.85 0.99 1.17 1.39 1.59
0.44 0.45 0.39 0.38 0.38 0.40 0.44 0.47 0.46 0.50 0.55 0.58 0.66 0.80 0.85 0.80 0.79 0.84 0.90 0.95 1.00 0.97 0.96 0.90 0.80 0.74 0.73 0.71 0.63 0.54 0.42 0.38 0.38 0.35 0.35 0.34 0.37 0.42 0.47 0.51 0.58 0.67 0.74
0.43 0.46 0.47 0.45 0.43 0.43 0.50 0.57 0.56 0.56 0.64 0.72 0.84 0.93 0.97 0.99 0.97 0.89 0.93 0.97 1.01 1.06 1.02 0.85 0.78 0.79 0.71 0.56 0.53 0.47 0.40 0.42 0.39 0.36 0.33 0.31 0.30 0.35 0.39 0.41 0.38 0.41 0.46
0.43 0.44 0.46 0.49 0.48 0.53 0.71 0.89 0.86 0.78 0.83 0.91 0.99 1.10 1.14 1.18 1.17 1.05 0.99 0.96 0.97 1.05 0.99 0.83 0.78 0.80 0.69 0.53 0.47 0.44 0.41 0.40 0.36 0.37 0.33 0.30 0.29 0.30 0.34 0.35 0.35 0.34 0.35
0.43 0.38 0.38 0.41 0.43 0.51 0.66 0.95 1.10 1.11 1.08 1.00 1.06 1.24 1.32 1.27 1.16 1.08 1.06 1.00 0.99 1.08 1.02 0.93 0.90 0.85 0.77 0.67 0.58 0.52 0.44 0.40 0.38 0.41 0.37 0.33 0.30 0.29 0.28 0.28 0.28 0.28 0.29
0.46 0.44 0.44 0.46 0.49 0.50 0.54 0.72 0.94 1.04 1.06 1.02 1.08 1.13 1.15 1.21 1.17 1.09 1.03 0.98 0.97 1.07 1.07 0.98 1.04 1.03 0.92 0.80 0.69 0.58 0.50 0.48 0.41 0.39 0.40 0.37 0.34 0.29 0.27 0.26 0.26 0.26 0.25
0.51 0.50 0.50 0.52 0.52 0.48 0.47 0.59 0.75 0.84 0.89 0.93 0.98 1.01 1.03 1.05 1.10 1.15 1.09 1.03 1.05 1.07 1.08 1.07 1.09 1.22 1.12 0.96 0.80 0.66 0.57 0.52 0.47 0.35 0.36 0.40 0.38 0.33 0.29 0.27 0.25 0.25 0.26
0.57 0.61 0.65 0.62 0.57 0.50 0.47 0.60 0.69 0.66 0.72 0.79 0.79 0.76 0.85 1.01 1.10 1.16 1.07 1.04 1.11 1.10 1.09 1.13 1.15 1.27 1.29 1.14 0.91 0.70 0.61 0.59 0.55 0.49 0.42 0.35 0.33 0.29 0.27 0.28 0.28 0.26 0.24
0.65 0.72 0.76 0.76 0.69 0.54 0.55 0.60 0.61 0.59 0.65 0.70 0.71 0.67 0.67 0.77 0.91 0.99 0.98 0.96 1.01 1.06 1.09 1.12 1.18 1.25 1.31 1.23 1.06 0.90 0.75 0.64 0.59 0.57 0.59 0.52 0.40 0.34 0.28 0.24 0.27 0.28 0.27
0.80 0.83 0.81 0.81 0.77 0.73 0.66 0.56 0.51 0.50 0.56 0.62 0.63 0.60 0.51 0.50 0.66 0.75 0.84 0.88 0.86 0.85 0.92 1.06 1.17 1.18 1.30 1.35 1.28 1.07 0.96 0.84 0.67 0.63 0.68 0.65 0.57 0.46 0.36 0.33 0.37 0.32 0.30
1.02 1.01 0.96 0.94 0.98 0.91 0.81 0.68 0.60 0.51 0.51 0.52 0.54 0.55 0.57 0.56 0.57 0.62 0.72 0.79 0.81 0.79 0.77 0.83 0.96 1.14 1.32 1.48 1.46 1.33 1.22 1.07 0.87 0.76 0.74 0.71 0.64 0.56 0.46 0.40 0.42 0.38 0.35
1.29 1.27 1.21 1.20 1.22 1.24 1.16 0.95 0.83 0.69 0.64 0.63 0.67 0.67 0.65 0.60 0.58 0.53 0.58 0.62 0.66 0.75 0.74 0.74 0.82 1.03 1.22 1.36 1.51 1.45 1.31 1.12 0.93 0.78 0.73 0.68 0.62 0.62 0.57 0.48 0.42 0.43 0.37
1.53 1.51 1.48 1.48 1.45 1.44 1.31 1.01 0.87 0.77 0.80 0.80 0.84 0.80 0.66 0.55 0.48 0.43 0.47 0.53 0.54 0.56 0.67 0.72 0.75 0.85 1.01 1.14 1.29 1.29 1.15 1.09 0.92 0.77 0.65 0.63 0.56 0.61 0.65 0.56 0.47 0.41 0.38

GEFSMA_prec_meanprecacc_138.txt.gz
Total_Precipitation_Accumulation
1.64 1.66 1.54 1.49 1.34 1.47 1.75 1.96 1.91 2.07 2.23 2.12 1.84 1.69 1.56 1.42 1.37 1.37 1.55 1.75 1.65 1.72 2.00 2.08 2.02 1.89 1.82 1.64 1.46 1.36 1.30 1.21 1.01 0.75 0.60 0.57 0.51 0.39 0.32 0.31 0.31 0.30 0.25
1.86 1.88 1.73 1.63 1.36 1.40 1.64 1.89 1.91 2.09 2.10 2.14 1.78 1.64 1.52 1.53 1.44 1.41 1.52 1.70 1.69 1.56 1.68 1.99 2.19 2.24 2.15 2.00 1.77 1.52 1.40 1.31 1.11 0.85 0.66 0.62 0.57 0.50 0.47 0.46 0.40 0.31 0.22
2.12 2.10 1.92 1.64 1.48 1.64 1.74 1.75 1.81 2.19 2.04 1.91 1.73 1.79 1.75 1.68 1.51 1.46 1.49 1.62 1.47 1.42 1.43 1.59 1.89 2.15 2.39 2.40 2.16 1.92 1.65 1.41 1.17 0.90 0.72 0.60 0.54 0.50 0.51 0.50 0.50 0.40 0.26
2.07 2.20 1.89 1.56 1.69 1.87 1.82 1.77 1.82 2.05 2.04 2.13 2.02 1.88 1.77 1.65 1.32 1.27 1.29 1.31 1.40 1.20 1.32 1.56 1.68 1.80 2.23 2.55 2.61 2.53 2.12 1.67 1.29 0.99 0.81 0.66 0.60 0.54 0.47 0.42 0.41 0.42 0.31
1.51 1.54 1.25 1.15 1.38 1.46 1.34 1.29 1.55 1.72 1.75 1.87 1.84 1.63 1.44 1.30 1.13 1.07 1.10 0.96 1.05 1.09 1.13 1.36 1.57 1.63 2.03 2.59 3.08 3.22 2.87 2.28 1.74 1.32 1.12 0.97 0.82 0.65 0.52 0.46 0.42 0.41 0.33
1.08 1.09 0.88 0.84 1.09 1.18 1.15 1.25 1.32 1.35 1.29 1.37 1.24 1.03 0.99 0.87 0.89 0.88 0.78 0.78 0.78 0.79 0.91 1.11 1.37 1.26 1.72 2.34 2.85 3.11 3.12 2.77 2.21 1.81 1.62 1.42 1.23 0.94 0.62 0.49 0.45 0.42 0.34
0.97 1.04 0.86 0.95 1.07 1.08 1.09 1.14 1.16 1.07 0.91 1.06 1.15 0.92 0.73 0.65 0.66 0.61 0.59 0.60 0.55 0.63 0.85 1.05 1.22 1.29 1.24 1.39 1.83 2.25 2.77 3.03 2.68 2.23 2.01 1.81 1.64 1.30 0.91 0.71 0.56 0.45 0.38
0.83 0.88 0.84 0.71 0.76 0.80 0.73 0.76 0.94 0.96 0.82 0.93 1.05 0.97 0.75 0.70 0.61 0.43 0.47 0.51 0.49 0.60 0.76 0.87 1.11 1.29 1.27 1.44 1.18 1.40 2.07 2.62 2.92 2.81 2.46 2.05 1.73 1.43 1.16 0.98 0.76 0.58 0.50
0.59 0.62 0.62 0.61 0.67 0.71 0.71 0.71 0.75 0.80 0.73 0.70 0.83 0.98 0.82 0.62 0.54 0.47 0.44 0.42 0.50 0.64 0.74 0.89 0.96 1.05 1.18 1.40 1.39 1.28 1.56 1.76 2.45 2.98 2.84 2.28 1.68 1.31 1.19 1.21 1.09 0.82 0.68
0.48 0.46 0.46 0.46 0.52 0.60 0.69 0.61 0.61 0.65 0.65 0.56 0.61 0.69 0.70 0.67 0.62 0.51 0.46 0.46 0.51 0.63 0.78 0.87 0.97 1.01 1.06 1.19 1.38 1.31 1.18 1.23 1.65 2.27 2.60 2.47 1.99 1.49 1.25 1.35 1.61 1.49 1.09
0.46 0.42 0.42 0.42 0.42 0.43 0.47 0.51 0.58 0.59 0.60 0.55 0.54 0.59 0.66 0.69 0.69 0.61 0.54 0.51 0.47 0.43 0.58 0.77 0.91 0.97 0.95 1.08 1.34 1.35 1.27 1.17 1.10 1.24 1.67 2.01 2.04 1.77 1.50 1.57 2.02 2.31 2.11
0.49 0.47 0.45 0.48 0.45 0.41 0.44 0.47 0.49 0.50 0.55 0.59 0.58 0.60 0.68 0.73 0.69 0.68 0.61 0.55 0.51 0.44 0.48 0.65 0.91 1.05 1.02 1.05 0.96 0.96 1.00 0.91 0.85 0.86 1.00 1.21 1.49 1.64 1.67 1.80 2.15 2.55 2.79
0.41 0.46 0.49 0.51 0.50 0.49 0.47 0.46 0.46 0.48 0.54 0.62 0.62 0.58 0.60 0.65 0.71 0.72 0.67 0.59 0.61 0.60 0.70 0.73 0.81 0.94 0.92 0.97 0.92 0.77 0.62 0.57 0.55 0.58 0.73 0.91 1.13 1.38 1.54 1.62 1.89 2.21 2.47
0.43 0.46 0.45 0.45 0.46 0.47 0.47 0.49 0.43 0.43 0.53 0.62 0.65 0.73 0.70 0.61 0.75 0.82 0.79 0.78 0.76 0.81 0.96 0.88 0.80 0.80 0.83 0.87 0.77 0.65 0.49 0.44 0.40 0.39 0.44 0.47 0.56 0.69 0.85 0.99 1.17 1.40 1.61
0.50 0.51 0.45 0.45 0.44 0.45 0.48 0.50 0.50 0.53 0.59 0.62 0.70 0.84 0.88 0.82 0.80 0.84 0.90 0.96 1.02 0.99 0.97 0.91 0.81 0.74 0.73 0.71 0.63 0.54 0.43 0.38 0.38 0.35 0.35 0.34 0.37 0.42 0.47 0.51 0.58 0.67 0.75
0.50 0.53 0.53 0.50 0.48 0.48 0.54 0.61 0.60 0.60 0.67 0.76 0.88 0.97 1.01 1.01 0.99 0.90 0.94 0.99 1.02 1.08 1.03 0.86 0.80 0.80 0.72 0.56 0.53 0.47 0.41 0.42 0.39 0.36 0.33 0.31 0.30 0.35 0.39 0.41 0.38 0.41 0.46
0.50 0.51 0.52 0.54 0.52 0.58 0.75 0.92 0.89 0.81 0.86 0.93 1.02 1.13 1.19 1.21 1.20 1.07 1.01 0.98 0.98 1.07 1.01 0.85 0.79 0.81 0.70 0.54 0.47 0.45 0.42 0.41 0.36 0.37 0.33 0.30 0.29 0.30 0.34 0.36 0.35 0.34 0.35
0.50 0.44 0.44 0.46 0.46 0.55 0.70 0.99 1.13 1.14 1.11 1.02 1.08 1.27 1.35 1.30 1.19 1.10 1.08 1.02 1.00 1.10 1.04 0.95 0.92 0.87 0.79 0.68 0.59 0.54 0.45 0.41 0.39 0.42 0.37 0.33 0.31 0.29 0.29 0.28 0.29 0.28 0.30
0.55 0.51 0.50 0.51 0.56 0.57 0.60 0.78 0.99 1.09 1.10 1.06 1.11 1.16 1.19 1.24 1.20 1.12 1.05 1.01 0.99 1.09 1.10 1.01 1.06 1.05 0.94 0.82 0.71 0.60 0.52 0.50 0.41 0.40 0.41 0.37 0.35 0.30 0.27 0.27 0.27 0.26 0.26
0.61 0.61 0.61 0.62 0.62 0.59 0.58 0.70 0.84 0.92 0.96 1.00 1.05 1.08 1.09 1.09 1.15 1.20 1.12 1.07 1.08 1.10 1.11 1.10 1.12 1.25 1.15 0.98 0.82 0.69 0.59 0.55 0.48 0.36 0.37 0.41 0.38 0.33 0.29 0.27 0.26 0.25 0.26
0.64 0.69 0.75 0.73 0.69 0.62 0.58 0.70 0.78 0.73 0.80 0.86 0.86 0.83 0.91 1.08 1.16 1.20 1.11 1.08 1.15 1.14 1.13 1.17 1.18 1.30 1.32 1.17 0.93 0.72 0.63 0.61 0.57 0.50 0.44 0.36 0.34 0.31 0.28 0.29 0.29 0.27 0.24
0.73 0.80 0.84 0.84 0.77 0.60 0.62 0.68 0.69 0.67 0.71 0.77 0.79 0.75 0.74 0.84 0.97 1.04 1.01 0.99 1.04 1.09 1.13 1.16 1.21 1.29 1.35 1.26 1.09 0.92 0.78 0.66 0.62 0.60 0.62 0.54 0.41 0.37 0.30 0.26 0.28 0.29 0.28
0.89 0.91 0.89 0.88 0.85 0.81 0.74 0.64 0.59 0.58 0.63 0.69 0.69 0.66 0.56 0.54 0.70 0.80 0.89 0.91 0.89 0.88 0.95 1.10 1.20 1.22 1.35 1.40 1.33 1.11 1.01 0.89 0.72 0.68 0.72 0.69 0.59 0.49 0.38 0.34 0.38 0.32 0.31
1.11 1.09 1.03 1.03 1.09 1.02 0.91 0.77 0.68 0.59 0.58 0.58 0.60 0.61 0.62 0.61 0.62 0.69 0.79 0.85 0.87 0.83 0.81 0.86 0.99 1.18 1.35 1.51 1.49 1.36 1.26 1.11 0.90 0.79 0.77 0.74 0.66 0.58 0.48 0.42 0.44 0.39 0.35
1.39 1.39 1.32 1.32 1.34 1.38 1.30 1.07 0.93 0.78 0.73 0.71 0.75 0.76 0.73 0.68 0.66 0.61 0.65 0.70 0.74 0.81 0.78 0.78 0.84 1.05 1.24 1.38 1.53 1.46 1.33 1.15 0.95 0.81 0.76 0.71 0.64 0.64 0.60 0.50 0.44 0.43 0.38
1.66 1.64 1.64 1.65 1.62 1.61 1.50 1.17 1.01 0.88 0.89 0.89 0.93 0.88 0.74 0.62 0.55 0.49 0.52 0.59 0.60 0.61 0.71 0.75 0.78 0.87 1.03 1.15 1.31 1.31 1.19 1.14 0.97 0.81 0.69 0.66 0.59 0.64 0.67 0.58 0.49 0.44 0.40

GEFSMA_prec_meanprecacc_144.txt.gz
Total_Precipitation_Accumulation
1.72 1.73 1.61 1.57 1.39 1.50 1.79 2.03 1.95 2.11 2.25 2.13 1.84 1.71 1.58 1.45 1.42 1.44 1.57 1.76 1.65 1.73 2.02 2.09 2.04 1.91 1.84 1.65 1.48 1.38 1.31 1.21 1.02 0.77 0.61 0.58 0.52 0.40 0.33 0.32 0.32 0.31 0.25
1.92 1.95 1.79 1.69 1.40 1.43 1.66 1.92 1.94 2.12 2.13 2.16 1.80 1.65 1.55 1.57 1.51 1.46 1.55 1.72 1.69 1.56 1.70 2.01 2.21 2.26 2.17 2.02 1.78 1.53 1.41 1.33 1.13 0.86 0.67 0.62 0.58 0.51 0.48 0.48 0.42 0.32 0.23
2.18 2.15 1.99 1.70 1.53 1.68 1.76 1.77 1.83 2.21 2.06 1.94 1.75 1.80 1.76 1.71 1.58 1.54 1.55 1.67 1.50 1.43 1.44 1.59 1.90 2.16 2.40 2.41 2.18 1.94 1.66 1.43 1.18 0.91 0.73 0.61 0.54 0.51 0.52 0.52 0.52 0.41 0.27
2.11 2.26 1.95 1.61 1.72 1.89 1.84 1.79 1.84 2.07 2.07 2.16 2.06 1.91 1.81 1.70 1.36 1.29 1.33 1.36 1.46 1.24 1.34 1.57 1.69 1.81 2.24 2.56 2.62 2.56 2.14 1.69 1.30 1.00 0.81 0.67 0.61 0.55 0.48 0.43 0.42 0.44 0.32
1.54 1.58 1.30 1.20 1.41 1.49 1.36 1.31 1.57 1.74 1.77 1.90 1.86 1.66 1.46 1.32 1.16 1.10 1.13 1.00 1.08 1.12 1.16 1.38 1.57 1.63 2.04 2.61 3.10 3.24 2.89 2.30 1.76 1.33 1.13 0.98 0.84 0.66 0.53 0.47 0.43 0.42 0.34
1.12 1.13 0.92 0.89 1.13 1.22 1.19 1.29 1.36 1.37 1.31 1.39 1.26 1.06 1.02 0.89 0.90 0.89 0.79 0.79 0.79 0.80 0.93 1.13 1.38 1.27 1.73 2.35 2.86 3.13 3.14 2.78 2.21 1.81 1.63 1.43 1.25 0.95 0.63 0.50 0.46 0.42 0.35
1.02 1.10 0.93 1.01 1.11 1.13 1.13 1.16 1.18 1.10 0.93 1.09 1.18 0.98 0.78 0.70 0.69 0.62 0.60 0.61 0.56 0.64 0.86 1.06 1.25 1.33 1.27 1.40 1.83 2.27 2.78 3.04 2.69 2.23 2.02 1.83 1.65 1.31 0.92 0.72 0.57 0.46 0.39
0.87 0.92 0.91 0.76 0.80 0.85 0.78 0.81 0.99 1.03 0.87 0.96 1.10 1.05 0.85 0.82 0.70 0.44 0.48 0.51 0.50 0.61 0.77 0.88 1.13 1.31 1.30 1.48 1.20 1.41 2.09 2.64 2.94 2.82 2.47 2.06 1.75 1.45 1.17 0.99 0.77 0.59 0.51
0.62 0.67 0.66 0.66 0.73 0.75 0.77 0.76 0.79 0.85 0.80 0.75 0.87 1.05 0.92 0.75 0.64 0.51 0.45 0.43 0.51 0.66 0.75 0.90 0.98 1.06 1.19 1.43 1.43 1.29 1.57 1.78 2.48 3.00 2.86 2.30 1.69 1.32 1.20 1.21 1.10 0.83 0.69
0.52 0.50 0.52 0.51 0.57 0.64 0.75 0.65 0.67 0.70 0.71 0.62 0.65 0.72 0.74 0.74 0.71 0.61 0.52 0.48 0.52 0.65 0.79 0.88 1.00 1.04 1.07 1.21 1.40 1.32 1.19 1.23 1.66 2.28 2.61 2.49 2.00 1.50 1.26 1.36 1.62 1.51 1.10
0.53 0.49 0.48 0.49 0.48 0.47 0.52 0.57 0.67 0.64 0.64 0.59 0.57 0.62 0.69 0.74 0.72 0.67 0.63 0.56 0.50 0.44 0.59 0.77 0.92 0.99 0.95 1.09 1.35 1.36 1.27 1.17 1.10 1.25 1.68 2.02 2.06 1.79 1.51 1.59 2.04 2.33 2.13
0.57 0.54 0.51 0.54 0.50 0.47 0.49 0.52 0.55 0.56 0.61 0.66 0.63 0.63 0.72 0.76 0.72 0.71 0.65 0.59 0.54 0.45 0.48 0.66 0.91 1.05 1.02 1.05 0.97 0.97 1.00 0.91 0.85 0.86 1.00 1.22 1.50 1.64 1.68 1.82 2.17 2.57 2.81
0.48 0.54 0.56 0.57 0.55 0.54 0.52 0.51 0.51 0.53 0.59 0.67 0.65 0.61 0.63 0.68 0.73 0.74 0.69 0.61 0.63 0.62 0.71 0.73 0.81 0.94 0.92 0.97 0.92 0.78 0.63 0.57 0.55 0.58 0.73 0.91 1.13 1.38 1.54 1.63 1.90 2.23 2.50
0.50 0.55 0.54 0.51 0.51 0.51 0.50 0.53 0.47 0.47 0.57 0.66 0.69 0.78 0.74 0.63 0.76 0.83 0.81 0.80 0.78 0.83 0.97 0.89 0.80 0.80 0.83 0.87 0.80 0.68 0.50 0.44 0.41 0.39 0.44 0.47 0.56 0.70 0.85 0.99 1.17 1.40 1.62
0.58 0.61 0.53 0.51 0.49 0.49 0.51 0.55 0.54 0.57 0.63 0.66 0.75 0.90 0.92 0.84 0.81 0.85 0.92 0.98 1.05 1.02 1.00 0.93 0.81 0.74 0.73 0.72 0.66 0.56 0.44 0.40 0.38 0.36 0.35 0.34 0.37 0.42 0.47 0.51 0.58 0.67 0.75
0.60 0.65 0.63 0.59 0.55 0.53 0.59 0.67 0.64 0.64 0.71 0.80 0.93 1.02 1.06 1.05 1.02 0.93 0.97 1.02 1.05 1.10 1.06 0.87 0.81 0.82 0.73 0.57 0.55 0.48 0.42 0.45 0.40 0.36 0.33 0.31 0.31 0.35 0.39 0.41 0.38 0.41 0.46
0.63 0.62 0.61 0.63 0.60 0.65 0.82 0.99 0.95 0.87 0.90 0.97 1.06 1.18 1.23 1.26 1.24 1.11 1.06 1.03 1.03 1.11 1.04 0.86 0.81 0.83 0.71 0.56 0.49 0.47 0.44 0.43 0.37 0.39 0.35 0.30 0.29 0.30 0.34 0.36 0.35 0.34 0.35
0.60 0.53 0.54 0.58 0.56 0.63 0.79 1.06 1.20 1.20 1.17 1.08 1.14 1.31 1.39 1.34 1.23 1.14 1.13 1.07 1.05 1.14 1.08 0.98 0.98 0.92 0.83 0.72 0.63 0.56 0.47 0.43 0.42 0.47 0.42 0.34 0.31 0.30 0.29 0.28 0.29 0.29 0.30
0.63 0.59 0.60 0.62 0.67 0.69 0.70 0.85 1.05 1.13 1.16 1.11 1.17 1.22 1.24 1.30 1.25 1.18 1.12 1.06 1.04 1.14 1.16 1.07 1.13 1.12 1.01 0.87 0.75 0.64 0.56 0.54 0.43 0.42 0.43 0.39 0.36 0.30 0.28 0.27 0.27 0.27 0.26
0.70 0.70 0.71 0.72 0.73 0.70 0.68 0.79 0.91 0.98 1.01 1.04 1.09 1.14 1.15 1.16 1.21 1.27 1.19 1.14 1.16 1.19 1.21 1.17 1.20 1.33 1.22 1.03 0.88 0.73 0.63 0.59 0.52 0.39 0.40 0.44 0.41 0.35 0.30 0.27 0.26 0.25 0.27
0.74 0.79 0.85 0.84 0.79 0.72 0.66 0.80 0.87 0.83 0.90 0.96 0.96 0.92 1.00 1.17 1.25 1.28 1.18 1.17 1.24 1.22 1.23 1.28 1.28 1.40 1.41 1.24 0.99 0.77 0.68 0.66 0.61 0.53 0.46 0.39 0.36 0.33 0.31 0.31 0.30 0.28 0.25
0.85 0.92 0.95 0.93 0.85 0.66 0.71 0.79 0.80 0.80 0.85 0.90 0.90 0.86 0.84 0.92 1.04 1.10 1.08 1.06 1.11 1.17 1.23 1.26 1.31 1.39 1.45 1.36 1.17 0.99 0.84 0.73 0.68 0.66 0.67 0.58 0.46 0.43 0.36 0.31 0.33 0.33 0.31
1.01 1.01 0.99 0.97 0.93 0.89 0.83 0.72 0.67 0.68 0.74 0.80 0.80 0.77 0.64 0.61 0.78 0.87 0.98 1.00 0.96 0.95 1.01 1.17 1.29 1.33 1.45 1.49 1.40 1.18 1.08 0.96 0.78 0.74 0.78 0.73 0.64 0.54 0.42 0.39 0.44 0.37 0.34
1.21 1.19 1.13 1.12 1.18 1.11 0.99 0.83 0.76 0.68 0.69 0.71 0.72 0.71 0.71 0.69 0.71 0.79 0.90 0.96 0.96 0.91 0.88 0.93 1.06 1.25 1.41 1.56 1.54 1.41 1.31 1.17 0.96 0.84 0.82 0.78 0.71 0.63 0.51 0.46 0.47 0.42 0.38
1.48 1.49 1.43 1.43 1.43 1.45 1.36 1.14 1.03 0.89 0.85 0.82 0.85 0.86 0.83 0.77 0.75 0.69 0.74 0.80 0.83 0.89 0.85 0.83 0.90 1.09 1.27 1.41 1.55 1.49 1.37 1.19 0.99 0.85 0.81 0.75 0.68 0.68 0.62 0.53 0.46 0.45 0.39
1.78 1.77 1.78 1.77 1.72 1.71 1.59 1.26 1.10 0.98 0.99 0.98 1.03 0.98 0.86 0.72 0.64 0.57 0.60 0.67 0.67 0.67 0.77 0.81 0.82 0.91 1.06 1.18 1.33 1.34 1.22 1.17 1.00 0.84 0.72 0.69 0.63 0.66 0.70 0.60 0.52 0.47 0.43

GEFSMA_prec_meanprecacc_150.txt.gz
Total_Precipitation_Accumulation
1.78 1.77 1.63 1.59 1.42 1.52 1.82 2.07 2.00 2.15 2.31 2.20 1.94 1.80 1.70 1.55 1.53 1.48 1.58 1.78 1.67 1.74 2.03 2.10 2.04 1.92 1.85 1.67 1.49 1.39 1.33 1.23 1.03 0.78 0.62 0.59 0.53 0.41 0.34 0.34 0.33 0.31 0.26
1.99 1.97 1.81 1.71 1.44 1.46 1.69 1.97 1.98 2.16 2.18 2.21 1.86 1.72 1.62 1.64 1.61 1.49 1.56 1.73 1.71 1.58 1.72 2.02 2.21 2.27 2.18 2.04 1.80 1.55 1.43 1.34 1.14 0.87 0.68 0.63 0.59 0.52 0.49 0.49 0.43 0.33 0.23
2.21 2.16 2.00 1.73 1.60 1.72 1.80 1.81 1.87 2.25 2.10 1.98 1.79 1.85 1.82 1.75 1.63 1.56 1.56 1.68 1.51 1.45 1.46 1.62 1.92 2.18 2.42 2.43 2.20 1.97 1.69 1.45 1.19 0.92 0.74 0.61 0.55 0.51 0.53 0.52 0.52 0.42 0.28
2.16 2.28 1.96 1.64 1.76 1.92 1.87 1.83 1.89 2.12 2.12 2.21 2.11 1.96 1.84 1.73 1.39 1.32 1.35 1.38 1.47 1.25 1.35 1.59 1.72 1.84 2.25 2.58 2.66 2.61 2.18 1.71 1.31 1.01 0.82 0.68 0.61 0.56 0.49 0.43 0.42 0.44 0.33
1.58 1.60 1.32 1.22 1.43 1.51 1.39 1.34 1.61 1.77 1.81 1.95 1.92 1.71 1.50 1.36 1.21 1.14 1.17 1.02 1.09 1.13 1.17 1.40 1.60 1.66 2.08 2.65 3.14 3.29 2.93 2.31 1.77 1.34 1.14 0.99 0.84 0.67 0.54 0.47 0.43 0.43 0.35
1.16 1.17 0.95 0.90 1.14 1.26 1.21 1.30 1.38 1.39 1.33 1.42 1.31 1.12 1.07 0.93 0.95 0.93 0.82 0.82 0.81 0.81 0.95 1.14 1.39 1.28 1.75 2.39 2.90 3.17 3.19 2.82 2.24 1.84 1.66 1.45 1.26 0.96 0.65 0.51 0.46 0.43 0.35
1.06 1.14 0.96 1.03 1.13 1.15 1.14 1.18 1.19 1.12 0.96 1.11 1.22 1.04 0.85 0.76 0.76 0.67 0.63 0.66 0.61 0.67 0.89 1.08 1.26 1.33 1.28 1.42 1.86 2.31 2.84 3.10 2.73 2.27 2.05 1.86 1.67 1.33 0.93 0.73 0.57 0.47 0.39
0.90 0.96 0.95 0.79 0.82 0.88 0.81 0.84 1.00 1.04 0.88 0.97 1.11 1.08 0.89 0.88 0.77 0.50 0.52 0.55 0.54 0.65 0.82 0.92 1.15 1.32 1.31 1.48 1.21 1.44 2.14 2.70 2.99 2.86 2.51 2.09 1.78 1.47 1.18 1.00 0.78 0.60 0.51
0.65 0.70 0.68 0.68 0.75 0.77 0.80 0.78 0.81 0.87 0.81 0.77 0.89 1.06 0.93 0.77 0.66 0.56 0.50 0.47 0.55 0.70 0.79 0.96 1.04 1.10 1.22 1.45 1.44 1.31 1.61 1.82 2.53 3.05 2.91 2.33 1.73 1.35 1.22 1.22 1.11 0.84 0.69
0.55 0.53 0.54 0.53 0.60 0.66 0.77 0.67 0.68 0.71 0.72 0.64 0.66 0.74 0.75 0.74 0.72 0.62 0.54 0.51 0.55 0.68 0.82 0.91 1.04 1.11 1.11 1.22 1.42 1.33 1.20 1.26 1.69 2.32 2.66 2.54 2.05 1.53 1.28 1.37 1.63 1.53 1.12
0.57 0.52 0.51 0.53 0.51 0.50 0.54 0.58 0.68 0.65 0.65 0.60 0.59 0.63 0.71 0.74 0.72 0.68 0.64 0.58 0.52 0.47 0.60 0.79 0.95 1.05 1.00 1.11 1.36 1.36 1.28 1.18 1.11 1.27 1.71 2.06 2.09 1.82 1.54 1.61 2.06 2.36 2.16
0.63 0.59 0.55 0.58 0.54 0.50 0.52 0.54 0.56 0.56 0.61 0.67 0.64 0.65 0.75 0.78 0.73 0.72 0.67 0.61 0.55 0.47 0.50 0.68 0.93 1.07 1.03 1.06 0.98 0.97 1.01 0.92 0.86 0.87 1.01 1.23 1.52 1.67 1.71 1.84 2.19 2.60 2.85
0.56 0.61 0.63 0.62 0.60 0.59 0.56 0.54 0.52 0.53 0.60 0.68 0.66 0.63 0.66 0.70 0.75 0.76 0.70 0.63 0.65 0.63 0.74 0.77 0.83 0.96 0.94 0.99 0.94 0.79 0.64 0.59 0.56 0.59 0.74 0.91 1.14 1.39 1.55 1.64 1.91 2.25 2.53
0.56 0.62 0.62 0.57 0.55 0.55 0.54 0.57 0.50 0.48 0.58 0.67 0.70 0.79 0.75 0.65 0.77 0.85 0.82 0.83 0.81 0.85 1.00 0.92 0.84 0.84 0.87 0.90 0.82 0.70 0.52 0.47 0.42 0.40 0.45 0.48 0.56 0.70 0.85 1.00 1.18 1.41 1.62
0.64 0.67 0.59 0.58 0.55 0.54 0.55 0.58 0.58 0.60 0.65 0.68 0.77 0.91 0.93 0.85 0.81 0.86 0.93 1.00 1.08 1.05 1.01 0.94 0.84 0.77 0.77 0.76 0.70 0.60 0.48 0.43 0.41 0.37 0.35 0.35 0.37 0.43 0.47 0.52 0.58 0.67 0.75
0.69 0.74 0.70 0.65 0.61 0.59 0.64 0.72 0.70 0.69 0.76 0.83 0.96 1.05 1.07 1.06 1.02 0.94 0.98 1.04 1.08 1.14 1.09 0.89 0.84 0.84 0.77 0.63 0.64 0.57 0.47 0.48 0.43 0.38 0.35 0.32 0.31 0.36 0.40 0.41 0.39 0.41 0.46
0.69 0.71 0.70 0.70 0.67 0.71 0.87 1.07 1.04 0.95 0.97 1.03 1.11 1.22 1.26 1.28 1.26 1.12 1.08 1.05 1.05 1.14 1.07 0.88 0.83 0.85 0.73 0.59 0.55 0.52 0.49 0.47 0.41 0.42 0.37 0.32 0.31 0.31 0.35 0.36 0.35 0.35 0.35
0.68 0.61 0.61 0.65 0.65 0.71 0.87 1.14 1.27 1.26 1.22 1.12 1.18 1.35 1.43 1.37 1.26 1.16 1.15 1.08 1.07 1.16 1.10 0.99 0.99 0.93 0.85 0.74 0.66 0.60 0.51 0.47 0.46 0.52 0.46 0.37 0.33 0.31 0.29 0.29 0.29 0.29 0.30
0.72 0.69 0.68 0.70 0.75 0.77 0.78 0.94 1.14 1.21 1.21 1.15 1.22 1.27 1.29 1.35 1.29 1.22 1.14 1.07 1.06 1.15 1.18 1.09 1.15 1.15 1.03 0.90 0.79 0.67 0.58 0.57 0.47 0.46 0.46 0.41 0.38 0.33 0.30 0.28 0.28 0.27 0.26
0.79 0.78 0.77 0.80 0.82 0.79 0.79 0.90 1.01 1.08 1.12 1.14 1.18 1.22 1.23 1.23 1.28 1.32 1.22 1.16 1.18 1.22 1.24 1.22 1.24 1.37 1.27 1.08 0.92 0.77 0.66 0.61 0.55 0.42 0.43 0.47 0.44 0.38 0.33 0.29 0.27 0.26 0.28
0.84 0.89 0.95 0.93 0.89 0.82 0.75 0.88 0.98 0.97 1.05 1.09 1.08 1.04 1.10 1.26 1.34 1.37 1.25 1.22 1.28 1.27 1.27 1.32 1.33 1.44 1.46 1.29 1.04 0.80 0.72 0.69 0.64 0.55 0.49 0.41 0.39 0.36 0.33 0.33 0.33 0.31 0.28
0.94 1.02 1.06 1.05 0.96 0.77 0.81 0.91 0.93 0.92 0.96 1.00 1.00 0.95 0.92 0.99 1.11 1.19 1.16 1.12 1.17 1.22 1.28 1.32 1.37 1.46 1.52 1.43 1.24 1.05 0.90 0.78 0.73 0.70 0.72 0.63 0.50 0.46 0.39 0.34 0.37 0.37 0.34
1.10 1.09 1.07 1.08 1.05 1.02 0.96 0.87 0.82 0.79 0.84 0.89 0.90 0.86 0.73 0.69 0.87 0.95 1.05 1.08 1.04 1.03 1.08 1.22 1.35 1.39 1.51 1.57 1.48 1.26 1.15 1.03 0.85 0.81 0.85 0.79 0.69 0.58 0.44 0.41 0.47 0.40 0.37
1.29 1.28 1.22 1.23 1.29 1.24 1.14 0.96 0.88 0.77 0.77 0.80 0.81 0.80 0.79 0.78 0.80 0.87 0.97 1.04 1.03 0.98 0.95 0.99 1.13 1.31 1.47 1.62 1.60 1.47 1.38 1.23 1.02 0.90 0.88 0.83 0.75 0.67 0.55 0.49 0.51 0.45 0.40
1.58 1.59 1.54 1.55 1.55 1.56 1.47 1.23 1.10 0.95 0.92 0.89 0.93 0.96 0.95 0.89 0.87 0.80 0.82 0.86 0.89 0.95 0.91 0.90 0.95 1.14 1.31 1.45 1.59 1.53 1.41 1.24 1.04 0.90 0.85 0.78 0.71 0.71 0.65 0.55 0.48 0.46 0.40
1.90 1.89 1.91 1.91 1.85 1.81 1.69 1.37 1.21 1.07 1.09 1.07 1.12 1.09 0.99 0.86 0.76 0.68 0.71 0.76 0.76 0.77 0.85 0.88 0.88 0.95 1.10 1.22 1.37 1.37 1.24 1.20 1.03 0.87 0.74 0.71 0.64 0.68 0.71 0.61 0.53 0.47 0.43

GEFSMA_prec_meanprecacc_156.txt.gz
Total_Precipitation_Accumulation
1.79 1.78 1.64 1.59 1.42 1.54 1.83 2.08 2.01 2.16 2.32 2.22 1.95 1.82 1.72 1.56 1.54 1.48 1.59 1.80 1.70 1.78 2.06 2.14 2.09 1.96 1.88 1.69 1.51 1.41 1.35 1.24 1.04 0.79 0.63 0.60 0.54 0.42 0.36 0.36 0.34 0.32 0.27
2.00 1.99 1.82 1.72 1.46 1.47 1.70 1.98 2.00 2.17 2.20 2.22 1.87 1.73 1.63 1.65 1.62 1.50 1.56 1.75 1.75 1.62 1.77 2.07 2.27 2.33 2.21 2.06 1.82 1.58 1.46 1.36 1.15 0.88 0.69 0.64 0.60 0.53 0.51 0.51 0.44 0.34 0.24
2.23 2.18 2.01 1.74 1.61 1.73 1.82 1.83 1.88 2.27 2.13 2.00 1.80 1.86 1.83 1.76 1.63 1.57 1.56 1.68 1.53 1.48 1.50 1.67 1.98 2.24 2.48 2.46 2.23 2.00 1.72 1.48 1.21 0.94 0.75 0.62 0.56 0.53 0.54 0.54 0.54 0.43 0.28
2.18 2.30 1.97 1.65 1.78 1.94 1.90 1.85 1.91 2.13 2.14 2.23 2.13 1.99 1.87 1.74 1.40 1.32 1.35 1.38 1.48 1.26 1.37 1.62 1.76 1.88 2.32 2.65 2.73 2.67 2.22 1.74 1.34 1.03 0.84 0.69 0.62 0.57 0.50 0.45 0.44 0.45 0.34
1.61 1.63 1.34 1.24 1.45 1.54 1.41 1.36 1.63 1.79 1.83 1.97 1.94 1.76 1.53 1.38 1.23 1.15 1.18 1.03 1.10 1.14 1.18 1.42 1.64 1.70 2.13 2.71 3.20 3.36 2.98 2.35 1.79 1.36 1.16 1.01 0.86 0.68 0.54 0.48 0.44 0.44 0.36
1.19 1.21 0.98 0.92 1.16 1.28 1.23 1.33 1.40 1.41 1.36 1.44 1.33 1.15 1.10 0.95 0.97 0.96 0.84 0.83 0.82 0.82 0.95 1.15 1.41 1.31 1.79 2.45 2.97 3.24 3.27 2.87 2.28 1.87 1.68 1.47 1.29 0.99 0.66 0.51 0.47 0.44 0.36
1.12 1.19 1.00 1.06 1.16 1.18 1.16 1.20 1.21 1.14 0.98 1.13 1.26 1.08 0.88 0.80 0.79 0.70 0.66 0.68 0.62 0.69 0.90 1.09 1.26 1.34 1.30 1.46 1.92 2.38 2.93 3.19 2.81 2.34 2.11 1.91 1.72 1.37 0.95 0.74 0.59 0.48 0.41
0.98 1.02 1.00 0.83 0.86 0.91 0.84 0.86 1.02 1.06 0.91 1.00 1.13 1.11 0.91 0.90 0.79 0.51 0.53 0.57 0.55 0.67 0.83 0.94 1.16 1.33 1.32 1.50 1.22 1.48 2.20 2.78 3.07 2.93 2.57 2.13 1.83 1.51 1.21 1.02 0.79 0.61 0.52
0.74 0.77 0.75 0.73 0.79 0.80 0.82 0.80 0.83 0.88 0.83 0.79 0.90 1.07 0.94 0.77 0.66 0.56 0.51 0.48 0.56 0.72 0.82 0.99 1.05 1.12 1.23 1.46 1.45 1.33 1.65 1.87 2.59 3.13 2.98 2.39 1.77 1.38 1.24 1.25 1.13 0.86 0.71
0.62 0.60 0.62 0.59 0.63 0.68 0.80 0.69 0.71 0.73 0.74 0.65 0.67 0.75 0.76 0.75 0.72 0.62 0.54 0.52 0.56 0.69 0.85 0.92 1.06 1.13 1.13 1.23 1.42 1.34 1.22 1.29 1.74 2.40 2.74 2.61 2.11 1.57 1.31 1.40 1.65 1.55 1.14
0.64 0.60 0.59 0.59 0.55 0.53 0.58 0.62 0.70 0.67 0.66 0.61 0.60 0.64 0.72 0.75 0.73 0.68 0.64 0.59 0.52 0.47 0.61 0.80 0.96 1.06 1.01 1.11 1.37 1.38 1.29 1.20 1.13 1.31 1.78 2.13 2.15 1.87 1.57 1.64 2.10 2.40 2.20
0.71 0.69 0.65 0.66 0.59 0.54 0.56 0.57 0.60 0.59 0.63 0.68 0.65 0.66 0.77 0.80 0.74 0.73 0.67 0.61 0.55 0.47 0.51 0.68 0.93 1.07 1.05 1.08 0.99 0.98 1.02 0.94 0.88 0.88 1.03 1.27 1.55 1.71 1.75 1.89 2.25 2.66 2.90
0.65 0.72 0.74 0.70 0.66 0.64 0.60 0.59 0.58 0.57 0.62 0.70 0.67 0.64 0.67 0.72 0.76 0.76 0.71 0.63 0.65 0.63 0.74 0.77 0.84 0.97 0.95 1.00 0.94 0.80 0.65 0.61 0.58 0.60 0.75 0.93 1.15 1.41 1.57 1.67 1.94 2.28 2.56
0.63 0.71 0.74 0.67 0.63 0.61 0.60 0.63 0.56 0.52 0.60 0.68 0.71 0.81 0.77 0.67 0.79 0.86 0.83 0.83 0.81 0.86 1.01 0.93 0.85 0.85 0.88 0.91 0.83 0.71 0.54 0.49 0.44 0.42 0.46 0.49 0.57 0.71 0.86 1.01 1.19 1.42 1.64
0.73 0.76 0.70 0.68 0.64 0.61 0.62 0.64 0.62 0.64 0.68 0.70 0.79 0.94 0.97 0.88 0.83 0.88 0.95 1.02 1.09 1.06 1.03 0.95 0.85 0.78 0.78 0.78 0.72 0.62 0.50 0.47 0.45 0.40 0.37 0.36 0.38 0.44 0.48 0.52 0.58 0.67 0.75
0.77 0.81 0.79 0.75 0.71 0.67 0.69 0.76 0.73 0.72 0.79 0.86 0.99 1.09 1.11 1.10 1.06 0.97 1.01 1.05 1.09 1.15 1.10 0.90 0.84 0.85 0.78 0.64 0.65 0.58 0.48 0.50 0.45 0.40 0.37 0.34 0.33 0.38 0.41 0.42 0.40 0.42 0.47
0.76 0.76 0.76 0.78 0.75 0.78 0.92 1.11 1.09 1.00 1.01 1.06 1.15 1.26 1.30 1.33 1.30 1.16 1.11 1.08 1.08 1.17 1.09 0.89 0.84 0.85 0.73 0.59 0.56 0.54 0.51 0.49 0.43 0.44 0.39 0.34 0.32 0.33 0.37 0.38 0.37 0.36 0.37
0.71 0.63 0.64 0.70 0.70 0.77 0.93 1.20 1.33 1.32 1.27 1.17 1.24 1.41 1.48 1.42 1.30 1.20 1.18 1.12 1.09 1.18 1.12 1.00 1.00 0.94 0.85 0.75 0.67 0.61 0.53 0.49 0.48 0.54 0.48 0.38 0.34 0.32 0.31 0.31 0.31 0.30 0.31
0.75 0.72 0.71 0.75 0.82 0.83 0.84 1.00 1.19 1.26 1.26 1.21 1.28 1.33 1.36 1.42 1.34 1.27 1.19 1.12 1.10 1.20 1.21 1.12 1.18 1.18 1.06 0.92 0.81 0.69 0.61 0.60 0.49 0.48 0.48 0.43 0.40 0.36 0.33 0.31 0.30 0.29 0.27
0.83 0.83 0.83 0.86 0.89 0.87 0.86 0.96 1.08 1.16 1.20 1.21 1.26 1.29 1.32 1.32 1.35 1.40 1.30 1.24 1.26 1.30 1.31 1.28 1.29 1.43 1.32 1.12 0.95 0.80 0.68 0.63 0.56 0.44 0.46 0.50 0.47 0.41 0.36 0.32 0.30 0.29 0.30
0.87 0.93 1.01 1.00 0.97 0.91 0.85 0.99 1.09 1.08 1.15 1.18 1.16 1.12 1.18 1.35 1.43 1.46 1.34 1.31 1.37 1.36 1.35 1.39 1.38 1.48 1.49 1.33 1.07 0.84 0.76 0.74 0.68 0.59 0.53 0.46 0.43 0.40 0.36 0.36 0.35 0.33 0.30
0.97 1.06 1.13 1.14 1.08 0.92 1.00 1.11 1.11 1.08 1.11 1.12 1.10 1.04 1.01 1.09 1.20 1.28 1.24 1.19 1.23 1.28 1.34 1.37 1.43 1.51 1.57 1.48 1.29 1.10 0.96 0.84 0.79 0.76 0.77 0.69 0.57 0.54 0.45 0.38 0.40 0.40 0.37
1.14 1.14 1.13 1.15 1.14 1.14 1.13 1.03 0.97 0.91 0.95 1.00 0.99 0.94 0.81 0.77 0.96 1.04 1.15 1.17 1.12 1.11 1.16 1.30 1.42 1.45 1.58 1.63 1.54 1.32 1.21 1.09 0.91 0.87 0.91 0.88 0.79 0.68 0.54 0.49 0.54 0.45 0.41
1.34 1.32 1.27 1.28 1.35 1.31 1.24 1.08 0.99 0.87 0.87 0.89 0.88 0.86 0.85 0.84 0.86 0.94 1.06 1.13 1.12 1.07 1.05 1.08 1.20 1.38 1.53 1.68 1.65 1.53 1.44 1.29 1.07 0.95 0.94 0.90 0.83 0.76 0.64 0.58 0.59 0.52 0.46
1.65 1.65 1.60 1.62 1.63 1.66 1.58 1.32 1.19 1.03 0.99 0.95 0.98 1.01 1.01 0.94 0.94 0.89 0.92 0.99 1.02 1.07 1.03 1.02 1.06 1.23 1.40 1.52 1.65 1.58 1.46 1.29 1.10 0.96 0.91 0.85 0.78 0.78 0.72 0.61 0.53 0.51 0.43
2.00 1.98 1.99 1.99 1.92 1.90 1.80 1.47 1.30 1.15 1.17 1.15 1.19 1.15 1.06 0.94 0.87 0.81 0.84 0.90 0.89 0.88 0.96 0.99 0.98 1.05 1.19 1.30 1.45 1.43 1.30 1.26 1.09 0.94 0.81 0.77 0.70 0.73 0.75 0.64 0.56 0.50 0.45

GEFSMA_prec_meanprecacc_162.txt.gz
Total_Precipitation_Accumulation
1.81 1.80 1.67 1.62 1.45 1.56 1.84 2.09 2.02 2.19 2.36 2.24 1.96 1.83 1.73 1.57 1.55 1.49 1.60 1.82 1.72 1.80 2.09 2.18 2.13 1.98 1.91 1.71 1.53 1.44 1.37 1.26 1.06 0.80 0.64 0.60 0.54 0.43 0.37 0.37 0.35 0.33 0.28
2.04 2.02 1.85 1.75 1.48 1.49 1.71 1.99 2.01 2.21 2.24 2.26 1.90 1.75 1.65 1.67 1.63 1.51 1.58 1.78 1.78 1.64 1.80 2.10 2.31 2.36 2.24 2.08 1.84 1.61 1.48 1.39 1.17 0.89 0.70 0.65 0.61 0.53 0.52 0.53 0.46 0.35 0.25
2.27 2.22 2.04 1.78 1.65 1.76 1.85 1.86 1.93 2.32 2.18 2.06 1.86 1.90 1.86 1.80 1.65 1.59 1.58 1.71 1.56 1.51 1.52 1.68 2.00 2.27 2.52 2.49 2.25 2.03 1.75 1.50 1.23 0.95 0.75 0.63 0.57 0.54 0.55 0.55 0.55 0.44 0.29
2.21 2.34 2.03 1.70 1.83 1.99 1.95 1.92 1.98 2.22 2.23 2.32 2.22 2.07 1.92 1.79 1.42 1.34 1.37 1.40 1.50 1.29 1.41 1.64 1.78 1.91 2.34 2.68 2.77 2.73 2.27 1.76 1.35 1.04 0.85 0.69 0.62 0.58 0.51 0.46 0.45 0.46 0.34
1.64 1.67 1.41 1.32 1.50 1.60 1.48 1.41 1.69 1.86 1.93 2.07 2.01 1.83 1.58 1.42 1.27 1.18 1.20 1.04 1.11 1.17 1.21 1.44 1.66 1.71 2.14 2.73 3.23 3.41 3.04 2.39 1.82 1.37 1.17 1.02 0.87 0.69 0.55 0.49 0.45 0.44 0.36
1.23 1.25 1.03 0.99 1.23 1.35 1.31 1.40 1.49 1.49 1.43 1.51 1.37 1.19 1.14 0.98 1.00 0.99 0.88 0.85 0.83 0.83 0.96 1.16 1.43 1.32 1.81 2.47 3.01 3.28 3.33 2.93 2.32 1.90 1.71 1.50 1.31 1.01 0.67 0.52 0.48 0.45 0.37
1.19 1.27 1.05 1.12 1.23 1.25 1.24 1.28 1.30 1.22 1.04 1.19 1.32 1.14 0.93 0.83 0.84 0.75 0.71 0.72 0.64 0.71 0.92 1.10 1.29 1.37 1.32 1.48 1.94 2.40 2.97 3.25 2.87 2.39 2.15 1.94 1.76 1.40 0.97 0.75 0.59 0.48 0.42
1.07 1.09 1.08 0.89 0.91 0.99 0.91 0.93 1.11 1.15 0.98 1.06 1.20 1.19 0.98 0.97 0.84 0.53 0.56 0.60 0.58 0.70 0.86 0.95 1.19 1.37 1.36 1.54 1.26 1.50 2.23 2.83 3.14 3.00 2.62 2.17 1.86 1.53 1.22 1.04 0.80 0.62 0.53
0.83 0.86 0.84 0.82 0.87 0.87 0.88 0.88 0.92 0.98 0.92 0.86 0.96 1.14 1.01 0.83 0.71 0.59 0.52 0.50 0.60 0.77 0.87 1.01 1.07 1.15 1.27 1.51 1.50 1.35 1.67 1.89 2.63 3.19 3.05 2.45 1.80 1.41 1.26 1.26 1.15 0.87 0.72
0.70 0.71 0.72 0.69 0.72 0.75 0.87 0.75 0.76 0.82 0.84 0.73 0.74 0.81 0.81 0.80 0.77 0.66 0.56 0.52 0.57 0.72 0.87 0.94 1.07 1.15 1.15 1.26 1.46 1.36 1.23 1.30 1.76 2.44 2.79 2.67 2.15 1.61 1.33 1.42 1.68 1.58 1.17
0.71 0.68 0.69 0.69 0.64 0.60 0.64 0.69 0.78 0.75 0.74 0.69 0.67 0.72 0.79 0.81 0.77 0.73 0.71 0.63 0.55 0.48 0.63 0.82 0.97 1.07 1.03 1.13 1.40 1.40 1.31 1.20 1.14 1.33 1.79 2.16 2.19 1.91 1.61 1.67 2.13 2.45 2.25
0.78 0.77 0.74 0.76 0.68 0.61 0.64 0.65 0.68 0.67 0.72 0.77 0.73 0.73 0.84 0.86 0.78 0.76 0.72 0.67 0.59 0.48 0.52 0.69 0.94 1.08 1.06 1.10 1.00 0.99 1.03 0.95 0.89 0.89 1.04 1.28 1.58 1.75 1.79 1.94 2.30 2.71 2.96
0.70 0.80 0.82 0.80 0.76 0.73 0.70 0.68 0.66 0.65 0.70 0.79 0.76 0.71 0.72 0.76 0.80 0.80 0.76 0.69 0.70 0.66 0.76 0.78 0.84 0.97 0.96 1.02 0.97 0.81 0.66 0.62 0.59 0.62 0.76 0.94 1.17 1.42 1.60 1.70 1.98 2.32 2.60
0.70 0.79 0.83 0.77 0.72 0.70 0.69 0.73 0.64 0.60 0.68 0.76 0.77 0.87 0.82 0.71 0.84 0.90 0.88 0.89 0.87 0.91 1.04 0.94 0.85 0.86 0.90 0.93 0.85 0.73 0.55 0.51 0.46 0.43 0.47 0.50 0.59 0.72 0.88 1.03 1.21 1.44 1.66
0.80 0.83 0.77 0.76 0.75 0.72 0.71 0.74 0.71 0.71 0.75 0.76 0.84 1.00 1.01 0.93 0.88 0.91 0.99 1.06 1.15 1.11 1.06 0.97 0.86 0.79 0.81 0.80 0.74 0.64 0.54 0.51 0.48 0.42 0.40 0.39 0.41 0.46 0.51 0.55 0.61 0.70 0.77
0.83 0.87 0.85 0.81 0.80 0.78 0.81 0.86 0.82 0.80 0.86 0.92 1.05 1.14 1.17 1.15 1.11 1.02 1.06 1.11 1.14 1.21 1.15 0.93 0.86 0.86 0.80 0.67 0.68 0.61 0.52 0.54 0.48 0.43 0.40 0.38 0.37 0.42 0.45 0.46 0.43 0.45 0.49
0.81 0.81 0.81 0.84 0.82 0.87 1.01 1.20 1.16 1.08 1.10 1.14 1.22 1.33 1.39 1.42 1.39 1.24 1.19 1.16 1.15 1.23 1.15 0.93 0.87 0.87 0.76 0.62 0.59 0.56 0.52 0.51 0.46 0.47 0.42 0.37 0.35 0.35 0.39 0.40 0.40 0.39 0.40
0.75 0.66 0.68 0.74 0.74 0.83 0.99 1.26 1.39 1.37 1.33 1.24 1.32 1.50 1.56 1.52 1.40 1.30 1.29 1.22 1.19 1.28 1.21 1.07 1.05 0.99 0.90 0.79 0.71 0.66 0.57 0.54 0.53 0.58 0.51 0.41 0.36 0.34 0.34 0.33 0.34 0.33 0.34
0.81 0.76 0.75 0.79 0.86 0.88 0.89 1.06 1.26 1.33 1.32 1.27 1.35 1.41 1.44 1.51 1.44 1.38 1.30 1.24 1.23 1.33 1.36 1.25 1.29 1.27 1.14 1.01 0.91 0.79 0.69 0.66 0.53 0.51 0.51 0.46 0.43 0.38 0.35 0.34 0.34 0.33 0.31
0.88 0.88 0.88 0.92 0.95 0.93 0.93 1.02 1.15 1.24 1.28 1.29 1.34 1.39 1.41 1.42 1.46 1.54 1.45 1.38 1.43 1.47 1.48 1.43 1.42 1.53 1.42 1.22 1.07 0.91 0.77 0.71 0.63 0.48 0.50 0.54 0.51 0.44 0.40 0.36 0.34 0.33 0.35
0.90 0.97 1.06 1.05 1.04 0.97 0.92 1.08 1.18 1.17 1.24 1.28 1.26 1.22 1.30 1.49 1.59 1.63 1.50 1.49 1.55 1.52 1.49 1.51 1.49 1.58 1.58 1.42 1.16 0.93 0.85 0.83 0.77 0.65 0.59 0.52 0.49 0.47 0.43 0.42 0.42 0.39 0.36
0.99 1.08 1.15 1.17 1.12 0.97 1.09 1.23 1.26 1.24 1.28 1.29 1.27 1.20 1.16 1.24 1.34 1.42 1.37 1.33 1.37 1.42 1.46 1.48 1.52 1.60 1.65 1.57 1.38 1.20 1.06 0.94 0.88 0.82 0.85 0.78 0.66 0.63 0.54 0.47 0.50 0.49 0.46
1.16 1.16 1.16 1.18 1.17 1.19 1.20 1.13 1.10 1.04 1.09 1.15 1.14 1.09 0.92 0.86 1.04 1.12 1.24 1.27 1.21 1.20 1.24 1.38 1.50 1.53 1.65 1.70 1.63 1.41 1.31 1.19 1.01 0.96 0.99 0.97 0.88 0.76 0.62 0.58 0.65 0.57 0.52
1.37 1.36 1.30 1.31 1.38 1.36 1.32 1.18 1.09 0.96 0.95 0.98 1.00 0.98 0.96 0.93 0.94 1.01 1.12 1.19 1.18 1.13 1.10 1.14 1.26 1.44 1.60 1.75 1.74 1.63 1.55 1.40 1.19 1.06 1.03 1.00 0.92 0.85 0.73 0.68 0.70 0.64 0.57
1.70 1.69 1.65 1.68 1.69 1.72 1.65 1.40 1.27 1.11 1.09 1.06 1.09 1.12 1.10 1.01 1.02 0.97 0.99 1.04 1.07 1.12 1.09 1.09 1.14 1.32 1.50 1.62 1.75 1.69 1.58 1.42 1.23 1.08 1.01 0.94 0.87 0.87 0.80 0.69 0.61 0.60 0.51
2.05 2.03 2.05 2.06 1.98 1.94 1.87 1.54 1.36 1.20 1.23 1.22 1.25 1.20 1.13 1.00 0.94 0.87 0.89 0.96 0.94 0.94 1.02 1.05 1.06 1.15 1.30 1.43 1.57 1.54 1.43 1.40 1.24 1.08 0.93 0.88 0.81 0.83 0.84 0.72 0.62 0.55 0.50

GEFSMA_prec_meanprecacc_168.txt.gz
Total_Precipitation_Accumulation
1.87 1.86 1.73 1.67 1.48 1.57 1.86 2.11 2.04 2.22 2.38 2.25 1.97 1.83 1.74 1.57 1.56 1.50 1.63 1.82 1.72 1.81 2.10 2.18 2.13 1.99 1.91 1.73 1.54 1.46 1.39 1.28 1.08 0.81 0.65 0.61 0.55 0.44 0.38 0.38 0.36 0.34 0.28
2.11 2.08 1.90 1.80 1.52 1.50 1.73 2.00 2.04 2.23 2.27 2.29 1.92 1.75 1.66 1.67 1.63 1.52 1.61 1.80 1.79 1.65 1.80 2.11 2.32 2.36 2.24 2.09 1.85 1.62 1.50 1.41 1.19 0.90 0.71 0.65 0.61 0.54 0.53 0.54 0.47 0.35 0.25
2.34 2.29 2.11 1.83 1.68 1.78 1.88 1.89 1.96 2.34 2.20 2.10 1.92 1.94 1.89 1.81 1.66 1.60 1.60 1.74 1.58 1.52 1.53 1.69 2.01 2.28 2.53 2.50 2.26 2.04 1.77 1.52 1.24 0.96 0.76 0.64 0.57 0.54 0.56 0.56 0.56 0.44 0.29
2.28 2.41 2.09 1.75 1.86 2.02 2.00 1.97 2.03 2.26 2.28 2.37 2.27 2.12 1.95 1.81 1.44 1.35 1.38 1.42 1.54 1.31 1.42 1.65 1.79 1.91 2.35 2.68 2.78 2.74 2.29 1.78 1.37 1.05 0.85 0.70 0.63 0.58 0.52 0.47 0.45 0.46 0.34
1.68 1.72 1.46 1.38 1.54 1.64 1.53 1.45 1.75 1.94 2.01 2.13 2.05 1.87 1.60 1.45 1.29 1.19 1.22 1.05 1.13 1.19 1.24 1.45 1.66 1.72 2.15 2.73 3.24 3.44 3.08 2.43 1.84 1.38 1.18 1.03 0.88 0.70 0.56 0.50 0.46 0.45 0.36
1.25 1.30 1.07 1.04 1.28 1.40 1.36 1.46 1.58 1.58 1.50 1.57 1.42 1.27 1.19 1.02 1.02 1.00 0.88 0.86 0.84 0.84 0.99 1.20 1.46 1.33 1.82 2.49 3.04 3.32 3.38 2.97 2.36 1.93 1.72 1.51 1.33 1.03 0.68 0.53 0.49 0.45 0.37
1.22 1.32 1.11 1.19 1.28 1.30 1.30 1.33 1.39 1.31 1.11 1.24 1.40 1.23 1.00 0.89 0.87 0.78 0.72 0.73 0.65 0.71 0.93 1.14 1.33 1.42 1.36 1.50 1.95 2.42 3.00 3.29 2.92 2.43 2.19 1.98 1.79 1.43 0.99 0.76 0.60 0.49 0.42
1.10 1.13 1.12 0.94 0.97 1.06 0.98 1.01 1.22 1.24 1.04 1.12 1.28 1.32 1.13 1.10 0.91 0.55 0.58 0.61 0.59 0.72 0.87 0.97 1.22 1.42 1.40 1.59 1.29 1.51 2.25 2.86 3.18 3.05 2.68 2.22 1.90 1.57 1.25 1.05 0.81 0.62 0.53
0.89 0.92 0.91 0.87 0.94 0.94 0.97 0.97 1.01 1.08 1.01 0.93 1.01 1.24 1.17 1.03 0.85 0.64 0.55 0.52 0.63 0.82 0.89 1.03 1.09 1.17 1.30 1.56 1.56 1.40 1.70 1.91 2.65 3.23 3.10 2.49 1.83 1.43 1.29 1.28 1.17 0.89 0.73
0.78 0.78 0.79 0.75 0.80 0.82 0.97 0.83 0.85 0.93 0.94 0.82 0.82 0.88 0.88 0.93 0.91 0.79 0.68 0.60 0.62 0.75 0.90 0.96 1.09 1.17 1.17 1.30 1.51 1.40 1.26 1.32 1.78 2.46 2.83 2.71 2.18 1.63 1.35 1.45 1.71 1.61 1.20
0.79 0.76 0.77 0.77 0.73 0.69 0.74 0.78 0.88 0.84 0.83 0.79 0.77 0.82 0.88 0.89 0.84 0.83 0.84 0.74 0.64 0.55 0.67 0.85 1.00 1.10 1.06 1.16 1.43 1.42 1.33 1.22 1.15 1.34 1.81 2.19 2.23 1.94 1.64 1.70 2.17 2.49 2.29
0.87 0.86 0.81 0.83 0.77 0.72 0.75 0.75 0.77 0.75 0.81 0.87 0.82 0.82 0.93 0.96 0.85 0.83 0.81 0.76 0.67 0.55 0.56 0.73 0.98 1.11 1.10 1.13 1.04 1.02 1.06 0.97 0.90 0.90 1.04 1.29 1.59 1.76 1.81 1.97 2.33 2.76 3.02
0.80 0.88 0.88 0.87 0.86 0.85 0.81 0.79 0.76 0.74 0.80 0.89 0.84 0.78 0.79 0.82 0.86 0.86 0.84 0.77 0.77 0.70 0.80 0.82 0.87 1.00 0.99 1.06 1.01 0.84 0.68 0.63 0.60 0.63 0.77 0.94 1.17 1.43 1.61 1.72 2.01 2.37 2.67
0.79 0.87 0.91 0.83 0.79 0.80 0.78 0.85 0.74 0.70 0.80 0.88 0.86 0.97 0.90 0.77 0.90 0.97 0.95 0.98 0.98 1.00 1.10 1.00 0.91 0.92 0.95 0.98 0.91 0.77 0.57 0.55 0.49 0.47 0.50 0.52 0.60 0.74 0.89 1.04 1.23 1.48 1.70
0.89 0.91 0.84 0.83 0.81 0.80 0.80 0.85 0.81 0.83 0.87 0.86 0.94 1.11 1.11 1.00 0.96 1.00 1.07 1.17 1.30 1.25 1.17 1.04 0.92 0.86 0.87 0.87 0.82 0.71 0.60 0.57 0.53 0.47 0.44 0.41 0.43 0.48 0.53 0.57 0.63 0.72 0.79
0.95 0.98 0.95 0.88 0.88 0.87 0.91 0.98 0.93 0.92 0.99 1.03 1.16 1.25 1.28 1.24 1.20 1.12 1.16 1.21 1.27 1.35 1.25 0.99 0.93 0.91 0.86 0.73 0.75 0.68 0.58 0.60 0.52 0.47 0.44 0.42 0.40 0.44 0.47 0.48 0.44 0.46 0.50
0.90 0.92 0.92 0.93 0.91 0.96 1.11 1.31 1.26 1.20 1.22 1.27 1.33 1.43 1.49 1.51 1.49 1.33 1.29 1.27 1.27 1.37 1.27 1.03 0.97 0.95 0.84 0.71 0.68 0.63 0.57 0.56 0.51 0.54 0.48 0.42 0.39 0.38 0.41 0.42 0.41 0.40 0.42
0.82 0.74 0.77 0.82 0.80 0.89 1.08 1.37 1.50 1.49 1.46 1.38 1.44 1.60 1.64 1.60 1.50 1.39 1.40 1.33 1.31 1.41 1.35 1.20 1.16 1.11 1.02 0.89 0.82 0.76 0.64 0.61 0.61 0.69 0.60 0.48 0.42 0.39 0.37 0.36 0.36 0.35 0.37
0.87 0.85 0.86 0.87 0.92 0.95 0.98 1.17 1.37 1.44 1.45 1.42 1.49 1.53 1.53 1.60 1.52 1.46 1.39 1.35 1.32 1.43 1.48 1.38 1.41 1.40 1.26 1.12 1.04 0.92 0.80 0.77 0.65 0.64 0.62 0.54 0.50 0.44 0.40 0.37 0.36 0.35 0.34
0.94 0.96 0.97 1.01 1.04 1.03 1.03 1.12 1.26 1.36 1.41 1.43 1.47 1.50 1.51 1.51 1.55 1.63 1.54 1.47 1.52 1.58 1.63 1.59 1.58 1.67 1.57 1.36 1.22 1.08 0.93 0.85 0.76 0.60 0.60 0.62 0.57 0.49 0.43 0.39 0.37 0.37 0.39
0.95 1.04 1.14 1.15 1.12 1.05 0.99 1.17 1.30 1.31 1.42 1.47 1.43 1.37 1.42 1.58 1.66 1.69 1.55 1.56 1.65 1.65 1.62 1.65 1.63 1.71 1.71 1.55 1.29 1.05 0.98 0.95 0.88 0.75 0.68 0.59 0.55 0.52 0.48 0.47 0.46 0.44 0.41
1.04 1.15 1.21 1.23 1.18 1.02 1.15 1.29 1.34 1.37 1.43 1.45 1.42 1.33 1.27 1.32 1.42 1.50 1.46 1.42 1.48 1.53 1.59 1.60 1.63 1.70 1.75 1.67 1.48 1.29 1.16 1.04 0.98 0.92 0.95 0.88 0.75 0.73 0.63 0.55 0.58 0.57 0.53
1.21 1.21 1.22 1.24 1.22 1.26 1.27 1.18 1.15 1.10 1.15 1.21 1.22 1.18 1.01 0.95 1.16 1.24 1.37 1.39 1.31 1.28 1.32 1.45 1.57 1.60 1.72 1.77 1.70 1.50 1.41 1.30 1.13 1.07 1.10 1.08 0.99 0.86 0.69 0.66 0.74 0.66 0.63
1.43 1.43 1.36 1.37 1.44 1.43 1.39 1.22 1.14 1.02 1.02 1.04 1.06 1.03 1.03 1.02 1.05 1.12 1.21 1.25 1.23 1.17 1.14 1.17 1.30 1.48 1.63 1.79 1.78 1.68 1.62 1.48 1.28 1.16 1.13 1.12 1.05 0.96 0.82 0.76 0.79 0.72 0.65
1.76 1.77 1.72 1.75 1.76 1.78 1.69 1.43 1.29 1.14 1.12 1.10 1.12 1.16 1.15 1.05 1.08 1.04 1.05 1.09 1.11 1.15 1.12 1.12 1.16 1.34 1.52 1.64 1.77 1.72 1.64 1.50 1.32 1.18 1.11 1.07 1.01 1.01 0.94 0.81 0.72 0.69 0.59
2.09 2.09 2.11 2.11 2.02 1.98 1.91 1.57 1.38 1.22 1.25 1.23 1.27 1.22 1.15 1.03 0.97 0.91 0.93 0.99 0.98 0.97 1.05 1.08 1.08 1.17 1.31 1.44 1.60 1.57 1.47 1.46 1.30 1.16 1.02 0.98 0.93 0.95 0.97 0.85 0.73 0.63 0.56

GEFSMA_prec_meanprecacc_174.txt.gz
Total_Precipitation_Accumulation
1.90 1.89 1.76 1.71 1.51 1.60 1.91 2.18 2.10 2.27 2.43 2.30 2.03 1.89 1.80 1.63 1.61 1.54 1.65 1.84 1.74 1.82 2.11 2.20 2.14 2.00 1.92 1.73 1.56 1.47 1.41 1.29 1.08 0.82 0.65 0.61 0.56 0.44 0.39 0.39 0.36 0.34 0.29
2.13 2.10 1.92 1.83 1.57 1.55 1.79 2.06 2.08 2.27 2.32 2.33 1.95 1.79 1.72 1.75 1.71 1.57 1.64 1.82 1.80 1.66 1.81 2.12 2.32 2.37 2.25 2.09 1.85 1.63 1.51 1.42 1.20 0.91 0.71 0.65 0.62 0.55 0.53 0.55 0.47 0.36 0.26
2.36 2.31 2.13 1.85 1.73 1.81 1.92 1.94 2.00 2.38 2.25 2.15 1.96 1.98 1.94 1.88 1.73 1.64 1.62 1.75 1.59 1.53 1.55 1.71 2.03 2.29 2.54 2.51 2.27 2.05 1.77 1.53 1.25 0.96 0.77 0.64 0.58 0.54 0.56 0.57 0.56 0.45 0.30
2.31 2.43 2.11 1.75 1.88 2.04 2.08 2.02 2.06 2.30 2.33 2.42 2.32 2.17 1.99 1.86 1.48 1.38 1.41 1.44 1.56 1.34 1.45 1.68 1.81 1.94 2.37 2.71 2.81 2.77 2.31 1.79 1.38 1.06 0.86 0.70 0.63 0.58 0.52 0.48 0.46 0.46 0.35
1.72 1.75 1.48 1.40 1.57 1.67 1.56 1.48 1.78 1.97 2.06 2.17 2.09 1.93 1.66 1.49 1.32 1.24 1.27 1.11 1.18 1.23 1.28 1.50 1.70 1.75 2.17 2.78 3.30 3.49 3.12 2.48 1.88 1.40 1.19 1.04 0.89 0.71 0.57 0.50 0.47 0.45 0.37
1.30 1.33 1.10 1.07 1.31 1.43 1.39 1.48 1.61 1.61 1.54 1.60 1.46 1.31 1.24 1.07 1.06 1.05 0.93 0.92 0.91 0.91 1.07 1.30 1.51 1.36 1.84 2.53 3.09 3.37 3.43 3.04 2.42 1.97 1.75 1.53 1.35 1.04 0.70 0.54 0.50 0.46 0.38
1.28 1.36 1.15 1.23 1.31 1.33 1.32 1.35 1.41 1.33 1.14 1.29 1.46 1.28 1.05 0.94 0.92 0.83 0.77 0.80 0.72 0.79 1.01 1.20 1.37 1.46 1.39 1.53 1.98 2.47 3.06 3.36 2.98 2.48 2.23 2.02 1.84 1.47 1.02 0.79 0.62 0.50 0.43
1.16 1.18 1.16 0.98 1.01 1.10 1.01 1.04 1.24 1.26 1.06 1.15 1.32 1.37 1.17 1.15 0.98 0.61 0.65 0.71 0.70 0.81 0.96 1.05 1.28 1.49 1.46 1.64 1.32 1.54 2.29 2.92 3.25 3.11 2.73 2.26 1.94 1.60 1.29 1.09 0.85 0.65 0.55
0.95 0.97 0.94 0.91 0.99 0.98 1.00 1.00 1.03 1.11 1.05 0.97 1.06 1.31 1.21 1.05 0.88 0.70 0.64 0.62 0.74 0.92 1.00 1.11 1.16 1.24 1.36 1.63 1.61 1.42 1.71 1.93 2.69 3.28 3.15 2.53 1.86 1.45 1.31 1.32 1.21 0.93 0.76
0.86 0.84 0.84 0.79 0.85 0.87 1.02 0.87 0.89 0.97 0.98 0.86 0.86 0.93 0.94 0.98 0.95 0.83 0.73 0.70 0.74 0.88 1.00 1.04 1.15 1.24 1.26 1.39 1.59 1.45 1.28 1.33 1.80 2.50 2.88 2.76 2.22 1.65 1.38 1.47 1.75 1.65 1.24
0.86 0.83 0.82 0.82 0.80 0.76 0.82 0.86 0.94 0.90 0.89 0.84 0.82 0.86 0.93 0.94 0.89 0.88 0.87 0.79 0.74 0.66 0.77 0.96 1.11 1.20 1.19 1.29 1.55 1.50 1.38 1.27 1.18 1.38 1.87 2.24 2.27 1.97 1.67 1.73 2.22 2.55 2.35
0.93 0.92 0.87 0.89 0.83 0.78 0.81 0.81 0.82 0.81 0.87 0.93 0.86 0.86 0.98 1.00 0.90 0.88 0.85 0.78 0.72 0.62 0.66 0.86 1.13 1.26 1.24 1.24 1.12 1.08 1.14 1.08 0.97 0.95 1.09 1.34 1.65 1.81 1.85 2.00 2.37 2.80 3.07
0.88 0.98 0.96 0.92 0.91 0.90 0.85 0.83 0.81 0.80 0.87 0.96 0.89 0.81 0.83 0.87 0.92 0.93 0.90 0.80 0.80 0.74 0.87 0.91 0.96 1.12 1.14 1.21 1.16 1.00 0.82 0.76 0.69 0.69 0.83 1.00 1.23 1.48 1.65 1.76 2.05 2.41 2.72
0.87 0.95 0.98 0.89 0.85 0.86 0.84 0.91 0.82 0.77 0.86 0.94 0.91 1.02 0.95 0.82 0.96 1.03 1.02 1.05 1.03 1.04 1.16 1.08 0.99 1.00 1.06 1.12 1.06 0.93 0.73 0.71 0.63 0.57 0.57 0.57 0.64 0.77 0.93 1.08 1.26 1.50 1.73
0.95 0.97 0.91 0.91 0.88 0.84 0.86 0.93 0.87 0.88 0.91 0.90 0.98 1.15 1.16 1.04 1.01 1.05 1.14 1.27 1.40 1.33 1.23 1.11 1.01 0.96 0.98 1.01 0.97 0.85 0.76 0.77 0.69 0.57 0.50 0.48 0.49 0.53 0.57 0.60 0.65 0.73 0.80
1.01 1.05 1.04 0.96 0.94 0.92 0.97 1.05 1.00 0.98 1.04 1.07 1.20 1.30 1.32 1.27 1.25 1.16 1.21 1.28 1.37 1.44 1.31 1.03 0.98 0.96 0.92 0.80 0.85 0.78 0.70 0.74 0.65 0.57 0.54 0.50 0.48 0.51 0.52 0.52 0.48 0.49 0.53
0.95 0.96 0.98 0.99 0.97 1.03 1.19 1.39 1.35 1.28 1.29 1.32 1.38 1.50 1.54 1.57 1.54 1.38 1.34 1.33 1.33 1.43 1.32 1.06 1.00 0.98 0.89 0.77 0.75 0.70 0.64 0.64 0.61 0.64 0.58 0.53 0.49 0.46 0.47 0.48 0.47 0.47 0.47
0.85 0.78 0.82 0.88 0.87 0.97 1.16 1.44 1.56 1.56 1.54 1.46 1.53 1.72 1.74 1.68 1.57 1.45 1.46 1.40 1.35 1.45 1.39 1.23 1.20 1.14 1.06 0.93 0.86 0.81 0.70 0.67 0.69 0.79 0.72 0.61 0.55 0.50 0.46 0.45 0.43 0.42 0.42
0.90 0.88 0.89 0.91 0.98 1.02 1.04 1.23 1.42 1.49 1.52 1.52 1.62 1.66 1.66 1.71 1.61 1.54 1.46 1.41 1.38 1.48 1.54 1.43 1.45 1.43 1.29 1.16 1.08 0.98 0.86 0.84 0.73 0.74 0.75 0.68 0.63 0.56 0.51 0.46 0.43 0.40 0.39
0.96 0.99 1.00 1.05 1.11 1.11 1.09 1.19 1.33 1.43 1.49 1.55 1.63 1.69 1.68 1.65 1.67 1.74 1.63 1.56 1.61 1.67 1.70 1.67 1.65 1.75 1.66 1.44 1.30 1.15 1.00 0.91 0.84 0.68 0.69 0.71 0.65 0.57 0.51 0.46 0.43 0.42 0.44
0.98 1.07 1.16 1.18 1.17 1.12 1.07 1.27 1.40 1.40 1.52 1.60 1.61 1.56 1.60 1.75 1.80 1.81 1.66 1.66 1.75 1.74 1.71 1.74 1.72 1.82 1.82 1.67 1.41 1.16 1.07 1.03 0.96 0.82 0.75 0.65 0.62 0.58 0.54 0.53 0.52 0.50 0.47
1.07 1.19 1.27 1.29 1.25 1.09 1.26 1.39 1.40 1.43 1.52 1.57 1.57 1.48 1.41 1.44 1.52 1.59 1.54 1.49 1.55 1.61 1.67 1.69 1.70 1.77 1.81 1.72 1.53 1.36 1.23 1.12 1.07 1.03 1.04 0.97 0.84 0.80 0.68 0.60 0.64 0.62 0.59
1.25 1.27 1.28 1.30 1.29 1.35 1.37 1.25 1.20 1.14 1.20 1.27 1.26 1.23 1.06 0.99 1.20 1.27 1.43 1.44 1.35 1.32 1.35 1.48 1.60 1.63 1.75 1.80 1.74 1.53 1.45 1.35 1.20 1.16 1.21 1.20 1.11 0.98 0.79 0.75 0.83 0.73 0.69
1.50 1.49 1.42 1.42 1.51 1.50 1.45 1.26 1.17 1.05 1.04 1.06 1.07 1.05 1.04 1.03 1.07 1.15 1.24 1.27 1.25 1.18 1.17 1.19 1.32 1.49 1.65 1.80 1.80 1.70 1.64 1.52 1.33 1.22 1.21 1.23 1.15 1.06 0.92 0.86 0.90 0.82 0.75
1.81 1.81 1.76 1.79 1.80 1.83 1.76 1.48 1.32 1.16 1.14 1.11 1.14 1.17 1.16 1.06 1.10 1.07 1.08 1.12 1.13 1.17 1.15 1.15 1.19 1.36 1.54 1.66 1.79 1.74 1.66 1.53 1.35 1.22 1.16 1.13 1.08 1.10 1.03 0.90 0.80 0.76 0.65
2.13 2.12 2.14 2.13 2.05 2.01 1.94 1.59 1.40 1.23 1.26 1.25 1.28 1.23 1.16 1.03 0.98 0.93 0.95 1.03 1.00 1.00 1.08 1.11 1.12 1.21 1.35 1.48 1.64 1.60 1.49 1.48 1.34 1.21 1.08 1.06 1.02 1.04 1.07 0.93 0.79 0.68 0.60

GEFSMA_prec_meanprecacc_180.txt.gz
Total_Precipitation_Accumulation
1.92 1.90 1.78 1.73 1.52 1.61 1.91 2.19 2.11 2.28 2.45 2.32 2.04 1.90 1.82 1.65 1.62 1.55 1.66 1.87 1.77 1.86 2.14 2.21 2.16 2.01 1.93 1.75 1.59 1.51 1.44 1.32 1.10 0.83 0.67 0.63 0.58 0.46 0.41 0.41 0.38 0.35 0.31
2.16 2.12 1.93 1.84 1.58 1.56 1.80 2.07 2.09 2.29 2.34 2.35 1.96 1.80 1.73 1.77 1.72 1.58 1.65 1.84 1.84 1.69 1.84 2.14 2.35 2.39 2.27 2.11 1.88 1.67 1.55 1.46 1.23 0.92 0.72 0.67 0.63 0.57 0.55 0.57 0.50 0.38 0.28
2.39 2.33 2.15 1.87 1.75 1.85 1.94 1.95 2.02 2.40 2.27 2.17 1.97 2.00 1.95 1.90 1.75 1.65 1.64 1.77 1.62 1.56 1.58 1.74 2.06 2.32 2.57 2.54 2.30 2.08 1.80 1.56 1.27 0.98 0.78 0.65 0.59 0.56 0.57 0.58 0.58 0.46 0.31
2.36 2.46 2.14 1.79 1.92 2.09 2.12 2.07 2.11 2.33 2.35 2.44 2.35 2.19 2.02 1.87 1.49 1.40 1.43 1.47 1.59 1.35 1.48 1.72 1.86 1.98 2.41 2.75 2.86 2.82 2.35 1.83 1.41 1.08 0.88 0.71 0.65 0.60 0.53 0.49 0.48 0.48 0.36
1.77 1.79 1.51 1.42 1.60 1.70 1.59 1.52 1.80 2.00 2.09 2.21 2.12 1.95 1.68 1.52 1.36 1.27 1.30 1.14 1.21 1.25 1.31 1.55 1.76 1.80 2.22 2.82 3.36 3.56 3.20 2.54 1.93 1.44 1.22 1.06 0.91 0.73 0.58 0.52 0.49 0.47 0.38
1.37 1.39 1.15 1.10 1.34 1.45 1.41 1.51 1.64 1.64 1.58 1.65 1.51 1.34 1.26 1.10 1.09 1.07 0.95 0.95 0.93 0.92 1.10 1.34 1.56 1.40 1.89 2.59 3.15 3.45 3.51 3.11 2.49 2.04 1.81 1.57 1.39 1.08 0.74 0.57 0.53 0.48 0.40
1.37 1.44 1.19 1.26 1.34 1.36 1.34 1.37 1.44 1.37 1.18 1.34 1.52 1.33 1.09 0.97 0.94 0.85 0.80 0.82 0.75 0.82 1.03 1.23 1.40 1.49 1.41 1.57 2.04 2.52 3.13 3.45 3.07 2.56 2.30 2.07 1.89 1.52 1.07 0.83 0.65 0.53 0.46
1.24 1.24 1.20 1.01 1.05 1.14 1.05 1.07 1.27 1.30 1.10 1.20 1.39 1.43 1.20 1.18 1.01 0.63 0.67 0.73 0.73 0.84 0.99 1.07 1.30 1.51 1.48 1.66 1.34 1.60 2.38 3.02 3.34 3.21 2.81 2.34 2.00 1.65 1.33 1.13 0.89 0.69 0.60
1.02 1.04 1.00 0.95 1.02 1.01 1.04 1.04 1.08 1.16 1.08 1.01 1.10 1.36 1.23 1.07 0.90 0.72 0.66 0.64 0.77 0.95 1.03 1.14 1.18 1.27 1.40 1.66 1.64 1.45 1.77 1.99 2.77 3.38 3.24 2.60 1.91 1.49 1.34 1.35 1.25 0.97 0.81
0.95 0.91 0.91 0.84 0.89 0.91 1.07 0.92 0.95 1.02 1.03 0.89 0.91 0.98 0.98 1.00 0.97 0.84 0.74 0.71 0.76 0.91 1.05 1.09 1.21 1.31 1.33 1.45 1.66 1.52 1.33 1.39 1.87 2.58 2.96 2.84 2.29 1.70 1.42 1.53 1.82 1.73 1.30
0.94 0.90 0.88 0.87 0.85 0.83 0.88 0.91 1.00 0.95 0.93 0.87 0.85 0.89 0.98 0.99 0.93 0.90 0.88 0.80 0.75 0.68 0.80 1.00 1.15 1.27 1.25 1.38 1.66 1.58 1.43 1.32 1.23 1.44 1.94 2.33 2.36 2.05 1.74 1.81 2.30 2.63 2.43
1.01 1.01 0.95 0.96 0.89 0.85 0.86 0.86 0.88 0.86 0.93 0.97 0.89 0.90 1.03 1.06 0.96 0.93 0.88 0.80 0.74 0.65 0.69 0.90 1.18 1.34 1.33 1.32 1.18 1.13 1.19 1.15 1.04 1.00 1.15 1.41 1.73 1.90 1.94 2.09 2.46 2.91 3.16
0.95 1.05 1.04 1.01 0.97 0.95 0.91 0.89 0.87 0.84 0.91 1.00 0.93 0.86 0.88 0.91 0.97 0.98 0.95 0.85 0.84 0.79 0.93 0.95 1.01 1.17 1.19 1.27 1.22 1.07 0.88 0.85 0.78 0.78 0.90 1.06 1.28 1.55 1.73 1.85 2.14 2.50 2.80
0.94 1.01 1.03 0.95 0.91 0.90 0.88 0.97 0.87 0.84 0.93 1.00 0.98 1.09 1.02 0.89 1.02 1.08 1.06 1.09 1.06 1.07 1.19 1.11 1.02 1.04 1.10 1.17 1.12 1.00 0.80 0.80 0.73 0.67 0.66 0.66 0.73 0.86 1.01 1.15 1.33 1.57 1.79
1.01 1.02 0.95 0.95 0.93 0.88 0.90 0.97 0.92 0.94 0.98 0.96 1.03 1.20 1.21 1.10 1.06 1.09 1.18 1.31 1.44 1.35 1.24 1.13 1.03 0.99 1.02 1.07 1.05 0.94 0.84 0.87 0.80 0.68 0.62 0.59 0.60 0.64 0.67 0.70 0.74 0.81 0.87
1.04 1.09 1.08 0.99 0.98 0.96 1.01 1.09 1.06 1.03 1.13 1.16 1.28 1.37 1.37 1.31 1.29 1.23 1.27 1.34 1.42 1.47 1.32 1.05 1.00 0.98 0.95 0.83 0.89 0.82 0.75 0.82 0.71 0.65 0.64 0.61 0.59 0.61 0.63 0.62 0.58 0.59 0.62
0.96 0.99 1.02 1.03 1.03 1.07 1.24 1.46 1.42 1.35 1.36 1.40 1.47 1.57 1.60 1.63 1.61 1.43 1.39 1.37 1.37 1.47 1.34 1.07 1.01 1.00 0.90 0.79 0.78 0.74 0.69 0.68 0.65 0.69 0.63 0.59 0.56 0.55 0.57 0.59 0.58 0.58 0.58
0.87 0.80 0.84 0.91 0.90 1.01 1.21 1.49 1.61 1.60 1.58 1.50 1.59 1.79 1.80 1.75 1.64 1.50 1.51 1.44 1.39 1.49 1.42 1.26 1.22 1.16 1.09 0.96 0.89 0.85 0.74 0.70 0.72 0.83 0.77 0.66 0.61 0.58 0.55 0.54 0.54 0.56 0.58
0.92 0.90 0.91 0.93 1.01 1.06 1.08 1.27 1.46 1.53 1.57 1.56 1.67 1.71 1.71 1.77 1.69 1.61 1.52 1.47 1.43 1.53 1.58 1.46 1.48 1.46 1.33 1.20 1.13 1.02 0.89 0.87 0.76 0.77 0.78 0.72 0.68 0.64 0.62 0.60 0.60 0.58 0.55
0.99 1.01 1.03 1.08 1.14 1.15 1.14 1.24 1.38 1.48 1.53 1.58 1.66 1.72 1.74 1.73 1.77 1.83 1.72 1.65 1.68 1.74 1.78 1.74 1.71 1.81 1.72 1.50 1.35 1.20 1.05 0.96 0.88 0.72 0.74 0.76 0.70 0.62 0.57 0.53 0.51 0.50 0.53
1.02 1.10 1.20 1.22 1.22 1.16 1.11 1.31 1.44 1.44 1.56 1.63 1.64 1.61 1.66 1.84 1.91 1.92 1.76 1.74 1.83 1.83 1.80 1.82 1.80 1.89 1.89 1.73 1.46 1.22 1.13 1.10 1.03 0.88 0.80 0.70 0.68 0.64 0.61 0.61 0.60 0.58 0.54
1.13 1.25 1.32 1.34 1.30 1.13 1.30 1.44 1.46 1.48 1.56 1.61 1.61 1.53 1.45 1.49 1.58 1.66 1.61 1.55 1.59 1.66 1.72 1.73 1.75 1.81 1.84 1.75 1.56 1.39 1.26 1.16 1.11 1.08 1.09 1.02 0.89 0.86 0.75 0.66 0.70 0.69 0.65
1.30 1.33 1.33 1.34 1.33 1.39 1.43 1.31 1.27 1.20 1.25 1.31 1.31 1.26 1.08 1.01 1.22 1.30 1.45 1.46 1.37 1.34 1.37 1.50 1.61 1.64 1.77 1.81 1.75 1.55 1.47 1.37 1.22 1.19 1.24 1.25 1.16 1.03 0.85 0.80 0.89 0.78 0.74
1.54 1.54 1.46 1.47 1.54 1.54 1.50 1.30 1.23 1.12 1.11 1.12 1.11 1.07 1.06 1.05 1.09 1.18 1.26 1.28 1.25 1.19 1.18 1.20 1.32 1.50 1.66 1.82 1.81 1.72 1.67 1.54 1.36 1.25 1.25 1.27 1.19 1.10 0.96 0.91 0.96 0.87 0.80
1.83 1.83 1.78 1.81 1.82 1.86 1.81 1.54 1.42 1.25 1.20 1.15 1.17 1.20 1.19 1.09 1.13 1.09 1.09 1.12 1.13 1.18 1.17 1.17 1.20 1.38 1.56 1.68 1.81 1.77 1.69 1.57 1.40 1.26 1.20 1.17 1.14 1.16 1.10 0.97 0.88 0.83 0.70
2.15 2.14 2.15 2.15 2.08 2.04 1.99 1.65 1.45 1.26 1.28 1.26 1.29 1.25 1.17 1.04 1.00 0.94 0.95 1.03 1.01 1.01 1.10 1.13 1.14 1.23 1.38 1.51 1.66 1.63 1.53 1.53 1.38 1.25 1.12 1.10 1.07 1.11 1.15 1.00 0.85 0.73 0.65

GEFSMA_prec_meanprecacc_186.txt.gz
Total_Precipitation_Accumulation
1.96 1.93 1.81 1.76 1.53 1.62 1.93 2.22 2.13 2.30 2.48 2.35 2.06 1.91 1.82 1.65 1.63 1.56 1.68 1.88 1.79 1.88 2.16 2.24 2.19 2.04 1.96 1.79 1.62 1.53 1.47 1.34 1.12 0.85 0.68 0.64 0.59 0.48 0.44 0.43 0.40 0.37 0.32
2.21 2.17 1.97 1.89 1.61 1.58 1.82 2.10 2.13 2.33 2.38 2.39 1.99 1.82 1.74 1.78 1.73 1.60 1.67 1.87 1.86 1.70 1.86 2.17 2.38 2.42 2.29 2.15 1.91 1.69 1.57 1.48 1.25 0.93 0.73 0.68 0.64 0.58 0.57 0.59 0.52 0.39 0.29
2.45 2.39 2.21 1.93 1.81 1.88 1.98 1.99 2.07 2.45 2.31 2.20 2.01 2.01 1.97 1.92 1.77 1.69 1.66 1.81 1.65 1.59 1.60 1.76 2.08 2.35 2.60 2.58 2.33 2.12 1.83 1.58 1.29 1.00 0.79 0.66 0.60 0.57 0.59 0.59 0.60 0.48 0.31
2.43 2.53 2.20 1.84 1.98 2.14 2.17 2.14 2.17 2.39 2.41 2.48 2.39 2.23 2.06 1.92 1.52 1.44 1.46 1.51 1.62 1.39 1.51 1.74 1.88 2.00 2.44 2.79 2.91 2.88 2.40 1.88 1.45 1.11 0.90 0.73 0.66 0.61 0.54 0.50 0.49 0.49 0.37
1.86 1.90 1.60 1.50 1.67 1.76 1.65 1.58 1.87 2.07 2.16 2.27 2.16 1.99 1.72 1.57 1.39 1.30 1.33 1.17 1.25 1.30 1.36 1.59 1.79 1.83 2.25 2.87 3.43 3.65 3.29 2.62 1.99 1.49 1.26 1.10 0.94 0.75 0.60 0.53 0.50 0.48 0.40
1.44 1.49 1.24 1.18 1.40 1.52 1.48 1.59 1.72 1.72 1.67 1.73 1.55 1.38 1.29 1.13 1.12 1.10 0.98 0.97 0.97 0.97 1.14 1.41 1.62 1.44 1.92 2.64 3.22 3.53 3.59 3.21 2.56 2.09 1.86 1.62 1.43 1.12 0.76 0.60 0.55 0.50 0.42
1.44 1.51 1.25 1.33 1.40 1.41 1.40 1.44 1.51 1.44 1.24 1.40 1.61 1.41 1.14 1.00 0.97 0.87 0.83 0.87 0.80 0.86 1.08 1.28 1.46 1.55 1.45 1.60 2.07 2.57 3.19 3.53 3.15 2.62 2.36 2.13 1.94 1.56 1.10 0.86 0.68 0.56 0.48
1.31 1.31 1.27 1.07 1.10 1.20 1.11 1.14 1.35 1.36 1.15 1.25 1.48 1.53 1.27 1.23 1.05 0.65 0.70 0.75 0.76 0.88 1.03 1.10 1.34 1.57 1.53 1.72 1.38 1.62 2.42 3.07 3.40 3.28 2.89 2.41 2.06 1.70 1.37 1.17 0.93 0.72 0.62
1.08 1.09 1.06 1.02 1.08 1.06 1.10 1.12 1.16 1.26 1.18 1.07 1.16 1.45 1.31 1.14 0.97 0.76 0.68 0.67 0.80 0.99 1.06 1.17 1.21 1.31 1.43 1.69 1.68 1.50 1.82 2.04 2.84 3.47 3.33 2.67 1.97 1.54 1.39 1.41 1.31 1.04 0.87
1.03 0.96 0.95 0.91 0.97 0.99 1.14 0.99 1.02 1.11 1.13 0.96 0.97 1.05 1.05 1.07 1.06 0.92 0.79 0.75 0.79 0.94 1.08 1.12 1.24 1.35 1.38 1.50 1.70 1.56 1.37 1.43 1.94 2.66 3.04 2.92 2.36 1.76 1.48 1.59 1.89 1.81 1.39
1.02 0.94 0.94 0.97 0.96 0.93 0.95 0.98 1.07 1.04 1.00 0.94 0.92 0.98 1.06 1.06 1.00 0.98 0.97 0.87 0.79 0.71 0.83 1.03 1.20 1.32 1.32 1.44 1.73 1.64 1.49 1.38 1.29 1.50 2.00 2.39 2.42 2.13 1.83 1.90 2.39 2.72 2.54
1.06 1.06 1.01 1.04 0.97 0.92 0.93 0.93 0.97 0.96 1.01 1.05 0.99 0.98 1.12 1.16 1.06 1.03 0.97 0.87 0.81 0.69 0.73 0.94 1.22 1.39 1.39 1.38 1.24 1.19 1.25 1.22 1.12 1.08 1.23 1.49 1.81 1.99 2.03 2.19 2.57 3.03 3.29
1.00 1.10 1.09 1.05 1.03 1.02 0.97 0.96 0.94 0.91 0.99 1.11 1.04 0.95 0.96 0.99 1.05 1.07 1.03 0.91 0.90 0.83 0.96 0.98 1.03 1.19 1.23 1.31 1.28 1.12 0.93 0.91 0.84 0.84 0.97 1.12 1.34 1.61 1.80 1.93 2.23 2.60 2.89
1.00 1.07 1.06 0.98 0.94 0.94 0.92 1.03 0.94 0.91 1.01 1.10 1.07 1.20 1.12 0.98 1.11 1.15 1.13 1.17 1.12 1.11 1.23 1.15 1.04 1.06 1.12 1.19 1.16 1.04 0.83 0.84 0.78 0.73 0.71 0.71 0.79 0.93 1.08 1.22 1.40 1.65 1.88
1.05 1.07 0.98 0.97 0.95 0.91 0.92 1.01 0.96 1.00 1.07 1.05 1.11 1.29 1.30 1.18 1.14 1.16 1.24 1.38 1.52 1.41 1.29 1.19 1.08 1.02 1.05 1.11 1.10 0.97 0.88 0.91 0.82 0.71 0.65 0.64 0.66 0.70 0.74 0.75 0.79 0.87 0.94
1.07 1.12 1.11 1.01 1.00 0.99 1.03 1.12 1.09 1.07 1.19 1.25 1.38 1.48 1.46 1.38 1.36 1.29 1.32 1.40 1.50 1.56 1.39 1.10 1.05 1.02 0.98 0.86 0.93 0.85 0.79 0.86 0.75 0.69 0.68 0.66 0.64 0.67 0.68 0.68 0.64 0.66 0.70
0.99 1.01 1.04 1.05 1.05 1.10 1.27 1.49 1.45 1.39 1.42 1.47 1.54 1.64 1.67 1.72 1.70 1.53 1.47 1.43 1.45 1.55 1.41 1.13 1.07 1.05 0.95 0.83 0.82 0.78 0.74 0.73 0.70 0.74 0.68 0.63 0.60 0.58 0.61 0.63 0.63 0.63 0.64
0.90 0.82 0.87 0.94 0.94 1.04 1.24 1.52 1.64 1.64 1.63 1.56 1.65 1.85 1.86 1.81 1.70 1.57 1.58 1.51 1.48 1.58 1.51 1.33 1.29 1.22 1.13 1.00 0.92 0.87 0.76 0.74 0.77 0.89 0.81 0.70 0.64 0.61 0.58 0.57 0.57 0.60 0.64
0.94 0.92 0.94 0.96 1.04 1.09 1.12 1.30 1.48 1.56 1.60 1.59 1.71 1.77 1.77 1.83 1.75 1.66 1.58 1.53 1.51 1.63 1.70 1.58 1.59 1.54 1.39 1.25 1.17 1.05 0.93 0.91 0.80 0.81 0.82 0.75 0.71 0.66 0.64 0.63 0.63 0.62 0.59
1.01 1.03 1.07 1.11 1.16 1.17 1.17 1.26 1.41 1.51 1.56 1.61 1.70 1.77 1.79 1.79 1.84 1.92 1.80 1.75 1.80 1.86 1.90 1.85 1.80 1.89 1.79 1.57 1.40 1.25 1.10 1.01 0.92 0.76 0.78 0.80 0.75 0.66 0.60 0.55 0.53 0.53 0.57
1.08 1.14 1.24 1.26 1.24 1.18 1.13 1.33 1.46 1.47 1.58 1.66 1.68 1.65 1.71 1.89 1.97 1.98 1.82 1.82 1.92 1.91 1.87 1.89 1.86 1.95 1.95 1.78 1.51 1.27 1.17 1.13 1.06 0.91 0.84 0.73 0.71 0.67 0.64 0.64 0.63 0.60 0.56
1.21 1.31 1.36 1.38 1.32 1.15 1.32 1.46 1.48 1.50 1.58 1.63 1.64 1.57 1.50 1.55 1.65 1.72 1.67 1.61 1.65 1.71 1.77 1.78 1.80 1.85 1.88 1.78 1.60 1.42 1.29 1.18 1.14 1.10 1.12 1.06 0.93 0.90 0.78 0.69 0.73 0.71 0.67
1.34 1.36 1.36 1.37 1.36 1.41 1.45 1.33 1.29 1.21 1.27 1.34 1.34 1.32 1.16 1.09 1.30 1.37 1.51 1.50 1.40 1.37 1.40 1.52 1.64 1.66 1.79 1.83 1.78 1.58 1.50 1.41 1.25 1.22 1.26 1.27 1.18 1.05 0.87 0.83 0.91 0.80 0.76
1.57 1.56 1.48 1.48 1.55 1.55 1.51 1.32 1.24 1.12 1.13 1.15 1.14 1.11 1.10 1.09 1.13 1.22 1.29 1.30 1.26 1.21 1.20 1.22 1.33 1.51 1.68 1.83 1.84 1.74 1.69 1.57 1.38 1.27 1.26 1.29 1.21 1.12 0.98 0.93 0.98 0.89 0.82
1.85 1.85 1.80 1.83 1.83 1.88 1.82 1.55 1.43 1.26 1.21 1.16 1.18 1.21 1.21 1.11 1.16 1.12 1.11 1.14 1.15 1.19 1.19 1.19 1.22 1.39 1.58 1.70 1.83 1.79 1.72 1.60 1.43 1.29 1.22 1.19 1.16 1.19 1.13 1.00 0.91 0.86 0.73
2.16 2.15 2.17 2.17 2.09 2.05 2.01 1.66 1.46 1.27 1.29 1.27 1.30 1.25 1.19 1.06 1.01 0.96 0.96 1.04 1.02 1.03 1.11 1.14 1.15 1.25 1.39 1.52 1.68 1.65 1.55 1.55 1.41 1.27 1.14 1.13 1.11 1.14 1.18 1.03 0.87 0.75 0.67

GEFSMA_prec_meanprecacc_192.txt.gz
Total_Precipitation_Accumulation
2.03 2.00 1.87 1.84 1.60 1.66 1.97 2.28 2.18 2.32 2.50 2.35 2.06 1.92 1.83 1.66 1.63 1.57 1.69 1.89 1.80 1.88 2.17 2.25 2.20 2.06 1.98 1.81 1.64 1.55 1.48 1.36 1.14 0.86 0.70 0.66 0.60 0.51 0.46 0.44 0.40 0.37 0.32
2.27 2.25 2.04 1.96 1.67 1.64 1.87 2.14 2.17 2.35 2.40 2.41 2.01 1.83 1.75 1.80 1.77 1.63 1.70 1.90 1.87 1.71 1.87 2.19 2.40 2.44 2.31 2.17 1.93 1.72 1.59 1.50 1.27 0.94 0.74 0.69 0.65 0.59 0.59 0.61 0.53 0.40 0.30
2.49 2.44 2.27 1.99 1.85 1.92 2.02 2.04 2.11 2.49 2.34 2.23 2.03 2.03 1.98 1.94 1.80 1.73 1.69 1.86 1.69 1.60 1.61 1.78 2.10 2.37 2.63 2.61 2.36 2.14 1.85 1.59 1.31 1.01 0.80 0.66 0.60 0.58 0.60 0.61 0.62 0.49 0.33
2.46 2.57 2.24 1.88 2.02 2.18 2.20 2.19 2.22 2.44 2.45 2.51 2.42 2.27 2.10 1.95 1.54 1.46 1.49 1.55 1.68 1.43 1.56 1.77 1.90 2.02 2.46 2.82 2.94 2.90 2.42 1.90 1.49 1.15 0.92 0.75 0.67 0.62 0.56 0.52 0.51 0.50 0.38
1.89 1.95 1.65 1.55 1.70 1.80 1.69 1.62 1.93 2.13 2.22 2.32 2.21 2.05 1.76 1.61 1.43 1.33 1.36 1.20 1.30 1.34 1.41 1.63 1.82 1.85 2.28 2.91 3.47 3.68 3.33 2.66 2.03 1.53 1.29 1.14 0.98 0.79 0.64 0.56 0.53 0.50 0.41
1.47 1.56 1.30 1.23 1.44 1.57 1.56 1.67 1.80 1.80 1.74 1.80 1.60 1.45 1.34 1.16 1.16 1.14 1.01 1.00 1.00 1.00 1.20 1.48 1.69 1.49 1.96 2.68 3.27 3.58 3.65 3.25 2.61 2.13 1.90 1.66 1.47 1.15 0.80 0.63 0.57 0.52 0.43
1.48 1.58 1.32 1.42 1.46 1.49 1.50 1.54 1.61 1.54 1.33 1.47 1.70 1.50 1.21 1.05 1.01 0.91 0.86 0.90 0.83 0.90 1.12 1.36 1.54 1.64 1.53 1.65 2.13 2.64 3.26 3.59 3.20 2.67 2.42 2.18 1.98 1.60 1.14 0.90 0.71 0.58 0.50
1.35 1.37 1.37 1.15 1.18 1.29 1.20 1.23 1.47 1.47 1.25 1.32 1.58 1.66 1.43 1.35 1.13 0.70 0.73 0.79 0.80 0.93 1.08 1.16 1.42 1.66 1.63 1.82 1.48 1.69 2.49 3.14 3.46 3.35 2.96 2.47 2.12 1.75 1.41 1.22 0.96 0.76 0.66
1.12 1.14 1.12 1.09 1.16 1.13 1.18 1.22 1.28 1.36 1.28 1.16 1.24 1.59 1.49 1.30 1.09 0.85 0.75 0.73 0.85 1.03 1.11 1.22 1.26 1.36 1.49 1.81 1.80 1.59 1.88 2.09 2.91 3.55 3.41 2.73 2.04 1.61 1.45 1.46 1.36 1.08 0.91
1.09 1.01 0.99 0.96 1.03 1.05 1.22 1.05 1.11 1.21 1.24 1.08 1.08 1.16 1.16 1.20 1.21 1.09 0.90 0.81 0.85 1.00 1.14 1.17 1.28 1.40 1.43 1.57 1.79 1.64 1.44 1.47 1.99 2.72 3.11 2.99 2.43 1.83 1.54 1.65 1.95 1.88 1.46
1.09 1.02 1.00 1.03 1.04 1.01 1.04 1.07 1.19 1.14 1.11 1.06 1.06 1.10 1.19 1.19 1.12 1.14 1.12 0.98 0.88 0.78 0.88 1.08 1.25 1.37 1.37 1.48 1.78 1.70 1.56 1.44 1.35 1.57 2.07 2.46 2.49 2.19 1.88 1.96 2.45 2.79 2.62
1.14 1.14 1.08 1.11 1.06 1.03 1.03 1.03 1.08 1.07 1.12 1.16 1.08 1.07 1.22 1.28 1.19 1.19 1.13 1.03 0.94 0.77 0.78 0.98 1.26 1.42 1.42 1.41 1.28 1.25 1.31 1.28 1.17 1.14 1.29 1.55 1.86 2.04 2.09 2.27 2.67 3.12 3.39
1.07 1.17 1.15 1.11 1.10 1.09 1.05 1.05 1.04 1.01 1.10 1.22 1.15 1.05 1.05 1.07 1.15 1.19 1.16 1.05 1.02 0.91 1.03 1.04 1.08 1.26 1.26 1.35 1.35 1.22 1.01 0.97 0.88 0.87 1.00 1.14 1.36 1.64 1.84 2.00 2.33 2.70 2.99
1.05 1.12 1.12 1.04 0.99 0.99 0.98 1.10 1.01 1.00 1.12 1.20 1.15 1.30 1.21 1.07 1.19 1.23 1.24 1.29 1.21 1.18 1.31 1.22 1.12 1.16 1.23 1.32 1.32 1.16 0.92 0.93 0.84 0.76 0.73 0.73 0.82 0.96 1.11 1.27 1.45 1.69 1.92
1.08 1.11 1.02 1.02 1.00 0.96 0.97 1.06 1.04 1.08 1.16 1.14 1.21 1.39 1.39 1.27 1.23 1.25 1.34 1.51 1.64 1.50 1.38 1.28 1.17 1.10 1.17 1.25 1.25 1.07 0.97 1.01 0.90 0.76 0.69 0.68 0.70 0.75 0.80 0.82 0.85 0.93 0.98
1.09 1.15 1.14 1.04 1.04 1.04 1.08 1.17 1.15 1.15 1.26 1.32 1.46 1.56 1.55 1.48 1.46 1.38 1.41 1.50 1.63 1.68 1.49 1.20 1.17 1.12 1.10 0.96 1.03 0.93 0.88 0.98 0.84 0.76 0.72 0.70 0.67 0.69 0.70 0.70 0.67 0.70 0.74
1.02 1.04 1.07 1.09 1.09 1.13 1.30 1.54 1.51 1.44 1.46 1.52 1.61 1.72 1.75 1.82 1.81 1.63 1.57 1.52 1.54 1.67 1.50 1.25 1.22 1.17 1.03 0.90 0.90 0.86 0.83 0.84 0.80 0.82 0.73 0.66 0.61 0.60 0.62 0.64 0.65 0.65 0.66
0.93 0.85 0.90 0.98 0.97 1.07 1.29 1.60 1.73 1.70 1.68 1.62 1.70 1.92 1.93 1.89 1.80 1.67 1.68 1.60 1.58 1.71 1.63 1.45 1.42 1.33 1.24 1.09 1.01 0.97 0.84 0.81 0.83 0.96 0.86 0.73 0.67 0.63 0.60 0.58 0.59 0.61 0.65
0.97 0.96 0.99 1.00 1.08 1.15 1.20 1.37 1.55 1.62 1.65 1.64 1.75 1.82 1.83 1.88 1.80 1.73 1.65 1.62 1.60 1.74 1.83 1.70 1.68 1.66 1.51 1.34 1.25 1.12 0.98 0.96 0.82 0.84 0.85 0.78 0.73 0.69 0.66 0.65 0.65 0.64 0.61
1.07 1.08 1.11 1.15 1.21 1.24 1.24 1.32 1.46 1.55 1.61 1.65 1.75 1.82 1.83 1.82 1.88 1.96 1.85 1.80 1.85 1.92 1.99 1.94 1.87 1.95 1.87 1.65 1.47 1.30 1.14 1.04 0.95 0.79 0.82 0.84 0.79 0.70 0.63 0.58 0.55 0.55 0.59
1.13 1.17 1.27 1.29 1.28 1.21 1.16 1.36 1.49 1.50 1.62 1.70 1.71 1.68 1.73 1.90 1.99 2.00 1.85 1.86 1.97 1.96 1.93 1.95 1.91 2.00 2.00 1.85 1.56 1.31 1.22 1.18 1.10 0.95 0.88 0.76 0.74 0.72 0.68 0.67 0.66 0.63 0.59
1.25 1.33 1.40 1.42 1.36 1.18 1.35 1.48 1.50 1.52 1.60 1.65 1.66 1.59 1.52 1.56 1.65 1.73 1.69 1.63 1.67 1.74 1.81 1.82 1.84 1.89 1.93 1.84 1.65 1.46 1.34 1.23 1.17 1.13 1.14 1.09 0.96 0.95 0.83 0.73 0.76 0.73 0.68
1.37 1.39 1.40 1.42 1.40 1.45 1.47 1.35 1.30 1.22 1.28 1.35 1.36 1.33 1.16 1.09 1.31 1.39 1.53 1.52 1.42 1.39 1.41 1.55 1.67 1.70 1.83 1.88 1.83 1.62 1.54 1.44 1.28 1.24 1.28 1.28 1.20 1.08 0.90 0.86 0.94 0.81 0.78
1.60 1.59 1.50 1.51 1.58 1.58 1.55 1.34 1.25 1.13 1.13 1.15 1.15 1.11 1.10 1.09 1.15 1.25 1.31 1.32 1.28 1.23 1.23 1.24 1.35 1.54 1.71 1.87 1.87 1.77 1.72 1.60 1.41 1.29 1.28 1.31 1.23 1.14 1.00 0.95 1.01 0.91 0.84
1.87 1.86 1.82 1.85 1.87 1.92 1.85 1.57 1.43 1.26 1.21 1.17 1.19 1.22 1.22 1.13 1.18 1.14 1.13 1.16 1.17 1.22 1.22 1.22 1.24 1.42 1.60 1.72 1.85 1.80 1.73 1.62 1.45 1.32 1.25 1.23 1.19 1.22 1.16 1.03 0.93 0.88 0.75
2.17 2.16 2.18 2.19 2.11 2.07 2.03 1.67 1.46 1.27 1.30 1.28 1.32 1.27 1.21 1.08 1.04 0.98 0.99 1.06 1.04 1.04 1.14 1.17 1.18 1.28 1.41 1.54 1.69 1.66 1.57 1.57 1.43 1.30 1.17 1.16 1.14 1.17 1.20 1.05 0.89 0.77 0.69

GEFSMA_prec_meanprecacc_198.txt.gz
Total_Precipitation_Accumulation
2.07 2.05 1.92 1.91 1.64 1.69 2.02 2.34 2.25 2.39 2.55 2.39 2.11 1.97 1.88 1.71 1.67 1.60 1.72 1.92 1.82 1.90 2.19 2.28 2.23 2.08 2.00 1.83 1.65 1.56 1.49 1.37 1.16 0.87 0.71 0.67 0.62 0.52 0.46 0.45 0.41 0.38 0.33
2.31 2.28 2.08 2.00 1.72 1.69 1.93 2.20 2.22 2.41 2.45 2.47 2.09 1.88 1.81 1.87 1.81 1.66 1.72 1.93 1.90 1.74 1.90 2.22 2.43 2.47 2.34 2.20 1.96 1.74 1.61 1.53 1.29 0.96 0.76 0.70 0.67 0.61 0.60 0.62 0.54 0.41 0.31
2.52 2.48 2.31 2.03 1.91 1.97 2.06 2.07 2.14 2.53 2.40 2.30 2.10 2.08 2.02 1.97 1.83 1.76 1.73 1.89 1.71 1.63 1.64 1.81 2.13 2.40 2.67 2.65 2.41 2.18 1.89 1.63 1.34 1.04 0.84 0.70 0.63 0.60 0.62 0.63 0.64 0.51 0.34
2.49 2.61 2.26 1.90 2.05 2.21 2.24 2.22 2.25 2.48 2.50 2.59 2.49 2.32 2.14 1.99 1.57 1.48 1.51 1.58 1.70 1.46 1.58 1.80 1.93 2.05 2.51 2.88 2.99 2.96 2.47 1.94 1.52 1.18 0.96 0.79 0.71 0.66 0.60 0.56 0.55 0.53 0.41
1.91 1.98 1.68 1.57 1.72 1.83 1.73 1.65 1.95 2.16 2.27 2.38 2.28 2.11 1.82 1.66 1.47 1.37 1.39 1.24 1.33 1.37 1.44 1.66 1.84 1.88 2.32 2.97 3.54 3.75 3.39 2.71 2.08 1.57 1.32 1.17 1.03 0.84 0.69 0.60 0.56 0.53 0.44
1.51 1.59 1.33 1.26 1.47 1.60 1.59 1.69 1.83 1.83 1.78 1.85 1.66 1.52 1.41 1.23 1.24 1.20 1.06 1.06 1.06 1.06 1.26 1.53 1.73 1.51 2.00 2.75 3.34 3.65 3.72 3.32 2.68 2.19 1.95 1.72 1.53 1.21 0.86 0.67 0.61 0.55 0.46
1.52 1.62 1.36 1.46 1.49 1.51 1.52 1.57 1.64 1.57 1.37 1.52 1.76 1.58 1.29 1.15 1.09 1.00 0.95 1.02 0.94 0.99 1.23 1.46 1.63 1.71 1.60 1.71 2.18 2.69 3.33 3.67 3.28 2.75 2.49 2.26 2.07 1.68 1.20 0.94 0.75 0.61 0.53
1.41 1.41 1.41 1.20 1.21 1.31 1.22 1.26 1.51 1.50 1.28 1.39 1.68 1.75 1.51 1.45 1.24 0.80 0.82 0.89 0.90 1.02 1.17 1.27 1.54 1.77 1.71 1.89 1.52 1.73 2.55 3.22 3.55 3.44 3.05 2.57 2.22 1.85 1.51 1.29 1.03 0.81 0.70
1.19 1.20 1.16 1.13 1.20 1.16 1.20 1.25 1.33 1.40 1.32 1.24 1.36 1.72 1.60 1.39 1.19 0.97 0.89 0.84 0.95 1.13 1.19 1.29 1.33 1.43 1.55 1.85 1.85 1.64 1.93 2.14 3.00 3.67 3.53 2.85 2.14 1.71 1.54 1.56 1.44 1.15 0.97
1.15 1.06 1.05 1.01 1.07 1.08 1.25 1.10 1.16 1.27 1.29 1.15 1.19 1.30 1.33 1.36 1.32 1.18 1.03 0.94 1.00 1.12 1.23 1.25 1.37 1.47 1.51 1.63 1.85 1.69 1.48 1.52 2.06 2.83 3.25 3.13 2.55 1.92 1.63 1.74 2.03 1.96 1.53
1.12 1.05 1.05 1.08 1.08 1.05 1.08 1.11 1.26 1.21 1.17 1.12 1.13 1.20 1.32 1.34 1.24 1.24 1.19 1.05 0.99 0.89 1.02 1.24 1.41 1.58 1.54 1.61 1.92 1.83 1.69 1.57 1.47 1.69 2.22 2.61 2.62 2.31 2.00 2.06 2.55 2.90 2.74
1.15 1.17 1.13 1.17 1.11 1.07 1.06 1.06 1.13 1.13 1.17 1.22 1.14 1.12 1.29 1.36 1.28 1.28 1.19 1.07 0.99 0.84 0.87 1.10 1.43 1.70 1.70 1.70 1.54 1.48 1.53 1.51 1.35 1.25 1.38 1.66 1.98 2.15 2.20 2.39 2.80 3.27 3.56
1.09 1.21 1.19 1.17 1.16 1.16 1.11 1.10 1.10 1.06 1.14 1.27 1.20 1.10 1.10 1.12 1.19 1.24 1.21 1.08 1.05 0.96 1.11 1.13 1.22 1.42 1.50 1.59 1.56 1.44 1.25 1.21 1.07 1.01 1.09 1.22 1.43 1.70 1.90 2.06 2.41 2.79 3.10
1.06 1.15 1.18 1.11 1.08 1.07 1.04 1.19 1.09 1.05 1.16 1.24 1.20 1.35 1.26 1.12 1.25 1.30 1.31 1.35 1.26 1.24 1.37 1.28 1.19 1.24 1.34 1.45 1.48 1.37 1.10 1.08 0.96 0.85 0.80 0.78 0.86 1.00 1.15 1.30 1.50 1.74 1.98
1.09 1.13 1.05 1.09 1.08 1.03 1.04 1.16 1.14 1.16 1.22 1.19 1.26 1.44 1.44 1.32 1.30 1.33 1.43 1.59 1.72 1.58 1.44 1.34 1.23 1.15 1.22 1.33 1.34 1.18 1.11 1.19 1.05 0.86 0.77 0.74 0.75 0.79 0.83 0.86 0.91 0.98 1.04
1.10 1.16 1.17 1.07 1.07 1.07 1.14 1.26 1.23 1.21 1.31 1.37 1.51 1.62 1.60 1.54 1.52 1.44 1.47 1.57 1.70 1.75 1.54 1.27 1.24 1.18 1.16 1.03 1.12 1.01 0.97 1.10 0.99 0.90 0.83 0.77 0.72 0.73 0.74 0.74 0.72 0.74 0.79
1.03 1.07 1.09 1.10 1.10 1.16 1.34 1.58 1.53 1.48 1.50 1.56 1.65 1.77 1.79 1.88 1.87 1.69 1.62 1.58 1.63 1.75 1.58 1.33 1.29 1.23 1.10 0.98 0.98 0.93 0.88 0.88 0.85 0.90 0.81 0.73 0.67 0.64 0.65 0.67 0.68 0.68 0.68
0.95 0.88 0.92 0.98 0.98 1.09 1.31 1.62 1.75 1.75 1.75 1.67 1.74 1.96 1.97 1.94 1.85 1.72 1.73 1.65 1.61 1.76 1.68 1.51 1.48 1.38 1.29 1.14 1.07 1.02 0.88 0.85 0.88 1.02 0.92 0.77 0.70 0.66 0.62 0.61 0.61 0.63 0.67
1.00 0.98 1.00 1.01 1.09 1.17 1.23 1.42 1.60 1.68 1.71 1.68 1.80 1.86 1.86 1.92 1.83 1.77 1.69 1.65 1.62 1.76 1.87 1.74 1.71 1.69 1.56 1.39 1.29 1.16 1.02 1.00 0.86 0.88 0.88 0.80 0.75 0.70 0.68 0.67 0.67 0.66 0.64
1.10 1.11 1.12 1.16 1.23 1.27 1.27 1.36 1.49 1.59 1.64 1.69 1.78 1.85 1.87 1.86 1.91 1.99 1.87 1.83 1.87 1.94 2.01 1.97 1.90 1.99 1.91 1.70 1.52 1.34 1.17 1.07 0.97 0.80 0.83 0.85 0.80 0.73 0.66 0.61 0.58 0.58 0.61
1.17 1.20 1.30 1.32 1.31 1.25 1.19 1.39 1.53 1.53 1.64 1.72 1.74 1.70 1.76 1.93 2.01 2.03 1.88 1.88 1.99 1.98 1.95 1.97 1.94 2.03 2.04 1.90 1.60 1.34 1.25 1.21 1.13 0.98 0.90 0.79 0.77 0.75 0.72 0.71 0.69 0.66 0.61
1.28 1.37 1.43 1.45 1.39 1.21 1.39 1.52 1.53 1.54 1.62 1.67 1.68 1.61 1.54 1.57 1.67 1.76 1.72 1.65 1.69 1.76 1.82 1.84 1.86 1.91 1.96 1.86 1.68 1.49 1.37 1.27 1.22 1.17 1.18 1.12 0.98 0.97 0.86 0.76 0.80 0.76 0.71
1.40 1.43 1.43 1.45 1.43 1.48 1.52 1.39 1.33 1.24 1.30 1.37 1.38 1.34 1.17 1.10 1.32 1.40 1.54 1.53 1.43 1.40 1.43 1.56 1.68 1.71 1.84 1.89 1.85 1.66 1.59 1.49 1.32 1.28 1.31 1.30 1.21 1.10 0.92 0.88 0.96 0.84 0.80
1.62 1.61 1.53 1.54 1.62 1.63 1.60 1.38 1.28 1.15 1.14 1.16 1.16 1.11 1.11 1.10 1.15 1.26 1.32 1.33 1.29 1.25 1.24 1.26 1.36 1.55 1.72 1.88 1.88 1.79 1.74 1.62 1.43 1.32 1.31 1.33 1.25 1.16 1.02 0.96 1.02 0.92 0.85
1.88 1.88 1.83 1.87 1.89 1.93 1.87 1.58 1.45 1.27 1.22 1.17 1.19 1.23 1.23 1.13 1.19 1.15 1.14 1.16 1.17 1.23 1.23 1.23 1.25 1.43 1.61 1.73 1.86 1.82 1.75 1.65 1.48 1.34 1.27 1.24 1.21 1.24 1.17 1.04 0.94 0.89 0.75
2.19 2.18 2.20 2.20 2.12 2.08 2.04 1.68 1.47 1.28 1.31 1.28 1.33 1.28 1.21 1.08 1.04 0.98 0.99 1.07 1.05 1.06 1.15 1.18 1.19 1.29 1.42 1.55 1.70 1.67 1.58 1.59 1.45 1.32 1.18 1.17 1.15 1.19 1.22 1.06 0.90 0.78 0.69

GEFSMA_prec_meanprecacc_204.txt.gz
Total_Precipitation_Accumulation
2.09 2.06 1.92 1.93 1.67 1.72 2.04 2.35 2.27 2.42 2.58 2.41 2.13 2.00 1.91 1.75 1.71 1.63 1.75 1.96 1.87 1.95 2.25 2.33 2.28 2.13 2.05 1.87 1.68 1.59 1.53 1.41 1.20 0.90 0.73 0.69 0.63 0.53 0.49 0.47 0.43 0.38 0.34
2.34 2.30 2.10 2.03 1.75 1.71 1.95 2.23 2.25 2.44 2.47 2.50 2.13 1.92 1.84 1.90 1.85 1.68 1.74 1.96 1.97 1.80 1.96 2.29 2.51 2.56 2.43 2.26 2.01 1.79 1.67 1.59 1.34 0.99 0.79 0.74 0.69 0.63 0.63 0.65 0.57 0.43 0.32
2.55 2.50 2.33 2.06 1.94 2.01 2.10 2.12 2.19 2.57 2.43 2.34 2.14 2.12 2.05 2.00 1.85 1.78 1.75 1.91 1.74 1.67 1.69 1.87 2.20 2.48 2.75 2.74 2.48 2.26 1.96 1.69 1.39 1.11 0.90 0.75 0.67 0.64 0.66 0.67 0.67 0.54 0.37
2.53 2.63 2.29 1.94 2.08 2.25 2.30 2.28 2.30 2.52 2.54 2.63 2.54 2.37 2.17 2.00 1.58 1.50 1.53 1.60 1.72 1.47 1.61 1.86 1.99 2.12 2.59 2.95 3.07 3.03 2.54 2.01 1.58 1.24 1.01 0.85 0.78 0.73 0.65 0.60 0.59 0.58 0.45
1.95 2.01 1.71 1.61 1.76 1.86 1.76 1.68 1.98 2.19 2.31 2.44 2.32 2.16 1.85 1.68 1.49 1.39 1.41 1.26 1.36 1.40 1.46 1.70 1.90 1.94 2.40 3.06 3.64 3.84 3.47 2.79 2.15 1.63 1.39 1.25 1.12 0.94 0.78 0.69 0.64 0.60 0.51
1.55 1.63 1.37 1.30 1.50 1.63 1.61 1.71 1.85 1.86 1.83 1.91 1.73 1.59 1.45 1.27 1.27 1.25 1.11 1.11 1.11 1.11 1.30 1.56 1.76 1.55 2.06 2.83 3.44 3.75 3.82 3.43 2.77 2.27 2.04 1.81 1.62 1.30 0.93 0.75 0.69 0.64 0.55
1.56 1.67 1.43 1.53 1.56 1.57 1.57 1.61 1.67 1.59 1.39 1.56 1.81 1.63 1.33 1.19 1.14 1.05 1.01 1.08 1.00 1.04 1.28 1.51 1.68 1.76 1.64 1.76 2.25 2.77 3.43 3.80 3.40 2.85 2.59 2.35 2.16 1.77 1.28 1.01 0.81 0.68 0.60
1.47 1.47 1.47 1.26 1.28 1.37 1.28 1.31 1.55 1.53 1.30 1.43 1.72 1.79 1.55 1.49 1.28 0.83 0.87 0.96 0.98 1.10 1.27 1.36 1.61 1.82 1.76 1.92 1.57 1.79 2.65 3.35 3.70 3.58 3.17 2.66 2.29 1.92 1.58 1.37 1.10 0.88 0.77
1.22 1.23 1.20 1.17 1.25 1.20 1.23 1.28 1.37 1.44 1.35 1.28 1.39 1.76 1.63 1.41 1.22 1.01 0.94 0.92 1.05 1.23 1.30 1.41 1.42 1.50 1.62 1.92 1.93 1.71 2.01 2.25 3.14 3.82 3.68 2.97 2.24 1.78 1.60 1.63 1.51 1.22 1.05
1.17 1.08 1.08 1.04 1.11 1.12 1.29 1.14 1.19 1.30 1.32 1.18 1.23 1.35 1.38 1.39 1.35 1.20 1.05 0.98 1.05 1.18 1.31 1.33 1.46 1.55 1.59 1.72 1.95 1.79 1.57 1.60 2.15 2.97 3.41 3.30 2.71 2.03 1.71 1.82 2.11 2.04 1.60
1.14 1.07 1.06 1.10 1.11 1.09 1.11 1.15 1.30 1.25 1.21 1.16 1.16 1.24 1.37 1.38 1.27 1.26 1.21 1.08 1.02 0.93 1.07 1.31 1.50 1.67 1.64 1.70 2.02 1.92 1.78 1.66 1.57 1.80 2.36 2.77 2.79 2.49 2.17 2.21 2.68 3.03 2.84
1.17 1.20 1.16 1.20 1.15 1.12 1.12 1.12 1.18 1.18 1.21 1.25 1.17 1.15 1.31 1.40 1.31 1.30 1.21 1.09 1.01 0.86 0.91 1.14 1.50 1.79 1.82 1.80 1.64 1.58 1.63 1.62 1.48 1.38 1.49 1.79 2.14 2.32 2.35 2.54 2.96 3.43 3.71
1.10 1.23 1.24 1.22 1.22 1.22 1.17 1.17 1.16 1.11 1.19 1.30 1.22 1.13 1.13 1.16 1.23 1.27 1.24 1.10 1.06 0.98 1.14 1.17 1.27 1.47 1.56 1.65 1.63 1.53 1.35 1.31 1.18 1.11 1.18 1.29 1.51 1.78 1.98 2.13 2.49 2.89 3.21
1.08 1.18 1.25 1.21 1.16 1.12 1.10 1.26 1.16 1.11 1.20 1.27 1.22 1.39 1.31 1.16 1.29 1.35 1.35 1.38 1.29 1.25 1.40 1.33 1.23 1.27 1.38 1.49 1.53 1.43 1.15 1.14 1.02 0.92 0.87 0.84 0.91 1.04 1.20 1.35 1.55 1.79 2.03
1.12 1.16 1.09 1.14 1.15 1.10 1.10 1.21 1.19 1.19 1.24 1.22 1.29 1.47 1.46 1.36 1.36 1.39 1.49 1.64 1.76 1.61 1.47 1.39 1.28 1.20 1.26 1.37 1.41 1.23 1.16 1.24 1.12 0.93 0.86 0.83 0.81 0.83 0.87 0.91 0.95 1.02 1.08
1.12 1.18 1.19 1.09 1.09 1.10 1.16 1.28 1.26 1.25 1.35 1.42 1.55 1.64 1.62 1.58 1.57 1.49 1.53 1.62 1.75 1.79 1.58 1.33 1.30 1.25 1.21 1.08 1.19 1.06 1.03 1.17 1.07 0.98 0.91 0.86 0.81 0.80 0.79 0.79 0.76 0.78 0.82
1.05 1.09 1.11 1.12 1.11 1.17 1.35 1.60 1.55 1.50 1.53 1.59 1.68 1.79 1.82 1.92 1.92 1.74 1.67 1.63 1.67 1.79 1.62 1.38 1.34 1.29 1.15 1.03 1.03 0.97 0.92 0.93 0.90 0.96 0.87 0.80 0.73 0.70 0.71 0.72 0.71 0.71 0.71
0.98 0.89 0.93 0.99 0.99 1.10 1.32 1.63 1.77 1.77 1.78 1.70 1.77 1.99 2.00 1.97 1.88 1.76 1.77 1.69 1.66 1.80 1.74 1.55 1.52 1.42 1.32 1.17 1.10 1.04 0.90 0.87 0.91 1.08 0.98 0.84 0.75 0.70 0.66 0.64 0.64 0.66 0.70
1.03 0.99 1.00 1.02 1.10 1.18 1.24 1.43 1.62 1.69 1.73 1.70 1.81 1.87 1.87 1.94 1.85 1.79 1.71 1.67 1.65 1.78 1.89 1.76 1.73 1.71 1.57 1.40 1.31 1.17 1.04 1.03 0.89 0.92 0.92 0.84 0.78 0.72 0.70 0.69 0.70 0.69 0.67
1.12 1.12 1.13 1.18 1.24 1.28 1.28 1.37 1.51 1.61 1.66 1.70 1.80 1.86 1.88 1.87 1.92 2.02 1.90 1.84 1.89 1.95 2.02 1.98 1.91 2.00 1.92 1.71 1.54 1.35 1.19 1.09 1.00 0.83 0.86 0.87 0.82 0.74 0.68 0.63 0.61 0.61 0.64
1.20 1.23 1.33 1.34 1.32 1.25 1.20 1.40 1.54 1.55 1.67 1.75 1.75 1.72 1.77 1.95 2.04 2.06 1.91 1.91 2.02 2.00 1.97 1.99 1.95 2.05 2.06 1.92 1.62 1.37 1.28 1.24 1.16 1.01 0.93 0.81 0.79 0.77 0.75 0.74 0.73 0.71 0.65
1.31 1.39 1.46 1.47 1.40 1.22 1.40 1.53 1.54 1.56 1.65 1.70 1.71 1.64 1.56 1.60 1.70 1.79 1.75 1.70 1.75 1.80 1.86 1.87 1.88 1.93 1.97 1.89 1.70 1.52 1.39 1.29 1.24 1.20 1.21 1.15 1.02 1.00 0.89 0.79 0.83 0.79 0.74
1.41 1.44 1.45 1.46 1.44 1.50 1.54 1.42 1.36 1.28 1.33 1.41 1.41 1.38 1.21 1.13 1.34 1.42 1.56 1.54 1.45 1.41 1.44 1.58 1.70 1.73 1.86 1.91 1.87 1.67 1.60 1.50 1.34 1.30 1.33 1.33 1.24 1.12 0.93 0.89 0.98 0.85 0.81
1.63 1.62 1.54 1.55 1.64 1.67 1.65 1.43 1.32 1.19 1.18 1.19 1.18 1.14 1.13 1.11 1.17 1.26 1.33 1.34 1.29 1.25 1.25 1.26 1.37 1.56 1.73 1.88 1.89 1.80 1.75 1.64 1.45 1.33 1.33 1.35 1.26 1.17 1.02 0.97 1.02 0.93 0.86
1.90 1.90 1.86 1.90 1.91 1.97 1.94 1.64 1.49 1.30 1.25 1.19 1.21 1.26 1.25 1.14 1.19 1.16 1.15 1.17 1.18 1.23 1.24 1.23 1.26 1.43 1.62 1.73 1.87 1.82 1.76 1.66 1.49 1.35 1.29 1.26 1.22 1.25 1.18 1.05 0.95 0.90 0.76
2.21 2.21 2.23 2.23 2.15 2.11 2.06 1.71 1.50 1.30 1.32 1.30 1.34 1.30 1.23 1.09 1.05 0.99 0.99 1.07 1.05 1.06 1.16 1.19 1.19 1.29 1.42 1.55 1.71 1.68 1.59 1.60 1.46 1.33 1.20 1.20 1.18 1.20 1.23 1.07 0.90 0.78 0.70

GEFSMA_prec_meanprecacc_210.txt.gz
Total_Precipitation_Accumulation
2.14 2.10 1.98 1.98 1.71 1.77 2.10 2.41 2.33 2.47 2.63 2.46 2.17 2.04 1.95 1.78 1.75 1.69 1.83 2.03 1.94 2.01 2.31 2.40 2.33 2.17 2.09 1.89 1.70 1.61 1.56 1.47 1.25 0.93 0.77 0.72 0.66 0.56 0.51 0.51 0.45 0.41 0.36
2.38 2.34 2.15 2.09 1.79 1.76 1.99 2.27 2.30 2.50 2.55 2.57 2.19 1.97 1.88 1.93 1.89 1.73 1.80 2.03 2.04 1.84 2.00 2.34 2.57 2.62 2.48 2.31 2.06 1.82 1.71 1.64 1.38 1.02 0.83 0.77 0.72 0.66 0.66 0.69 0.60 0.46 0.35
2.59 2.54 2.38 2.12 2.00 2.07 2.15 2.16 2.25 2.64 2.50 2.41 2.21 2.17 2.09 2.04 1.89 1.82 1.78 1.96 1.79 1.70 1.72 1.91 2.26 2.54 2.81 2.81 2.56 2.31 2.01 1.73 1.43 1.15 0.94 0.78 0.71 0.68 0.70 0.71 0.71 0.57 0.39
2.57 2.68 2.34 1.99 2.15 2.32 2.37 2.36 2.40 2.60 2.60 2.69 2.59 2.42 2.21 2.05 1.62 1.54 1.56 1.63 1.76 1.51 1.66 1.90 2.04 2.17 2.65 3.04 3.18 3.13 2.61 2.08 1.65 1.30 1.06 0.90 0.83 0.78 0.70 0.65 0.64 0.62 0.50
1.99 2.06 1.79 1.69 1.82 1.93 1.84 1.75 2.06 2.27 2.40 2.54 2.38 2.21 1.89 1.72 1.52 1.42 1.45 1.29 1.40 1.44 1.53 1.75 1.94 1.98 2.45 3.14 3.75 3.94 3.58 2.89 2.24 1.71 1.46 1.32 1.18 1.00 0.83 0.73 0.68 0.65 0.56
1.59 1.68 1.44 1.38 1.56 1.70 1.71 1.81 1.96 1.95 1.91 2.00 1.79 1.63 1.49 1.30 1.30 1.28 1.14 1.14 1.14 1.13 1.33 1.60 1.81 1.59 2.09 2.88 3.51 3.83 3.93 3.54 2.85 2.33 2.10 1.87 1.68 1.35 0.97 0.78 0.72 0.67 0.59
1.59 1.73 1.49 1.59 1.62 1.65 1.64 1.68 1.76 1.66 1.45 1.62 1.87 1.68 1.36 1.21 1.16 1.07 1.03 1.12 1.03 1.07 1.31 1.55 1.74 1.82 1.68 1.79 2.28 2.82 3.51 3.90 3.49 2.93 2.66 2.41 2.22 1.83 1.34 1.05 0.85 0.72 0.64
1.51 1.52 1.54 1.31 1.34 1.45 1.35 1.39 1.64 1.61 1.38 1.48 1.79 1.86 1.61 1.52 1.30 0.85 0.89 0.99 1.02 1.15 1.32 1.41 1.66 1.90 1.82 1.99 1.63 1.83 2.70 3.43 3.79 3.68 3.27 2.74 2.36 1.99 1.64 1.43 1.16 0.93 0.81
1.25 1.27 1.26 1.23 1.32 1.26 1.30 1.37 1.45 1.53 1.43 1.34 1.46 1.85 1.72 1.49 1.28 1.05 0.96 0.94 1.08 1.30 1.39 1.50 1.50 1.59 1.71 2.01 2.01 1.78 2.07 2.32 3.23 3.92 3.79 3.06 2.31 1.84 1.67 1.69 1.57 1.28 1.11
1.20 1.10 1.12 1.10 1.17 1.18 1.36 1.20 1.23 1.38 1.41 1.26 1.31 1.43 1.46 1.47 1.43 1.26 1.09 1.00 1.07 1.20 1.34 1.38 1.52 1.64 1.70 1.82 2.04 1.86 1.63 1.66 2.22 3.04 3.50 3.40 2.79 2.10 1.77 1.88 2.18 2.10 1.66
1.18 1.08 1.09 1.14 1.16 1.14 1.19 1.22 1.36 1.33 1.30 1.25 1.25 1.32 1.44 1.44 1.34 1.33 1.27 1.13 1.06 0.97 1.11 1.35 1.53 1.71 1.69 1.76 2.08 1.97 1.83 1.71 1.62 1.86 2.42 2.85 2.88 2.59 2.29 2.34 2.80 3.14 2.96
1.21 1.22 1.18 1.23 1.20 1.18 1.19 1.19 1.25 1.27 1.29 1.33 1.25 1.23 1.40 1.48 1.40 1.40 1.31 1.17 1.08 0.92 0.96 1.19 1.54 1.83 1.85 1.84 1.67 1.61 1.66 1.66 1.53 1.44 1.57 1.88 2.24 2.41 2.48 2.70 3.12 3.59 3.86
1.13 1.26 1.28 1.28 1.31 1.31 1.24 1.23 1.22 1.17 1.25 1.38 1.30 1.20 1.22 1.24 1.32 1.37 1.35 1.18 1.12 1.02 1.17 1.20 1.30 1.50 1.58 1.68 1.66 1.56 1.39 1.38 1.26 1.21 1.29 1.40 1.60 1.85 2.05 2.20 2.57 2.98 3.32
1.10 1.21 1.30 1.28 1.24 1.19 1.15 1.30 1.19 1.15 1.25 1.32 1.26 1.44 1.36 1.21 1.37 1.45 1.45 1.48 1.35 1.30 1.45 1.38 1.28 1.30 1.40 1.51 1.56 1.46 1.19 1.18 1.08 1.00 0.94 0.90 0.96 1.09 1.24 1.39 1.59 1.84 2.08
1.13 1.18 1.13 1.19 1.21 1.15 1.15 1.25 1.22 1.24 1.29 1.26 1.34 1.52 1.51 1.40 1.42 1.46 1.57 1.72 1.83 1.67 1.52 1.44 1.34 1.24 1.30 1.41 1.44 1.26 1.19 1.29 1.16 0.98 0.91 0.87 0.87 0.91 0.94 0.97 1.02 1.09 1.15
1.14 1.21 1.22 1.12 1.12 1.13 1.19 1.31 1.29 1.27 1.38 1.45 1.59 1.69 1.67 1.63 1.61 1.53 1.57 1.67 1.82 1.86 1.63 1.37 1.35 1.30 1.26 1.11 1.22 1.10 1.07 1.22 1.12 1.03 0.97 0.92 0.87 0.88 0.90 0.89 0.85 0.87 0.90
1.07 1.12 1.14 1.14 1.13 1.19 1.37 1.62 1.58 1.52 1.55 1.61 1.70 1.83 1.87 1.97 1.96 1.78 1.71 1.67 1.71 1.83 1.65 1.42 1.39 1.34 1.21 1.09 1.09 1.03 0.98 0.97 0.94 1.00 0.92 0.85 0.79 0.76 0.80 0.82 0.81 0.79 0.77
1.00 0.91 0.94 1.00 1.00 1.11 1.33 1.65 1.79 1.78 1.79 1.71 1.79 2.01 2.03 2.01 1.92 1.81 1.83 1.74 1.70 1.84 1.77 1.59 1.56 1.46 1.36 1.22 1.15 1.09 0.93 0.89 0.93 1.11 1.02 0.88 0.80 0.75 0.71 0.69 0.69 0.70 0.73
1.05 1.01 1.02 1.03 1.12 1.19 1.25 1.45 1.63 1.70 1.74 1.71 1.83 1.89 1.90 1.97 1.89 1.83 1.76 1.72 1.68 1.82 1.93 1.79 1.75 1.73 1.59 1.42 1.33 1.19 1.05 1.05 0.91 0.93 0.94 0.86 0.80 0.74 0.71 0.70 0.71 0.70 0.68
1.15 1.16 1.16 1.19 1.26 1.30 1.30 1.39 1.53 1.63 1.68 1.72 1.81 1.88 1.90 1.91 1.96 2.06 1.93 1.88 1.93 2.00 2.05 2.01 1.93 2.02 1.93 1.72 1.55 1.36 1.20 1.11 1.02 0.84 0.87 0.89 0.85 0.76 0.69 0.64 0.62 0.62 0.66
1.24 1.28 1.34 1.34 1.33 1.27 1.22 1.43 1.57 1.57 1.70 1.77 1.78 1.74 1.80 1.99 2.08 2.10 1.94 1.94 2.05 2.03 1.98 2.01 1.97 2.07 2.09 1.95 1.65 1.39 1.30 1.26 1.18 1.02 0.95 0.84 0.82 0.80 0.78 0.77 0.75 0.73 0.67
1.32 1.40 1.47 1.48 1.41 1.23 1.41 1.54 1.56 1.58 1.67 1.73 1.74 1.67 1.59 1.62 1.72 1.81 1.78 1.72 1.76 1.81 1.87 1.89 1.91 1.98 2.03 1.93 1.74 1.54 1.42 1.31 1.27 1.22 1.23 1.18 1.04 1.04 0.92 0.82 0.86 0.82 0.77
1.43 1.46 1.46 1.47 1.44 1.51 1.55 1.42 1.37 1.29 1.35 1.43 1.43 1.40 1.23 1.15 1.36 1.44 1.57 1.56 1.46 1.43 1.46 1.59 1.72 1.76 1.89 1.94 1.89 1.69 1.63 1.52 1.36 1.32 1.35 1.35 1.25 1.14 0.96 0.92 1.01 0.88 0.84
1.64 1.63 1.56 1.57 1.65 1.68 1.67 1.44 1.33 1.20 1.20 1.21 1.20 1.17 1.16 1.14 1.19 1.29 1.35 1.36 1.31 1.27 1.26 1.27 1.38 1.57 1.74 1.89 1.90 1.82 1.78 1.66 1.47 1.35 1.35 1.37 1.27 1.18 1.04 0.99 1.05 0.95 0.87
1.91 1.91 1.88 1.92 1.94 2.00 1.97 1.68 1.54 1.33 1.28 1.23 1.24 1.29 1.28 1.18 1.24 1.20 1.18 1.20 1.20 1.25 1.25 1.24 1.26 1.44 1.62 1.74 1.87 1.84 1.77 1.67 1.50 1.36 1.29 1.27 1.23 1.26 1.19 1.06 0.96 0.91 0.77
2.24 2.24 2.28 2.29 2.22 2.19 2.14 1.79 1.60 1.38 1.39 1.37 1.41 1.36 1.29 1.14 1.09 1.04 1.04 1.10 1.07 1.07 1.16 1.19 1.20 1.29 1.43 1.55 1.71 1.68 1.60 1.61 1.47 1.34 1.20 1.21 1.19 1.21 1.24 1.08 0.91 0.79 0.71

GEFSMA_prec_meanprecacc_216.txt.gz
Total_Precipitation_Accumulation
2.21 2.15 2.03 2.05 1.77 1.82 2.16 2.50 2.39 2.53 2.68 2.50 2.20 2.05 1.97 1.80 1.77 1.71 1.87 2.07 1.97 2.03 2.33 2.42 2.36 2.19 2.10 1.91 1.72 1.63 1.58 1.49 1.26 0.94 0.78 0.74 0.68 0.58 0.54 0.53 0.48 0.43 0.39
2.45 2.41 2.21 2.16 1.85 1.81 2.05 2.34 2.35 2.56 2.59 2.61 2.23 2.00 1.90 1.95 1.91 1.76 1.86 2.09 2.08 1.87 2.03 2.37 2.60 2.66 2.50 2.33 2.08 1.84 1.74 1.68 1.41 1.04 0.85 0.80 0.76 0.68 0.68 0.72 0.63 0.48 0.37
2.65 2.61 2.45 2.18 2.06 2.13 2.21 2.22 2.30 2.69 2.53 2.44 2.24 2.20 2.11 2.06 1.94 1.85 1.84 2.04 1.85 1.74 1.74 1.92 2.28 2.57 2.85 2.85 2.60 2.35 2.05 1.77 1.46 1.18 0.96 0.81 0.73 0.70 0.72 0.74 0.73 0.59 0.42
2.61 2.74 2.41 2.06 2.21 2.37 2.44 2.42 2.44 2.65 2.65 2.73 2.63 2.45 2.23 2.08 1.67 1.59 1.63 1.70 1.84 1.57 1.69 1.92 2.07 2.19 2.69 3.09 3.24 3.19 2.65 2.11 1.68 1.33 1.10 0.92 0.86 0.81 0.73 0.68 0.67 0.65 0.53
2.01 2.10 1.85 1.77 1.88 1.99 1.91 1.81 2.12 2.34 2.46 2.59 2.42 2.25 1.91 1.74 1.56 1.48 1.52 1.35 1.49 1.56 1.61 1.77 1.97 2.01 2.48 3.18 3.80 4.00 3.62 2.93 2.27 1.74 1.48 1.34 1.21 1.03 0.86 0.75 0.71 0.69 0.60
1.62 1.72 1.50 1.44 1.64 1.79 1.80 1.90 2.05 2.04 1.99 2.08 1.84 1.70 1.54 1.32 1.33 1.32 1.18 1.19 1.20 1.19 1.41 1.67 1.88 1.64 2.13 2.92 3.56 3.89 3.99 3.60 2.91 2.38 2.13 1.90 1.71 1.38 1.00 0.82 0.77 0.72 0.63
1.62 1.79 1.56 1.67 1.69 1.74 1.74 1.77 1.85 1.74 1.53 1.70 1.97 1.78 1.43 1.25 1.20 1.11 1.08 1.17 1.08 1.12 1.35 1.61 1.82 1.92 1.76 1.85 2.34 2.88 3.57 3.98 3.57 3.01 2.72 2.47 2.27 1.87 1.38 1.10 0.89 0.76 0.68
1.54 1.57 1.62 1.39 1.41 1.54 1.46 1.48 1.74 1.70 1.47 1.57 1.88 1.99 1.74 1.65 1.40 0.91 0.95 1.05 1.07 1.21 1.38 1.46 1.74 2.03 1.97 2.13 1.71 1.89 2.76 3.50 3.87 3.77 3.36 2.82 2.42 2.05 1.70 1.48 1.20 0.98 0.87
1.28 1.32 1.31 1.30 1.40 1.35 1.39 1.46 1.54 1.64 1.53 1.43 1.54 1.95 1.86 1.65 1.41 1.15 1.04 1.00 1.14 1.38 1.46 1.58 1.62 1.73 1.85 2.16 2.15 1.87 2.14 2.40 3.32 4.03 3.89 3.16 2.40 1.91 1.73 1.75 1.64 1.34 1.16
1.24 1.14 1.17 1.15 1.23 1.24 1.45 1.26 1.32 1.50 1.53 1.37 1.40 1.52 1.56 1.60 1.58 1.39 1.18 1.06 1.13 1.26 1.41 1.45 1.58 1.70 1.77 1.93 2.18 1.95 1.70 1.72 2.28 3.11 3.57 3.47 2.86 2.16 1.84 1.95 2.24 2.16 1.72
1.23 1.12 1.15 1.21 1.23 1.22 1.27 1.29 1.47 1.46 1.42 1.38 1.36 1.42 1.53 1.57 1.47 1.47 1.41 1.20 1.12 1.02 1.16 1.41 1.60 1.76 1.74 1.84 2.18 2.05 1.90 1.76 1.64 1.88 2.45 2.88 2.94 2.67 2.37 2.43 2.90 3.24 3.06
1.25 1.25 1.22 1.29 1.28 1.26 1.26 1.27 1.35 1.36 1.40 1.45 1.37 1.34 1.50 1.60 1.53 1.55 1.45 1.27 1.16 0.97 1.00 1.25 1.61 1.88 1.91 1.91 1.73 1.67 1.72 1.70 1.55 1.45 1.58 1.90 2.28 2.49 2.59 2.84 3.26 3.73 3.98
1.15 1.28 1.30 1.31 1.36 1.37 1.30 1.31 1.30 1.25 1.34 1.47 1.39 1.31 1.31 1.31 1.42 1.49 1.47 1.29 1.21 1.09 1.25 1.27 1.36 1.55 1.63 1.72 1.71 1.64 1.45 1.43 1.30 1.24 1.32 1.45 1.68 1.95 2.16 2.33 2.70 3.12 3.43
1.11 1.23 1.32 1.30 1.27 1.22 1.19 1.37 1.27 1.23 1.34 1.40 1.34 1.53 1.45 1.26 1.43 1.54 1.56 1.60 1.45 1.40 1.54 1.45 1.32 1.34 1.43 1.55 1.62 1.50 1.23 1.23 1.13 1.03 0.98 0.95 1.01 1.15 1.32 1.48 1.68 1.93 2.16
1.15 1.20 1.15 1.21 1.22 1.17 1.19 1.31 1.30 1.31 1.36 1.33 1.41 1.60 1.57 1.45 1.47 1.52 1.65 1.82 1.94 1.77 1.61 1.51 1.38 1.27 1.33 1.46 1.50 1.30 1.23 1.32 1.18 1.00 0.93 0.90 0.90 0.94 1.00 1.03 1.07 1.14 1.21
1.17 1.23 1.24 1.14 1.14 1.16 1.24 1.35 1.34 1.33 1.43 1.50 1.64 1.74 1.73 1.69 1.68 1.59 1.64 1.76 1.93 1.97 1.72 1.43 1.39 1.33 1.30 1.17 1.28 1.15 1.12 1.25 1.14 1.05 1.00 0.95 0.91 0.93 0.95 0.95 0.92 0.92 0.94
1.10 1.14 1.17 1.17 1.17 1.23 1.40 1.65 1.61 1.55 1.58 1.64 1.73 1.87 1.92 2.05 2.03 1.84 1.78 1.75 1.80 1.92 1.72 1.46 1.43 1.38 1.25 1.12 1.12 1.06 1.00 1.00 0.98 1.04 0.94 0.87 0.81 0.79 0.82 0.85 0.85 0.83 0.80
1.02 0.95 0.99 1.05 1.04 1.14 1.36 1.68 1.81 1.81 1.81 1.74 1.82 2.05 2.08 2.08 2.00 1.89 1.90 1.82 1.78 1.92 1.84 1.65 1.62 1.51 1.40 1.24 1.17 1.12 0.97 0.93 0.96 1.15 1.05 0.91 0.82 0.78 0.75 0.72 0.70 0.71 0.74
1.08 1.07 1.08 1.09 1.19 1.24 1.28 1.47 1.65 1.73 1.76 1.73 1.86 1.93 1.95 2.03 1.95 1.90 1.83 1.78 1.74 1.89 2.01 1.86 1.82 1.79 1.65 1.46 1.36 1.22 1.09 1.09 0.94 0.96 0.96 0.88 0.82 0.76 0.73 0.71 0.72 0.71 0.69
1.19 1.22 1.21 1.24 1.33 1.35 1.32 1.41 1.55 1.65 1.70 1.74 1.84 1.91 1.96 1.96 2.01 2.11 2.00 1.95 2.00 2.08 2.14 2.08 1.99 2.07 1.99 1.77 1.59 1.40 1.25 1.16 1.07 0.88 0.90 0.90 0.86 0.78 0.71 0.65 0.63 0.63 0.67
1.25 1.31 1.37 1.36 1.35 1.29 1.25 1.45 1.60 1.60 1.73 1.80 1.81 1.78 1.85 2.03 2.11 2.14 1.98 2.00 2.11 2.09 2.05 2.07 2.03 2.12 2.13 1.99 1.70 1.44 1.34 1.31 1.22 1.06 0.98 0.86 0.84 0.82 0.80 0.79 0.77 0.74 0.69
1.33 1.41 1.48 1.50 1.42 1.24 1.42 1.55 1.58 1.61 1.70 1.76 1.77 1.70 1.62 1.65 1.73 1.83 1.81 1.75 1.79 1.85 1.90 1.92 1.95 2.01 2.06 1.97 1.78 1.59 1.47 1.36 1.31 1.26 1.27 1.20 1.06 1.05 0.94 0.83 0.88 0.84 0.79
1.43 1.47 1.48 1.48 1.46 1.53 1.57 1.43 1.38 1.31 1.38 1.47 1.47 1.43 1.25 1.17 1.38 1.46 1.59 1.58 1.47 1.44 1.47 1.61 1.74 1.78 1.92 1.97 1.92 1.74 1.67 1.57 1.41 1.36 1.38 1.36 1.27 1.15 0.97 0.93 1.02 0.89 0.85
1.65 1.64 1.56 1.57 1.67 1.69 1.68 1.45 1.34 1.21 1.22 1.24 1.23 1.19 1.18 1.16 1.21 1.30 1.37 1.37 1.32 1.28 1.27 1.28 1.39 1.58 1.76 1.92 1.94 1.86 1.82 1.69 1.50 1.38 1.37 1.38 1.28 1.19 1.05 0.99 1.05 0.95 0.88
1.92 1.91 1.88 1.93 1.95 2.01 1.98 1.69 1.55 1.35 1.30 1.25 1.26 1.31 1.32 1.21 1.26 1.22 1.20 1.21 1.21 1.26 1.26 1.25 1.27 1.45 1.63 1.75 1.89 1.86 1.80 1.70 1.52 1.38 1.31 1.28 1.24 1.27 1.20 1.07 0.97 0.91 0.77
2.24 2.25 2.28 2.30 2.24 2.20 2.15 1.80 1.63 1.42 1.43 1.41 1.44 1.39 1.32 1.17 1.12 1.07 1.06 1.13 1.09 1.09 1.18 1.21 1.22 1.32 1.44 1.56 1.72 1.69 1.62 1.64 1.50 1.36 1.22 1.22 1.19 1.22 1.24 1.08 0.91 0.79 0.71

GEFSMA_prec_meanprecacc_222.txt.gz
Total_Precipitation_Accumulation
2.27 2.21 2.09 2.10 1.82 1.86 2.21 2.56 2.45 2.57 2.72 2.54 2.24 2.09 2.00 1.86 1.82 1.76 1.93 2.13 2.01 2.08 2.39 2.47 2.40 2.23 2.13 1.93 1.75 1.66 1.60 1.52 1.28 0.96 0.81 0.76 0.70 0.59 0.55 0.55 0.50 0.45 0.41
2.50 2.45 2.26 2.21 1.90 1.85 2.09 2.39 2.41 2.62 2.64 2.65 2.27 2.02 1.92 2.00 1.97 1.81 1.90 2.13 2.13 1.92 2.07 2.41 2.64 2.69 2.54 2.36 2.11 1.86 1.76 1.69 1.43 1.07 0.87 0.82 0.78 0.70 0.71 0.74 0.65 0.51 0.40
2.69 2.63 2.48 2.22 2.11 2.19 2.26 2.26 2.35 2.74 2.58 2.48 2.29 2.23 2.13 2.10 1.98 1.88 1.88 2.07 1.88 1.78 1.79 1.96 2.33 2.63 2.89 2.88 2.63 2.38 2.07 1.79 1.49 1.20 0.98 0.84 0.76 0.72 0.74 0.77 0.77 0.62 0.45
2.63 2.76 2.43 2.09 2.25 2.42 2.49 2.47 2.49 2.69 2.69 2.79 2.68 2.49 2.27 2.12 1.70 1.61 1.65 1.73 1.87 1.61 1.74 1.97 2.11 2.24 2.75 3.15 3.30 3.24 2.70 2.15 1.71 1.36 1.12 0.94 0.88 0.83 0.75 0.71 0.70 0.68 0.56
2.03 2.12 1.88 1.80 1.90 2.02 1.95 1.85 2.17 2.38 2.50 2.66 2.49 2.31 1.97 1.80 1.61 1.52 1.56 1.40 1.54 1.61 1.68 1.84 2.03 2.08 2.54 3.24 3.88 4.08 3.69 2.99 2.31 1.77 1.51 1.37 1.24 1.06 0.88 0.77 0.74 0.73 0.64
1.64 1.74 1.52 1.46 1.66 1.81 1.83 1.93 2.08 2.07 2.03 2.13 1.89 1.76 1.62 1.39 1.41 1.41 1.26 1.26 1.28 1.28 1.51 1.76 1.95 1.68 2.18 2.99 3.64 3.98 4.07 3.69 2.99 2.44 2.19 1.96 1.78 1.44 1.04 0.85 0.80 0.76 0.67
1.66 1.82 1.58 1.69 1.72 1.77 1.78 1.81 1.87 1.77 1.56 1.74 2.03 1.85 1.51 1.34 1.28 1.22 1.18 1.28 1.20 1.23 1.44 1.68 1.89 1.98 1.81 1.90 2.39 2.94 3.65 4.07 3.67 3.11 2.81 2.55 2.34 1.93 1.42 1.13 0.93 0.81 0.73
1.59 1.61 1.65 1.42 1.44 1.57 1.50 1.52 1.77 1.73 1.50 1.60 1.92 2.04 1.82 1.74 1.48 1.01 1.07 1.22 1.22 1.33 1.48 1.56 1.85 2.13 2.05 2.19 1.76 1.94 2.83 3.59 3.98 3.90 3.48 2.93 2.52 2.13 1.76 1.53 1.25 1.03 0.92
1.33 1.37 1.36 1.33 1.43 1.38 1.43 1.51 1.58 1.67 1.57 1.47 1.58 2.00 1.92 1.71 1.47 1.26 1.18 1.15 1.28 1.51 1.57 1.69 1.72 1.84 1.94 2.25 2.22 1.94 2.21 2.47 3.43 4.16 4.03 3.30 2.52 2.01 1.81 1.83 1.72 1.40 1.22
1.27 1.17 1.19 1.18 1.26 1.27 1.49 1.33 1.39 1.55 1.57 1.42 1.47 1.59 1.64 1.67 1.64 1.44 1.25 1.16 1.22 1.35 1.50 1.54 1.70 1.82 1.88 2.03 2.28 2.04 1.79 1.79 2.39 3.24 3.69 3.59 2.95 2.24 1.91 2.03 2.33 2.24 1.79
1.25 1.14 1.17 1.23 1.26 1.26 1.31 1.37 1.55 1.52 1.47 1.44 1.45 1.50 1.60 1.63 1.52 1.51 1.45 1.26 1.18 1.08 1.23 1.48 1.71 1.89 1.83 1.92 2.27 2.14 2.01 1.87 1.73 1.95 2.51 2.95 3.01 2.73 2.44 2.50 2.98 3.34 3.16
1.27 1.27 1.24 1.31 1.30 1.29 1.30 1.32 1.41 1.40 1.45 1.50 1.42 1.39 1.55 1.64 1.57 1.59 1.50 1.31 1.20 1.02 1.07 1.31 1.66 1.94 1.95 1.96 1.79 1.75 1.83 1.81 1.64 1.53 1.63 1.94 2.32 2.53 2.65 2.92 3.36 3.86 4.16
1.17 1.30 1.32 1.32 1.38 1.39 1.32 1.33 1.34 1.29 1.38 1.51 1.43 1.34 1.35 1.35 1.46 1.54 1.52 1.33 1.25 1.14 1.31 1.32 1.41 1.60 1.68 1.77 1.77 1.71 1.54 1.54 1.38 1.32 1.38 1.49 1.72 1.99 2.22 2.40 2.81 3.27 3.64
1.14 1.25 1.35 1.32 1.28 1.24 1.21 1.41 1.31 1.26 1.37 1.43 1.38 1.57 1.50 1.33 1.48 1.58 1.61 1.64 1.48 1.43 1.58 1.49 1.36 1.37 1.47 1.58 1.66 1.55 1.30 1.33 1.23 1.14 1.06 1.00 1.04 1.18 1.35 1.52 1.75 2.02 2.28
1.17 1.22 1.18 1.23 1.24 1.19 1.22 1.35 1.34 1.34 1.39 1.36 1.46 1.64 1.60 1.50 1.52 1.58 1.70 1.86 1.97 1.80 1.64 1.54 1.40 1.28 1.35 1.48 1.52 1.33 1.27 1.39 1.26 1.06 0.97 0.93 0.93 0.97 1.03 1.07 1.11 1.20 1.26
1.19 1.26 1.27 1.17 1.17 1.20 1.28 1.39 1.37 1.35 1.45 1.52 1.66 1.78 1.75 1.71 1.70 1.63 1.70 1.80 1.96 2.00 1.75 1.46 1.41 1.33 1.31 1.17 1.29 1.16 1.13 1.28 1.18 1.09 1.04 0.99 0.95 0.96 0.98 0.99 0.96 0.95 0.98
1.11 1.16 1.18 1.19 1.19 1.26 1.44 1.68 1.63 1.57 1.59 1.66 1.75 1.89 1.94 2.07 2.05 1.87 1.83 1.80 1.84 1.96 1.76 1.48 1.44 1.39 1.25 1.13 1.13 1.07 1.01 1.01 0.99 1.07 0.99 0.93 0.85 0.82 0.85 0.88 0.88 0.86 0.83
1.03 0.96 0.99 1.06 1.06 1.17 1.39 1.70 1.82 1.81 1.82 1.75 1.83 2.07 2.10 2.09 2.02 1.91 1.93 1.86 1.82 1.95 1.86 1.66 1.62 1.52 1.41 1.25 1.17 1.12 0.98 0.94 0.98 1.17 1.09 0.96 0.87 0.83 0.80 0.76 0.75 0.75 0.78
1.08 1.07 1.08 1.10 1.22 1.29 1.32 1.49 1.66 1.74 1.77 1.75 1.87 1.96 1.97 2.04 1.96 1.92 1.85 1.81 1.77 1.91 2.03 1.87 1.83 1.80 1.67 1.48 1.37 1.24 1.11 1.10 0.95 0.98 1.00 0.93 0.88 0.83 0.78 0.75 0.75 0.74 0.71
1.19 1.22 1.21 1.25 1.34 1.37 1.34 1.42 1.56 1.67 1.71 1.75 1.84 1.92 1.97 1.98 2.03 2.12 2.01 1.97 2.04 2.11 2.16 2.10 2.01 2.08 2.01 1.79 1.61 1.42 1.26 1.17 1.08 0.90 0.95 0.96 0.93 0.84 0.76 0.69 0.66 0.65 0.68
1.25 1.31 1.37 1.36 1.36 1.31 1.26 1.47 1.61 1.62 1.74 1.81 1.81 1.79 1.86 2.05 2.14 2.16 2.00 2.02 2.13 2.12 2.07 2.09 2.04 2.13 2.14 2.00 1.71 1.45 1.35 1.31 1.23 1.07 1.00 0.88 0.87 0.85 0.83 0.82 0.79 0.76 0.70
1.34 1.42 1.48 1.51 1.44 1.25 1.44 1.58 1.59 1.62 1.72 1.77 1.78 1.71 1.64 1.67 1.75 1.85 1.83 1.77 1.81 1.87 1.92 1.94 1.96 2.02 2.07 1.98 1.79 1.60 1.48 1.38 1.32 1.28 1.30 1.24 1.10 1.10 0.98 0.86 0.90 0.85 0.80
1.44 1.47 1.48 1.49 1.47 1.54 1.58 1.43 1.38 1.32 1.38 1.47 1.48 1.45 1.27 1.18 1.39 1.47 1.60 1.60 1.50 1.47 1.49 1.63 1.75 1.80 1.94 1.99 1.94 1.75 1.69 1.59 1.43 1.39 1.42 1.42 1.32 1.19 1.00 0.95 1.03 0.90 0.86
1.66 1.65 1.57 1.58 1.67 1.70 1.68 1.45 1.34 1.22 1.22 1.24 1.24 1.20 1.20 1.17 1.22 1.31 1.38 1.39 1.35 1.31 1.29 1.30 1.40 1.60 1.77 1.93 1.95 1.87 1.83 1.71 1.52 1.41 1.41 1.41 1.31 1.21 1.06 1.00 1.06 0.96 0.89
1.95 1.93 1.89 1.94 1.96 2.03 1.99 1.69 1.55 1.35 1.31 1.26 1.27 1.32 1.33 1.22 1.27 1.23 1.21 1.22 1.23 1.29 1.28 1.27 1.28 1.46 1.64 1.76 1.90 1.87 1.81 1.72 1.55 1.42 1.37 1.32 1.27 1.28 1.20 1.07 0.97 0.92 0.78
2.29 2.28 2.31 2.32 2.26 2.22 2.17 1.81 1.64 1.43 1.44 1.42 1.45 1.39 1.33 1.18 1.13 1.07 1.07 1.13 1.10 1.11 1.20 1.23 1.24 1.33 1.45 1.57 1.73 1.70 1.63 1.65 1.51 1.38 1.24 1.23 1.20 1.23 1.25 1.08 0.91 0.80 0.72

GEFSMA_prec_meanprecacc_228.txt.gz
Total_Precipitation_Accumulation
2.29 2.22 2.10 2.12 1.84 1.90 2.24 2.58 2.47 2.60 2.74 2.57 2.27 2.12 2.05 1.91 1.86 1.79 1.96 2.16 2.05 2.13 2.44 2.52 2.46 2.27 2.17 1.97 1.78 1.70 1.64 1.56 1.31 1.00 0.86 0.81 0.74 0.63 0.59 0.59 0.52 0.47 0.42
2.52 2.47 2.27 2.23 1.93 1.88 2.13 2.43 2.45 2.67 2.68 2.68 2.30 2.05 1.95 2.04 1.99 1.83 1.92 2.15 2.18 1.98 2.13 2.47 2.69 2.73 2.57 2.39 2.14 1.90 1.79 1.72 1.47 1.11 0.91 0.86 0.82 0.75 0.76 0.80 0.70 0.54 0.43
2.72 2.65 2.50 2.24 2.13 2.21 2.29 2.29 2.39 2.80 2.64 2.52 2.33 2.26 2.16 2.12 2.00 1.91 1.89 2.08 1.90 1.83 1.85 2.03 2.39 2.69 2.96 2.95 2.69 2.43 2.11 1.84 1.55 1.25 1.02 0.86 0.78 0.74 0.77 0.80 0.79 0.65 0.48
2.67 2.78 2.46 2.12 2.27 2.43 2.52 2.50 2.52 2.73 2.74 2.84 2.73 2.53 2.30 2.15 1.72 1.64 1.67 1.75 1.90 1.65 1.79 2.04 2.19 2.32 2.83 3.24 3.39 3.33 2.78 2.24 1.81 1.43 1.16 0.96 0.89 0.85 0.78 0.74 0.73 0.71 0.58
2.06 2.15 1.91 1.82 1.92 2.04 1.97 1.88 2.20 2.41 2.54 2.70 2.53 2.35 2.01 1.84 1.66 1.57 1.60 1.43 1.56 1.64 1.72 1.89 2.11 2.15 2.62 3.33 3.99 4.19 3.80 3.10 2.41 1.85 1.56 1.40 1.26 1.08 0.90 0.80 0.77 0.77 0.67
1.66 1.75 1.54 1.49 1.68 1.83 1.86 1.97 2.12 2.11 2.06 2.17 1.93 1.80 1.66 1.45 1.48 1.50 1.34 1.33 1.32 1.33 1.55 1.80 1.99 1.73 2.24 3.07 3.74 4.07 4.15 3.79 3.08 2.52 2.26 2.02 1.84 1.50 1.09 0.90 0.85 0.81 0.71
1.70 1.85 1.62 1.73 1.75 1.79 1.81 1.84 1.91 1.81 1.59 1.76 2.05 1.89 1.55 1.39 1.34 1.28 1.23 1.33 1.24 1.31 1.53 1.75 1.94 2.02 1.86 1.95 2.46 3.01 3.72 4.17 3.77 3.21 2.91 2.64 2.43 2.02 1.50 1.21 1.00 0.87 0.78
1.62 1.63 1.69 1.45 1.47 1.59 1.52 1.57 1.82 1.77 1.52 1.62 1.94 2.07 1.84 1.77 1.50 1.04 1.11 1.26 1.28 1.42 1.57 1.65 1.93 2.18 2.10 2.23 1.80 1.98 2.91 3.69 4.10 4.02 3.60 3.04 2.63 2.24 1.86 1.63 1.35 1.11 0.98
1.36 1.39 1.39 1.36 1.46 1.40 1.46 1.55 1.63 1.71 1.60 1.50 1.60 2.02 1.95 1.73 1.48 1.27 1.21 1.20 1.34 1.57 1.66 1.77 1.81 1.90 1.99 2.29 2.27 1.99 2.25 2.54 3.52 4.27 4.15 3.42 2.65 2.13 1.92 1.92 1.79 1.46 1.27
1.29 1.20 1.23 1.24 1.33 1.34 1.54 1.38 1.44 1.58 1.61 1.45 1.50 1.62 1.67 1.69 1.66 1.46 1.27 1.18 1.27 1.39 1.56 1.60 1.76 1.89 1.94 2.09 2.34 2.10 1.84 1.84 2.46 3.32 3.78 3.70 3.08 2.35 2.01 2.13 2.43 2.33 1.86
1.27 1.17 1.20 1.27 1.32 1.32 1.37 1.42 1.59 1.55 1.50 1.46 1.47 1.55 1.64 1.65 1.53 1.53 1.46 1.27 1.20 1.12 1.26 1.52 1.75 1.92 1.88 1.97 2.31 2.19 2.06 1.92 1.79 2.02 2.57 3.02 3.09 2.82 2.53 2.60 3.08 3.43 3.24
1.30 1.31 1.26 1.34 1.34 1.32 1.32 1.35 1.46 1.45 1.48 1.53 1.46 1.43 1.58 1.65 1.59 1.62 1.52 1.32 1.21 1.04 1.09 1.33 1.68 1.95 1.98 1.99 1.82 1.79 1.88 1.87 1.70 1.60 1.71 2.00 2.37 2.60 2.75 3.02 3.47 3.98 4.29
1.20 1.32 1.33 1.35 1.40 1.41 1.34 1.35 1.38 1.32 1.41 1.53 1.45 1.36 1.37 1.37 1.48 1.55 1.54 1.35 1.26 1.15 1.31 1.34 1.42 1.61 1.70 1.79 1.80 1.74 1.57 1.61 1.43 1.35 1.43 1.55 1.79 2.07 2.28 2.48 2.90 3.36 3.76
1.17 1.28 1.37 1.34 1.30 1.26 1.25 1.46 1.34 1.28 1.38 1.45 1.39 1.58 1.51 1.36 1.50 1.60 1.62 1.65 1.49 1.43 1.58 1.49 1.37 1.39 1.49 1.61 1.69 1.58 1.32 1.37 1.27 1.17 1.10 1.04 1.09 1.22 1.40 1.59 1.85 2.13 2.40
1.19 1.24 1.21 1.26 1.26 1.21 1.26 1.40 1.37 1.36 1.41 1.37 1.47 1.65 1.62 1.52 1.55 1.62 1.74 1.89 1.99 1.81 1.64 1.54 1.41 1.30 1.36 1.49 1.53 1.35 1.28 1.40 1.27 1.08 1.00 0.96 0.96 1.00 1.06 1.10 1.16 1.27 1.35
1.21 1.27 1.28 1.18 1.18 1.22 1.30 1.43 1.40 1.38 1.47 1.54 1.68 1.79 1.77 1.73 1.73 1.67 1.73 1.84 1.99 2.02 1.76 1.48 1.43 1.34 1.32 1.18 1.30 1.16 1.14 1.28 1.19 1.10 1.04 1.00 0.96 0.98 1.01 1.02 0.98 0.99 1.03
1.14 1.17 1.20 1.20 1.20 1.27 1.46 1.71 1.66 1.59 1.61 1.68 1.77 1.92 1.97 2.09 2.07 1.90 1.86 1.85 1.89 2.01 1.83 1.54 1.46 1.40 1.27 1.14 1.14 1.08 1.01 1.02 1.00 1.07 0.99 0.93 0.86 0.84 0.87 0.91 0.91 0.89 0.87
1.04 0.97 1.00 1.07 1.08 1.18 1.41 1.73 1.87 1.86 1.86 1.78 1.87 2.10 2.12 2.12 2.04 1.94 1.96 1.90 1.87 2.01 1.91 1.68 1.63 1.53 1.42 1.26 1.19 1.13 0.98 0.95 0.98 1.18 1.09 0.96 0.87 0.83 0.81 0.78 0.77 0.78 0.82
1.09 1.08 1.09 1.10 1.23 1.31 1.35 1.52 1.69 1.77 1.80 1.78 1.90 1.98 1.98 2.06 1.98 1.93 1.86 1.83 1.80 1.93 2.05 1.89 1.84 1.81 1.68 1.49 1.38 1.25 1.12 1.11 0.96 0.99 1.01 0.94 0.89 0.84 0.79 0.76 0.76 0.76 0.74
1.20 1.23 1.22 1.25 1.34 1.37 1.35 1.44 1.59 1.70 1.75 1.79 1.87 1.94 1.99 2.00 2.04 2.14 2.03 2.00 2.07 2.13 2.18 2.12 2.02 2.09 2.01 1.80 1.62 1.43 1.27 1.18 1.09 0.91 0.96 0.97 0.94 0.85 0.78 0.72 0.69 0.70 0.74
1.27 1.33 1.38 1.37 1.36 1.31 1.27 1.49 1.63 1.63 1.76 1.82 1.83 1.80 1.88 2.07 2.15 2.18 2.02 2.04 2.16 2.13 2.09 2.10 2.06 2.14 2.14 2.01 1.72 1.46 1.36 1.32 1.23 1.07 1.00 0.89 0.88 0.87 0.86 0.85 0.83 0.81 0.76
1.36 1.44 1.50 1.52 1.44 1.26 1.46 1.59 1.60 1.64 1.73 1.79 1.79 1.72 1.65 1.68 1.76 1.87 1.86 1.80 1.82 1.87 1.93 1.94 1.97 2.04 2.08 1.99 1.80 1.61 1.49 1.39 1.33 1.29 1.32 1.26 1.12 1.13 1.01 0.89 0.93 0.89 0.84
1.49 1.51 1.50 1.50 1.48 1.55 1.60 1.46 1.41 1.34 1.40 1.48 1.49 1.46 1.28 1.19 1.41 1.49 1.63 1.62 1.51 1.48 1.50 1.64 1.77 1.81 1.95 2.00 1.95 1.76 1.70 1.60 1.44 1.40 1.44 1.45 1.35 1.23 1.05 1.00 1.08 0.94 0.89
1.75 1.70 1.60 1.60 1.68 1.72 1.72 1.48 1.36 1.23 1.24 1.25 1.25 1.21 1.21 1.18 1.23 1.33 1.40 1.40 1.36 1.32 1.31 1.32 1.41 1.61 1.78 1.95 1.97 1.89 1.84 1.72 1.54 1.43 1.43 1.44 1.33 1.24 1.10 1.04 1.09 0.98 0.91
2.05 1.98 1.93 1.97 1.99 2.06 2.02 1.72 1.58 1.37 1.32 1.27 1.28 1.33 1.34 1.23 1.28 1.24 1.22 1.24 1.24 1.30 1.30 1.28 1.30 1.47 1.65 1.77 1.92 1.89 1.82 1.73 1.56 1.44 1.39 1.35 1.28 1.29 1.22 1.08 0.98 0.93 0.79
2.38 2.36 2.38 2.40 2.33 2.28 2.21 1.85 1.69 1.47 1.46 1.44 1.46 1.40 1.33 1.19 1.14 1.08 1.07 1.14 1.11 1.12 1.21 1.24 1.25 1.34 1.46 1.59 1.75 1.72 1.64 1.66 1.52 1.39 1.25 1.25 1.22 1.24 1.26 1.09 0.92 0.80 0.72

GEFSMA_prec_meanprecacc_234.txt.gz
Total_Precipitation_Accumulation
2.34 2.27 2.14 2.17 1.90 1.95 2.29 2.63 2.52 2.64 2.79 2.61 2.31 2.16 2.11 1.96 1.90 1.84 2.01 2.21 2.10 2.17 2.49 2.57 2.51 2.32 2.21 2.01 1.82 1.75 1.69 1.59 1.35 1.05 0.91 0.86 0.77 0.66 0.62 0.61 0.53 0.48 0.43
2.57 2.51 2.32 2.29 1.98 1.91 2.17 2.47 2.50 2.72 2.74 2.73 2.34 2.09 1.99 2.09 2.05 1.88 1.97 2.22 2.23 2.03 2.17 2.52 2.74 2.78 2.62 2.45 2.21 1.97 1.87 1.78 1.50 1.13 0.93 0.89 0.85 0.78 0.79 0.83 0.72 0.56 0.44
2.79 2.70 2.55 2.30 2.18 2.24 2.32 2.32 2.43 2.85 2.68 2.57 2.37 2.30 2.20 2.17 2.05 1.95 1.94 2.13 1.97 1.89 1.91 2.08 2.44 2.75 3.02 3.01 2.76 2.51 2.19 1.91 1.60 1.29 1.06 0.90 0.81 0.77 0.79 0.83 0.81 0.67 0.50
2.73 2.83 2.51 2.18 2.32 2.47 2.56 2.55 2.58 2.78 2.79 2.89 2.79 2.59 2.35 2.20 1.75 1.67 1.71 1.79 1.97 1.72 1.85 2.09 2.26 2.40 2.90 3.31 3.47 3.42 2.88 2.32 1.88 1.49 1.23 1.04 0.95 0.88 0.80 0.75 0.76 0.74 0.60
2.09 2.19 1.97 1.89 1.98 2.09 2.03 1.93 2.26 2.49 2.62 2.78 2.59 2.41 2.06 1.88 1.70 1.60 1.64 1.46 1.61 1.70 1.78 1.94 2.16 2.20 2.68 3.42 4.11 4.31 3.91 3.21 2.51 1.93 1.64 1.49 1.35 1.15 0.95 0.84 0.81 0.82 0.70
1.69 1.79 1.59 1.54 1.72 1.88 1.93 2.04 2.21 2.19 2.15 2.25 1.98 1.84 1.70 1.49 1.53 1.55 1.38 1.37 1.36 1.37 1.59 1.85 2.05 1.78 2.29 3.14 3.83 4.17 4.27 3.91 3.20 2.63 2.37 2.13 1.94 1.59 1.17 0.97 0.91 0.87 0.76
1.74 1.91 1.66 1.77 1.80 1.84 1.86 1.90 1.97 1.87 1.65 1.82 2.11 1.95 1.59 1.42 1.40 1.33 1.29 1.39 1.28 1.34 1.56 1.78 1.98 2.08 1.92 1.99 2.50 3.06 3.79 4.26 3.88 3.33 3.02 2.75 2.53 2.12 1.59 1.31 1.08 0.94 0.83
1.67 1.68 1.75 1.51 1.52 1.65 1.59 1.64 1.90 1.83 1.57 1.68 2.02 2.15 1.90 1.82 1.54 1.07 1.15 1.29 1.32 1.45 1.60 1.67 1.96 2.22 2.15 2.31 1.84 2.01 2.96 3.77 4.21 4.13 3.69 3.11 2.70 2.30 1.92 1.71 1.43 1.17 1.04
1.40 1.44 1.46 1.45 1.55 1.49 1.54 1.64 1.72 1.79 1.67 1.55 1.66 2.10 2.02 1.81 1.55 1.32 1.23 1.23 1.36 1.59 1.69 1.80 1.83 1.93 2.03 2.34 2.32 2.03 2.30 2.59 3.58 4.34 4.23 3.49 2.71 2.19 1.98 2.02 1.89 1.53 1.32
1.32 1.23 1.28 1.30 1.42 1.42 1.61 1.44 1.49 1.65 1.68 1.50 1.55 1.68 1.74 1.76 1.72 1.51 1.31 1.21 1.29 1.41 1.59 1.64 1.80 1.94 1.98 2.15 2.40 2.15 1.87 1.88 2.50 3.37 3.84 3.77 3.14 2.43 2.10 2.22 2.51 2.40 1.92
1.31 1.20 1.24 1.33 1.39 1.41 1.46 1.48 1.65 1.62 1.57 1.53 1.54 1.62 1.69 1.69 1.58 1.58 1.52 1.31 1.23 1.14 1.29 1.54 1.77 1.94 1.89 2.01 2.37 2.22 2.09 1.96 1.83 2.05 2.61 3.06 3.14 2.88 2.59 2.66 3.14 3.49 3.30
1.35 1.35 1.30 1.39 1.38 1.38 1.38 1.41 1.53 1.54 1.56 1.62 1.53 1.49 1.63 1.70 1.65 1.67 1.58 1.37 1.25 1.07 1.11 1.34 1.69 1.96 1.99 2.01 1.85 1.81 1.90 1.91 1.74 1.63 1.73 2.02 2.39 2.63 2.79 3.07 3.53 4.04 4.35
1.24 1.36 1.36 1.39 1.45 1.46 1.37 1.39 1.44 1.39 1.47 1.62 1.56 1.45 1.44 1.43 1.53 1.60 1.59 1.40 1.30 1.17 1.33 1.35 1.42 1.62 1.71 1.82 1.84 1.75 1.59 1.63 1.44 1.36 1.43 1.55 1.79 2.08 2.32 2.52 2.95 3.43 3.83
1.21 1.31 1.40 1.38 1.34 1.29 1.28 1.50 1.39 1.33 1.43 1.50 1.44 1.66 1.60 1.43 1.56 1.65 1.67 1.71 1.54 1.47 1.61 1.52 1.38 1.39 1.49 1.62 1.71 1.60 1.34 1.39 1.28 1.18 1.10 1.05 1.10 1.24 1.42 1.61 1.88 2.19 2.47
1.24 1.29 1.25 1.31 1.31 1.25 1.30 1.45 1.43 1.40 1.44 1.42 1.51 1.71 1.68 1.60 1.62 1.67 1.80 1.97 2.09 1.89 1.70 1.58 1.42 1.31 1.38 1.51 1.55 1.36 1.29 1.41 1.28 1.08 1.00 0.97 0.97 1.00 1.06 1.10 1.17 1.28 1.38
1.25 1.31 1.32 1.22 1.21 1.25 1.33 1.46 1.44 1.43 1.52 1.59 1.72 1.84 1.82 1.78 1.78 1.71 1.77 1.90 2.07 2.10 1.83 1.51 1.46 1.36 1.35 1.20 1.32 1.18 1.14 1.28 1.19 1.10 1.04 1.00 0.97 0.98 1.01 1.02 0.99 0.99 1.04
1.16 1.20 1.21 1.22 1.22 1.29 1.48 1.74 1.68 1.63 1.66 1.71 1.80 1.96 2.01 2.12 2.11 1.95 1.91 1.90 1.95 2.07 1.89 1.59 1.50 1.42 1.30 1.16 1.16 1.09 1.02 1.02 1.00 1.08 0.99 0.93 0.86 0.84 0.87 0.91 0.91 0.90 0.87
1.06 0.98 1.01 1.09 1.09 1.20 1.43 1.76 1.89 1.89 1.91 1.85 1.92 2.13 2.16 2.15 2.08 1.98 2.00 1.94 1.91 2.05 1.96 1.72 1.65 1.54 1.44 1.28 1.20 1.15 1.00 0.96 0.99 1.19 1.10 0.96 0.88 0.84 0.81 0.78 0.77 0.79 0.82
1.11 1.09 1.10 1.12 1.24 1.33 1.37 1.54 1.71 1.78 1.82 1.81 1.94 2.02 2.02 2.09 2.02 1.97 1.90 1.86 1.83 1.97 2.09 1.92 1.86 1.83 1.69 1.50 1.39 1.26 1.13 1.12 0.96 0.99 1.01 0.94 0.89 0.84 0.80 0.76 0.76 0.76 0.75
1.21 1.25 1.24 1.27 1.36 1.39 1.36 1.46 1.61 1.72 1.77 1.80 1.89 1.98 2.03 2.03 2.07 2.17 2.06 2.03 2.10 2.17 2.22 2.14 2.04 2.11 2.03 1.81 1.63 1.44 1.27 1.18 1.09 0.91 0.96 0.98 0.94 0.85 0.78 0.72 0.69 0.70 0.74
1.28 1.34 1.40 1.39 1.39 1.33 1.29 1.50 1.65 1.65 1.78 1.85 1.85 1.82 1.90 2.09 2.17 2.20 2.04 2.07 2.19 2.17 2.12 2.13 2.08 2.17 2.16 2.02 1.73 1.47 1.37 1.33 1.24 1.07 1.00 0.89 0.89 0.87 0.86 0.85 0.83 0.81 0.76
1.39 1.46 1.52 1.53 1.45 1.27 1.47 1.60 1.62 1.65 1.75 1.80 1.80 1.73 1.66 1.69 1.77 1.89 1.89 1.83 1.86 1.91 1.97 1.99 2.01 2.07 2.10 2.00 1.82 1.63 1.51 1.40 1.34 1.30 1.32 1.26 1.13 1.13 1.02 0.90 0.93 0.89 0.84
1.52 1.53 1.52 1.52 1.48 1.56 1.61 1.48 1.42 1.35 1.41 1.49 1.49 1.47 1.28 1.20 1.43 1.52 1.66 1.65 1.54 1.51 1.54 1.69 1.81 1.84 1.98 2.02 1.97 1.77 1.71 1.61 1.45 1.41 1.45 1.46 1.36 1.24 1.06 1.01 1.09 0.94 0.89
1.79 1.73 1.62 1.62 1.69 1.72 1.72 1.49 1.37 1.24 1.24 1.26 1.25 1.22 1.22 1.20 1.26 1.37 1.43 1.43 1.39 1.35 1.34 1.36 1.46 1.65 1.82 1.98 1.99 1.91 1.86 1.73 1.55 1.44 1.44 1.46 1.35 1.26 1.11 1.05 1.10 0.99 0.92
2.11 2.02 1.96 1.98 1.99 2.06 2.02 1.72 1.58 1.37 1.33 1.28 1.29 1.34 1.36 1.25 1.30 1.27 1.26 1.27 1.27 1.33 1.34 1.32 1.33 1.49 1.67 1.79 1.94 1.92 1.85 1.74 1.58 1.46 1.41 1.37 1.30 1.31 1.24 1.10 0.99 0.94 0.79
2.43 2.39 2.41 2.43 2.35 2.29 2.22 1.86 1.69 1.48 1.47 1.45 1.49 1.43 1.36 1.21 1.16 1.11 1.10 1.18 1.15 1.16 1.25 1.27 1.27 1.36 1.48 1.61 1.77 1.74 1.67 1.68 1.54 1.41 1.27 1.26 1.24 1.26 1.28 1.11 0.93 0.81 0.73

GEFSMA_prec_meanprecacc_240.txt.gz
Total_Precipitation_Accumulation
2.46 2.38 2.25 2.28 1.98 2.02 2.36 2.70 2.57 2.71 2.85 2.65 2.33 2.18 2.14 1.99 1.93 1.86 2.04 2.24 2.12 2.20 2.52 2.59 2.53 2.33 2.24 2.04 1.87 1.80 1.73 1.63 1.39 1.08 0.93 0.87 0.79 0.68 0.64 0.63 0.56 0.49 0.44
2.67 2.61 2.42 2.37 2.05 1.96 2.21 2.52 2.54 2.78 2.79 2.78 2.38 2.11 2.02 2.13 2.09 1.93 2.02 2.28 2.29 2.07 2.21 2.54 2.76 2.80 2.64 2.48 2.25 2.01 1.91 1.83 1.54 1.16 0.95 0.90 0.87 0.80 0.81 0.84 0.73 0.58 0.45
2.87 2.80 2.64 2.37 2.22 2.27 2.35 2.37 2.48 2.91 2.73 2.61 2.41 2.33 2.24 2.21 2.08 2.00 2.00 2.20 2.04 1.95 1.95 2.11 2.46 2.77 3.05 3.05 2.80 2.56 2.24 1.95 1.63 1.31 1.08 0.93 0.83 0.79 0.81 0.85 0.84 0.69 0.52
2.78 2.92 2.59 2.23 2.36 2.50 2.59 2.60 2.62 2.83 2.85 2.94 2.83 2.65 2.41 2.26 1.81 1.73 1.77 1.87 2.06 1.78 1.91 2.13 2.28 2.42 2.94 3.35 3.50 3.46 2.92 2.36 1.92 1.52 1.27 1.08 0.98 0.91 0.83 0.79 0.78 0.77 0.63
2.14 2.24 2.03 1.93 2.00 2.13 2.09 1.97 2.31 2.55 2.70 2.86 2.64 2.47 2.12 1.93 1.76 1.66 1.70 1.53 1.71 1.80 1.86 1.98 2.20 2.24 2.73 3.46 4.15 4.37 3.97 3.25 2.56 1.97 1.69 1.53 1.39 1.19 0.99 0.89 0.86 0.86 0.74
1.73 1.83 1.64 1.58 1.76 1.94 1.99 2.11 2.28 2.27 2.23 2.32 2.02 1.91 1.76 1.54 1.59 1.61 1.47 1.44 1.44 1.47 1.70 1.92 2.12 1.84 2.34 3.19 3.89 4.25 4.34 3.97 3.26 2.69 2.42 2.18 2.00 1.66 1.23 1.02 0.96 0.91 0.80
1.78 1.96 1.70 1.84 1.85 1.91 1.93 1.96 2.06 1.98 1.74 1.89 2.20 2.03 1.65 1.48 1.45 1.39 1.37 1.46 1.34 1.43 1.67 1.89 2.08 2.20 2.02 2.05 2.55 3.12 3.87 4.35 3.97 3.39 3.07 2.79 2.59 2.18 1.64 1.37 1.14 0.99 0.89
1.72 1.73 1.81 1.56 1.59 1.72 1.67 1.71 2.00 1.93 1.67 1.77 2.13 2.25 2.00 1.93 1.64 1.15 1.24 1.38 1.37 1.50 1.66 1.75 2.05 2.31 2.26 2.43 1.92 2.06 3.02 3.82 4.28 4.21 3.76 3.16 2.74 2.34 1.96 1.75 1.48 1.23 1.11
1.42 1.47 1.49 1.50 1.60 1.53 1.61 1.71 1.80 1.89 1.78 1.65 1.74 2.21 2.15 1.95 1.67 1.41 1.29 1.29 1.40 1.63 1.73 1.84 1.88 2.00 2.10 2.44 2.41 2.09 2.34 2.63 3.63 4.40 4.29 3.55 2.75 2.22 2.01 2.05 1.94 1.60 1.41
1.36 1.27 1.31 1.34 1.46 1.47 1.68 1.50 1.58 1.76 1.80 1.61 1.64 1.78 1.83 1.85 1.84 1.62 1.38 1.26 1.33 1.44 1.62 1.66 1.84 2.00 2.04 2.22 2.46 2.18 1.89 1.89 2.53 3.40 3.88 3.81 3.18 2.46 2.13 2.26 2.56 2.44 1.96
1.34 1.22 1.26 1.36 1.43 1.47 1.51 1.53 1.74 1.71 1.65 1.63 1.64 1.71 1.77 1.77 1.67 1.68 1.61 1.37 1.28 1.18 1.32 1.56 1.80 1.99 1.94 2.06 2.41 2.23 2.11 1.97 1.84 2.06 2.62 3.08 3.17 2.92 2.63 2.70 3.19 3.54 3.34
1.38 1.37 1.31 1.41 1.41 1.43 1.43 1.45 1.59 1.61 1.64 1.70 1.62 1.57 1.71 1.79 1.72 1.76 1.68 1.46 1.33 1.14 1.15 1.36 1.71 1.99 2.03 2.05 1.87 1.83 1.91 1.91 1.75 1.64 1.74 2.03 2.40 2.65 2.82 3.12 3.58 4.09 4.40
1.28 1.41 1.39 1.42 1.47 1.49 1.41 1.45 1.49 1.46 1.54 1.68 1.63 1.52 1.51 1.50 1.59 1.68 1.69 1.50 1.39 1.22 1.36 1.37 1.44 1.63 1.73 1.85 1.86 1.77 1.60 1.64 1.45 1.36 1.44 1.56 1.80 2.09 2.32 2.54 2.97 3.47 3.88
1.25 1.34 1.43 1.41 1.36 1.32 1.31 1.57 1.45 1.38 1.48 1.55 1.50 1.73 1.67 1.48 1.61 1.71 1.74 1.79 1.63 1.54 1.66 1.55 1.39 1.41 1.52 1.65 1.74 1.63 1.36 1.40 1.28 1.18 1.10 1.05 1.10 1.24 1.42 1.62 1.89 2.19 2.48
1.27 1.32 1.28 1.35 1.35 1.28 1.33 1.49 1.48 1.45 1.50 1.48 1.58 1.77 1.74 1.66 1.67 1.72 1.86 2.04 2.17 1.98 1.79 1.63 1.45 1.33 1.40 1.53 1.58 1.38 1.31 1.44 1.30 1.09 1.00 0.97 0.97 1.00 1.06 1.11 1.17 1.29 1.38
1.29 1.34 1.35 1.25 1.25 1.28 1.36 1.50 1.49 1.46 1.56 1.64 1.78 1.89 1.87 1.84 1.83 1.75 1.82 1.96 2.14 2.19 1.92 1.57 1.50 1.39 1.37 1.22 1.35 1.20 1.16 1.30 1.20 1.10 1.05 1.00 0.97 0.98 1.01 1.02 0.99 1.00 1.04
1.19 1.22 1.23 1.24 1.24 1.31 1.51 1.77 1.72 1.67 1.69 1.75 1.84 2.01 2.07 2.18 2.16 2.00 1.96 1.95 2.01 2.14 1.96 1.66 1.57 1.48 1.34 1.19 1.18 1.11 1.04 1.03 1.01 1.09 1.00 0.94 0.86 0.84 0.88 0.91 0.91 0.90 0.88
1.09 1.00 1.03 1.11 1.11 1.22 1.47 1.79 1.92 1.91 1.93 1.88 1.96 2.19 2.22 2.21 2.13 2.03 2.05 1.99 1.98 2.14 2.03 1.79 1.72 1.61 1.49 1.32 1.23 1.16 1.01 0.96 1.00 1.20 1.11 0.97 0.88 0.84 0.81 0.78 0.77 0.79 0.83
1.14 1.12 1.13 1.15 1.27 1.34 1.39 1.57 1.74 1.82 1.86 1.85 1.98 2.06 2.06 2.13 2.05 2.01 1.93 1.89 1.87 2.02 2.15 1.98 1.92 1.89 1.73 1.54 1.43 1.28 1.14 1.13 0.97 1.00 1.02 0.95 0.90 0.84 0.80 0.76 0.76 0.76 0.75
1.25 1.28 1.28 1.30 1.39 1.42 1.38 1.48 1.63 1.74 1.80 1.84 1.91 2.00 2.05 2.05 2.09 2.19 2.08 2.05 2.12 2.20 2.27 2.20 2.10 2.16 2.06 1.83 1.66 1.47 1.29 1.20 1.10 0.92 0.96 0.98 0.94 0.86 0.78 0.72 0.70 0.70 0.74
1.31 1.38 1.44 1.43 1.42 1.36 1.31 1.52 1.66 1.67 1.81 1.87 1.87 1.84 1.92 2.11 2.19 2.22 2.05 2.09 2.22 2.20 2.15 2.18 2.13 2.22 2.21 2.06 1.75 1.49 1.39 1.34 1.25 1.08 1.01 0.89 0.89 0.87 0.86 0.85 0.84 0.81 0.76
1.42 1.50 1.56 1.58 1.50 1.32 1.50 1.62 1.64 1.67 1.77 1.81 1.81 1.74 1.67 1.70 1.78 1.89 1.89 1.85 1.88 1.94 1.99 2.02 2.05 2.12 2.15 2.04 1.84 1.65 1.53 1.42 1.35 1.31 1.33 1.27 1.14 1.14 1.02 0.90 0.93 0.89 0.85
1.55 1.58 1.56 1.56 1.53 1.59 1.64 1.49 1.43 1.36 1.42 1.50 1.50 1.47 1.29 1.20 1.44 1.53 1.67 1.66 1.55 1.53 1.56 1.71 1.84 1.87 2.02 2.06 2.01 1.81 1.74 1.64 1.48 1.43 1.47 1.47 1.38 1.25 1.07 1.01 1.09 0.94 0.89
1.81 1.76 1.65 1.65 1.73 1.75 1.75 1.50 1.38 1.24 1.25 1.27 1.26 1.23 1.23 1.21 1.27 1.38 1.45 1.45 1.40 1.36 1.36 1.38 1.48 1.69 1.87 2.04 2.04 1.95 1.90 1.77 1.59 1.47 1.46 1.48 1.38 1.28 1.13 1.06 1.10 0.99 0.92
2.14 2.06 1.99 2.02 2.03 2.10 2.05 1.75 1.60 1.38 1.34 1.29 1.30 1.35 1.37 1.26 1.31 1.28 1.28 1.29 1.30 1.35 1.36 1.34 1.35 1.52 1.71 1.82 1.97 1.95 1.88 1.77 1.61 1.49 1.44 1.39 1.33 1.35 1.27 1.11 0.99 0.94 0.80
2.47 2.43 2.45 2.47 2.39 2.34 2.27 1.89 1.72 1.50 1.49 1.47 1.51 1.44 1.37 1.22 1.17 1.12 1.12 1.20 1.17 1.19 1.29 1.31 1.29 1.38 1.50 1.63 1.79 1.76 1.69 1.71 1.57 1.45 1.31 1.30 1.28 1.31 1.32 1.14 0.95 0.82 0.74